# Wetter Temperatur Luftdruck Luftfeuchtigkeit Sichtweite Windgeschwindigkeit Windrichtung Zeit
1 Clear -26 1024 76 10000 1 0 15:23 01.02.2023
2 Clear -24 1023 70 10000 3 170 13:20 01.02.2023
3 Clear -24 1023 70 10000 3 170 12:59 01.02.2023
4 Clear -20 1023 71 10000 2 0 11:57 01.02.2023
5 Clear -14 1023 56 8000 1 0 09:38 01.02.2023
6 Clouds -27 1028 69 6000 1 0 03:18 01.02.2023
7 Clouds -25 1048 95 10000 1.54 93 21:44 31.01.2023
8 Clouds -30 1029 69 8000 2 0 20:20 31.01.2023
9 Clear -27 1029 69 8000 1 0 18:50 31.01.2023
10 Clear -26 1028 70 10000 3 170 16:20 31.01.2023
11 Clear -26 1028 70 10000 2 0 15:36 31.01.2023
12 Clear -26 1028 70 10000 2 0 15:18 31.01.2023
13 Clear -18 1027 65 10000 2 0 12:24 31.01.2023
14 Clear -16 1026 60 10000 3 320 11:21 31.01.2023
15 Clouds -12 1024 56 10000 6 340 09:54 31.01.2023
16 Clouds -12 1023 61 10000 8 340 08:59 31.01.2023
17 Clouds -12 1023 61 10000 8 340 08:35 31.01.2023
18 Clouds -12 1022 67 10000 5 340 05:44 31.01.2023
19 Clouds -19 1014 71 10000 4 290 23:57 30.01.2023
20 Clouds -21 1013 77 10000 1 0 22:51 30.01.2023
21 Clouds -21 1013 77 10000 1 0 22:30 30.01.2023
22 Clouds -22 1012 77 10000 2 0 20:59 30.01.2023
23 Clouds -22 1012 77 10000 2 0 20:27 30.01.2023
24 Clouds -23 1012 64 8000 0 0 17:50 30.01.2023
25 Clear -23 1011 70 8000 2 0 16:33 30.01.2023
26 Clouds -18 1011 78 8000 1 0 14:27 30.01.2023
27 Clouds -18 1010 71 10000 2 0 12:26 30.01.2023
28 Clouds -15 1010 66 10000 0 0 11:27 30.01.2023
29 Clouds -11 1009 62 8000 2 0 09:54 30.01.2023
30 Clouds -12 1009 67 8000 3 190 08:54 30.01.2023
31 Clouds -15 1009 72 6000 1 0 06:46 30.01.2023
32 Clouds -27 1010 69 8000 2 0 01:39 30.01.2023
33 Clouds -27 1009 76 8000 0 0 23:35 29.01.2023
34 Clouds -27 1010 76 8000 1 0 22:37 29.01.2023
35 Clouds -27 1010 76 8000 1 0 21:40 29.01.2023
36 Clouds -26 1011 76 8000 1 0 20:36 29.01.2023
37 Clouds -25 1010 70 8000 0 0 19:34 29.01.2023
38 Clouds -25 1011 77 8000 1 0 18:44 29.01.2023
39 Clear -23 1012 77 10000 1 0 17:35 29.01.2023
40 Clear -22 1012 84 10000 0 0 16:21 29.01.2023
41 Clear -22 1012 71 10000 2 0 14:48 29.01.2023
42 Clear -20 1012 71 10000 1 0 13:26 29.01.2023
43 Clear -19 1012 71 10000 2 0 12:40 29.01.2023
44 Clear -19 1012 71 10000 2 0 12:22 29.01.2023
45 Clear -15 1013 72 10000 1 0 11:45 29.01.2023
46 Clear -15 1013 72 10000 1 0 11:25 29.01.2023
47 Clear -7 1013 49 6000 0 0 08:56 29.01.2023
48 Clear -11 1014 62 6000 0 0 07:18 29.01.2023
49 Clear -25 1015 77 6000 1 0 00:59 29.01.2023
50 Clear -23 1015 77 6000 0 0 21:57 28.01.2023
51 Clear -23 1015 77 8000 1 0 20:34 28.01.2023
52 Clear -23 1015 84 10000 1 0 19:47 28.01.2023
53 Clear -23 1015 77 10000 2 0 18:23 28.01.2023
54 Clear -21 1016 77 10000 1 0 16:59 28.01.2023
55 Clear -21 1016 77 10000 1 0 16:20 28.01.2023
56 Clear -21 1016 77 10000 1 0 16:20 28.01.2023
57 Clear -19 1016 78 10000 3 170 15:38 28.01.2023
58 Clear -20 1015 71 10000 2 0 14:21 28.01.2023
59 Clear -18 1014 71 10000 3 170 12:49 28.01.2023
60 Clear -10 1013 62 10000 1 0 11:54 28.01.2023
61 Clear -9 1012 57 10000 5 250 10:34 28.01.2023
62 Clouds -14 1012 61 6000 1 0 06:52 28.01.2023
63 Clear -31 1014 69 6000 1 0 01:36 28.01.2023
64 Clear -29 1014 69 8000 1 0 00:23 28.01.2023
65 Clear -29 1018 76 8000 0 0 20:57 27.01.2023
66 Clear -29 1019 69 8000 1 0 18:25 27.01.2023
67 Clear -26 1020 70 8000 2 0 17:54 27.01.2023
68 Clear -26 1020 70 8000 2 0 17:18 27.01.2023
69 Clear -28 1020 63 8000 0 0 16:34 27.01.2023
70 Clear -28 1021 69 10000 2 0 14:55 27.01.2023
71 Clear -28 1021 69 10000 2 0 14:24 27.01.2023
72 Clear -22 1021 64 10000 1 0 12:49 27.01.2023
73 Clear -16 1022 51 10000 2 0 08:41 27.01.2023
74 Clear -26 1023 76 8000 1 0 04:55 27.01.2023
75 Clouds -33 1024 68 8000 1 0 22:54 26.01.2023
76 Clouds -32 1025 68 8000 1 0 21:39 26.01.2023
77 Clouds -32 1025 68 8000 1 0 20:36 26.01.2023
78 Clouds -33 1026 68 8000 1 0 19:21 26.01.2023
79 Clouds -31 1027 69 8000 1 0 17:42 26.01.2023
80 Clouds -32 1027 75 8000 0 0 16:27 26.01.2023
81 Clouds -32 1027 75 8000 0 0 15:55 26.01.2023
82 Clouds -28 1028 76 8000 0 0 15:31 26.01.2023
83 Clear -27 1028 69 10000 0 0 14:50 26.01.2023
84 Clear -27 1028 69 10000 1 0 12:48 26.01.2023
85 Clear -24 1027 64 10000 2 0 11:31 26.01.2023
86 Clear -21 1027 59 10000 2 0 10:30 26.01.2023
87 Clear -21 1027 65 10000 4 210 09:44 26.01.2023
88 Clear -20 1026 59 10000 2 0 08:25 26.01.2023
89 Clouds -22 1026 71 8000 2 0 06:26 26.01.2023
90 Clouds -35 1022 61 8000 2 0 23:39 25.01.2023
91 Clouds -36 1022 68 8000 1 0 22:21 25.01.2023
92 Clouds -35 1021 68 8000 1 0 21:24 25.01.2023
93 Clear -34 1020 68 10000 1 0 19:50 25.01.2023
94 Clear -32 1020 68 10000 1 0 18:24 25.01.2023
95 Clear -32 1020 68 10000 1 0 18:24 25.01.2023
96 Clear -29 1019 69 10000 0 0 15:55 25.01.2023
97 Clear -29 1017 63 10000 0 0 13:46 25.01.2023
98 Clear -24 1015 58 10000 5 170 11:25 25.01.2023
99 Clear -20 1014 59 10000 3 250 09:52 25.01.2023
100 Clouds -20 1013 54 8000 1 0 07:59 25.01.2023
101 Clouds -32 1012 62 6000 1 0 01:53 25.01.2023
102 Clouds -32 1011 62 6000 1 0 00:26 25.01.2023
103 Clouds -34 1010 68 6000 0 0 21:54 24.01.2023
104 Clouds -34 1010 68 6000 0 0 21:26 24.01.2023
105 Clouds -32 1010 68 6000 1 0 19:18 24.01.2023
106 Clouds -30 1010 63 6000 0 0 18:29 24.01.2023
107 Clouds -31 1010 69 6000 0 0 17:18 24.01.2023
108 Clouds -31 1011 62 6000 1 0 16:43 24.01.2023
109 Clouds -28 1011 63 6000 2 0 13:51 24.01.2023
110 Clouds -24 1012 53 6000 1 0 11:59 24.01.2023
111 Clouds -25 1014 58 6000 1 0 08:53 24.01.2023
112 Clouds -25 1014 58 6000 1 0 08:19 24.01.2023
113 Clouds -28 1014 63 6000 2 0 07:49 24.01.2023
114 Clouds -39 1020 60 6000 0 0 02:48 24.01.2023
115 Clouds -41 1022 60 6000 1 0 00:41 24.01.2023
116 Clouds -40 1025 60 6000 1 0 22:38 23.01.2023
117 Smoke -40 1028 54 5000 2 0 20:54 23.01.2023
118 Clear -41 1029 60 6000 1 0 19:24 23.01.2023
119 Clear -39 1031 60 6000 1 0 17:29 23.01.2023
120 Clear -38 1034 61 8000 1 0 15:32 23.01.2023
121 Clear -37 1035 61 10000 2 0 13:57 23.01.2023
122 Clear -36 1036 55 10000 1 0 12:58 23.01.2023
123 Clear -36 1036 55 10000 1 0 12:34 23.01.2023
124 Clear -32 1036 51 10000 2 0 11:29 23.01.2023
125 Clear -30 1036 57 10000 4 210 08:25 23.01.2023
126 Clear -30 1036 57 10000 4 210 08:25 23.01.2023
127 Clear -40 1036 60 10000 0 0 00:27 23.01.2023
128 Clear -37 1036 55 10000 1 0 22:49 22.01.2023
129 Clear -35 1036 56 10000 2 0 21:19 22.01.2023
130 Clear -37 1036 61 10000 2 0 20:24 22.01.2023
131 Clear -37 1035 61 10000 3 320 19:45 22.01.2023
132 Clear -35 1035 56 10000 1 0 18:49 22.01.2023
133 Clear -35 1034 56 10000 3 280 17:56 22.01.2023
134 Clear -35 1034 56 10000 3 280 17:25 22.01.2023
135 Clear -32 1033 51 10000 4 10 15:51 22.01.2023
136 Clear -33 1033 56 10000 3 340 14:54 22.01.2023
137 Clear -34 1032 56 10000 4 320 13:39 22.01.2023
138 Clear -32 1031 56 10000 5 340 12:34 22.01.2023
139 Clear -32 1030 56 10000 4 340 11:35 22.01.2023
140 Clear -29 1028 52 10000 6 330 09:35 22.01.2023
141 Clouds -27 1026 52 10000 5 320 06:40 22.01.2023
142 Clouds -32 1023 62 10000 1 0 02:27 22.01.2023
143 Clouds -29 1021 63 10000 1 0 23:32 21.01.2023
144 Clouds -30 1020 69 10000 2 0 22:18 21.01.2023
145 Clouds -27 1018 69 10000 2 0 19:48 21.01.2023
146 Clouds -29 1018 69 10000 1 0 17:40 21.01.2023
147 Clouds -23 1016 70 10000 2 0 14:37 21.01.2023
148 Clouds -26 1014 64 10000 2 0 12:57 21.01.2023
149 Clouds -26 1014 64 10000 2 0 12:36 21.01.2023
150 Clear -22 1013 71 10000 3 260 11:27 21.01.2023
151 Clouds -19 1012 65 8000 2 0 09:31 21.01.2023
152 Smoke -27 1011 69 5000 1 0 04:41 21.01.2023
153 Clouds -27 1009 69 6000 1 0 22:29 20.01.2023
154 Clouds -27 1009 69 6000 1 0 22:29 20.01.2023
155 Clouds -29 1009 69 6000 0 0 21:40 20.01.2023
156 Clouds -29 1009 69 6000 0 0 21:21 20.01.2023
157 Clouds -28 1010 69 6000 1 0 19:54 20.01.2023
158 Clouds -31 1010 69 8000 2 0 16:51 20.01.2023
159 Clouds -31 1010 62 8000 1 0 14:47 20.01.2023
160 Clouds -28 1010 63 8000 1 0 13:51 20.01.2023
161 Clouds -20 1009 59 8000 0 0 10:36 20.01.2023
162 Clouds -19 1008 55 6000 1 0 08:57 20.01.2023
163 Smoke -23 1009 77 5000 0 0 06:39 20.01.2023
164 Clouds -30 1010 69 6000 0 0 02:31 20.01.2023
165 Clouds -35 1013 68 6000 1 0 22:37 19.01.2023
166 Clouds -36 1013 68 6000 1 0 21:37 19.01.2023
167 Clouds -33 1015 62 8000 1 0 19:29 19.01.2023
168 Clouds -35 1017 68 8000 1 0 17:39 19.01.2023
169 Clear -30 1019 69 10000 1 0 14:25 19.01.2023
170 Clear -22 1020 71 10000 3 240 10:19 19.01.2023
171 Clear -21 1020 65 10000 4 260 08:55 19.01.2023
172 Clouds -23 1017 54 10000 6 330 22:40 18.01.2023
173 Clouds -22 1016 59 10000 9 320 20:21 18.01.2023
174 Clouds -21 1016 54 10000 5 340 19:45 18.01.2023
175 Clouds -21 1016 54 10000 5 340 19:27 18.01.2023
176 Clouds -21 1013 84 8000 1 0 16:22 18.01.2023
177 Clouds -19 1010 78 10000 2 0 14:20 18.01.2023
178 Clouds -18 1008 85 10000 2 0 12:24 18.01.2023
179 Snow -16 1006 60 10000 2 0 09:32 18.01.2023
180 Clouds -16 1006 66 8000 0 0 06:22 18.01.2023
181 Clouds -29 1006 69 6000 1 0 00:37 18.01.2023
182 Clouds -28 1006 76 8000 1 0 21:38 17.01.2023
183 Clouds -25 1006 77 10000 2 0 19:42 17.01.2023
184 Clouds -26 1007 70 10000 1 0 18:48 17.01.2023
185 Clouds -26 1007 70 10000 3 170 17:38 17.01.2023
186 Clouds -23 1006 70 10000 4 160 15:27 17.01.2023
187 Clouds -24 1007 70 10000 2 0 14:45 17.01.2023
188 Clouds -20 1024 90 10000 0.54 255 13:32 17.01.2023
189 Clouds -18 1008 65 10000 0 0 11:46 17.01.2023
190 Clouds -17 1009 71 8000 2 0 09:36 17.01.2023
191 Clouds -20 1010 71 6000 1 0 08:20 17.01.2023
192 Smoke -24 1014 70 5000 1 0 06:51 17.01.2023
193 Clouds -32 1018 68 6000 1 0 01:32 17.01.2023
194 Clouds -33 1018 68 6000 2 0 00:47 17.01.2023
195 Clouds -35 1019 68 8000 1 0 22:29 16.01.2023
196 Clouds -32 1020 68 8000 1 0 20:50 16.01.2023
197 Clouds -33 1019 68 8000 2 0 19:45 16.01.2023
198 Clouds -32 1020 68 8000 1 0 18:56 16.01.2023
199 Clouds -32 1020 68 8000 1 0 18:28 16.01.2023
200 Clouds -30 1020 69 8000 1 0 17:57 16.01.2023
201 Clouds -30 1020 69 8000 1 0 17:19 16.01.2023
202 Clear -27 1018 76 10000 2 0 13:47 16.01.2023
203 Clear -27 1018 76 10000 2 0 13:29 16.01.2023
204 Clear -19 1016 65 10000 1 0 10:22 16.01.2023
205 Clouds -19 1015 60 6000 0 0 07:36 16.01.2023
206 Clear -30 1011 69 6000 0 0 22:43 15.01.2023
207 Clear -32 1011 62 6000 1 0 20:50 15.01.2023
208 Clear -32 1011 62 6000 1 0 20:25 15.01.2023
209 Clouds -31 1011 69 6000 0 0 18:56 15.01.2023
210 Clouds -31 1012 62 6000 0 0 16:48 15.01.2023
211 Clouds -29 1013 63 8000 2 0 13:30 15.01.2023
212 Clear -29 1013 63 8000 1 0 12:19 15.01.2023
213 Clear -29 1013 69 8000 3 160 11:28 15.01.2023
214 Clear -24 1014 58 6000 1 0 10:21 15.01.2023
215 Smoke -24 1016 58 5000 1 0 07:38 15.01.2023
216 Clouds -37 1021 61 8000 1 0 23:30 14.01.2023
217 Clouds -35 1021 61 8000 0 0 22:42 14.01.2023
218 Clear -34 1022 68 10000 1 0 21:36 14.01.2023
219 Clear -34 1022 68 10000 1 0 21:18 14.01.2023
220 Clear -36 1022 61 10000 2 0 20:40 14.01.2023
221 Clear -36 1022 61 10000 2 0 19:57 14.01.2023
222 Clear -36 1023 61 10000 1 0 17:43 14.01.2023
223 Clear -33 1024 68 10000 1 0 15:31 14.01.2023
224 Clear -32 1024 62 10000 2 0 14:35 14.01.2023
225 Clear -32 1024 56 10000 1 0 13:44 14.01.2023
226 Clear -32 1024 56 10000 1 0 13:44 14.01.2023
227 Clear -33 1023 68 10000 2 0 12:26 14.01.2023
228 Clouds -26 1023 64 8000 1 0 10:47 14.01.2023
229 Clouds -25 1023 64 8000 1 0 08:19 14.01.2023
230 Clouds -25 1023 64 8000 1 0 08:19 14.01.2023
231 Clear -39 1028 60 6000 0 0 23:56 13.01.2023
232 Clear -39 1028 60 6000 0 0 22:58 13.01.2023
233 Clear -36 1029 68 6000 1 0 22:40 13.01.2023
234 Clear -36 1029 68 6000 1 0 21:56 13.01.2023
235 Clear -39 1031 60 8000 1 0 19:53 13.01.2023
236 Clear -37 1031 67 10000 2 0 18:47 13.01.2023
237 Clear -37 1032 67 10000 2 0 16:57 13.01.2023
238 Clear -30 1033 63 10000 1 0 14:40 13.01.2023
239 Clear -27 1033 63 10000 3 130 12:21 13.01.2023
240 Clear -26 1032 64 10000 3 190 10:32 13.01.2023
241 Clear -23 1032 54 10000 2 0 09:54 13.01.2023
242 Clear -23 1032 54 10000 2 0 09:34 13.01.2023
243 Clear -23 1032 54 10000 3 170 08:28 13.01.2023
244 Clouds -23 1034 45 10000 1 0 06:54 13.01.2023
245 Clouds -25 1034 53 10000 2 0 05:44 13.01.2023
246 Clouds -28 1032 57 10000 1 0 00:45 13.01.2023
247 Clouds -26 1032 58 10000 1 0 22:45 12.01.2023
248 Clouds -26 1032 58 10000 1 0 22:45 12.01.2023
249 Clouds -25 1032 64 10000 5 340 20:56 12.01.2023
250 Clouds -24 1032 58 10000 5 340 19:57 12.01.2023
251 Clouds -23 1030 64 10000 6 340 17:56 12.01.2023
252 Clouds -22 1029 64 10000 4 320 16:48 12.01.2023
253 Clouds -21 1027 65 10000 5 340 14:49 12.01.2023
254 Clouds -21 1027 65 10000 5 340 14:24 12.01.2023
255 Clouds -20 1026 65 10000 6 350 13:29 12.01.2023
256 Clouds -19 1021 71 10000 8 320 10:54 12.01.2023
257 Clouds -18 1019 65 10000 8 340 09:31 12.01.2023
258 Clouds -16 1015 66 10000 9 330 05:48 12.01.2023
259 Clouds -13 1007 72 10000 4 340 00:21 12.01.2023
260 Clouds -17 1006 85 10000 1 0 23:41 11.01.2023
261 Clouds -17 1006 85 10000 1 0 23:22 11.01.2023
262 Clouds -19 1005 84 10000 1 0 22:42 11.01.2023
263 Clouds -21 1003 84 8000 1 0 20:37 11.01.2023
264 Clouds -20 1002 77 8000 3 160 18:40 11.01.2023
265 Clear -16 1001 78 10000 1 0 17:24 11.01.2023
266 Clear -15 1002 78 10000 2 0 15:30 11.01.2023
267 Clear -11 1002 73 10000 1 0 13:53 11.01.2023
268 Clear -4 1002 50 10000 2 0 12:21 11.01.2023
269 Clear -3 1001 54 10000 7 140 10:45 11.01.2023
270 Clear -9 1002 67 10000 3 280 08:21 11.01.2023
271 Clear -10 1003 73 8000 1 0 07:26 11.01.2023
272 Clouds -18 1009 78 8000 1 0 03:56 11.01.2023
273 Clouds -22 1010 84 6000 0 0 22:46 10.01.2023
274 Clouds -22 1010 77 6000 1 0 21:44 10.01.2023
275 Clouds -22 1011 84 6000 1 0 20:43 10.01.2023
276 Clouds -20 1011 77 6000 0 0 19:48 10.01.2023
277 Clouds -23 1011 77 6000 1 0 18:48 10.01.2023
278 Clouds -23 1011 77 6000 1 0 17:59 10.01.2023
279 Clouds -21 1011 77 6000 1 0 16:42 10.01.2023
280 Clouds -20 1010 77 8000 3 170 15:31 10.01.2023
281 Clouds -17 1010 85 8000 0 0 14:32 10.01.2023
282 Clouds -18 1010 85 8000 2 0 12:25 10.01.2023
283 Clouds -10 1009 67 8000 0 0 09:26 10.01.2023
284 Clouds -10 1009 73 6000 1 0 08:30 10.01.2023
285 Clouds -11 1009 67 6000 1 0 07:27 10.01.2023
286 Clouds -4 1017 73 10000 2.15 109 04:55 10.01.2023
287 Clouds -11 1025 78 10000 2.38 93 23:37 09.01.2023
288 Clouds -22 1017 77 6000 1 0 21:51 09.01.2023
289 Clouds -12 1027 81 10000 2.08 98 20:45 09.01.2023
290 Clouds -20 1018 77 6000 1 0 19:30 09.01.2023
291 Clear -22 1018 77 6000 1 0 17:55 09.01.2023
292 Clear -22 1018 84 6000 1 0 17:55 09.01.2023
293 Clear -22 1018 77 6000 1 0 17:26 09.01.2023
294 Clear -21 1018 84 8000 1 0 16:32 09.01.2023
295 Clear -21 1018 77 8000 1 0 15:28 09.01.2023
296 Clear -19 1019 78 8000 2 0 14:46 09.01.2023
297 Clear -17 1019 78 8000 1 0 13:38 09.01.2023
298 Clouds -17 1019 78 8000 1 0 12:49 09.01.2023
299 Clouds -13 1019 72 8000 0 0 11:43 09.01.2023
300 Clouds -11 1018 67 8000 1 0 10:26 09.01.2023
301 Clouds -15 1021 78 6000 1 0 06:41 09.01.2023
302 Clear -13 1034 84 10000 2.41 102 02:54 09.01.2023
303 Clear -16 1035 88 10000 2.54 96 23:53 08.01.2023
304 Clear -24 1024 77 8000 2 0 21:24 08.01.2023
305 Clear -24 1024 77 8000 2 0 20:58 08.01.2023
306 Clear -25 1023 70 8000 0 0 20:21 08.01.2023
307 Clear -23 1023 84 8000 0 0 17:53 08.01.2023
308 Clear -23 1023 84 8000 0 0 17:20 08.01.2023
309 Clear -23 1023 77 8000 0 0 15:39 08.01.2023
310 Clear -22 1023 77 8000 1 0 14:41 08.01.2023
311 Clear -22 1023 77 8000 1 0 13:57 08.01.2023
312 Clouds -21 1023 77 8000 1 0 13:25 08.01.2023
313 Clouds -20 1022 77 8000 1 0 12:19 08.01.2023
314 Clouds -12 1021 72 8000 0 0 09:38 08.01.2023
315 Clouds -13 1021 78 8000 2 0 08:45 08.01.2023
316 Clouds -14 1021 78 6000 2 0 07:21 08.01.2023
317 Clouds -22 1020 84 8000 1 0 23:35 07.01.2023
318 Clouds -23 1020 77 8000 1 0 22:45 07.01.2023
319 Clouds -23 1020 77 8000 1 0 22:18 07.01.2023
320 Clear -24 1020 77 10000 1 0 21:32 07.01.2023
321 Clear -22 1019 77 10000 2 0 20:29 07.01.2023
322 Clear -20 1018 77 10000 2 0 19:28 07.01.2023
323 Clear -20 1018 77 10000 3 170 18:21 07.01.2023
324 Clear -19 1018 78 10000 2 0 17:43 07.01.2023
325 Clear -19 1017 84 10000 2 0 16:54 07.01.2023
326 Clear -19 1017 84 10000 2 0 16:29 07.01.2023
327 Clear -19 1017 84 10000 2 0 15:40 07.01.2023
328 Clear -19 1017 84 10000 2 0 15:22 07.01.2023
329 Clear -15 1016 78 10000 1 0 14:25 07.01.2023
330 Clear -13 1015 72 10000 2 0 13:43 07.01.2023
331 Clear -13 1015 72 10000 2 0 13:19 07.01.2023
332 Clear -17 1014 78 10000 3 160 12:21 07.01.2023
333 Clear -13 1011 66 10000 4 170 10:29 07.01.2023
334 Clear -11 1010 57 10000 1 0 09:23 07.01.2023
335 Clear -9 1009 53 10000 0 0 08:18 07.01.2023
336 Clouds -11 1008 62 8000 1 0 07:42 07.01.2023
337 Clouds -14 1008 66 8000 2 0 06:31 07.01.2023
338 Clouds -11 1017 76 10000 2.76 98 23:34 06.01.2023
339 Clouds -21 1010 77 8000 2 0 22:21 06.01.2023
340 Clouds -23 1010 77 8000 1 0 21:50 06.01.2023
341 Clouds -24 1011 70 8000 1 0 20:38 06.01.2023
342 Clouds -24 1012 77 8000 1 0 19:55 06.01.2023
343 Clouds -24 1012 77 8000 1 0 19:37 06.01.2023
344 Clouds -24 1012 77 8000 1 0 19:19 06.01.2023
345 Clouds -24 1012 77 8000 2 0 17:55 06.01.2023
346 Clouds -25 1013 77 8000 1 0 16:53 06.01.2023
347 Clouds -25 1013 77 8000 1 0 16:23 06.01.2023
348 Clouds -24 1014 77 10000 2 0 15:52 06.01.2023
349 Clouds -24 1014 77 10000 2 0 15:29 06.01.2023
350 Clear -25 1014 70 10000 1 0 13:42 06.01.2023
351 Clear -24 1014 70 10000 2 0 11:52 06.01.2023
352 Clear -19 1014 71 10000 0 0 10:34 06.01.2023
353 Clear -18 1014 71 10000 2 0 08:49 06.01.2023
354 Clouds -21 1015 77 8000 1 0 05:22 06.01.2023
355 Clouds -26 1014 76 8000 1 0 22:56 05.01.2023
356 Clouds -25 1015 77 8000 0 0 22:29 05.01.2023
357 Clouds -23 1014 77 8000 1 0 20:24 05.01.2023
358 Clouds -21 1014 77 8000 0 0 17:30 05.01.2023
359 Clouds -22 1014 77 8000 1 0 16:38 05.01.2023
360 Clouds -23 1014 77 8000 1 0 15:48 05.01.2023
361 Clouds -23 1014 77 8000 1 0 15:20 05.01.2023
362 Clouds -21 1014 71 8000 1 0 13:34 05.01.2023
363 Clouds -22 1014 71 8000 2 0 12:39 05.01.2023
364 Clouds -20 1013 65 6000 0 0 10:19 05.01.2023
365 Clouds -19 1013 65 6000 0 0 09:36 05.01.2023
366 Clouds -21 1014 65 6000 1 0 07:26 05.01.2023
367 Clouds -11 1022 76 10000 1.58 115 06:38 05.01.2023
368 Clouds -20 1032 88 10000 1.79 89 00:28 05.01.2023
369 Clouds -21 1033 89 10000 1.81 81 22:23 04.01.2023
370 Clouds -31 1017 69 8000 0 0 21:29 04.01.2023
371 Clear -31 1018 69 8000 2 0 19:58 04.01.2023
372 Clear -21 1033 90 10000 1.41 97 19:36 04.01.2023
373 Clear -21 1033 90 10000 1.41 97 19:36 04.01.2023
374 Clear -21 1033 92 10000 1.69 90 19:18 04.01.2023
375 Clear -30 1018 69 8000 1 0 16:48 04.01.2023
376 Clear -30 1018 69 8000 1 0 16:30 04.01.2023
377 Clear -30 1018 69 8000 1 0 16:30 04.01.2023
378 Clear -31 1018 69 8000 1 0 14:49 04.01.2023
379 Clear -28 1017 69 8000 2 0 11:45 04.01.2023
380 Clear -28 1017 69 8000 2 0 11:22 04.01.2023
381 Clear -23 1016 64 8000 1 0 10:43 04.01.2023
382 Clear -23 1016 64 8000 1 0 10:24 04.01.2023
383 Clouds -22 1016 64 6000 1 0 08:58 04.01.2023
384 Smoke -27 1018 69 5000 1 0 05:37 04.01.2023
385 Clouds -24 1037 85 10000 2.07 93 00:39 04.01.2023
386 Clouds -34 1020 62 6000 1 0 23:37 03.01.2023
387 Clouds -33 1021 68 6000 0 0 22:55 03.01.2023
388 Clouds -31 1022 69 6000 1 0 21:21 03.01.2023
389 Clouds -30 1023 69 8000 1 0 19:51 03.01.2023
390 Clouds -30 1024 69 8000 1 0 17:57 03.01.2023
391 Clouds -34 1024 68 8000 2 0 16:39 03.01.2023
392 Clouds -32 1024 75 8000 0 0 13:58 03.01.2023
393 Clouds -28 1024 69 8000 1 0 13:31 03.01.2023
394 Clouds -28 1024 69 8000 1 0 13:31 03.01.2023
395 Clouds -28 1024 69 8000 1 0 12:58 03.01.2023
396 Clouds -28 1024 69 8000 1 0 12:58 03.01.2023
397 Clouds -29 1024 69 8000 1 0 12:30 03.01.2023
398 Clouds -28 1024 69 8000 2 0 11:32 03.01.2023
399 Clouds -22 1024 64 6000 0 0 07:50 03.01.2023
400 Smoke -29 1025 63 5000 0 0 04:23 03.01.2023
401 Smoke -32 1024 68 5000 0 0 03:44 03.01.2023
402 Clouds -22 1042 100 6214 0.96 341 02:50 03.01.2023
403 Clouds -33 1024 62 8000 0 0 22:43 02.01.2023
404 Clouds -33 1024 62 8000 0 0 22:23 02.01.2023
405 Clouds -31 1025 69 6000 0 0 20:40 02.01.2023
406 Clouds -34 1025 68 6000 1 0 19:53 02.01.2023
407 Clouds -34 1025 68 6000 1 0 18:26 02.01.2023
408 Clouds -30 1026 69 8000 0 0 15:28 02.01.2023
409 Clouds -32 1026 62 8000 1 0 13:31 02.01.2023
410 Clouds -29 1027 69 8000 0 0 11:59 02.01.2023
411 Clouds -27 1027 63 8000 1 0 10:52 02.01.2023
412 Smoke -25 1028 70 5000 2 0 07:35 02.01.2023
413 Clear -25 1049 88 10000 1.33 79 01:39 02.01.2023
414 Clear -36 1032 68 6000 0 0 22:38 01.01.2023
415 Clear -36 1033 61 6000 0 0 21:33 01.01.2023
416 Clear -35 1033 68 6000 1 0 20:48 01.01.2023
417 Clear -34 1034 62 6000 1 0 19:48 01.01.2023
418 Clouds -35 1034 61 6000 1 0 18:24 01.01.2023
419 Clouds -32 1034 62 6000 0 0 17:21 01.01.2023
420 Clouds -31 1034 69 8000 1 0 16:33 01.01.2023
421 Clouds -31 1035 69 8000 1 0 14:59 01.01.2023
422 Clouds -33 1035 62 8000 1 0 13:40 01.01.2023
423 Clouds -32 1035 75 8000 2 0 12:40 01.01.2023
424 Clouds -30 1035 69 8000 1 0 11:37 01.01.2023
425 Clouds -26 1035 76 8000 1 0 10:36 01.01.2023
426 Clear -23 1035 70 8000 1 0 08:51 01.01.2023
427 Clear -23 1035 70 8000 1 0 08:21 01.01.2023
428 Clouds -24 1035 77 6000 1 0 07:21 01.01.2023
429 Smoke -29 1035 69 5000 1 0 01:45 01.01.2023
430 Smoke -33 1034 68 5000 1 0 23:43 31.12.2022
431 Clouds -33 1034 68 6000 1 0 22:33 31.12.2022
432 Clouds -24 1052 99 10000 1.27 5 21:36 31.12.2022
433 Clouds -24 1051 99 10000 1.4 10 21:18 31.12.2022
434 Clouds -31 1033 69 6000 0 0 19:33 31.12.2022
435 Clouds -30 1032 76 6000 1 0 18:42 31.12.2022
436 Clouds -30 1032 76 6000 1 0 18:18 31.12.2022
437 Clouds -33 1032 68 8000 1 0 17:46 31.12.2022
438 Clouds -31 1031 69 8000 0 0 16:42 31.12.2022
439 Clouds -31 1031 69 8000 0 0 16:20 31.12.2022
440 Clouds -30 1031 69 8000 1 0 14:39 31.12.2022
441 Clouds -27 1030 69 8000 1 0 13:37 31.12.2022
442 Clouds -29 1030 69 8000 2 0 12:40 31.12.2022
443 Clouds -29 1030 69 8000 2 0 12:19 31.12.2022
444 Clouds -29 1030 69 8000 2 0 12:19 31.12.2022
445 Clouds -27 1029 76 6000 1 0 11:50 31.12.2022
446 Clouds -23 1029 70 6000 1 0 10:34 31.12.2022
447 Smoke -21 1029 65 5000 1 0 09:53 31.12.2022
448 Smoke -21 1029 65 5000 1 0 09:18 31.12.2022
449 Smoke -19 1028 78 5000 0 0 07:25 31.12.2022
450 Clouds -21 1043 99 10000 1.11 8 00:35 31.12.2022
451 Clouds -29 1026 69 8000 0 0 23:45 30.12.2022
452 Clouds -29 1026 76 8000 0 0 22:45 30.12.2022
453 Clouds -28 1026 69 8000 0 0 21:42 30.12.2022
454 Clouds -28 1026 69 8000 0 0 21:22 30.12.2022
455 Clouds -30 1025 76 8000 0 0 18:57 30.12.2022
456 Clouds -29 1025 69 8000 0 0 17:35 30.12.2022
457 Clouds -29 1024 69 8000 0 0 16:52 30.12.2022
458 Clouds -29 1024 76 8000 1 0 15:22 30.12.2022
459 Clouds -28 1024 69 8000 2 0 13:36 30.12.2022
460 Clouds -21 1021 71 6000 1 0 09:32 30.12.2022
461 Clouds -20 1021 77 6000 0 0 06:55 30.12.2022
462 Clear -18 1033 84 10000 1.51 342 02:41 30.12.2022
463 Clouds -30 1019 69 8000 2 0 00:53 30.12.2022
464 Clouds -27 1019 76 8000 1 0 22:41 29.12.2022
465 Clouds -28 1019 69 8000 1 0 21:29 29.12.2022
466 Clouds -19 1033 82 10000 1.36 90 20:53 29.12.2022
467 Clouds -29 1019 69 8000 2 0 19:55 29.12.2022
468 Clouds -18 1033 82 10000 1.78 93 17:57 29.12.2022
469 Clouds -28 1020 69 8000 1 0 17:28 29.12.2022
470 Clouds -28 1020 69 8000 1 0 16:55 29.12.2022
471 Clouds -28 1020 76 8000 2 0 15:58 29.12.2022
472 Clouds -27 1021 76 8000 0 0 13:55 29.12.2022
473 Clouds -25 1022 77 8000 1 0 12:41 29.12.2022
474 Clouds -24 1022 70 8000 1 0 10:31 29.12.2022
475 Smoke -21 1023 71 5000 1 0 06:57 29.12.2022
476 Clouds -31 1026 69 8000 0 0 23:30 28.12.2022
477 Clouds -30 1027 69 8000 0 0 22:25 28.12.2022
478 Clouds -33 1027 68 8000 0 0 21:20 28.12.2022
479 Clouds -32 1028 68 8000 1 0 20:20 28.12.2022
480 Clear -31 1028 69 8000 1 0 18:57 28.12.2022
481 Clear -32 1029 68 8000 1 0 16:41 28.12.2022
482 Clear -29 1029 76 8000 0 0 14:28 28.12.2022
483 Clear -28 1029 76 8000 1 0 12:49 28.12.2022
484 Clear -29 1029 69 8000 1 0 11:35 28.12.2022
485 Clear -26 1029 70 8000 0 0 10:31 28.12.2022
486 Clear -22 1029 71 6000 0 0 07:49 28.12.2022
487 Smoke -24 1029 70 5000 0 0 06:48 28.12.2022
488 Smoke -34 1030 62 5000 0 0 03:42 28.12.2022
489 Clear -32 1028 68 10000 1 0 22:47 27.12.2022
490 Clear -33 1027 68 10000 1 0 19:52 27.12.2022
491 Clear -33 1027 68 10000 1 0 18:59 27.12.2022
492 Clear -33 1027 68 10000 1 0 17:20 27.12.2022
493 Clear -30 1027 76 10000 1 0 16:19 27.12.2022
494 Clear -28 1027 76 10000 1 0 14:53 27.12.2022
495 Clear -26 1027 70 10000 0 0 12:27 27.12.2022
496 Clear -25 1026 70 10000 3 170 10:31 27.12.2022
497 Clear -22 1026 77 10000 0 0 09:44 27.12.2022
498 Clear -22 1026 77 10000 0 0 09:20 27.12.2022
499 Clear -22 1028 77 10000 0 0 04:57 27.12.2022
500 Clear -25 1028 70 10000 2 0 23:40 26.12.2022
501 Clouds -27 1028 76 10000 1 0 21:52 26.12.2022
502 Clouds -25 1028 70 10000 1 0 20:44 26.12.2022
503 Clouds -25 1028 70 10000 1 0 19:55 26.12.2022
504 Clouds -20 1028 71 10000 2 0 18:42 26.12.2022
505 Clouds -19 1028 71 10000 4 300 17:18 26.12.2022
506 Clouds -19 1028 71 10000 4 300 15:40 26.12.2022
507 Clouds -19 1027 71 10000 2 0 12:59 26.12.2022
508 Clear -20 1026 77 10000 4 320 11:44 26.12.2022
509 Clouds -18 1024 71 10000 6 320 05:44 26.12.2022
510 Clouds -19 1022 78 10000 3 320 23:42 25.12.2022
511 Clouds -19 1022 78 10000 2 0 22:51 25.12.2022
512 Clouds -19 1022 78 10000 2 0 22:22 25.12.2022
513 Clouds -19 1022 78 10000 3 320 19:56 25.12.2022
514 Clouds -18 1022 78 10000 4 330 17:52 25.12.2022
515 Clouds -18 1022 78 10000 4 330 17:34 25.12.2022
516 Clouds -18 1022 78 10000 3 330 16:47 25.12.2022
517 Clouds -18 1022 78 8000 4 330 14:26 25.12.2022
518 Clouds -17 1021 71 10000 6 330 11:47 25.12.2022
519 Clouds -18 1020 85 8000 4 310 04:48 25.12.2022
520 Snow -17 1018 78 6000 5 280 22:56 24.12.2022
521 Snow -14 1019 78 4000 3 340 19:54 24.12.2022
522 Snow -14 1020 85 4000 3 130 17:35 24.12.2022
523 Snow -13 1021 78 6000 5 150 15:38 24.12.2022
524 Snow -13 1021 78 6000 6 140 14:31 24.12.2022
525 Snow -12 1021 72 10000 5 140 12:24 24.12.2022
526 Snow -11 1020 62 10000 2 0 10:24 24.12.2022
527 Snow -10 1021 57 10000 4 120 09:37 24.12.2022
528 Snow -10 1021 57 10000 7 130 08:46 24.12.2022
529 Clouds -22 1024 77 6000 0 0 02:52 24.12.2022
530 Clouds -25 1024 77 8000 0 0 00:30 24.12.2022
531 Clouds -25 1025 77 8000 1 0 22:45 23.12.2022
532 Clouds -23 1025 77 8000 1 0 21:43 23.12.2022
533 Clouds -26 1026 76 8000 2 0 19:40 23.12.2022
534 Clouds -26 1026 76 8000 2 0 19:22 23.12.2022
535 Clouds -25 1026 77 8000 0 0 18:54 23.12.2022
536 Clouds -25 1026 77 8000 0 0 18:22 23.12.2022
537 Clouds -26 1026 76 8000 1 0 17:43 23.12.2022
538 Clouds -23 1026 84 8000 0 0 15:52 23.12.2022
539 Clouds -22 1027 77 8000 1 0 14:33 23.12.2022
540 Clouds -17 1025 71 8000 1 0 10:21 23.12.2022
541 Clouds -16 1024 72 6000 1 0 09:35 23.12.2022
542 Clouds -14 1024 61 6000 1 0 07:43 23.12.2022
543 Clouds -16 1023 66 6000 2 0 06:50 23.12.2022
544 Clouds -24 1021 77 8000 1 0 02:45 23.12.2022
545 Clear -25 1018 77 10000 2 0 23:20 22.12.2022
546 Clear -25 1018 77 10000 1 0 21:56 22.12.2022
547 Clear -24 1017 70 10000 1 0 19:48 22.12.2022
548 Clear -24 1017 70 10000 1 0 19:21 22.12.2022
549 Clouds -21 1016 71 10000 1 0 17:59 22.12.2022
550 Clouds -20 1016 77 10000 0 0 16:53 22.12.2022
551 Clear -22 1016 77 10000 0 0 15:48 22.12.2022
552 Clear -22 1016 77 10000 0 0 15:29 22.12.2022
553 Clear -23 1016 77 10000 1 0 14:28 22.12.2022
554 Clear -24 1016 70 10000 1 0 13:20 22.12.2022
555 Clear -23 1016 70 10000 0 0 12:29 22.12.2022
556 Clouds -21 1016 71 8000 1 0 10:31 22.12.2022
557 Clouds -17 1017 60 8000 1 0 09:24 22.12.2022
558 Clouds -17 1017 66 8000 1 0 08:53 22.12.2022
559 Clouds -17 1017 60 8000 1 0 07:54 22.12.2022
560 Clouds -24 1019 70 8000 1 0 04:19 22.12.2022
561 Clear -28 1018 69 10000 1 0 00:48 22.12.2022
562 Clear -27 1019 76 10000 1 0 22:40 21.12.2022
563 Clear -27 1019 69 10000 0 0 21:49 21.12.2022
564 Clear -27 1019 69 10000 0 0 21:19 21.12.2022
565 Clear -28 1019 76 10000 1 0 20:34 21.12.2022
566 Clear -28 1019 76 10000 1 0 19:56 21.12.2022
567 Clear -26 1019 70 10000 1 0 19:37 21.12.2022
568 Clear -26 1019 70 10000 1 0 19:18 21.12.2022
569 Clear -29 1019 69 10000 0 0 18:38 21.12.2022
570 Clear -28 1019 69 10000 1 0 16:19 21.12.2022
571 Clear -25 1019 70 10000 0 0 14:20 21.12.2022
572 Clear -23 1018 70 10000 1 0 11:58 21.12.2022
573 Clear -23 1018 70 10000 1 0 11:21 21.12.2022
574 Clear -24 1018 77 10000 1 0 10:29 21.12.2022
575 Clear -18 1017 71 10000 1 0 08:48 21.12.2022
576 Clear -20 1017 77 10000 0 0 06:30 21.12.2022
577 Clear -29 1013 69 10000 1 0 00:26 21.12.2022
578 Clouds -31 1011 69 10000 3 170 21:47 20.12.2022
579 Clouds -28 1010 69 10000 1 0 20:51 20.12.2022
580 Clouds -30 1010 76 10000 3 170 19:54 20.12.2022
581 Clouds -30 1009 76 10000 3 170 18:47 20.12.2022
582 Clouds -30 1009 76 10000 3 170 18:22 20.12.2022
583 Clouds -28 1008 69 10000 2 0 17:48 20.12.2022
584 Clouds -28 1008 69 10000 2 0 17:24 20.12.2022
585 Clouds -28 1008 76 10000 2 0 15:55 20.12.2022
586 Clouds -21 1008 77 6000 0 0 14:55 20.12.2022
587 Clouds -21 1008 77 6000 0 0 14:35 20.12.2022
588 Clouds -21 1009 77 10000 0 0 13:26 20.12.2022
589 Clouds -21 1009 77 10000 1 0 12:32 20.12.2022
590 Clouds -20 1010 77 10000 1 0 11:42 20.12.2022
591 Clouds -21 1012 77 10000 1 0 09:52 20.12.2022
592 Clouds -19 1014 78 10000 2 0 06:24 20.12.2022
593 Clouds -25 1015 77 10000 2 0 23:46 19.12.2022
594 Clouds -21 1015 77 10000 0 0 22:21 19.12.2022
595 Clouds -20 1015 77 10000 1 0 20:48 19.12.2022
596 Clouds -20 1015 77 10000 0 0 19:40 19.12.2022
597 Clouds -21 1015 77 10000 0 0 18:43 19.12.2022
598 Clouds -21 1014 77 8000 1 0 17:38 19.12.2022
599 Clouds -22 1014 71 8000 0 0 14:45 19.12.2022
600 Clouds -24 1014 70 8000 2 0 12:35 19.12.2022
601 Clouds -22 1013 71 8000 1 0 11:36 19.12.2022
602 Clouds -15 1013 56 6000 0 0 07:48 19.12.2022
603 Clear -20 1013 77 6000 3 160 06:32 19.12.2022
604 Clear -19 1028 83 10000 1.76 77 22:59 18.12.2022
605 Clear -29 1014 69 10000 1 0 21:47 18.12.2022
606 Clear -29 1014 69 10000 1 0 21:24 18.12.2022
607 Clear -29 1015 69 10000 0 0 20:52 18.12.2022
608 Clear -29 1014 76 10000 1 0 19:43 18.12.2022
609 Clear -26 1015 76 10000 1 0 18:39 18.12.2022
610 Clear -25 1015 77 10000 1 0 17:52 18.12.2022
611 Clear -26 1015 76 10000 0 0 15:41 18.12.2022
612 Clear -26 1015 76 10000 0 0 15:20 18.12.2022
613 Clear -24 1015 77 10000 1 0 14:21 18.12.2022
614 Clear -26 1015 76 10000 0 0 12:58 18.12.2022
615 Clear -26 1015 76 10000 0 0 12:58 18.12.2022
616 Clear -22 1015 71 10000 1 0 12:31 18.12.2022
617 Clear -24 1015 70 10000 1 0 11:48 18.12.2022
618 Clear -17 1015 71 10000 1 0 09:24 18.12.2022
619 Clear -17 1015 71 10000 0 0 08:45 18.12.2022
620 Clear -16 1016 60 10000 0 0 06:24 18.12.2022
621 Clear -21 1017 77 10000 0 0 04:20 18.12.2022
622 Clear -27 1017 76 10000 2 0 01:49 18.12.2022
623 Clear -23 1018 77 10000 1 0 22:30 17.12.2022
624 Clear -27 1019 76 10000 2 0 20:35 17.12.2022
625 Clear -22 1021 77 10000 2 0 17:20 17.12.2022
626 Clear -24 1022 77 10000 1 0 15:18 17.12.2022
627 Clouds -21 1023 71 10000 1 0 12:33 17.12.2022
628 Clouds -21 1024 71 10000 2 0 11:18 17.12.2022
629 Clouds -17 1024 66 10000 0 0 10:38 17.12.2022
630 Clouds -16 1025 66 10000 3 170 08:36 17.12.2022
631 Clear -17 1027 66 10000 2 0 06:46 17.12.2022
632 Clouds -25 1027 77 10000 1 0 00:18 17.12.2022
633 Clouds -21 1028 77 6000 1 0 22:22 16.12.2022
634 Clouds -22 1029 77 8000 0 0 20:25 16.12.2022
635 Clouds -25 1031 70 10000 2 0 17:47 16.12.2022
636 Snow -29 1032 69 10000 2 0 14:52 16.12.2022
637 Clouds -29 1032 69 10000 2 0 14:27 16.12.2022
638 Clouds -26 1033 70 10000 3 160 12:22 16.12.2022
639 Clouds -23 1033 59 10000 1 0 10:58 16.12.2022
640 Clouds -23 1033 64 10000 1 0 09:39 16.12.2022
641 Clouds -22 1033 59 10000 3 330 08:27 16.12.2022
642 Clear -23 1033 64 10000 4 340 07:54 16.12.2022
643 Clouds -24 1031 70 10000 7 330 00:18 16.12.2022
644 Clouds -24 1031 70 10000 6 330 22:33 15.12.2022
645 Clouds -24 1030 70 10000 6 330 21:24 15.12.2022
646 Clouds -25 1029 77 10000 2 0 19:41 15.12.2022
647 Clouds -24 1029 64 10000 3 340 18:34 15.12.2022
648 Clouds -24 1029 64 10000 2 0 17:27 15.12.2022
649 Clouds -23 1028 70 6000 1 0 15:45 15.12.2022
650 Clouds -23 1027 77 6000 0 0 14:38 15.12.2022
651 Clouds -24 1026 77 6000 0 0 12:48 15.12.2022
652 Clouds -24 1026 77 8000 1 0 11:41 15.12.2022
653 Clouds -22 1026 71 10000 0 0 08:55 15.12.2022
654 Clouds -22 1026 77 10000 0 0 07:58 15.12.2022
655 Clouds -26 1027 70 8000 1 0 05:36 15.12.2022
656 Clear -32 1027 68 10000 2 0 22:35 14.12.2022
657 Clear -32 1027 68 10000 1 0 21:23 14.12.2022
658 Clear -32 1027 68 10000 2 0 20:35 14.12.2022
659 Clear -26 1026 76 10000 1 0 19:34 14.12.2022
660 Clear -27 1025 69 10000 0 0 16:58 14.12.2022
661 Clear -30 1025 69 10000 0 0 16:19 14.12.2022
662 Clear -30 1024 63 10000 2 0 14:50 14.12.2022
663 Clear -23 1023 59 10000 3 340 12:56 14.12.2022
664 Clear -21 1018 54 10000 8 340 10:45 14.12.2022
665 Clear -21 1018 54 10000 8 340 10:21 14.12.2022
666 Clouds -19 1014 50 10000 5 310 06:28 14.12.2022
667 Clouds -24 1010 64 10000 1 0 21:57 13.12.2022
668 Clouds -24 1010 64 10000 1 0 21:36 13.12.2022
669 Clouds -25 1010 70 10000 0 0 20:47 13.12.2022
670 Clouds -25 1012 64 10000 0 0 18:49 13.12.2022
671 Clouds -28 1014 69 10000 0 0 16:31 13.12.2022
672 Clouds -30 1016 63 10000 1 0 14:54 13.12.2022
673 Clear -26 1017 58 10000 0 0 12:53 13.12.2022
674 Clear -27 1018 63 10000 2 0 10:41 13.12.2022
675 Clear -24 1019 58 10000 2 0 09:47 13.12.2022
676 Clear -22 1021 54 10000 3 230 07:52 13.12.2022
677 Clouds -28 1022 63 10000 1 0 22:24 12.12.2022
678 Clear -26 1022 58 10000 0 0 21:57 12.12.2022
679 Clouds -25 1022 58 10000 1 0 19:33 12.12.2022
680 Clouds -25 1022 0 10000 2 0 17:50 12.12.2022
681 Clouds -27 1021 63 10000 1 0 15:29 12.12.2022
682 Clouds -27 1020 63 10000 4 320 13:20 12.12.2022
683 Clouds -21 1017 65 10000 8 320 09:20 12.12.2022
684 Clouds -20 1016 65 6000 8 330 08:54 12.12.2022
685 Clouds -21 1014 77 8000 2 0 03:53 12.12.2022
686 Clouds -21 1013 77 10000 1 0 00:18 12.12.2022
687 Clouds -21 1013 77 10000 2 0 22:18 11.12.2022
688 Clouds -22 1013 77 10000 3 190 20:29 11.12.2022
689 Clouds -21 1013 77 10000 4 130 19:37 11.12.2022
690 Clouds -22 1013 77 10000 1 0 18:29 11.12.2022
691 Clouds -19 1013 84 10000 2 0 17:33 11.12.2022
692 Clouds -20 1012 77 10000 4 300 16:52 11.12.2022
693 Clouds -20 1012 77 10000 4 300 15:56 11.12.2022
694 Clouds -18 1011 78 10000 4 300 15:35 11.12.2022
695 Clouds -18 1010 85 10000 3 290 13:33 11.12.2022
696 Clouds -17 1009 78 10000 3 310 12:40 11.12.2022
697 Clouds -15 1005 85 4000 8 310 09:47 11.12.2022
698 Clouds -20 1010 65 10000 0 0 00:39 11.12.2022
699 Clouds -20 1010 65 10000 0 0 00:21 11.12.2022
700 Clouds -22 1014 71 6000 1 0 22:33 10.12.2022
701 Smoke -23 1015 70 5000 1 0 21:26 10.12.2022
702 Smoke -23 1017 70 5000 1 0 20:41 10.12.2022
703 Smoke -23 1017 70 5000 1 0 19:55 10.12.2022
704 Smoke -23 1017 70 5000 1 0 19:55 10.12.2022
705 Smoke -23 1017 70 5000 1 0 19:55 10.12.2022
706 Smoke -27 1020 69 5000 1 0 17:33 10.12.2022
707 Smoke -26 1022 70 5000 1 0 16:37 10.12.2022
708 Smoke -29 1022 69 5000 0 0 15:40 10.12.2022
709 Smoke -29 1022 69 5000 0 0 15:40 10.12.2022
710 Clouds -27 1023 69 6000 1 0 14:59 10.12.2022
711 Clouds -27 1023 69 6000 2 0 12:55 10.12.2022
712 Clouds -24 1024 64 6000 0 0 11:55 10.12.2022
713 Clear -25 1023 70 6000 2 0 10:46 10.12.2022
714 Clear -18 1023 60 6000 0 0 09:38 10.12.2022
715 Smoke -19 1025 65 5000 1 0 07:21 10.12.2022
716 Smoke -30 1027 76 5000 1 0 03:18 10.12.2022
717 Clear -31 1027 69 8000 1 0 23:34 09.12.2022
718 Clear -31 1027 69 10000 0 0 22:41 09.12.2022
719 Clear -29 1028 76 10000 1 0 21:27 09.12.2022
720 Clear -29 1028 76 10000 1 0 20:57 09.12.2022
721 Clear -31 1028 69 10000 1 0 19:41 09.12.2022
722 Clear -25 1029 70 10000 1 0 17:56 09.12.2022
723 Clear -26 1029 70 10000 2 0 16:37 09.12.2022
724 Clear -26 1029 70 10000 2 0 16:18 09.12.2022
725 Clear -26 1029 70 10000 2 0 16:18 09.12.2022
726 Clear -26 1028 70 10000 2 0 15:19 09.12.2022
727 Clear -23 1026 70 10000 1 0 11:36 09.12.2022
728 Clear -20 1025 65 10000 0 0 10:48 09.12.2022
729 Clear -17 1025 66 10000 2 0 09:44 09.12.2022
730 Clouds -23 1024 77 6000 1 0 05:36 09.12.2022
731 Smoke -30 1023 69 5000 1 0 02:29 09.12.2022
732 Clouds -30 1021 69 8000 1 0 22:32 08.12.2022
733 Clouds -33 1021 68 8000 1 0 20:51 08.12.2022
734 Clear -31 1021 69 10000 2 0 18:41 08.12.2022
735 Clear -30 1020 69 10000 2 0 15:45 08.12.2022
736 Clear -29 1020 76 10000 1 0 14:28 08.12.2022
737 Clear -24 1020 70 10000 1 0 11:42 08.12.2022
738 Clear -20 1020 65 8000 0 0 10:22 08.12.2022
739 Clear -19 1020 65 8000 3 190 09:27 08.12.2022
740 Clear -31 1022 69 6000 1 0 02:56 08.12.2022
741 Clear -31 1022 69 8000 1 0 22:19 07.12.2022
742 Clear -30 1022 76 10000 0 0 21:50 07.12.2022
743 Clear -30 1022 76 10000 0 0 21:31 07.12.2022
744 Clear -31 1023 69 10000 0 0 19:47 07.12.2022
745 Clear -26 1023 70 10000 0 0 17:41 07.12.2022
746 Clear -27 1023 76 10000 0 0 14:41 07.12.2022
747 Clear -26 1022 70 10000 1 0 12:38 07.12.2022
748 Clear -19 1022 60 10000 1 0 10:44 07.12.2022
749 Clear -17 1021 60 10000 1 0 09:54 07.12.2022
750 Clear -15 1021 51 10000 0 0 08:51 07.12.2022
751 Clear -20 1022 65 6000 1 0 06:49 07.12.2022
752 Smoke -21 1022 77 5000 0 0 05:23 07.12.2022
753 Clear -32 1020 68 8000 1 0 23:37 06.12.2022
754 Clear -31 1020 69 10000 2 0 21:24 06.12.2022
755 Clear -31 1020 62 10000 2 0 18:28 06.12.2022
756 Clear -27 1020 69 10000 1 0 16:56 06.12.2022
757 Clear -30 1020 69 10000 2 0 16:20 06.12.2022
758 Clear -26 1020 64 10000 1 0 15:34 06.12.2022
759 Clear -28 1020 69 10000 2 0 14:32 06.12.2022
760 Clear -27 1020 69 10000 2 0 13:39 06.12.2022
761 Clear -23 1020 64 10000 1 0 12:40 06.12.2022
762 Clear -20 1020 59 10000 0 0 10:23 06.12.2022
763 Clear -18 1021 50 10000 0 0 06:48 06.12.2022
764 Clear -29 1022 69 8000 0 0 01:32 06.12.2022
765 Clear -31 1022 69 10000 1 0 22:37 05.12.2022
766 Clear -32 1022 68 10000 1 0 21:37 05.12.2022
767 Clear -32 1022 68 10000 1 0 20:39 05.12.2022
768 Clear -29 1022 69 10000 0 0 19:46 05.12.2022
769 Clear -28 1022 69 10000 0 0 18:38 05.12.2022
770 Clear -30 1023 69 10000 1 0 16:49 05.12.2022
771 Clear -28 1022 69 10000 0 0 15:26 05.12.2022
772 Clear -28 1023 69 10000 2 0 13:28 05.12.2022
773 Clear -28 1023 69 10000 2 0 12:56 05.12.2022
774 Clear -29 1022 69 10000 1 0 12:37 05.12.2022
775 Clear -26 1022 70 10000 2 0 10:59 05.12.2022
776 Clear -24 1024 70 6000 1 0 05:22 05.12.2022
777 Clear -34 1026 68 10000 2 0 23:33 04.12.2022
778 Clear -33 1026 62 10000 1 0 22:40 04.12.2022
779 Clear -33 1026 62 10000 1 0 22:18 04.12.2022
780 Clear -32 1027 68 10000 1 0 21:29 04.12.2022
781 Clear -33 1028 68 10000 2 0 19:48 04.12.2022
782 Clear -33 1028 68 10000 2 0 19:22 04.12.2022
783 Clear -32 1029 68 10000 2 0 17:58 04.12.2022
784 Clear -30 1029 63 10000 1 0 17:21 04.12.2022
785 Clear -29 1029 76 10000 1 0 16:36 04.12.2022
786 Clear -29 1029 76 10000 1 0 16:18 04.12.2022
787 Clear -28 1029 69 10000 1 0 14:54 04.12.2022
788 Clear -27 1029 69 10000 3 180 13:44 04.12.2022
789 Clear -28 1029 69 10000 3 170 12:45 04.12.2022
790 Clear -26 1028 70 10000 3 180 11:59 04.12.2022
791 Clear -24 1028 64 10000 4 170 10:48 04.12.2022
792 Clear -20 1028 65 6000 3 170 07:34 04.12.2022
793 Clouds -33 1027 62 6000 1 0 02:22 04.12.2022
794 Clear -34 1026 68 10000 1 0 23:43 03.12.2022
795 Clear -34 1026 68 10000 1 0 22:24 03.12.2022
796 Clear -34 1026 68 10000 1 0 21:41 03.12.2022
797 Clear -33 1026 68 10000 2 0 20:35 03.12.2022
798 Clear -33 1026 68 10000 2 0 18:40 03.12.2022
799 Clear -34 1026 68 10000 1 0 17:27 03.12.2022
800 Clear -31 1026 69 10000 1 0 15:48 03.12.2022
801 Clear -31 1025 69 10000 2 0 12:55 03.12.2022
802 Clear -28 1025 69 10000 1 0 12:26 03.12.2022
803 Clear -24 1025 70 10000 3 160 10:27 03.12.2022
804 Clear -21 1024 65 10000 4 200 07:58 03.12.2022
805 Clear -32 1023 68 10000 1 0 01:31 03.12.2022
806 Clear -32 1023 68 10000 0 0 23:25 02.12.2022
807 Clear -32 1023 68 10000 1 0 21:23 02.12.2022
808 Clear -30 1023 63 10000 0 0 19:34 02.12.2022
809 Clear -32 1022 62 10000 3 180 16:19 02.12.2022
810 Clear -32 1021 62 10000 2 0 14:48 02.12.2022
811 Clear -32 1021 62 10000 2 0 14:27 02.12.2022
812 Clear -28 1020 57 10000 0 0 13:41 02.12.2022
813 Clear -24 1019 53 10000 2 0 11:46 02.12.2022
814 Clear -20 1017 45 10000 7 340 09:46 02.12.2022
815 Clear -19 1016 50 10000 7 340 07:25 02.12.2022
816 Clear -19 1016 50 10000 7 330 05:58 02.12.2022
817 Clouds -31 1010 62 8000 2 0 22:30 01.12.2022
818 Clear -33 1011 68 8000 1 0 21:39 01.12.2022
819 Clear -33 1011 68 8000 1 0 20:32 01.12.2022
820 Clear -30 1011 76 10000 2 0 18:57 01.12.2022
821 Clear -32 1012 75 10000 3 170 16:25 01.12.2022
822 Clear -29 1013 76 10000 2 0 13:41 01.12.2022
823 Clear -25 1016 64 10000 1 0 10:42 01.12.2022
824 Clear -21 1017 59 10000 2 0 09:54 01.12.2022
825 Clear -21 1017 59 10000 2 0 09:36 01.12.2022
826 Clear -25 1022 70 10000 1 0 05:45 01.12.2022
827 Clear -29 1025 63 10000 1 0 22:40 30.11.2022
828 Clear -31 1026 69 10000 1 0 21:20 30.11.2022
829 Clear -31 1026 69 10000 3 170 20:48 30.11.2022
830 Clear -31 1026 69 10000 3 170 20:23 30.11.2022
831 Clear -31 1027 69 10000 3 180 18:35 30.11.2022
832 Clear -30 1027 69 10000 1 0 17:39 30.11.2022
833 Clear -29 1027 69 10000 2 0 16:20 30.11.2022
834 Clear -28 1028 63 10000 1 0 14:41 30.11.2022
835 Clear -28 1028 63 10000 1 0 14:23 30.11.2022
836 Clear -24 1027 64 10000 1 0 11:38 30.11.2022
837 Clear -19 1027 55 10000 5 280 08:41 30.11.2022
838 Clear -19 1027 55 10000 5 280 07:58 30.11.2022
839 Clear -21 1029 54 10000 1 0 04:56 30.11.2022
840 Clear -27 1028 63 10000 1 0 23:22 29.11.2022
841 Clear -31 1028 62 10000 2 0 21:47 29.11.2022
842 Clear -29 1028 63 10000 1 0 20:42 29.11.2022
843 Clear -28 1028 63 10000 0 0 19:36 29.11.2022
844 Clear -27 1029 63 10000 1 0 17:51 29.11.2022
845 Clear -29 1029 69 10000 3 150 16:28 29.11.2022
846 Clear -23 1029 59 10000 1 0 14:51 29.11.2022
847 Clear -24 1030 58 10000 4 320 13:38 29.11.2022
848 Clear -23 1030 64 10000 2 0 12:36 29.11.2022
849 Clear -22 1030 59 10000 4 280 11:30 29.11.2022
850 Clear -24 1029 58 10000 2 0 10:23 29.11.2022
851 Clear -22 1030 59 10000 3 230 08:43 29.11.2022
852 Clear -26 1031 53 10000 2 0 05:52 29.11.2022
853 Clouds -35 1030 68 10000 2 0 23:46 28.11.2022
854 Clouds -35 1030 68 10000 2 0 23:21 28.11.2022
855 Clouds -35 1030 61 10000 2 0 21:55 28.11.2022
856 Clouds -35 1030 61 10000 2 0 21:36 28.11.2022
857 Clouds -35 1031 68 10000 2 0 20:20 28.11.2022
858 Clear -36 1031 61 10000 2 0 18:40 28.11.2022
859 Clear -37 1031 61 10000 2 0 17:51 28.11.2022
860 Clear -37 1031 61 10000 2 0 16:59 28.11.2022
861 Clear -32 1031 68 10000 2 0 14:30 28.11.2022
862 Clear -31 1031 62 10000 1 0 13:52 28.11.2022
863 Clear -29 1031 57 10000 3 340 12:43 28.11.2022
864 Clear -27 1029 48 10000 6 330 10:29 28.11.2022
865 Clear -26 1028 58 10000 8 330 07:53 28.11.2022
866 Clouds -27 1027 63 10000 10 330 04:45 28.11.2022
867 Clouds -27 1027 58 10000 6 340 03:59 28.11.2022
868 Clouds -27 1027 58 10000 6 340 03:19 28.11.2022
869 Clouds -25 1022 64 10000 6 340 22:53 27.11.2022
870 Clouds -24 1022 64 10000 5 340 21:43 27.11.2022
871 Clouds -23 1021 64 10000 6 350 20:34 27.11.2022
872 Clouds -21 1019 65 8000 6 360 17:59 27.11.2022
873 Snow -20 1018 71 8000 6 340 15:35 27.11.2022
874 Clouds -19 1016 71 8000 4 350 13:33 27.11.2022
875 Clouds -17 1012 71 8000 6 340 10:57 27.11.2022
876 Snow -16 1010 78 6000 4 340 08:47 27.11.2022
877 Clouds -16 1008 78 5000 3 40 04:22 27.11.2022
878 Clouds -24 1002 77 10000 1 0 22:31 26.11.2022
879 Clouds -24 1001 77 10000 2 0 20:51 26.11.2022
880 Clouds -23 1000 77 10000 1 0 19:27 26.11.2022
881 Clouds -19 999 65 10000 0 0 17:54 26.11.2022
882 Clouds -23 998 70 10000 1 0 15:53 26.11.2022
883 Clouds -20 996 71 10000 2 0 13:35 26.11.2022
884 Snow -16 994 60 10000 0 0 11:45 26.11.2022
885 Clouds -14 994 51 10000 3 40 10:22 26.11.2022
886 Clouds -13 994 52 10000 1 0 09:31 26.11.2022
887 Clouds -14 996 47 10000 3 50 06:30 26.11.2022
888 Clear -26 1006 76 10000 2 0 21:46 25.11.2022
889 Clear -26 1006 76 10000 2 0 21:24 25.11.2022
890 Clear -29 1008 69 10000 1 0 19:57 25.11.2022
891 Clear -28 1012 76 10000 0 0 16:49 25.11.2022
892 Clear -25 1014 58 10000 0 0 14:22 25.11.2022
893 Clear -17 1016 60 10000 2 0 09:22 25.11.2022
894 Clear -17 1017 66 10000 3 200 08:41 25.11.2022
895 Clear -17 1018 60 10000 2 0 06:54 25.11.2022
896 Clear -17 1018 60 10000 2 0 06:22 25.11.2022
897 Clear -22 1016 71 10000 3 320 23:55 24.11.2022
898 Clear -20 1014 71 10000 1 0 22:51 24.11.2022
899 Clouds -20 1014 77 10000 4 330 21:58 24.11.2022
900 Clouds -17 1013 66 10000 5 340 20:30 24.11.2022
901 Clouds -17 1012 78 10000 4 330 18:30 24.11.2022
902 Clouds -17 1011 78 10000 3 310 17:40 24.11.2022
903 Clouds -17 1011 78 10000 3 310 17:20 24.11.2022
904 Clouds -13 1009 72 10000 8 320 15:18 24.11.2022
905 Clouds -12 1008 79 10000 6 310 13:49 24.11.2022
906 Clouds -11 1007 73 10000 6 320 11:55 24.11.2022
907 Snow -9 1005 79 10000 4 320 10:36 24.11.2022
908 Clouds -8 1002 67 6000 1 0 07:53 24.11.2022
909 Clouds -18 1003 78 8000 1 0 03:22 24.11.2022
910 Clouds -20 1002 77 10000 1 0 23:45 23.11.2022
911 Clouds -11 1012 92 10000 1.14 99 21:56 23.11.2022
912 Clouds -10 1012 92 10000 1.51 119 21:23 23.11.2022
913 Clouds -20 1003 77 10000 0 0 19:59 23.11.2022
914 Clouds -19 1004 78 10000 1 0 18:58 23.11.2022
915 Clouds -19 1004 78 10000 1 0 18:35 23.11.2022
916 Clouds -16 1005 85 10000 1 0 16:24 23.11.2022
917 Clouds -15 1005 78 10000 1 0 13:27 23.11.2022
918 Clouds -17 1005 85 10000 2 0 12:58 23.11.2022
919 Clear -14 1006 78 10000 3 160 11:59 23.11.2022
920 Clear -14 1006 78 10000 3 160 11:40 23.11.2022
921 Clear -13 1006 72 10000 3 170 10:42 23.11.2022
922 Clear -8 1006 67 10000 1 0 09:42 23.11.2022
923 Clear -8 1006 67 10000 1 0 09:23 23.11.2022
924 Clear -5 1007 54 10000 0 0 08:36 23.11.2022
925 Clear -9 1009 62 10000 1 0 05:22 23.11.2022
926 Clouds -17 1010 71 8000 1 0 02:56 23.11.2022
927 Clouds -18 1012 85 10000 0 0 22:59 22.11.2022
928 Clouds -18 1012 85 10000 0 0 22:18 22.11.2022
929 Clouds -21 1013 77 10000 1 0 21:33 22.11.2022
930 Clouds -12 1024 85 10000 2.61 105 20:45 22.11.2022
931 Clear -21 1014 77 10000 2 0 19:52 22.11.2022
932 Clear -22 1015 77 10000 0 0 17:55 22.11.2022
933 Clear -21 1015 84 10000 1 0 16:48 22.11.2022
934 Clear -18 1016 78 10000 2 0 15:24 22.11.2022
935 Clear -18 1016 78 10000 1 0 13:24 22.11.2022
936 Clear -13 1014 72 10000 2 0 10:25 22.11.2022
937 Clouds -7 1014 63 8000 0 0 09:18 22.11.2022
938 Clouds -8 1014 57 6000 1 0 07:18 22.11.2022
939 Clouds -18 1013 78 8000 0 0 01:38 22.11.2022
940 Clouds -18 1012 78 10000 1 0 23:36 21.11.2022
941 Clouds -19 1013 78 10000 1 0 22:34 21.11.2022
942 Snow -18 1013 85 10000 0 0 21:58 21.11.2022
943 Snow -19 1013 78 10000 1 0 20:36 21.11.2022
944 Clouds -9 1021 81 10000 1.7 91 19:41 21.11.2022
945 Clouds -17 1014 85 10000 1 0 18:54 21.11.2022
946 Clear -19 1014 71 10000 0 0 17:46 21.11.2022
947 Clear -20 1014 77 10000 1 0 16:52 21.11.2022
948 Clear -20 1014 77 10000 1 0 16:34 21.11.2022
949 Clear -20 1015 77 10000 1 0 15:24 21.11.2022
950 Clear -18 1014 78 10000 0 0 13:55 21.11.2022
951 Clear -18 1014 78 10000 0 0 13:34 21.11.2022
952 Clouds -13 1013 72 10000 2 0 10:24 21.11.2022
953 Clouds -10 1013 62 10000 1 0 08:21 21.11.2022
954 Clouds -15 1015 66 8000 1 0 05:44 21.11.2022
955 Clouds -15 1030 81 10000 2.55 93 22:25 20.11.2022
956 Clouds -16 1031 83 10000 2.16 96 21:24 20.11.2022
957 Clear -25 1018 77 10000 0 0 20:23 20.11.2022
958 Clear -26 1018 70 10000 1 0 18:20 20.11.2022
959 Clear -25 1018 77 10000 1 0 15:59 20.11.2022
960 Clear -25 1018 77 10000 1 0 15:28 20.11.2022
961 Clear -25 1018 77 10000 2 0 14:30 20.11.2022
962 Clear -22 1017 77 10000 1 0 13:32 20.11.2022
963 Clear -22 1017 77 10000 1 0 13:32 20.11.2022
964 Clear -23 1017 77 10000 2 0 12:31 20.11.2022
965 Clear -16 1016 72 10000 0 0 10:59 20.11.2022
966 Clear -16 1016 72 10000 0 0 10:22 20.11.2022
967 Clear -14 1015 66 10000 2 0 08:59 20.11.2022
968 Clear -14 1015 61 8000 0 0 08:34 20.11.2022
969 Clouds -15 1015 61 8000 0 0 07:28 20.11.2022
970 Clear -28 1016 69 10000 1 0 01:50 20.11.2022
971 Clear -28 1016 69 10000 1 0 01:18 20.11.2022
972 Clear -28 1016 76 10000 0 0 00:40 20.11.2022
973 Clear -28 1016 76 10000 0 0 00:21 20.11.2022
974 Clouds -18 1030 89 10000 1.34 101 23:49 19.11.2022
975 Clouds -17 1029 87 10000 1.26 107 23:22 19.11.2022
976 Clouds -17 1029 87 10000 1.26 107 22:35 19.11.2022
977 Clouds -16 1029 86 10000 1.3 114 21:32 19.11.2022
978 Clear -26 1017 70 10000 1 0 20:44 19.11.2022
979 Clear -26 1017 70 10000 1 0 20:25 19.11.2022
980 Clear -26 1017 70 10000 1 0 18:55 19.11.2022
981 Clear -25 1018 77 10000 2 0 17:39 19.11.2022
982 Clear -25 1018 77 10000 2 0 17:19 19.11.2022
983 Clear -24 1018 77 10000 2 0 15:36 19.11.2022
984 Clear -22 1018 77 10000 3 170 13:46 19.11.2022
985 Clear -21 1018 77 10000 3 150 11:58 19.11.2022
986 Clear -15 1018 66 10000 1 0 10:20 19.11.2022
987 Clear -12 1018 67 10000 5 310 08:38 19.11.2022
988 Clouds -13 1019 72 10000 7 340 04:50 19.11.2022
989 Clouds -14 1018 72 10000 4 360 01:52 19.11.2022
990 Clouds -12 1017 67 10000 6 340 23:40 18.11.2022
991 Clouds -12 1017 72 10000 6 340 22:34 18.11.2022
992 Clouds -12 1016 72 10000 6 340 21:37 18.11.2022
993 Clouds -12 1015 72 10000 8 350 20:59 18.11.2022
994 Clouds -12 1015 72 10000 8 350 20:26 18.11.2022
995 Clouds -12 1015 79 5000 7 350 19:46 18.11.2022
996 Clouds -11 1014 73 5000 6 320 18:23 18.11.2022
997 Clouds -11 1012 85 3000 10 330 16:41 18.11.2022
998 Snow -8 1009 79 4000 4 340 13:36 18.11.2022
999 Snow -7 1008 86 3000 4 340 11:24 18.11.2022
1000 Snow -4 1008 93 5000 2 0 07:59 18.11.2022
1001 Snow -4 1010 93 6000 2 0 06:23 18.11.2022
1002 Snow -3 1011 59 8000 0 0 05:18 18.11.2022
1003 Snow -8 1014 73 10000 1 0 00:40 18.11.2022
1004 Clouds -9 1017 73 10000 1 0 20:59 17.11.2022
1005 Clouds -9 1017 73 10000 1 0 20:26 17.11.2022
1006 Clouds -9 1017 73 10000 1 0 19:50 17.11.2022
1007 Clouds -9 1018 73 10000 2 0 18:34 17.11.2022
1008 Clouds -9 1018 73 10000 1 0 17:32 17.11.2022
1009 Clouds -9 1018 73 10000 3 290 16:42 17.11.2022
1010 Clouds -5 1019 63 10000 2 0 12:29 17.11.2022
1011 Clouds -5 1019 63 10000 2 0 11:21 17.11.2022
1012 Clear 2 1017 35 10000 1 0 08:19 17.11.2022
1013 Clear -17 1017 78 8000 1 0 02:35 17.11.2022
1014 Clear -18 1014 85 10000 2 0 00:20 17.11.2022
1015 Clear -17 1013 78 10000 1 0 22:27 16.11.2022
1016 Clear -15 1012 78 10000 2 0 20:35 16.11.2022
1017 -273 0 0 0 0 0 19:30 16.11.2022
1018 Clear -15 1011 78 10000 1 0 18:33 16.11.2022
1019 Clear -10 1010 73 10000 1 0 16:37 16.11.2022
1020 Clouds -6 1009 68 10000 0 0 13:30 16.11.2022
1021 Clouds -2 1006 59 8000 3 150 08:45 16.11.2022
1022 Clear -7 1016 68 10000 1.77 114 01:54 16.11.2022
1023 Clouds -8 1016 70 10000 1.93 108 00:40 16.11.2022
1024 Clouds -8 1016 71 10000 1.68 105 21:54 15.11.2022
1025 Clear -18 1009 85 10000 0 0 20:32 15.11.2022
1026 Clear -16 1009 85 10000 1 0 19:18 15.11.2022
1027 Clear -16 1009 85 10000 1 0 19:18 15.11.2022
1028 Clear -17 1010 78 10000 2 0 17:38 15.11.2022
1029 Clear -15 1010 78 10000 1 0 16:52 15.11.2022
1030 Clear -15 1010 78 10000 1 0 16:18 15.11.2022
1031 Clear -15 1011 78 10000 0 0 14:42 15.11.2022
1032 Clear -13 1011 78 10000 1 0 12:59 15.11.2022
1033 Clear -8 1011 62 10000 1 0 11:29 15.11.2022
1034 Clear -4 1011 58 10000 2 0 10:35 15.11.2022
1035 Clouds -8 1014 67 6000 1 0 05:19 15.11.2022
1036 Clear -19 1014 84 10000 2 0 00:28 15.11.2022
1037 Clear -18 1014 78 10000 1 0 22:52 14.11.2022
1038 Clear -16 1014 78 10000 1 0 21:18 14.11.2022
1039 Clear -17 1013 78 10000 2 0 20:30 14.11.2022
1040 Clear -15 1013 78 10000 1 0 18:28 14.11.2022
1041 Clear -15 1013 78 10000 1 0 14:59 14.11.2022
1042 Clouds -7 1012 63 10000 2 0 11:49 14.11.2022
1043 Clouds -7 1012 63 10000 2 0 11:28 14.11.2022
1044 Clear -3 1011 54 10000 3 180 08:48 14.11.2022
1045 Clouds -3 1011 50 8000 0 0 07:53 14.11.2022
1046 Clear -9 1013 62 8000 1 0 05:46 14.11.2022
1047 Clear -20 1012 77 10000 2 0 23:24 13.11.2022
1048 Clear -20 1012 77 10000 0 0 21:43 13.11.2022
1049 Clear -20 1012 77 10000 0 0 21:43 13.11.2022
1050 Clear -19 1012 78 10000 1 0 20:54 13.11.2022
1051 Clear -19 1013 84 10000 2 0 18:59 13.11.2022
1052 Clear -18 1013 78 10000 0 0 17:50 13.11.2022
1053 Clear -16 1014 78 10000 1 0 16:25 13.11.2022
1054 Clear -15 1014 72 10000 2 0 14:44 13.11.2022
1055 Clear -9 1014 57 10000 1 0 12:58 13.11.2022
1056 Clear -9 1014 57 10000 1 0 12:24 13.11.2022
1057 Clear -6 1014 58 10000 2 0 10:42 13.11.2022
1058 Clouds -6 1016 58 8000 1 0 06:29 13.11.2022
1059 Clear -16 1017 85 10000 1 0 23:58 12.11.2022
1060 Clear -19 1018 78 10000 2 0 21:42 12.11.2022
1061 Clear -19 1018 78 10000 2 0 21:19 12.11.2022
1062 Clear -16 1019 78 10000 1 0 19:52 12.11.2022
1063 Clear -17 1020 85 10000 1 0 17:33 12.11.2022
1064 Clear -16 1020 78 10000 1 0 16:19 12.11.2022
1065 Clear -15 1020 78 10000 0 0 14:46 12.11.2022
1066 Clouds -9 1020 79 10000 1 0 10:39 12.11.2022
1067 Clouds -6 1022 63 8000 1 0 07:48 12.11.2022
1068 Clear -19 1026 78 10000 0 0 00:40 12.11.2022
1069 Clear -19 1027 84 10000 1 0 21:31 11.11.2022
1070 Clear -18 1027 85 10000 1 0 20:44 11.11.2022
1071 Clear -18 1027 85 10000 1 0 20:44 11.11.2022
1072 Clear -18 1027 85 10000 1 0 19:28 11.11.2022
1073 Clouds -17 1027 85 10000 1 0 18:40 11.11.2022
1074 Clouds -11 1027 79 10000 1 0 17:41 11.11.2022
1075 Clear -13 1027 78 10000 2 0 15:30 11.11.2022
1076 Clear -13 1027 78 10000 2 0 14:18 11.11.2022
1077 Clear -11 1026 79 10000 2 0 12:46 11.11.2022
1078 Clouds -6 1026 68 10000 5 200 09:32 11.11.2022
1079 Clear -6 1025 73 10000 4 220 08:27 11.11.2022
1080 Clouds -8 1026 79 10000 2 0 03:48 11.11.2022
1081 Clouds -8 1025 79 10000 4 350 22:54 10.11.2022
1082 Clouds -9 1024 86 10000 3 340 21:51 10.11.2022
1083 Clouds -9 1024 86 10000 3 340 21:30 10.11.2022
1084 Clouds -8 1024 86 5138 5 320 20:47 10.11.2022
1085 Clouds -8 1024 86 4565 5 320 20:20 10.11.2022
1086 Clouds -6 1023 79 10000 3 320 18:59 10.11.2022
1087 Clouds -6 1023 86 10000 6 340 17:59 10.11.2022
1088 Clouds -6 1023 86 10000 6 340 17:59 10.11.2022
1089 Clouds -6 1022 86 10000 6 310 16:25 10.11.2022
1090 Clouds -4 1021 80 10000 5 20 13:40 10.11.2022
1091 Clouds -4 1019 86 10000 3 360 11:29 10.11.2022
1092 Clouds -1 1017 74 10000 3 240 08:21 10.11.2022
1093 Clouds -9 1015 86 8000 0 0 01:27 10.11.2022
1094 Clouds -11 1014 85 10000 1 0 23:21 09.11.2022
1095 Clouds -10 1014 79 10000 1 0 21:59 09.11.2022
1096 Clouds -11 1015 92 10000 1 0 20:47 09.11.2022
1097 Clouds -11 1015 92 10000 1 0 20:29 09.11.2022
1098 Clouds -10 1015 85 10000 1 0 19:32 09.11.2022
1099 Clouds -11 1016 85 10000 2 0 18:39 09.11.2022
1100 Clouds -11 1016 85 10000 2 0 18:39 09.11.2022
1101 Clouds -8 1015 79 10000 1 0 15:55 09.11.2022
1102 Clouds -7 1016 79 10000 1 0 14:45 09.11.2022
1103 Clouds -7 1016 79 10000 1 0 14:23 09.11.2022
1104 Clouds -4 1016 80 10000 1 0 12:58 09.11.2022
1105 Clouds 2 1015 60 10000 1 0 10:29 09.11.2022
1106 Clouds 3 1015 60 8000 2 0 08:32 09.11.2022
1107 Clouds 2 1015 51 8000 1 0 07:41 09.11.2022
1108 Clear -14 1015 85 10000 1 0 23:53 08.11.2022
1109 Clouds -13 1015 85 10000 1 0 21:44 08.11.2022
1110 Clouds -13 1015 85 10000 1 0 21:25 08.11.2022
1111 Clouds -11 1015 79 10000 1 0 20:40 08.11.2022
1112 Clear -12 1015 85 10000 1 0 19:36 08.11.2022
1113 Clear -11 1015 85 10000 0 0 18:24 08.11.2022
1114 Clear -9 1016 79 10000 2 0 16:20 08.11.2022
1115 Clear -9 1015 86 10000 1 0 14:55 08.11.2022
1116 Clear -9 1015 86 10000 2 0 13:36 08.11.2022
1117 Clear -5 1014 74 10000 1 0 12:45 08.11.2022
1118 Clear 3 1013 44 10000 1 0 09:18 08.11.2022
1119 Clear 2 1014 55 8000 3 220 07:25 08.11.2022
1120 Clouds -6 1021 73 10000 1.91 99 00:33 08.11.2022
1121 Clear -15 1015 78 10000 2 0 22:24 07.11.2022
1122 Clear -15 1015 85 10000 0 0 21:21 07.11.2022
1123 Clear -15 1015 85 10000 1 0 20:33 07.11.2022
1124 Clear -14 1016 85 10000 2 0 17:52 07.11.2022
1125 Clear -14 1016 78 10000 1 0 16:39 07.11.2022
1126 Clear -13 1016 85 10000 1 0 15:35 07.11.2022
1127 Clear -13 1016 78 10000 1 0 14:46 07.11.2022
1128 Clear -8 1016 79 10000 2 0 12:36 07.11.2022
1129 Clear -6 1015 73 10000 2 0 11:30 07.11.2022
1130 Clear 1 1016 47 10000 1 0 09:36 07.11.2022
1131 Clouds -2 1017 64 8000 1 0 07:50 07.11.2022
1132 Clouds -9 1019 67 8000 1 0 04:20 07.11.2022
1133 Clouds -8 1028 78 10000 2.23 105 01:21 07.11.2022
1134 Clear -17 1021 85 10000 0 0 22:21 06.11.2022
1135 Clear -17 1022 85 10000 2 0 21:20 06.11.2022
1136 Clear -17 1022 85 10000 1 0 20:32 06.11.2022
1137 Clear -17 1022 85 10000 1 0 19:34 06.11.2022
1138 Clear -16 1022 85 10000 1 0 18:40 06.11.2022
1139 Clear -16 1022 85 10000 1 0 18:19 06.11.2022
1140 Clear -16 1023 78 10000 1 0 17:21 06.11.2022
1141 Clear -13 1023 85 10000 1 0 16:40 06.11.2022
1142 Clear -15 1023 85 10000 2 0 15:43 06.11.2022
1143 Clear -12 1023 79 10000 2 0 12:49 06.11.2022
1144 Clear -12 1023 79 10000 2 0 12:28 06.11.2022
1145 Clear -3 1022 59 10000 2 0 10:45 06.11.2022
1146 Clear -1 1022 55 8000 1 0 07:45 06.11.2022
1147 Clear -19 1021 84 10000 1 0 00:50 06.11.2022
1148 Clear -17 1020 78 10000 1.39 7 22:54 05.11.2022
1149 Clear -15 1019 85 8000 1 0 19:28 05.11.2022
1150 Clear -13 1019 78 8000 2 0 17:45 05.11.2022
1151 Clear -15 1018 78 8000 1 0 15:53 05.11.2022
1152 Clear -14 1018 78 10000 2 0 14:33 05.11.2022
1153 Clear -11 1017 73 10000 2 0 12:51 05.11.2022
1154 Clear -5 1017 68 10000 1 0 10:31 05.11.2022
1155 Clouds -2 1017 64 8000 2 0 08:24 05.11.2022
1156 Clouds -4 1019 58 8000 0 0 06:57 05.11.2022
1157 Clouds -16 1020 85 8000 1 0 02:35 05.11.2022
1158 Clear -18 1021 85 10000 1 0 23:34 04.11.2022
1159 Clear -17 1021 78 10000 0 0 22:21 04.11.2022
1160 -273 0 0 0 0 0 19:55 04.11.2022
1161 Clear -15 1022 78 10000 1 0 19:53 04.11.2022
1162 Clear -16 1022 78 10000 1 0 17:45 04.11.2022
1163 Clear -16 1023 78 10000 1 0 16:33 04.11.2022
1164 Clear -15 1024 85 10000 2 0 13:24 04.11.2022
1165 Clear -12 1024 79 10000 1 0 12:21 04.11.2022
1166 Clear -3 1024 63 10000 2 0 09:31 04.11.2022
1167 Clear -3 1024 63 10000 1 0 08:21 04.11.2022
1168 Clear -3 1025 59 10000 1 0 07:26 04.11.2022
1169 Clear -20 1026 77 10000 0 0 00:58 04.11.2022
1170 Clear -19 1026 78 10000 0 0 22:25 03.11.2022
1171 Clear -19 1027 78 10000 1 0 20:47 03.11.2022
1172 Clear -20 1027 84 10000 2 0 19:42 03.11.2022
1173 Clear -19 1027 78 10000 1 0 18:32 03.11.2022
1174 Clear -18 1027 78 10000 2 0 17:38 03.11.2022
1175 Clear -16 1028 78 10000 2 0 15:41 03.11.2022
1176 Clear -16 1028 72 10000 1 0 13:47 03.11.2022
1177 Clear -14 1027 66 10000 2 0 12:35 03.11.2022
1178 Clear -13 1027 72 10000 3 170 11:43 03.11.2022
1179 Clear -6 1029 63 10000 1 0 07:49 03.11.2022
1180 Clear -19 1029 78 10000 0 0 22:43 02.11.2022
1181 Clear -19 1029 84 10000 1 0 20:56 02.11.2022
1182 Clear -20 1029 84 10000 0 0 20:32 02.11.2022
1183 Clear -19 1029 84 10000 2 0 18:45 02.11.2022
1184 Clear -16 1029 78 10000 2 0 16:29 02.11.2022
1185 Clear -13 1029 85 10000 0 0 15:33 02.11.2022
1186 Clear -14 1028 78 10000 2 0 13:26 02.11.2022
1187 Clear -14 1028 72 10000 2 0 12:28 02.11.2022
1188 Clear -8 1027 73 10000 3 170 10:23 02.11.2022
1189 Clear -3 1027 59 10000 1 0 08:38 02.11.2022
1190 Clouds -19 1028 78 8000 1 0 02:40 02.11.2022
1191 Clear -19 1025 84 10000 2 0 22:41 01.11.2022
1192 Clear -19 1025 84 10000 2 0 22:18 01.11.2022
1193 Clear -18 1025 78 10000 3 170 20:55 01.11.2022
1194 Clear -18 1025 78 10000 3 170 20:23 01.11.2022
1195 Clear -18 1025 85 10000 2 0 19:41 01.11.2022
1196 Clear -18 1024 78 10000 3 170 18:26 01.11.2022
1197 Clear -15 1024 78 10000 2 0 16:28 01.11.2022
1198 Clear -15 1023 78 10000 1 0 14:45 01.11.2022
1199 Clear -15 1023 78 10000 2 0 12:57 01.11.2022
1200 Clear -11 1022 73 10000 1 0 12:25 01.11.2022
1201 Clear -7 1021 68 10000 3 320 11:20 01.11.2022
1202 Clear -2 1020 54 10000 5 320 09:22 01.11.2022
1203 Clear -3 1020 63 10000 2 0 07:51 01.11.2022
1204 Clear -3 1020 63 10000 2 0 07:28 01.11.2022
1205 Clear -4 1021 58 10000 0 0 06:45 01.11.2022
1206 Clear -6 1021 63 10000 1 0 05:19 01.11.2022
1207 Clouds -11 1020 79 10000 0 0 22:43 31.10.2022
1208 Clouds -11 1021 79 10000 1 0 21:32 31.10.2022
1209 Clouds -13 1022 85 10000 0 0 19:56 31.10.2022
1210 Clear -17 1022 85 10000 0 0 18:36 31.10.2022
1211 Clear -17 1023 85 10000 2 0 16:44 31.10.2022
1212 Clear -16 1023 78 10000 2 0 15:30 31.10.2022
1213 Clear -15 1023 78 10000 2 0 12:21 31.10.2022
1214 Clouds -7 1024 73 10000 2 0 09:35 31.10.2022
1215 Clouds -7 1025 79 10000 2 0 05:52 31.10.2022
1216 Clouds -11 1025 92 10000 1 0 02:42 31.10.2022
1217 Clouds -14 1025 85 10000 1 0 01:46 31.10.2022
1218 Clouds -9 1024 86 10000 1 0 22:18 30.10.2022
1219 Clouds -16 1024 85 10000 3 170 20:37 30.10.2022
1220 Clouds -9 1024 79 10000 1 0 19:33 30.10.2022
1221 Clouds -10 1023 85 10000 0 0 16:29 30.10.2022
1222 Clouds -9 1023 79 10000 1 0 14:33 30.10.2022
1223 Clouds -7 1022 73 10000 4 320 13:34 30.10.2022
1224 Clouds -5 1021 80 10000 6 320 11:58 30.10.2022
1225 Clouds -4 1020 80 10000 8 330 09:58 30.10.2022
1226 Clouds -3 1018 80 6000 8 320 08:57 30.10.2022
1227 Clouds -3 1017 80 6000 9 320 07:45 30.10.2022
1228 Snow -2 1014 93 1100 6 330 00:29 30.10.2022
1229 Snow -2 1014 93 1100 6 330 00:29 30.10.2022
1230 Snow -2 1013 93 4000 5 240 23:46 29.10.2022
1231 Clouds -1 1013 93 10000 1 0 21:56 29.10.2022
1232 Clouds 1 1015 86 10000 3 20 18:38 29.10.2022
1233 Clouds 1 1015 86 10000 3 90 17:22 29.10.2022
1234 Clouds 2 1015 75 10000 2 0 15:38 29.10.2022
1235 Clouds 1 1015 75 10000 0 0 14:52 29.10.2022
1236 Clouds 2 1015 75 10000 3 60 13:29 29.10.2022
1237 Clouds 3 1015 70 10000 3 30 12:32 29.10.2022
1238 Clouds 4 1016 65 10000 3 70 08:56 29.10.2022
1239 Clouds 4 1018 65 10000 6 140 06:48 29.10.2022
1240 Rain 2 1018 64 10000 1 0 05:53 29.10.2022
1241 Clouds 1 1020 37 10000 1 0 23:43 28.10.2022
1242 Clouds -1 1021 51 10000 1 0 21:31 28.10.2022
1243 Clear 2 1021 32 10000 2 0 19:46 28.10.2022
1244 Clear 0 1022 40 10000 1 0 18:32 28.10.2022
1245 Clouds 0 1022 47 10000 1 0 17:39 28.10.2022
1246 Clear 2 1022 35 10000 5 140 14:46 28.10.2022
1247 Clear 2 1022 35 10000 5 140 13:43 28.10.2022
1248 Clear 3 1022 32 10000 5 140 11:54 28.10.2022
1249 Clear 8 1022 25 10000 5 170 11:32 28.10.2022
1250 Clear 9 1022 25 10000 4 180 10:44 28.10.2022
1251 Clear 9 1023 25 10000 5 170 08:40 28.10.2022
1252 Clouds 4 1025 38 8000 1 0 06:51 28.10.2022
1253 Clear -11 1025 85 10000 1 0 00:52 28.10.2022
1254 Clear -10 1025 85 10000 1 0 23:45 27.10.2022
1255 Clear -9 1026 79 10000 0 0 22:32 27.10.2022
1256 Clear -10 1026 85 10000 1 0 20:53 27.10.2022
1257 Clear -9 1026 79 10000 1 0 18:30 27.10.2022
1258 Clear -4 1026 68 10000 0 0 16:38 27.10.2022
1259 Clear 2 1024 38 10000 1 0 12:33 27.10.2022
1260 Clouds 4 1026 48 10000 6 150 07:41 27.10.2022
1261 Clouds -2 1027 50 10000 5 140 02:51 27.10.2022
1262 Clouds -1 1027 40 10000 8 130 23:53 26.10.2022
1263 Clouds -1 1027 37 10000 6 150 22:41 26.10.2022
1264 Clouds -1 1027 37 10000 7 140 21:33 26.10.2022
1265 Clouds -2 1028 46 10000 8 140 18:21 26.10.2022
1266 Clear -3 1029 43 10000 4 150 14:54 26.10.2022
1267 Clear -2 1029 37 10000 4 140 13:33 26.10.2022
1268 Clear -3 1028 33 10000 4 150 12:26 26.10.2022
1269 Clear 3 1029 20 10000 5 180 09:19 26.10.2022
1270 Clear 3 1029 20 10000 4 170 08:53 26.10.2022
1271 Clear 0 1031 34 10000 1 0 07:30 26.10.2022
1272 Clear -16 1032 78 10000 1 0 00:38 26.10.2022
1273 Clear -15 1031 78 10000 2 0 22:43 25.10.2022
1274 Clear -12 1031 79 10000 1 0 21:46 25.10.2022
1275 Clear -14 1031 85 10000 3 160 20:45 25.10.2022
1276 Clear -12 1031 79 10000 2 0 18:57 25.10.2022
1277 Clear -11 1030 79 10000 2 0 17:49 25.10.2022
1278 Clear -5 1027 58 10000 3 320 13:26 25.10.2022
1279 Clouds 0 1025 43 10000 7 340 11:38 25.10.2022
1280 Clouds 0 1024 43 10000 8 340 10:36 25.10.2022
1281 Clouds 1 1023 47 10000 7 340 08:43 25.10.2022
1282 Clouds 1 1023 47 10000 7 340 08:18 25.10.2022
1283 Clouds 0 1024 55 10000 6 350 07:54 25.10.2022
1284 Clouds -1 1023 69 10000 6 340 06:53 25.10.2022
1285 Clouds -2 1021 74 10000 4 350 03:35 25.10.2022
1286 Clouds -1 1018 80 10000 5 330 00:33 25.10.2022
1287 Clouds 0 1017 74 10000 4 340 22:29 24.10.2022
1288 Clouds 0 1016 74 10000 5 330 21:50 24.10.2022
1289 Snow 0 1016 74 10000 5 330 21:32 24.10.2022
1290 Clouds 0 1015 74 10000 2 0 20:40 24.10.2022
1291 Rain 3 1014 60 10000 2 0 18:52 24.10.2022
1292 Clear 4 1014 52 10000 4 360 16:59 24.10.2022
1293 Clear 3 1013 44 10000 1 0 15:51 24.10.2022
1294 Clear 5 1012 36 10000 2 0 14:21 24.10.2022
1295 Clear 6 1010 31 10000 4 150 12:53 24.10.2022
1296 Clear 14 1010 18 10000 1 0 10:27 24.10.2022
1297 Clear 12 1011 20 10000 2 0 07:56 24.10.2022
1298 Clear 2 1016 47 10000 2.62 115 23:45 23.10.2022
1299 Clear 3 1017 44 10000 2.75 112 20:41 23.10.2022
1300 Clear 3 1017 43 10000 2.66 114 19:34 23.10.2022
1301 Clear -5 1018 74 10000 1 0 17:30 23.10.2022
1302 Clear -1 1018 59 10000 0 0 16:37 23.10.2022
1303 Clear 0 1018 51 10000 1 0 15:19 23.10.2022
1304 Clear 5 1018 36 10000 1 0 12:31 23.10.2022
1305 Clear 12 1019 24 10000 3 220 10:58 23.10.2022
1306 Clear 6 1023 33 8000 1 0 06:55 23.10.2022
1307 Clear 0 1027 61 10000 1.85 111 23:32 22.10.2022
1308 Clear -8 1026 79 10000 0 0 22:30 22.10.2022
1309 Clear -8 1026 79 10000 1 0 21:40 22.10.2022
1310 Clear -9 1026 79 10000 0 0 20:28 22.10.2022
1311 Clear -7 1026 73 10000 0 0 19:31 22.10.2022
1312 Clear -8 1027 73 10000 2 0 17:42 22.10.2022
1313 Clear -6 1027 68 10000 0 0 16:50 22.10.2022
1314 Clear -4 1027 58 10000 2 0 15:18 22.10.2022
1315 Clear -4 1026 54 10000 2 0 14:31 22.10.2022
1316 Clouds 8 1025 25 10000 5 300 11:40 22.10.2022
1317 Clouds 9 1025 25 10000 5 310 09:46 22.10.2022
1318 Clouds 8 1025 27 10000 4 310 08:37 22.10.2022
1319 Clear 6 1026 33 10000 1 0 06:19 22.10.2022
1320 Clear -8 1024 79 10000 1 0 00:55 22.10.2022
1321 Clear -7 1024 86 10000 0 0 22:52 21.10.2022
1322 Clear -7 1024 86 10000 1 0 21:33 21.10.2022
1323 Clear -6 1024 86 10000 1 0 20:39 21.10.2022
1324 Clear -4 1024 80 10000 1 0 18:28 21.10.2022
1325 Clear 1 1023 64 10000 4 220 14:46 21.10.2022
1326 Clouds 2 1023 60 10000 4 220 13:40 21.10.2022
1327 Clouds 5 1022 45 10000 4 250 11:47 21.10.2022
1328 Clouds 5 1022 42 10000 4 230 10:24 21.10.2022
1329 Clouds 4 1023 48 10000 3 240 08:51 21.10.2022
1330 Clouds 4 1023 48 10000 3 240 08:21 21.10.2022
1331 Clouds -2 1024 86 10000 0 0 04:30 21.10.2022
1332 Clouds -6 1023 93 10000 1 0 23:25 20.10.2022
1333 Clear -7 1024 86 10000 1 0 21:21 20.10.2022
1334 Clouds -7 1023 93 10000 3 180 19:44 20.10.2022
1335 Clouds -4 1023 86 10000 0 0 18:49 20.10.2022
1336 Clouds -1 1023 86 10000 1 0 17:43 20.10.2022
1337 Clouds 0 1022 80 10000 0 0 14:38 20.10.2022
1338 Clouds 2 1020 64 10000 3 300 12:32 20.10.2022
1339 Clouds 4 1019 60 10000 7 340 11:29 20.10.2022
1340 Clouds 4 1018 65 10000 6 340 10:51 20.10.2022
1341 Clouds 4 1017 70 10000 6 340 09:30 20.10.2022
1342 Clouds 3 1017 75 10000 7 330 07:23 20.10.2022
1343 Clouds 1 1014 86 10000 2 0 02:22 20.10.2022
1344 Clouds 2 1012 48 10000 0 0 23:39 19.10.2022
1345 Clouds 1 1012 51 10000 1 0 22:23 19.10.2022
1346 Clouds 0 1011 55 10000 1 0 21:27 19.10.2022
1347 Clouds 1 1012 51 10000 2 0 19:55 19.10.2022
1348 Clear -2 1011 59 10000 0 0 17:52 19.10.2022
1349 Clear 0 1011 47 10000 1 0 16:24 19.10.2022
1350 Clouds 8 1011 25 10000 1 0 14:27 19.10.2022
1351 Clouds 10 1010 27 8000 0 0 12:20 19.10.2022
1352 Clouds 10 1012 25 8000 1 0 08:49 19.10.2022
1353 Clouds 9 1012 25 8000 1 0 07:23 19.10.2022
1354 Clear -7 1013 68 10000 1 0 01:33 19.10.2022
1355 Clear -5 1013 63 10000 0 0 23:25 18.10.2022
1356 Clear -5 1014 58 10000 1 0 21:49 18.10.2022
1357 Clear -5 1014 58 10000 1 0 21:24 18.10.2022
1358 Clear -5 1014 58 10000 1 0 20:27 18.10.2022
1359 Clear -6 1015 58 10000 2 0 18:58 18.10.2022
1360 Clear -3 1014 46 10000 0 0 16:56 18.10.2022
1361 Clear 2 1014 27 10000 2 0 14:59 18.10.2022
1362 Clouds 2 1014 27 10000 3 140 13:39 18.10.2022
1363 Clouds 10 1014 14 10000 2 0 11:47 18.10.2022
1364 Clouds 10 1014 14 10000 1 0 10:29 18.10.2022
1365 Clouds 10 1015 14 10000 0 0 09:25 18.10.2022
1366 Clear 4 1017 26 10000 1 0 05:54 18.10.2022
1367 Clear -2 1022 26 10000 1.71 107 23:35 17.10.2022
1368 Clear -12 1021 72 10000 0 0 21:31 17.10.2022
1369 Clear -2 1023 28 10000 1.31 103 20:49 17.10.2022
1370 Clear -2 1024 28 10000 1.3 107 20:29 17.10.2022
1371 Clear -11 1022 67 10000 0 0 19:41 17.10.2022
1372 Clear -11 1022 67 10000 0 0 19:41 17.10.2022
1373 Clear -7 1023 53 10000 0 0 17:47 17.10.2022
1374 Clear -6 1023 49 10000 1 0 15:55 17.10.2022
1375 Clear -6 1023 49 10000 1 0 15:20 17.10.2022
1376 Clear 0 1023 29 10000 2 0 12:48 17.10.2022
1377 Clear 4 1026 22 10000 1 0 08:59 17.10.2022
1378 Clear -5 1035 55 10000 0.23 117 01:41 17.10.2022
1379 Clear -14 1031 78 10000 0 0 22:54 16.10.2022
1380 Clear -14 1032 78 10000 1 0 21:22 16.10.2022
1381 Clear -12 1032 72 10000 1 0 19:51 16.10.2022
1382 Clear -12 1032 72 10000 1 0 19:27 16.10.2022
1383 Clear -11 1033 73 10000 2 0 17:45 16.10.2022
1384 Clear -11 1033 73 10000 3 160 16:29 16.10.2022
1385 Clear -11 1033 67 10000 2 0 15:55 16.10.2022
1386 Clear 0 1033 29 10000 3 350 12:29 16.10.2022
1387 Clear 2 1033 25 10000 6 310 11:27 16.10.2022
1388 Clouds 2 1033 25 10000 5 320 10:26 16.10.2022
1389 Clear -4 1035 58 10000 1 0 04:52 16.10.2022
1390 Clouds -12 1033 79 10000 1 0 23:43 15.10.2022
1391 Clouds -9 1032 79 10000 1 0 21:53 15.10.2022
1392 Clouds -9 1032 79 10000 1 0 21:18 15.10.2022
1393 Clouds -7 1032 73 10000 1 0 19:32 15.10.2022
1394 Clouds -9 1032 73 10000 1 0 17:23 15.10.2022
1395 Clear -10 1032 73 10000 2 0 15:45 15.10.2022
1396 Clouds -4 1031 54 10000 3 340 13:26 15.10.2022
1397 Clouds 0 1030 34 10000 4 360 11:43 15.10.2022
1398 Clouds 0 1030 34 10000 5 300 09:37 15.10.2022
1399 Clouds 0 1031 40 10000 4 320 07:37 15.10.2022
1400 Clear -13 1029 85 10000 2 0 00:40 15.10.2022
1401 Clear -11 1028 79 10000 1 0 22:41 14.10.2022
1402 Clear -11 1028 79 10000 1 0 22:22 14.10.2022
1403 Clear -10 1027 85 10000 1 0 20:46 14.10.2022
1404 Clouds -7 1026 79 10000 0 0 18:39 14.10.2022
1405 Clouds -2 1025 64 10000 2 0 15:32 14.10.2022
1406 Clouds 2 1022 41 10000 5 340 12:48 14.10.2022
1407 Clouds 4 1021 30 10000 5 340 11:25 14.10.2022
1408 Clouds 4 1021 41 10000 4 340 08:26 14.10.2022
1409 Clouds 3 1022 52 10000 3 330 06:46 14.10.2022
1410 Clouds 3 1022 52 10000 3 330 06:18 14.10.2022
1411 Clouds 1 1022 64 10000 5 330 05:42 14.10.2022
1412 Clouds -4 1020 86 10000 2 0 02:26 14.10.2022
1413 Clear -6 1019 79 10000 1 0 23:23 13.10.2022
1414 Clear -5 1018 74 10000 2 0 21:39 13.10.2022
1415 Clouds -3 1017 63 10000 0 0 20:42 13.10.2022
1416 Clouds -1 1017 59 10000 1 0 19:42 13.10.2022
1417 Clear -3 1017 63 10000 2 0 18:51 13.10.2022
1418 Clear -3 1017 63 10000 2 0 18:20 13.10.2022
1419 Clear 4 1017 33 10000 1 0 15:49 13.10.2022
1420 Clear 4 1017 33 10000 1 0 15:28 13.10.2022
1421 Clear 3 1016 38 10000 3 200 13:53 13.10.2022
1422 Clear 9 1016 25 10000 3 210 12:38 13.10.2022
1423 Clear 13 1016 19 10000 3 240 10:31 13.10.2022
1424 Clear 12 1018 22 10000 4 210 08:34 13.10.2022
1425 Clear 12 1018 22 10000 4 210 08:34 13.10.2022
1426 Clear 9 1019 27 10000 3 230 07:36 13.10.2022
1427 Clear -3 1021 74 10000 0 0 03:45 13.10.2022
1428 Clear -8 1021 86 10000 1 0 01:40 13.10.2022
1429 Clear 0 1024 68 10000 1.17 160 00:24 13.10.2022
1430 Clear -8 1022 86 10000 1 0 22:44 12.10.2022
1431 Clear -8 1022 79 10000 1 0 21:25 12.10.2022
1432 Clear -7 1022 86 10000 2 0 20:56 12.10.2022
1433 Clear -7 1022 86 10000 2 0 20:28 12.10.2022
1434 Clear -4 1022 68 10000 1 0 19:19 12.10.2022
1435 Clear -3 1023 68 10000 0 0 17:54 12.10.2022
1436 Clear -2 1022 64 10000 1 0 16:48 12.10.2022
1437 Clear -1 1022 64 10000 2 0 14:20 12.10.2022
1438 Clear 0 1021 51 10000 1 0 13:50 12.10.2022
1439 Clear 8 1021 29 10000 5 290 11:25 12.10.2022
1440 Clouds 9 1021 25 10000 6 280 09:23 12.10.2022
1441 Clouds 8 1022 31 10000 4 240 07:41 12.10.2022
1442 Clouds 7 1023 39 10000 2 0 06:43 12.10.2022
1443 Clear 2 1022 60 10000 1 0 03:59 12.10.2022
1444 Clouds -2 1021 69 10000 1 0 23:40 11.10.2022
1445 Clouds 2 1021 51 10000 4 310 20:59 11.10.2022
1446 Clouds 2 1021 51 10000 4 310 20:26 11.10.2022
1447 Clouds 4 1020 38 10000 6 330 17:56 11.10.2022
1448 Clear 3 1019 35 10000 3 330 15:37 11.10.2022
1449 Clear 7 1018 24 10000 3 340 13:30 11.10.2022
1450 Clear 12 1016 17 10000 7 320 10:44 11.10.2022
1451 Clear 12 1016 17 10000 7 320 10:24 11.10.2022
1452 Clouds 12 1017 16 10000 3 290 08:30 11.10.2022
1453 Clear -6 1018 73 10000 0 0 02:52 11.10.2022
1454 Clear -8 1018 86 10000 1 0 00:39 11.10.2022
1455 Clear -8 1018 79 10000 1 0 22:54 10.10.2022
1456 Clear -8 1019 79 10000 0 0 20:48 10.10.2022
1457 Clear -5 1019 68 10000 0 0 19:40 10.10.2022
1458 Clear -4 1019 63 10000 1 0 17:34 10.10.2022
1459 Clear 2 1019 35 10000 0 0 16:36 10.10.2022
1460 Clear 3 1019 30 10000 3 170 13:59 10.10.2022
1461 Clear 8 1018 21 10000 3 230 12:23 10.10.2022
1462 Clear 13 1019 14 10000 5 200 10:20 10.10.2022
1463 Clear 9 1021 18 10000 1 0 07:21 10.10.2022
1464 Clouds 2 1022 32 8000 1 0 05:35 10.10.2022
1465 Clouds -2 1027 41 10000 1.94 110 01:58 10.10.2022
1466 Clouds -2 1027 41 10000 1.94 110 01:58 10.10.2022
1467 Clouds -2 1027 41 10000 1.94 110 01:58 10.10.2022
1468 Clear -12 1023 79 10000 1 0 00:23 10.10.2022
1469 Clear -11 1024 85 10000 0 0 22:26 09.10.2022
1470 Clear -10 1024 79 10000 0 0 21:45 09.10.2022
1471 Clear -11 1024 85 10000 1 0 20:45 09.10.2022
1472 Clear -8 1025 73 10000 0 0 19:52 09.10.2022
1473 Clear -9 1025 79 10000 0 0 18:52 09.10.2022
1474 Clear -9 1025 79 10000 0 0 18:25 09.10.2022
1475 Clear -8 1025 73 10000 0 0 16:56 09.10.2022
1476 Clear -8 1025 73 10000 0 0 16:24 09.10.2022
1477 Clear -4 1025 54 10000 1 0 15:27 09.10.2022
1478 Clear -6 1025 68 10000 3 170 14:27 09.10.2022
1479 Clear -5 1025 58 10000 3 170 12:54 09.10.2022
1480 Clear 6 1025 21 10000 2 0 11:32 09.10.2022
1481 Clear 5 1027 22 10000 3 240 09:40 09.10.2022
1482 Clear 3 1028 30 10000 2 0 07:35 09.10.2022
1483 Clear -8 1031 79 8000 0 0 03:30 09.10.2022
1484 Clear -12 1032 85 8000 0 0 02:23 09.10.2022
1485 Clear -13 1032 85 10000 1 0 23:56 08.10.2022
1486 Clear -12 1033 85 10000 2 0 22:52 08.10.2022
1487 Clear -7 1033 73 10000 0 0 20:52 08.10.2022
1488 Clear -9 1033 86 10000 2 0 19:51 08.10.2022
1489 Clear -9 1033 86 10000 2 0 17:55 08.10.2022
1490 Clouds -5 1033 74 10000 0 0 15:41 08.10.2022
1491 Clouds -1 1032 59 10000 4 340 13:53 08.10.2022
1492 Clouds -1 1032 59 10000 5 340 12:30 08.10.2022
1493 Clouds -1 1031 69 10000 5 20 10:36 08.10.2022
1494 Clouds -1 1030 69 10000 8 330 09:43 08.10.2022
1495 Clouds -1 1030 64 10000 6 350 07:50 08.10.2022
1496 Clouds -3 1028 74 10000 7 330 02:53 08.10.2022
1497 Clouds -3 1027 68 10000 8 340 00:32 08.10.2022
1498 Clouds -3 1026 74 10000 7 340 23:20 07.10.2022
1499 Clouds -3 1025 74 10000 6 340 22:24 07.10.2022
1500 Clouds -3 1025 68 10000 5 360 20:42 07.10.2022
1501 Clouds -2 1024 59 10000 6 350 19:18 07.10.2022
1502 Clouds 0 1021 43 10000 7 360 16:59 07.10.2022
1503 Clouds 0 1020 51 10000 7 360 15:56 07.10.2022
1504 Clouds 1 1019 51 10000 5 360 14:42 07.10.2022
1505 Snow 0 1017 86 8000 2 0 12:25 07.10.2022
1506 Clouds 4 1015 35 10000 3 10 09:28 07.10.2022
1507 Clouds 5 1015 28 10000 5 360 08:56 07.10.2022
1508 Clouds 3 1016 35 10000 1 0 06:23 07.10.2022
1509 Clouds -5 1017 74 10000 1 0 00:46 07.10.2022
1510 Clouds -6 1018 73 10000 0 0 22:50 06.10.2022
1511 Clouds -8 1018 79 10000 0 0 21:44 06.10.2022
1512 Clouds -8 1018 79 10000 0 0 21:25 06.10.2022
1513 Clear -7 1018 79 10000 1 0 19:55 06.10.2022
1514 Clear -7 1018 73 10000 1 0 18:37 06.10.2022
1515 Clear -7 1018 73 10000 1 0 18:18 06.10.2022
1516 Clouds 1 1018 34 10000 0 0 14:42 06.10.2022
1517 Clouds 7 1017 18 10000 3 280 11:30 06.10.2022
1518 Clouds 7 1019 19 10000 4 220 07:24 06.10.2022
1519 Clear -4 1021 63 10000 0 0 03:35 06.10.2022
1520 Clear -9 1021 79 10000 1 0 23:44 05.10.2022
1521 Clear -10 1022 79 10000 0 0 21:21 05.10.2022
1522 Clear -9 1022 79 10000 0 0 18:57 05.10.2022
1523 Clear -7 1023 68 10000 1 0 17:35 05.10.2022
1524 Clear -4 1023 58 10000 3 180 15:55 05.10.2022
1525 Clear -2 1023 50 10000 4 160 14:47 05.10.2022
1526 Clear -2 1023 54 10000 3 200 13:56 05.10.2022
1527 Clear 5 1023 20 10000 3 220 12:20 05.10.2022
1528 Clear 6 1025 22 10000 3 200 09:21 05.10.2022
1529 Clear 5 1026 20 10000 2 0 07:42 05.10.2022
1530 Clear 0 1028 40 10000 1 0 05:36 05.10.2022
1531 Clear -6 1029 73 10000 0 0 03:32 05.10.2022
1532 Clear -12 1029 85 10000 0 0 00:45 05.10.2022
1533 Clear -12 1029 85 10000 0 0 00:24 05.10.2022
1534 Clear -11 1028 85 10000 0 0 22:22 04.10.2022
1535 Clear -9 1028 79 10000 1 0 20:31 04.10.2022
1536 Clear -8 1028 73 10000 2 0 18:58 04.10.2022
1537 Clear -8 1028 73 10000 2 0 18:58 04.10.2022
1538 Clear -8 1028 79 10000 2 0 18:36 04.10.2022
1539 Clear -7 1027 73 10000 2 0 17:44 04.10.2022
1540 Clear -6 1027 68 10000 2 0 16:28 04.10.2022
1541 Clear 3 1025 20 10000 4 300 12:41 04.10.2022
1542 Clear 3 1025 20 10000 4 300 12:41 04.10.2022
1543 Clear 4 1027 24 10000 4 190 09:32 04.10.2022
1544 Clear 2 1029 27 10000 3 220 07:23 04.10.2022
1545 Clear -11 1032 85 10000 0 0 01:44 04.10.2022
1546 Clear -11 1032 85 10000 1 0 23:40 03.10.2022
1547 Clear -10 1033 85 10000 0 0 21:52 03.10.2022
1548 Clear -10 1033 85 10000 0 0 20:55 03.10.2022
1549 Clear -8 1034 73 10000 1 0 19:34 03.10.2022
1550 Clear -8 1034 79 10000 1 0 17:53 03.10.2022
1551 Clear -7 1034 73 10000 1 0 16:43 03.10.2022
1552 Clear -8 1034 79 10000 2 0 15:28 03.10.2022
1553 Clouds -2 1034 46 10000 3 310 13:45 03.10.2022
1554 Clouds 1 1034 32 10000 4 300 12:22 03.10.2022
1555 Clouds 1 1035 34 10000 3 270 10:38 03.10.2022
1556 Clouds 1 1035 37 10000 6 280 09:35 03.10.2022
1557 Clouds -2 1037 46 10000 2 0 05:34 03.10.2022
1558 Clouds -10 1037 85 10000 1 0 02:36 03.10.2022
1559 Clear -6 1035 63 10000 2 0 22:29 02.10.2022
1560 Clear -7 1034 73 10000 3 330 20:42 02.10.2022
1561 Clouds -4 1033 54 10000 4 350 18:31 02.10.2022
1562 Clouds -3 1032 50 10000 4 20 17:38 02.10.2022
1563 Clouds -3 1032 50 10000 5 10 16:33 02.10.2022
1564 Clouds -3 1031 50 10000 3 10 15:41 02.10.2022
1565 Clouds -2 1028 50 10000 8 350 13:51 02.10.2022
1566 Clouds -1 1027 47 10000 8 360 12:52 02.10.2022
1567 Clouds -1 1027 47 10000 8 360 12:28 02.10.2022
1568 Clouds 0 1026 43 10000 6 360 11:36 02.10.2022
1569 Clouds 1 1026 40 10000 8 350 10:37 02.10.2022
1570 Snow 0 1025 51 10000 3 320 08:53 02.10.2022
1571 Clouds 0 1025 59 10000 2 0 07:30 02.10.2022
1572 Snow -4 1022 86 3000 5 10 02:54 02.10.2022
1573 Snow -4 1021 93 6000 4 350 00:45 02.10.2022
1574 Snow -4 1021 93 6000 4 350 00:20 02.10.2022
1575 Snow -2 1020 80 10000 4 360 22:36 01.10.2022
1576 Clouds -1 1019 74 10000 5 360 20:21 01.10.2022
1577 Clouds 0 1018 69 10000 5 10 18:30 01.10.2022
1578 Clouds 0 1017 69 10000 4 10 16:35 01.10.2022
1579 Clouds 1 1016 64 10000 6 330 14:26 01.10.2022
1580 Clouds 3 1015 56 10000 3 360 13:21 01.10.2022
1581 Clouds 4 1014 52 10000 7 360 12:30 01.10.2022
1582 Clouds 6 1014 49 10000 7 350 11:19 01.10.2022
1583 Clouds 7 1013 45 10000 8 350 10:31 01.10.2022
1584 Clouds 7 1013 49 10000 7 360 09:27 01.10.2022
1585 Clouds 7 1013 49 10000 7 360 08:57 01.10.2022
1586 Clouds 5 1012 75 10000 7 330 04:19 01.10.2022
1587 Clouds 5 1011 75 10000 6 10 03:29 01.10.2022
1588 Clouds 6 1009 75 10000 3 10 23:59 30.09.2022
1589 Clouds 5 1009 81 10000 2 0 22:36 30.09.2022
1590 Clouds 5 1008 75 10000 2 0 21:28 30.09.2022
1591 Clouds 9 1007 49 10000 1 0 20:43 30.09.2022
1592 Clouds 11 1006 43 10000 4 190 19:43 30.09.2022
1593 Clouds 13 1006 38 10000 6 150 17:28 30.09.2022
1594 Clouds 12 1006 47 10000 4 150 15:32 30.09.2022
1595 Clouds 10 1006 57 10000 4 140 13:29 30.09.2022
1596 Clouds 14 1006 38 10000 3 170 11:57 30.09.2022
1597 Clouds 15 1007 33 10000 4 200 10:23 30.09.2022
1598 Clouds 13 1008 38 10000 3 180 08:23 30.09.2022
1599 Clouds 7 1011 65 10000 2 0 04:55 30.09.2022
1600 Clouds 5 1009 75 10000 1 0 02:27 30.09.2022
1601 Clouds 5 1009 81 10000 2 0 22:24 29.09.2022
1602 Clouds 5 1009 81 10000 1 0 21:26 29.09.2022
1603 Clouds 5 1008 81 10000 4 300 20:35 29.09.2022
1604 Clouds 5 1008 81 10000 7 300 18:32 29.09.2022
1605 Clouds 7 1006 76 10000 5 250 17:22 29.09.2022
1606 Clouds 7 1005 76 10000 2 0 16:28 29.09.2022
1607 Clouds 9 1004 71 10000 6 270 15:35 29.09.2022
1608 Clouds 10 1003 71 10000 2 0 14:24 29.09.2022
1609 Clouds 11 1006 66 10000 2 0 09:45 29.09.2022
1610 Clouds 11 1009 46 10000 3 30 06:45 29.09.2022
1611 Clouds 1 1011 86 10000 1 0 02:45 29.09.2022
1612 Clear -1 1011 86 10000 2 0 23:54 28.09.2022
1613 Clear 1 1011 86 10000 1 0 22:32 28.09.2022
1614 Clear 1 1011 86 10000 1 0 21:29 28.09.2022
1615 Clear 2 1010 80 10000 1 0 20:20 28.09.2022
1616 Clear 5 1010 75 10000 2 0 18:20 28.09.2022
1617 Clear 12 1008 50 10000 4 340 14:51 28.09.2022
1618 Clouds 16 1005 33 10000 4 310 12:49 28.09.2022
1619 Clouds 18 1004 29 10000 9 300 10:50 28.09.2022
1620 Clouds 19 1003 20 10000 9 300 08:26 28.09.2022
1621 Clouds 19 1002 20 10000 6 150 06:45 28.09.2022
1622 Clouds 3 1004 65 10000 0 0 01:54 28.09.2022
1623 Clouds 3 1004 65 10000 0 0 01:31 28.09.2022
1624 Clear 2 1005 69 10000 0 0 23:19 27.09.2022
1625 Clouds 4 1006 65 10000 1 0 21:40 27.09.2022
1626 Clouds 5 1007 60 10000 0 0 20:37 27.09.2022
1627 Clouds 5 1007 60 10000 0 0 19:47 27.09.2022
1628 Clouds 5 1007 60 10000 0 0 19:47 27.09.2022
1629 Clouds 6 1008 56 10000 0 0 18:31 27.09.2022
1630 Clouds 5 1008 60 10000 1 0 17:43 27.09.2022
1631 Clear 8 1008 46 10000 1 0 15:27 27.09.2022
1632 Clear 15 1007 25 10000 1 0 14:45 27.09.2022
1633 Clear 20 1007 19 10000 3 210 12:40 27.09.2022
1634 Clear 22 1008 16 10000 2 0 10:53 27.09.2022
1635 Clear 21 1009 17 10000 3 240 08:46 27.09.2022
1636 Clear 18 1010 22 10000 2 0 06:30 27.09.2022
1637 Clear -1 1009 80 10000 1 0 01:56 27.09.2022
1638 Clear -1 1009 80 10000 1 0 01:27 27.09.2022
1639 Clear 1 1009 69 10000 0 0 23:25 26.09.2022
1640 Clouds 10 1007 43 10000 0.83 131 22:24 26.09.2022
1641 Clear 1 1009 69 10000 0 0 20:29 26.09.2022
1642 Clouds 10 1008 46 10000 1.7 115 19:30 26.09.2022
1643 Clear 4 1010 60 10000 0 0 18:31 26.09.2022
1644 Clear 10 1010 34 10000 0 0 15:55 26.09.2022
1645 Clear 12 1010 32 10000 3 190 13:30 26.09.2022
1646 Clear 21 1010 17 10000 6 210 11:29 26.09.2022
1647 Clear 21 1011 17 10000 5 230 10:37 26.09.2022
1648 Clear 21 1011 17 10000 5 230 10:19 26.09.2022
1649 Clear 20 1011 19 10000 6 220 09:53 26.09.2022
1650 Clear 20 1011 19 10000 6 220 09:22 26.09.2022
1651 Clouds 14 1013 30 10000 2 0 06:28 26.09.2022
1652 Clouds 0 1014 80 10000 1 0 02:44 26.09.2022
1653 Clear -3 1014 86 10000 0 0 23:29 25.09.2022
1654 Clear -3 1014 86 10000 0 0 21:54 25.09.2022
1655 Clear -3 1014 86 10000 0 0 21:34 25.09.2022
1656 Clear -1 1015 80 10000 1 0 20:44 25.09.2022
1657 Clear -1 1015 80 10000 0 0 19:31 25.09.2022
1658 Clear 2 1015 64 10000 0 0 18:34 25.09.2022
1659 Clear 3 1015 60 10000 1 0 17:49 25.09.2022
1660 Clear 5 1014 52 10000 0 0 16:22 25.09.2022
1661 Clear 4 1014 56 10000 3 160 15:43 25.09.2022
1662 Clear 5 1015 52 10000 2 0 14:21 25.09.2022
1663 Clouds 12 1014 32 10000 4 220 12:44 25.09.2022
1664 Clouds 13 1015 28 10000 2 0 10:20 25.09.2022
1665 Clouds 12 1016 32 10000 4 290 08:23 25.09.2022
1666 Clouds 9 1018 49 10000 2 0 05:31 25.09.2022
1667 Clouds 4 1015 87 10000 1 0 00:36 25.09.2022
1668 Clouds 5 1014 75 10000 2 0 22:34 24.09.2022
1669 Clouds 3 1012 81 10000 1 0 20:45 24.09.2022
1670 Clouds 1 1012 80 10000 0 0 19:21 24.09.2022
1671 Clear 5 1011 75 10000 0 0 16:59 24.09.2022
1672 Clouds 8 1011 66 10000 1 0 16:23 24.09.2022
1673 Clouds 7 1012 65 10000 2 0 15:19 24.09.2022
1674 Clouds 12 1012 47 10000 1 0 13:23 24.09.2022
1675 Clouds 13 1011 41 10000 4 350 12:40 24.09.2022
1676 Clouds 14 1011 44 10000 6 340 10:19 24.09.2022
1677 Clouds 14 1011 44 10000 8 320 09:22 24.09.2022
1678 Clouds 14 1011 44 10000 8 320 09:22 24.09.2022
1679 Clouds 14 1011 47 10000 7 340 08:42 24.09.2022
1680 Clouds 13 1011 44 10000 8 330 05:55 24.09.2022
1681 Clouds 8 1010 61 10000 2 0 04:31 24.09.2022
1682 Clear -1 1010 86 10000 0 0 23:47 23.09.2022
1683 Clear 1 1011 86 10000 0 0 21:44 23.09.2022
1684 Clear 1 1011 86 10000 0 0 21:24 23.09.2022
1685 Clear 1 1011 86 10000 0 0 20:54 23.09.2022
1686 Clear 2 1011 80 10000 0 0 19:20 23.09.2022
1687 Clear 6 1012 61 10000 0 0 17:50 23.09.2022
1688 Clear 11 1012 54 10000 2 0 13:41 23.09.2022
1689 Clear 19 1014 26 10000 5 230 10:24 23.09.2022
1690 Clear 16 1017 25 10000 3 220 07:43 23.09.2022
1691 Clear -1 1021 86 10000 0 0 02:32 23.09.2022
1692 Clear -3 1022 86 10000 0 0 23:29 22.09.2022
1693 Clear -4 1022 86 10000 0 0 22:28 22.09.2022
1694 Clear -4 1023 86 10000 0 0 21:36 22.09.2022
1695 Clear -4 1023 86 10000 0 0 20:25 22.09.2022
1696 Clear -2 1023 86 10000 0 0 18:58 22.09.2022
1697 Clear 0 1024 74 10000 2 0 15:39 22.09.2022
1698 Clear 9 1024 34 10000 4 340 10:51 22.09.2022
1699 Clear 9 1024 34 10000 4 340 10:19 22.09.2022
1700 Clear 9 1024 34 10000 4 340 10:19 22.09.2022
1701 Clouds 5 1025 52 10000 4 310 07:55 22.09.2022
1702 Clouds 2 1025 60 10000 8 350 05:22 22.09.2022
1703 Clouds -1 1023 74 10000 3 290 01:19 22.09.2022
1704 Clouds -1 1020 74 10000 5 310 22:29 21.09.2022
1705 Clear 0 1021 69 10000 2 0 21:18 21.09.2022
1706 Clouds 1 1019 75 10000 3 340 18:51 21.09.2022
1707 Clouds 2 1018 69 10000 4 10 17:44 21.09.2022
1708 Clouds 3 1017 81 10000 7 10 15:35 21.09.2022
1709 Clouds 8 1012 46 10000 2 0 13:42 21.09.2022
1710 Clouds 9 1013 46 10000 3 320 11:42 21.09.2022
1711 Clouds 9 1013 49 10000 7 340 10:54 21.09.2022
1712 Clouds 10 1013 40 10000 7 310 09:39 21.09.2022
1713 Clouds 10 1013 40 10000 7 310 09:39 21.09.2022
1714 Clouds 11 1013 37 10000 6 330 08:31 21.09.2022
1715 Clouds 7 1013 57 10000 3 360 03:51 21.09.2022
1716 Clouds 6 1013 65 10000 5 340 02:38 21.09.2022
1717 Clouds 5 1012 70 10000 7 350 01:56 21.09.2022
1718 Clouds 6 1012 70 10000 6 340 00:19 21.09.2022
1719 Clear 0 1010 69 10000 2 0 21:53 20.09.2022
1720 Clear 3 1009 56 10000 2 0 20:32 20.09.2022
1721 Clear 2 1009 60 10000 2 0 18:41 20.09.2022
1722 Clear 7 1010 39 10000 3 160 15:37 20.09.2022
1723 Clear 8 1011 34 10000 2 0 14:18 20.09.2022
1724 Clear 19 1012 15 10000 7 240 11:51 20.09.2022
1725 Clear 15 1016 33 10000 5 230 08:44 20.09.2022
1726 Clear 15 1016 33 10000 5 230 08:23 20.09.2022
1727 Clear 6 1020 56 10000 0 0 04:37 20.09.2022
1728 Clear -3 1022 86 10000 1 0 01:42 20.09.2022
1729 Clear -2 1022 86 10000 0 0 22:42 19.09.2022
1730 Clear -1 1023 80 10000 0 0 21:28 19.09.2022
1731 Clear -1 1023 86 10000 2 0 20:40 19.09.2022
1732 Clear 2 1024 64 10000 0 0 18:49 19.09.2022
1733 Clear 2 1024 69 10000 2 0 17:20 19.09.2022
1734 Clear 9 1024 34 10000 4 270 13:47 19.09.2022
1735 Clear 12 1025 28 10000 4 280 12:26 19.09.2022
1736 Clear 12 1026 30 10000 4 300 10:19 19.09.2022
1737 Clear 11 1028 32 10000 2 0 08:37 19.09.2022
1738 Clear 1 1031 69 10000 0 0 03:39 19.09.2022
1739 Clear -6 1031 86 10000 2 0 00:48 19.09.2022
1740 Clear -4 1031 86 10000 1 0 22:42 18.09.2022
1741 Clear -5 1031 86 10000 3 160 21:26 18.09.2022
1742 Clear -4 1031 86 10000 2 0 19:40 18.09.2022
1743 Clear 0 1030 69 10000 3 320 17:52 18.09.2022
1744 Clear 3 1030 52 10000 2 0 16:49 18.09.2022
1745 Clear 5 1029 45 10000 4 340 14:52 18.09.2022
1746 Clear 7 1028 39 10000 8 330 13:41 18.09.2022
1747 Clear 8 1027 34 10000 9 330 12:20 18.09.2022
1748 Clouds 10 1026 34 10000 6 330 09:44 18.09.2022
1749 Clouds 4 1027 70 10000 2 0 03:35 18.09.2022
1750 Clouds -2 1025 86 10000 1 0 01:22 18.09.2022
1751 Clear -2 1024 93 10000 0 0 23:36 17.09.2022
1752 Clear 2 1023 87 10000 0 0 20:56 17.09.2022
1753 Clouds 3 1023 81 10000 0 0 19:40 17.09.2022
1754 Clouds 2 1023 87 10000 0 0 18:30 17.09.2022
1755 Clouds 8 1020 49 10000 3 10 14:27 17.09.2022
1756 Clouds 9 1019 43 10000 5 350 13:32 17.09.2022
1757 Clouds 10 1019 43 10000 4 330 10:50 17.09.2022
1758 Clouds 10 1019 43 10000 5 340 08:30 17.09.2022
1759 Clouds 8 1019 57 10000 5 330 06:21 17.09.2022
1760 Clouds 4 1015 75 10000 9 330 23:42 16.09.2022
1761 Clouds 4 1014 75 10000 9 330 22:42 16.09.2022
1762 Clouds 4 1013 75 10000 7 320 20:54 16.09.2022
1763 Clouds 4 1013 75 10000 7 320 20:54 16.09.2022
1764 Clouds 4 1012 75 10000 7 320 19:41 16.09.2022
1765 Clouds 3 1011 87 10000 7 300 16:26 16.09.2022
1766 Rain 4 1009 81 10000 9 290 14:53 16.09.2022
1767 Clouds 5 1008 81 10000 7 310 13:26 16.09.2022
1768 Clouds 8 1003 81 10000 8 330 10:27 16.09.2022
1769 Clouds 13 1003 71 10000 2 0 07:52 16.09.2022
1770 Clouds 13 1004 71 10000 2 0 06:48 16.09.2022
1771 Clouds 13 1004 71 10000 2 0 05:58 16.09.2022
1772 Clouds 8 1006 93 10000 1 0 02:35 16.09.2022
1773 Clouds 7 1009 87 10000 4 340 22:20 15.09.2022
1774 Thunderstorm 8 1011 81 10000 3 40 20:39 15.09.2022
1775 Thunderstorm 9 1012 71 10000 6 280 19:42 15.09.2022
1776 Clouds 11 1011 66 10000 2 0 17:58 15.09.2022
1777 Rain 11 1011 66 10000 2 0 17:28 15.09.2022
1778 Clouds 11 1012 66 10000 1 0 15:49 15.09.2022
1779 Clear 18 1011 45 10000 4 330 12:51 15.09.2022
1780 Clear 19 1011 39 10000 5 330 11:48 15.09.2022
1781 Clear 18 1013 42 10000 2 0 09:46 15.09.2022
1782 Clouds 16 1014 48 10000 2 0 07:44 15.09.2022
1783 Clouds 9 1016 71 10000 0 0 03:48 15.09.2022
1784 Clear 6 1016 81 10000 1 0 23:30 14.09.2022
1785 Clouds 9 1017 66 10000 1 0 20:47 14.09.2022
1786 Clouds 9 1017 66 10000 1 0 19:33 14.09.2022
1787 Clouds 13 1016 54 10000 3 340 17:48 14.09.2022
1788 Clouds 15 1015 55 10000 2 0 16:37 14.09.2022
1789 Clouds 15 1015 58 10000 2 0 15:27 14.09.2022
1790 Clouds 24 1015 25 10000 2 0 12:50 14.09.2022
1791 Clouds 27 1017 21 10000 5 160 09:53 14.09.2022
1792 Clouds 26 1017 22 10000 6 140 08:38 14.09.2022
1793 Clouds 22 1020 33 10000 1 0 06:50 14.09.2022
1794 Clouds 22 1020 33 10000 1 0 06:30 14.09.2022
1795 Clouds 22 1020 33 10000 1 0 06:30 14.09.2022
1796 Rain 15 1020 55 10000 2 0 02:58 14.09.2022
1797 Clouds 10 1021 76 10000 1 0 01:36 14.09.2022
1798 Clouds 10 1022 71 10000 1 0 00:53 14.09.2022
1799 Clouds 11 1022 66 10000 2 0 23:55 13.09.2022
1800 Clouds 11 1022 66 10000 2 0 23:37 13.09.2022
1801 Clouds 11 1022 66 10000 2 0 23:18 13.09.2022
1802 Clouds 12 1022 66 10000 2 0 22:29 13.09.2022
1803 Clouds 12 1022 66 10000 1 0 21:39 13.09.2022
1804 Clouds 10 1021 71 10000 2 0 18:59 13.09.2022
1805 Clouds 14 1020 54 10000 1 0 16:42 13.09.2022
1806 Clouds 16 1020 48 10000 0 0 15:31 13.09.2022
1807 Clouds 23 1019 31 10000 3 60 13:40 13.09.2022
1808 Clouds 26 1019 19 10000 2 0 11:23 13.09.2022
1809 Clouds 29 1019 14 10000 5 220 08:18 13.09.2022
1810 Clouds 20 1018 30 10000 1 0 02:27 13.09.2022
1811 Clouds 21 1017 26 10000 7 160 23:23 12.09.2022
1812 Clear 20 1017 28 10000 8 150 22:44 12.09.2022
1813 Clear 18 1017 32 10000 6 160 21:35 12.09.2022
1814 Clear 20 1017 28 10000 7 180 20:22 12.09.2022
1815 Clouds 22 1016 24 10000 7 200 18:24 12.09.2022
1816 Clear 24 1014 22 10000 10 160 15:53 12.09.2022
1817 Clear 27 1013 21 10000 10 160 12:35 12.09.2022
1818 Clear 28 1014 18 10000 9 160 10:31 12.09.2022
1819 Clear 24 1016 27 10000 13 150 07:40 12.09.2022
1820 Clear 20 1017 34 10000 8 110 04:36 12.09.2022
1821 Clouds 14 1017 58 10000 2 0 02:25 12.09.2022
1822 Clouds 8 1017 76 10000 1 0 22:46 11.09.2022
1823 Clouds 7 1017 81 10000 0 0 21:30 11.09.2022
1824 Clear 6 1017 87 10000 1 0 20:44 11.09.2022
1825 Clear 8 1017 81 10000 1 0 19:39 11.09.2022
1826 Clear 8 1017 81 10000 1 0 19:19 11.09.2022
1827 Clear 9 1017 76 10000 1 0 17:29 11.09.2022
1828 Clear 11 1017 71 10000 3 170 15:51 11.09.2022
1829 Clear 19 1016 45 10000 3 340 13:52 11.09.2022
1830 Clouds 22 1015 33 10000 4 320 11:35 11.09.2022
1831 Clouds 21 1016 37 10000 3 270 08:25 11.09.2022
1832 Clear 16 1018 59 10000 4 280 05:49 11.09.2022
1833 Clouds 10 1017 76 10000 2 0 00:23 11.09.2022
1834 Clouds 11 1018 66 10000 3 10 22:23 10.09.2022
1835 Clouds 10 1018 71 10000 2 0 20:35 10.09.2022
1836 Clouds 10 1018 71 10000 2 0 20:35 10.09.2022
1837 Clouds 11 1017 66 10000 3 10 19:44 10.09.2022
1838 Clouds 11 1017 66 10000 3 10 19:25 10.09.2022
1839 Clouds 10 1018 71 10000 2 0 17:51 10.09.2022
1840 Clouds 12 1016 62 10000 3 320 15:37 10.09.2022
1841 Clouds 17 1015 45 10000 5 340 13:55 10.09.2022
1842 Clear 20 1015 37 10000 6 330 12:52 10.09.2022
1843 Clouds 22 1014 33 10000 5 300 10:34 10.09.2022
1844 Clouds 21 1015 32 10000 5 310 08:42 10.09.2022
1845 Clouds 21 1015 32 10000 5 310 08:22 10.09.2022
1846 Clear 17 1016 42 10000 6 320 04:55 10.09.2022
1847 Clear 7 1013 61 10000 1 0 23:38 09.09.2022
1848 Clear 9 1013 53 10000 1 0 22:36 09.09.2022
1849 Clear 8 1014 61 10000 1 0 20:59 09.09.2022
1850 Clear 9 1014 53 10000 1 0 20:22 09.09.2022
1851 Clear 8 1014 57 10000 1 0 19:23 09.09.2022
1852 Clear 12 1015 43 10000 1 0 17:50 09.09.2022
1853 Clear 19 1015 22 10000 2 0 15:45 09.09.2022
1854 Clear 25 1014 14 10000 4 200 13:43 09.09.2022
1855 Clouds 30 1014 11 10000 8 250 11:38 09.09.2022
1856 Clear 29 1016 12 10000 4 200 07:58 09.09.2022
1857 Clear 13 1019 50 10000 0 0 03:43 09.09.2022
1858 Clear 5 1018 75 10000 0 0 00:39 09.09.2022
1859 Clear 6 1019 75 10000 0 0 21:52 08.09.2022
1860 Clear 8 1019 71 10000 1 0 20:49 08.09.2022
1861 Clear 8 1019 71 10000 1 0 20:29 08.09.2022
1862 Clear 10 1019 62 10000 0 0 19:25 08.09.2022
1863 Clear 14 1019 47 10000 2 0 17:29 08.09.2022
1864 Clear 18 1019 34 10000 1 0 16:18 08.09.2022
1865 Clear 23 1018 27 10000 3 180 13:30 08.09.2022
1866 Clear 28 1017 16 10000 3 200 12:42 08.09.2022
1867 Clouds 29 1018 13 10000 3 180 11:24 08.09.2022
1868 Clear 29 1018 12 10000 3 210 09:46 08.09.2022
1869 Clear 26 1020 27 10000 1 0 07:38 08.09.2022
1870 Clear 16 1021 48 10000 1 0 04:53 08.09.2022
1871 Clear 9 1021 76 10000 1 0 02:36 08.09.2022
1872 Clear 9 1021 76 10000 1 0 02:18 08.09.2022
1873 Clear 5 1020 81 10000 1 0 23:25 07.09.2022
1874 Clear 5 1020 87 10000 0 0 21:46 07.09.2022
1875 Clear 5 1020 87 10000 0 0 21:24 07.09.2022
1876 Clear 6 1020 81 10000 0 0 20:29 07.09.2022
1877 Clear 8 1020 76 10000 0 0 19:20 07.09.2022
1878 Clear 13 1018 47 10000 1 0 16:24 07.09.2022
1879 Clouds 27 1016 24 10000 4 240 10:52 07.09.2022
1880 Clouds 27 1016 24 10000 4 240 10:32 07.09.2022
1881 Clouds 25 1017 25 10000 4 220 08:29 07.09.2022
1882 Clear 18 1018 45 10000 1 0 05:46 07.09.2022
1883 Clear 4 1017 87 10000 1 0 00:38 07.09.2022
1884 Clear 4 1017 87 10000 0 0 21:56 06.09.2022
1885 Clear 4 1017 87 10000 0 0 21:33 06.09.2022
1886 Clear 5 1017 87 10000 1 0 19:39 06.09.2022
1887 Clear 6 1017 81 10000 1 0 18:39 06.09.2022
1888 Clear 10 1016 62 10000 0 0 17:39 06.09.2022
1889 Clear 9 1016 66 10000 1 0 16:47 06.09.2022
1890 Clear 10 1016 62 10000 2 0 15:58 06.09.2022
1891 Clear 19 1015 32 10000 4 300 13:48 06.09.2022
1892 Clear 19 1015 32 10000 4 300 13:27 06.09.2022
1893 Clear 22 1015 26 10000 4 290 12:57 06.09.2022
1894 Clouds 22 1015 28 10000 6 290 10:55 06.09.2022
1895 Clear 21 1015 35 10000 3 210 09:22 06.09.2022
1896 Clear 20 1016 34 10000 1 0 07:53 06.09.2022
1897 Clear 17 1016 36 10000 1 0 06:19 06.09.2022
1898 Clear -1 1016 86 10000 0 0 00:54 06.09.2022
1899 Clear 2 1016 75 10000 1 0 22:53 05.09.2022
1900 Clear 2 1015 75 10000 1 0 21:38 05.09.2022
1901 Clear 2 1015 69 10000 1 0 20:20 05.09.2022
1902 Clear 0 1015 80 10000 2 0 18:53 05.09.2022
1903 Clear 0 1015 80 10000 2 0 18:24 05.09.2022
1904 Clear 0 1015 80 10000 1 0 17:50 05.09.2022
1905 Clear 8 1014 42 10000 0 0 15:53 05.09.2022
1906 Clouds 10 1014 34 10000 3 350 14:34 05.09.2022
1907 Clouds 13 1013 30 10000 7 340 12:51 05.09.2022
1908 Clear 14 1012 26 10000 9 320 10:37 05.09.2022
1909 Clear 13 1012 30 10000 10 320 08:45 05.09.2022
1910 Clouds 3 1014 75 10000 4 260 03:47 05.09.2022
1911 Clouds 3 1014 75 10000 4 260 03:47 05.09.2022
1912 Clouds 0 1014 86 10000 2 0 00:30 05.09.2022
1913 Clouds 0 1015 86 10000 2 0 22:29 04.09.2022
1914 Clouds 1 1015 80 10000 0 0 21:55 04.09.2022
1915 Clouds 1 1016 86 10000 3 310 20:21 04.09.2022
1916 Clouds 3 1016 81 10000 1 0 18:34 04.09.2022
1917 Snow 1 1016 86 10000 2 0 17:26 04.09.2022
1918 Clouds 3 1017 70 10000 3 340 15:42 04.09.2022
1919 Clouds 4 1016 60 10000 4 310 14:24 04.09.2022
1920 Clouds 7 1016 45 10000 9 340 12:27 04.09.2022
1921 Clouds 6 1017 52 10000 7 350 10:59 04.09.2022
1922 Clouds 6 1017 52 10000 7 340 09:25 04.09.2022
1923 Clouds 5 1017 48 10000 9 350 06:31 04.09.2022
1924 Clouds 3 1016 60 10000 9 350 02:41 04.09.2022
1925 Clouds 4 1014 75 10000 8 340 22:34 03.09.2022
1926 Rain 4 1013 75 10000 6 340 21:26 03.09.2022
1927 Rain 4 1013 81 10000 7 340 20:55 03.09.2022
1928 Clouds 7 1013 81 10000 8 340 18:31 03.09.2022
1929 Clouds 8 1012 76 10000 6 30 17:19 03.09.2022
1930 Rain 12 1010 71 10000 8 330 15:35 03.09.2022
1931 Clouds 15 1009 63 10000 4 340 14:41 03.09.2022
1932 Rain 18 1008 39 10000 3 260 13:44 03.09.2022
1933 Clouds 22 1008 23 10000 5 250 11:32 03.09.2022
1934 Clouds 22 1009 33 10000 6 230 09:22 03.09.2022
1935 Clouds 19 1011 45 10000 3 220 07:45 03.09.2022
1936 Clouds 14 1013 62 10000 1 0 04:48 03.09.2022
1937 Clouds 8 1013 87 10000 1 0 02:35 03.09.2022
1938 Clear 7 1013 87 10000 0 0 23:42 02.09.2022
1939 Clouds 9 1014 76 10000 2 0 21:57 02.09.2022
1940 Clouds 9 1015 81 10000 3 180 20:42 02.09.2022
1941 Clouds 13 1016 67 10000 3 20 19:47 02.09.2022
1942 Clouds 14 1016 58 10000 2 0 18:50 02.09.2022
1943 Clouds 14 1016 58 10000 2 0 18:24 02.09.2022
1944 Clouds 14 1015 54 10000 3 120 17:23 02.09.2022
1945 Clouds 16 1016 48 10000 0 0 16:31 02.09.2022
1946 Clouds 20 1014 32 10000 3 60 13:25 02.09.2022
1947 Rain 22 1014 26 10000 1 0 10:39 02.09.2022
1948 Clouds 22 1015 30 10000 2 0 09:42 02.09.2022
1949 Clouds 22 1015 30 10000 1 0 08:45 02.09.2022
1950 Clouds 20 1017 40 10000 3 210 06:46 02.09.2022
1951 Clouds 20 1017 40 10000 3 210 06:18 02.09.2022
1952 Clouds 8 1016 87 10000 1 0 23:19 01.09.2022
1953 Clouds 13 1016 67 10000 3 340 21:47 01.09.2022
1954 Clouds 13 1016 67 10000 3 340 21:27 01.09.2022
1955 Clouds 15 1017 55 10000 4 70 20:52 01.09.2022
1956 Clouds 14 1017 67 10000 4 80 19:25 01.09.2022
1957 Clouds 15 1017 55 10000 4 160 18:18 01.09.2022
1958 Clouds 16 1017 55 10000 2 0 16:47 01.09.2022
1959 Rain 17 1016 48 10000 4 200 14:51 01.09.2022
1960 Clouds 19 1016 45 10000 1 0 13:21 01.09.2022
1961 Clouds 20 1016 40 10000 1 0 12:42 01.09.2022
1962 Clouds 22 1016 30 10000 2 0 11:50 01.09.2022
1963 Clouds 22 1016 30 10000 2 0 11:19 01.09.2022
1964 Clouds 22 1017 28 10000 2 0 09:20 01.09.2022
1965 Clear 19 1019 34 10000 1 0 06:28 01.09.2022
1966 Clear 3 1020 87 10000 1 0 01:45 01.09.2022
1967 Clear 2 1020 93 10000 0 0 00:33 01.09.2022
1968 Clear 3 1021 93 10000 0 0 22:21 31.08.2022
1969 Clear 4 1021 87 10000 0 0 20:27 31.08.2022
1970 Clear 6 1021 81 10000 0 0 18:19 31.08.2022
1971 Clear 9 1021 66 10000 1 0 16:32 31.08.2022
1972 Clear 9 1020 71 10000 3 170 14:58 31.08.2022
1973 Clear 17 1020 31 10000 2 0 12:30 31.08.2022
1974 Clear 17 1021 31 10000 2 0 11:38 31.08.2022
1975 Clear 16 1022 33 10000 3 310 09:25 31.08.2022
1976 Clear 13 1023 41 10000 4 290 06:35 31.08.2022
1977 Clear 2 1022 93 10000 1 0 01:25 31.08.2022
1978 Clouds 6 1019 81 10000 1 0 21:49 30.08.2022
1979 Clouds 6 1019 81 10000 1 0 21:21 30.08.2022
1980 Clear 6 1017 81 10000 2 0 18:53 30.08.2022
1981 Clouds 7 1017 81 10000 2 0 16:35 30.08.2022
1982 Clouds 16 1016 39 10000 4 300 13:30 30.08.2022
1983 Clouds 18 1017 36 10000 6 280 11:22 30.08.2022
1984 Clouds 18 1017 36 10000 6 290 10:57 30.08.2022
1985 Clouds 15 1018 58 10000 3 220 08:49 30.08.2022
1986 Clear 6 1020 75 10000 1 0 03:55 30.08.2022
1987 Clear -1 1021 86 10000 1 0 23:45 29.08.2022
1988 Clear -1 1021 93 10000 1 0 22:34 29.08.2022
1989 Clear 2 1021 87 10000 1 0 21:34 29.08.2022
1990 Clear 2 1021 87 10000 1 0 21:34 29.08.2022
1991 Clear 1 1021 93 10000 2 0 20:34 29.08.2022
1992 Clear 1 1021 86 10000 1 0 18:39 29.08.2022
1993 Clear 5 1021 81 10000 2 0 17:25 29.08.2022
1994 Clouds 6 1021 81 10000 2 0 16:50 29.08.2022
1995 Clouds 6 1021 81 10000 2 0 15:18 29.08.2022
1996 Clouds 9 1020 71 10000 5 340 13:34 29.08.2022
1997 Clouds 10 1020 66 10000 5 340 11:33 29.08.2022
1998 Clouds 9 1020 71 10000 7 330 10:39 29.08.2022
1999 Rain 10 1019 71 10000 5 350 08:39 29.08.2022
2000 Rain 12 1017 76 10000 6 290 05:58 29.08.2022
2001 Clouds 8 1016 87 10000 5 310 01:53 29.08.2022
2002 Clear 4 1014 87 10000 1 0 22:55 28.08.2022
2003 Clear 5 1014 87 10000 1 0 21:45 28.08.2022
2004 Clear 6 1014 87 10000 1 0 20:58 28.08.2022
2005 Clouds 7 1013 87 10000 1 0 19:44 28.08.2022
2006 Clouds 7 1013 87 10000 2 0 18:22 28.08.2022
2007 Clouds 7 1013 87 10000 2 0 17:45 28.08.2022
2008 Clouds 7 1013 87 10000 2 0 16:33 28.08.2022
2009 Clouds 13 1011 67 10000 3 350 14:44 28.08.2022
2010 Rain 15 1010 58 10000 1 0 12:49 28.08.2022
2011 Clouds 15 1009 63 10000 3 80 11:19 28.08.2022
2012 Clouds 15 1009 72 10000 2 0 09:57 28.08.2022
2013 Clouds 14 1009 62 10000 3 360 08:39 28.08.2022
2014 Clouds 14 1009 72 10000 3 320 07:48 28.08.2022
2015 Clouds 11 1008 87 10000 2 0 03:32 28.08.2022
2016 Rain 10 1008 87 8000 3 110 00:31 28.08.2022
2017 Clouds 10 1009 87 10000 5 150 22:41 27.08.2022
2018 Clouds 10 1009 81 10000 7 140 21:58 27.08.2022
2019 Clouds 10 1010 81 10000 8 140 20:19 27.08.2022
2020 Rain 11 1012 82 10000 4 180 18:41 27.08.2022
2021 Clouds 12 1012 71 10000 4 220 16:25 27.08.2022
2022 Clouds 14 1012 62 10000 9 220 15:25 27.08.2022
2023 Clouds 18 1011 36 10000 6 220 12:41 27.08.2022
2024 Clouds 19 1011 30 10000 9 210 11:53 27.08.2022
2025 Clouds 20 1012 30 10000 8 200 09:51 27.08.2022
2026 Clouds 21 1013 30 10000 6 200 08:53 27.08.2022
2027 Clouds 13 1016 54 10000 1 0 04:39 27.08.2022
2028 Clouds 3 1017 93 10000 0 0 00:20 27.08.2022
2029 Clouds 3 1018 93 10000 1 0 23:23 26.08.2022
2030 Clear 3 1018 87 10000 1 0 21:43 26.08.2022
2031 Clear 4 1019 87 10000 1 0 19:25 26.08.2022
2032 Clear 7 1018 81 10000 2 0 17:29 26.08.2022
2033 Clear 8 1018 81 10000 3 150 15:35 26.08.2022
2034 Clear 11 1018 71 10000 2 0 14:44 26.08.2022
2035 Clouds 15 1018 41 10000 2 0 12:54 26.08.2022
2036 Clouds 16 1018 44 10000 2 0 11:37 26.08.2022
2037 Clouds 15 1019 47 10000 3 340 10:47 26.08.2022
2038 Clouds 13 1020 47 10000 2 0 07:32 26.08.2022
2039 Clouds 5 1021 87 10000 2 0 02:31 26.08.2022
2040 Clear 1 1020 86 10000 1 0 23:44 25.08.2022
2041 Clear 4 1019 81 10000 2 0 21:40 25.08.2022
2042 Clear 4 1019 87 10000 2 0 20:51 25.08.2022
2043 Clear 3 1019 87 10000 1 0 19:24 25.08.2022
2044 Clear 6 1019 75 10000 2 0 18:18 25.08.2022
2045 Clouds 6 1019 75 10000 2 0 17:31 25.08.2022
2046 Clouds 7 1018 76 10000 1 0 15:54 25.08.2022
2047 Clouds 7 1018 76 10000 1 0 15:27 25.08.2022
2048 Clouds 13 1016 47 10000 8 310 12:40 25.08.2022
2049 Clouds 14 1015 44 10000 9 310 10:48 25.08.2022
2050 Clouds 13 1015 50 10000 7 330 09:21 25.08.2022
2051 Clouds 12 1016 54 10000 6 290 06:31 25.08.2022
2052 Clouds 7 1016 81 10000 0 0 01:43 25.08.2022
2053 Clouds 6 1016 87 10000 1 0 23:27 24.08.2022
2054 Clouds 5 1016 87 10000 1 0 22:41 24.08.2022
2055 Clouds 6 1016 81 10000 0 0 21:36 24.08.2022
2056 Clouds 7 1017 76 10000 3 190 20:55 24.08.2022
2057 Clouds 6 1018 81 10000 3 30 19:19 24.08.2022
2058 Rain 4 1018 87 10000 2 0 16:47 24.08.2022
2059 Clear 4 1018 81 10000 2 0 15:52 24.08.2022
2060 Clouds 11 1018 46 10000 4 330 13:46 24.08.2022
2061 Clouds 11 1019 46 10000 6 330 11:50 24.08.2022
2062 Clouds 13 1019 44 10000 6 330 10:34 24.08.2022
2063 Clouds 12 1020 47 10000 6 320 08:25 24.08.2022
2064 Clouds 8 1020 81 10000 2 0 02:57 24.08.2022
2065 Clouds 8 1018 81 10000 6 330 23:34 23.08.2022
2066 Clouds 8 1018 81 10000 3 330 22:32 23.08.2022
2067 Clouds 8 1017 87 10000 3 340 21:35 23.08.2022
2068 Clouds 8 1017 87 10000 4 330 20:30 23.08.2022
2069 Clouds 8 1016 93 10000 4 360 18:50 23.08.2022
2070 Clouds 8 1015 93 10000 3 50 17:50 23.08.2022
2071 Clouds 8 1015 93 10000 3 50 17:18 23.08.2022
2072 Clouds 9 1015 87 10000 3 40 15:39 23.08.2022
2073 Clouds 10 1016 87 8000 2 0 13:36 23.08.2022
2074 Clouds 10 1017 81 10000 2 0 11:33 23.08.2022
2075 Clouds 10 1018 81 8000 2 0 10:48 23.08.2022
2076 Rain 10 1018 81 8000 2 0 10:24 23.08.2022
2077 Clouds 14 1019 47 10000 4 210 08:52 23.08.2022
2078 Clouds 14 1019 47 10000 4 210 08:21 23.08.2022
2079 Rain 14 1020 51 10000 3 150 07:38 23.08.2022
2080 Clouds 14 1020 51 10000 3 150 06:28 23.08.2022
2081 Rain 10 1021 66 10000 3 50 04:45 23.08.2022
2082 Clouds 3 1022 93 10000 1 0 00:28 23.08.2022
2083 Clear 2 1022 93 10000 1 0 23:37 22.08.2022
2084 Clear 1 1022 93 10000 1 0 22:44 22.08.2022
2085 Clear 3 1022 87 10000 1 0 21:45 22.08.2022
2086 Clear 3 1022 87 10000 1 0 19:48 22.08.2022
2087 Clear 3 1022 87 10000 1 0 19:18 22.08.2022
2088 Clear 6 1020 85 10000 1.27 64 17:37 22.08.2022
2089 Clear 8 1021 76 10000 2 0 15:39 22.08.2022
2090 Clouds 11 1021 54 10000 2 0 14:32 22.08.2022
2091 Clouds 14 1019 41 10000 4 340 10:43 22.08.2022
2092 Clouds 13 1019 50 10000 2 0 07:59 22.08.2022
2093 Clouds 9 1020 71 10000 2 0 04:30 22.08.2022
2094 Clouds 2 1018 93 10000 1 0 00:49 22.08.2022
2095 Clouds 2 1018 93 10000 1 0 00:26 22.08.2022
2096 Clear 1 1017 93 10000 3 170 22:53 21.08.2022
2097 Clear 2 1017 93 10000 1 0 21:28 21.08.2022
2098 Clear 4 1017 87 10000 0 0 20:56 21.08.2022
2099 Clouds 6 1017 87 10000 1 0 19:26 21.08.2022
2100 Clouds 7 1016 87 10000 1 0 17:35 21.08.2022
2101 Clouds 8 1016 76 10000 2 0 15:53 21.08.2022
2102 Clouds 8 1015 76 10000 2 0 15:21 21.08.2022
2103 Clouds 10 1014 66 10000 6 330 13:52 21.08.2022
2104 Clouds 10 1014 66 10000 6 330 13:30 21.08.2022
2105 Clouds 11 1012 58 10000 8 330 11:39 21.08.2022
2106 Clouds 10 1012 66 10000 6 350 09:31 21.08.2022
2107 Clouds 10 1011 66 10000 9 330 08:56 21.08.2022
2108 Clouds 10 1011 66 10000 9 330 08:38 21.08.2022
2109 Clouds 10 1011 66 10000 8 300 07:26 21.08.2022
2110 Clouds 10 1010 76 10000 5 270 03:40 21.08.2022
2111 Clouds 8 1008 87 10000 3 290 00:22 21.08.2022
2112 Clouds 9 1008 87 10000 4 300 22:37 20.08.2022
2113 Clouds 10 1007 87 10000 4 290 21:37 20.08.2022
2114 Clouds 11 1007 87 10000 3 170 20:40 20.08.2022
2115 Clouds 11 1006 87 10000 1 0 19:40 20.08.2022
2116 Clouds 11 1006 93 10000 2 0 18:30 20.08.2022
2117 Clouds 12 1005 82 10000 2 0 17:40 20.08.2022
2118 Clouds 11 1003 87 10000 1 0 16:52 20.08.2022
2119 Clouds 12 1004 87 10000 1 0 15:30 20.08.2022
2120 Clouds 17 1003 63 10000 3 360 13:24 20.08.2022
2121 Clouds 21 1003 35 10000 3 220 11:49 20.08.2022
2122 Clouds 21 1004 37 10000 4 240 09:34 20.08.2022
2123 Clouds 20 1005 37 10000 2 0 08:29 20.08.2022
2124 Clouds 16 1006 48 10000 1 0 05:52 20.08.2022
2125 Clouds 11 1005 66 10000 3 290 00:59 20.08.2022
2126 Clouds 11 1005 66 10000 3 290 00:34 20.08.2022
2127 Clear 8 1006 81 10000 1 0 22:59 19.08.2022
2128 Clouds 10 1007 71 10000 2 0 21:40 19.08.2022
2129 Clouds 12 1008 62 10000 2 0 20:20 19.08.2022
2130 Clouds 13 1007 62 10000 1 0 17:19 19.08.2022
2131 Clouds 13 1008 62 10000 2 0 15:18 19.08.2022
2132 Clouds 20 1010 28 10000 2 0 13:18 19.08.2022
2133 Clouds 20 1011 37 10000 4 250 10:52 19.08.2022
2134 Clouds 20 1011 37 10000 4 250 10:19 19.08.2022
2135 Clouds 16 1012 55 10000 2 0 05:58 19.08.2022
2136 Clouds 6 1012 87 10000 0 0 00:48 19.08.2022
2137 Clouds 6 1012 87 10000 0 0 00:26 19.08.2022
2138 Clouds 7 1012 93 10000 0 0 23:37 18.08.2022
2139 Clouds 9 1012 87 10000 0 0 22:38 18.08.2022
2140 Clouds 9 1012 87 10000 2 0 21:55 18.08.2022
2141 Clouds 9 1012 87 10000 2 0 21:26 18.08.2022
2142 Clouds 11 1012 76 10000 2 0 19:55 18.08.2022
2143 Clouds 11 1012 76 10000 2 0 19:25 18.08.2022
2144 Rain 12 1011 71 10000 2 0 17:49 18.08.2022
2145 Clouds 14 1010 58 10000 2 0 16:55 18.08.2022
2146 Clouds 16 1009 59 10000 4 350 14:22 18.08.2022
2147 Clouds 17 1007 48 10000 3 30 13:58 18.08.2022
2148 Clouds 18 1008 52 10000 4 330 12:46 18.08.2022
2149 Clouds 19 1008 42 10000 4 340 11:23 18.08.2022
2150 Clouds 18 1008 52 10000 4 310 09:43 18.08.2022
2151 Clouds 17 1008 51 10000 2 0 08:31 18.08.2022
2152 Clouds 16 1008 59 10000 2 0 07:18 18.08.2022
2153 Clouds 11 1008 82 10000 3 30 03:23 18.08.2022
2154 Rain 11 1008 82 10000 4 60 23:18 17.08.2022
2155 Clouds 12 1009 76 10000 5 60 21:28 17.08.2022
2156 Rain 15 1010 51 10000 2 0 19:59 17.08.2022
2157 Clouds 15 1010 55 10000 1 0 18:58 17.08.2022
2158 Rain 15 1009 55 10000 2 0 17:28 17.08.2022
2159 Clouds 14 1010 62 10000 4 290 16:21 17.08.2022
2160 Clouds 17 1009 45 10000 5 350 14:48 17.08.2022
2161 Clouds 19 1008 39 10000 5 340 12:52 17.08.2022
2162 Clouds 20 1008 40 10000 6 360 11:36 17.08.2022
2163 Clouds 20 1008 40 10000 6 340 09:31 17.08.2022
2164 Clouds 18 1009 52 10000 5 340 07:36 17.08.2022
2165 Clouds 14 1007 77 10000 6 310 02:21 17.08.2022
2166 Clouds 15 1005 72 10000 3 350 23:45 16.08.2022
2167 Clouds 15 1006 72 10000 7 20 21:52 16.08.2022
2168 Clouds 16 1006 77 10000 7 340 20:51 16.08.2022
2169 Clouds 17 1005 72 10000 5 20 19:50 16.08.2022
2170 Clouds 17 1004 72 10000 4 40 18:23 16.08.2022
2171 Clouds 15 1003 82 10000 2 0 17:28 16.08.2022
2172 Clouds 18 1003 72 10000 1 0 15:46 16.08.2022
2173 Clouds 18 1003 72 10000 1 0 14:55 16.08.2022
2174 Clouds 23 1003 53 10000 1 0 14:37 16.08.2022
2175 Clouds 28 1002 26 10000 2 0 12:41 16.08.2022
2176 Clouds 28 1003 32 10000 5 270 10:35 16.08.2022
2177 Clouds 28 1003 32 10000 5 240 09:31 16.08.2022
2178 Clouds 28 1004 32 10000 5 170 08:26 16.08.2022
2179 Clouds 26 1004 36 10000 7 150 07:23 16.08.2022
2180 Clouds 13 1007 88 10000 2 0 01:35 16.08.2022
2181 Clouds 12 1008 82 10000 1 0 22:29 15.08.2022
2182 Clouds 12 1009 82 10000 2 0 21:53 15.08.2022
2183 Clouds 13 1010 82 10000 1 0 20:47 15.08.2022
2184 Clouds 13 1010 82 10000 1 0 20:18 15.08.2022
2185 Clouds 15 1010 72 10000 1 0 18:31 15.08.2022
2186 Clouds 17 1010 67 10000 3 170 16:40 15.08.2022
2187 Clouds 17 1010 67 10000 3 170 16:40 15.08.2022
2188 Clouds 17 1010 67 10000 3 170 16:20 15.08.2022
2189 Clouds 19 1010 59 10000 4 210 13:55 15.08.2022
2190 Clouds 19 1010 59 10000 4 210 13:55 15.08.2022
2191 Clouds 23 1010 40 10000 4 230 12:24 15.08.2022
2192 Clouds 24 1011 41 10000 5 220 09:57 15.08.2022
2193 Clouds 22 1013 40 10000 3 240 08:22 15.08.2022
2194 Clouds 18 1014 68 10000 1 0 04:54 15.08.2022
2195 Clouds 9 1013 87 10000 0 0 01:35 15.08.2022
2196 Clear 8 1013 87 10000 1 0 22:39 14.08.2022
2197 Clear 8 1012 93 10000 1 0 21:38 14.08.2022
2198 Clear 9 1012 93 10000 0 0 19:58 14.08.2022
2199 Clear 10 1012 87 10000 2 0 19:30 14.08.2022
2200 Clear 10 1012 87 10000 3 170 18:19 14.08.2022
2201 Clouds 12 1012 87 10000 2 0 16:54 14.08.2022
2202 Clouds 14 1011 82 10000 1 0 15:50 14.08.2022
2203 Clouds 16 1011 67 10000 2 0 14:34 14.08.2022
2204 Clouds 17 1010 67 10000 3 350 13:50 14.08.2022
2205 Clouds 17 1010 67 10000 3 350 13:20 14.08.2022
2206 Rain 18 1010 63 8000 9 310 12:34 14.08.2022
2207 Clouds 20 1009 56 10000 3 360 10:50 14.08.2022
2208 Clouds 18 1009 63 10000 2 0 08:52 14.08.2022
2209 Clouds 17 1009 63 10000 6 330 06:22 14.08.2022
2210 Clouds 14 1008 82 10000 4 330 02:57 14.08.2022
2211 Clouds 13 1007 88 10000 1 0 00:19 14.08.2022
2212 Clouds 13 1008 88 10000 1 0 22:56 13.08.2022
2213 Rain 13 1008 88 10000 2 0 21:19 13.08.2022
2214 Clouds 13 1008 88 10000 2 0 20:43 13.08.2022
2215 Clouds 13 1009 88 10000 2 0 19:45 13.08.2022
2216 Clouds 13 1009 88 10000 3 40 17:59 13.08.2022
2217 Clouds 13 1009 88 10000 3 50 15:40 13.08.2022
2218 Clouds 13 1009 88 10000 2 0 14:28 13.08.2022
2219 Clouds 13 1009 88 8000 3 50 13:41 13.08.2022
2220 Clouds 15 1010 88 8000 2 0 11:53 13.08.2022
2221 Rain 15 1011 88 8000 1 0 10:31 13.08.2022
2222 Clouds 15 1012 88 8000 2 0 09:18 13.08.2022
2223 Clouds 16 1013 63 10000 1 0 05:57 13.08.2022
2224 Rain 10 1012 87 10000 1 0 00:29 13.08.2022
2225 Rain 10 1012 87 10000 1 0 22:20 12.08.2022
2226 Clouds 12 1012 76 10000 0 0 20:54 12.08.2022
2227 Clouds 14 1012 67 10000 1 0 19:42 12.08.2022
2228 Clouds 15 1013 67 10000 2 0 18:48 12.08.2022
2229 Clouds 13 1012 71 10000 1 0 17:36 12.08.2022
2230 Clouds 13 1012 76 10000 1 0 16:24 12.08.2022
2231 Clouds 22 1011 37 10000 2 0 14:44 12.08.2022
2232 Clouds 23 1011 33 10000 2 0 12:56 12.08.2022
2233 Clouds 24 1011 31 10000 2 0 11:19 12.08.2022
2234 Clouds 23 1013 31 10000 3 300 08:31 12.08.2022
2235 Clouds 23 1013 31 10000 3 260 07:26 12.08.2022
2236 Clear 17 1014 67 10000 0 0 03:35 12.08.2022
2237 Clouds 10 1014 93 10000 2 0 00:28 12.08.2022
2238 Clouds 9 1014 87 10000 1 0 23:35 11.08.2022
2239 Clouds 12 1014 87 10000 1 0 22:28 11.08.2022
2240 Clouds 14 1014 77 10000 1 0 21:43 11.08.2022
2241 Clouds 14 1014 77 10000 1 0 21:19 11.08.2022
2242 Clouds 14 1014 77 10000 2 0 20:27 11.08.2022
2243 Rain 13 1014 88 10000 1 0 19:33 11.08.2022
2244 Clouds 14 1014 82 10000 1 0 18:36 11.08.2022
2245 Clouds 17 1014 63 10000 1 0 16:38 11.08.2022
2246 Clouds 18 1014 59 10000 2 0 15:37 11.08.2022
2247 Clouds 20 1013 49 10000 3 350 13:51 11.08.2022
2248 Clouds 21 1013 46 10000 5 330 11:26 11.08.2022
2249 Clouds 20 1014 49 10000 4 340 07:49 11.08.2022
2250 Clouds 17 1014 67 10000 4 320 04:44 11.08.2022
2251 Clouds 11 1013 87 10000 2 0 01:54 11.08.2022
2252 Clouds 9 1012 81 10000 1 0 22:38 10.08.2022
2253 Clouds 10 1012 87 10000 3 180 21:44 10.08.2022
2254 Clouds 10 1012 87 10000 1 0 20:55 10.08.2022
2255 Clouds 10 1011 87 10000 1 0 19:44 10.08.2022
2256 Clouds 13 1011 76 10000 1 0 18:45 10.08.2022
2257 Clouds 14 1011 72 10000 3 280 17:19 10.08.2022
2258 Clouds 22 1008 49 10000 1 0 13:36 10.08.2022
2259 Clouds 22 1008 49 10000 1 0 13:36 10.08.2022
2260 Clouds 22 1008 49 10000 1 0 13:36 10.08.2022
2261 Rain 22 1008 49 10000 1 0 12:48 10.08.2022
2262 Clouds 20 1010 60 10000 1 0 09:56 10.08.2022
2263 Clouds 19 1010 72 10000 3 130 08:35 10.08.2022
2264 Clouds 19 1011 63 10000 3 260 07:21 10.08.2022
2265 Clouds 16 1010 72 10000 2 0 03:35 10.08.2022
2266 Clouds 14 1010 88 10000 3 40 23:58 09.08.2022
2267 Clouds 14 1010 88 10000 3 40 23:25 09.08.2022
2268 Clouds 14 1012 82 10000 3 140 21:37 09.08.2022
2269 Clouds 15 1014 77 8000 3 60 20:40 09.08.2022
2270 Clouds 16 1013 63 10000 1 0 18:45 09.08.2022
2271 Rain 15 1013 72 10000 2 0 17:31 09.08.2022
2272 Clouds 16 1012 63 10000 3 320 16:42 09.08.2022
2273 Clouds 19 1011 52 10000 3 30 15:59 09.08.2022
2274 Clouds 20 1011 45 10000 4 30 14:28 09.08.2022
2275 Clouds 24 1011 35 10000 3 320 10:39 09.08.2022
2276 Clouds 24 1012 38 10000 2 0 08:51 09.08.2022
2277 Clouds 23 1013 38 10000 2 0 07:54 09.08.2022
2278 Clouds 17 1015 55 10000 1 0 04:31 09.08.2022
2279 Clear 9 1014 81 10000 2 0 23:46 08.08.2022
2280 Clear 9 1015 81 10000 2 0 22:57 08.08.2022
2281 Clear 9 1015 81 10000 2 0 22:35 08.08.2022
2282 Clouds 10 1015 81 10000 1 0 21:27 08.08.2022
2283 Clouds 12 1015 71 10000 1 0 19:51 08.08.2022
2284 Clear 14 1015 72 10000 1 0 18:58 08.08.2022
2285 Clouds 13 1014 76 10000 2 0 16:47 08.08.2022
2286 Clouds 17 1014 59 10000 1 0 15:45 08.08.2022
2287 Clouds 22 1013 28 10000 2 0 14:29 08.08.2022
2288 Clouds 24 1013 29 10000 3 280 12:29 08.08.2022
2289 Clouds 24 1013 33 10000 1 0 10:19 08.08.2022
2290 Clouds 21 1016 46 10000 2 0 06:54 08.08.2022
2291 Clouds 15 1016 63 10000 1 0 03:31 08.08.2022
2292 Clouds 10 1016 87 10000 0 0 22:42 07.08.2022
2293 Clouds 10 1017 87 10000 1 0 21:40 07.08.2022
2294 Clouds 10 1016 81 10000 1 0 20:26 07.08.2022
2295 Clouds 10 1016 81 10000 1 0 20:26 07.08.2022
2296 Clear 9 1016 87 10000 0 0 19:57 07.08.2022
2297 Clear 9 1016 87 10000 0 0 19:39 07.08.2022
2298 Clear 11 1016 76 10000 2 0 18:35 07.08.2022
2299 Clear 13 1016 71 10000 0 0 16:54 07.08.2022
2300 Clear 13 1016 71 10000 0 0 16:35 07.08.2022
2301 Clear 15 1016 63 10000 1 0 15:23 07.08.2022
2302 Clouds 19 1015 45 10000 3 300 13:34 07.08.2022
2303 Clouds 20 1015 40 10000 3 290 11:54 07.08.2022
2304 Clouds 20 1015 37 10000 4 310 10:34 07.08.2022
2305 Clouds 18 1016 39 10000 3 270 07:38 07.08.2022
2306 Clear 13 1016 62 10000 2 0 03:20 07.08.2022
2307 Clouds 7 1016 93 10000 1 0 00:57 07.08.2022
2308 Clear 9 1015 81 10000 2 0 22:25 06.08.2022
2309 Clear 10 1015 87 10000 3 340 20:46 06.08.2022
2310 Clouds 11 1014 82 10000 3 340 19:41 06.08.2022
2311 Clouds 12 1014 82 10000 4 310 18:30 06.08.2022
2312 Clouds 13 1014 76 10000 4 340 17:32 06.08.2022
2313 Clouds 16 1011 67 10000 3 340 14:43 06.08.2022
2314 Clouds 17 1010 63 10000 7 330 13:44 06.08.2022
2315 Clouds 18 1009 63 10000 4 20 11:55 06.08.2022
2316 Clouds 17 1010 72 10000 3 10 10:32 06.08.2022
2317 Clouds 19 1009 68 10000 3 280 08:32 06.08.2022
2318 Clouds 17 1009 77 10000 4 330 03:52 06.08.2022
2319 Clouds 14 1009 88 10000 1 0 23:36 05.08.2022
2320 Clouds 15 1009 82 10000 4 280 22:32 05.08.2022
2321 Rain 16 1009 77 10000 4 150 19:46 05.08.2022
2322 Thunderstorm 17 1010 82 10000 5 130 18:46 05.08.2022
2323 Clouds 17 1010 82 10000 5 130 18:22 05.08.2022
2324 Rain 17 1010 88 10000 0 0 16:49 05.08.2022
2325 Clouds 20 1010 64 10000 2 0 15:22 05.08.2022
2326 Clouds 22 1009 53 10000 3 20 14:31 05.08.2022
2327 Clouds 23 1009 53 10000 2 0 13:24 05.08.2022
2328 Clouds 24 1010 50 10000 1 0 12:29 05.08.2022
2329 Clouds 23 1010 49 10000 2 0 10:51 05.08.2022
2330 Clouds 21 1011 56 10000 2 0 08:27 05.08.2022
2331 Clouds 19 1012 59 10000 2 0 06:56 05.08.2022
2332 Clouds 19 1012 59 10000 2 0 06:56 05.08.2022
2333 Clouds 13 1014 88 10000 2 0 00:46 05.08.2022
2334 Clouds 12 1012 87 10000 2 0 22:32 04.08.2022
2335 Clouds 12 1013 87 10000 0 0 21:27 04.08.2022
2336 Clouds 13 1013 88 10000 2 0 20:44 04.08.2022
2337 Clouds 13 1013 88 10000 1 0 19:48 04.08.2022
2338 Clouds 13 1013 88 10000 0 0 18:42 04.08.2022
2339 Clouds 13 1013 88 10000 0 0 18:23 04.08.2022
2340 Clouds 20 1012 56 10000 3 360 14:38 04.08.2022
2341 Clouds 21 1013 52 10000 4 340 13:18 04.08.2022
2342 Clouds 23 1012 46 10000 4 320 11:33 04.08.2022
2343 Clouds 21 1013 52 10000 7 340 07:55 04.08.2022
2344 Clouds 19 1014 63 10000 5 330 06:41 04.08.2022
2345 Clouds 16 1013 77 10000 3 330 02:35 04.08.2022
2346 Clouds 14 1012 88 10000 3 290 23:46 03.08.2022
2347 Clouds 14 1012 88 10000 2 0 22:59 03.08.2022
2348 Clouds 15 1012 88 10000 3 290 20:50 03.08.2022
2349 Clouds 14 1011 88 10000 3 280 19:54 03.08.2022
2350 Clouds 16 1011 82 10000 2 0 18:37 03.08.2022
2351 Clouds 16 1011 88 10000 4 310 16:26 03.08.2022
2352 Clouds 16 1010 88 10000 3 310 15:45 03.08.2022
2353 Clouds 17 1011 88 10000 0 0 12:44 03.08.2022
2354 Clouds 21 1010 64 10000 5 350 09:46 03.08.2022
2355 Clouds 20 1011 60 10000 4 40 04:51 03.08.2022
2356 Clouds 19 1011 63 10000 7 20 03:52 03.08.2022
2357 Clouds 18 1011 68 10000 3 90 01:45 03.08.2022
2358 Clouds 15 1010 77 10000 2 0 23:41 02.08.2022
2359 Clouds 17 1010 72 10000 2 0 21:59 02.08.2022
2360 Clouds 17 1010 72 10000 2 0 21:40 02.08.2022
2361 Clouds 18 1010 63 10000 1 0 19:38 02.08.2022
2362 Clouds 24 1009 33 10000 1 0 16:42 02.08.2022
2363 Clouds 27 1008 32 10000 3 180 13:21 02.08.2022
2364 Clouds 30 1008 26 10000 4 190 09:53 02.08.2022
2365 Clouds 30 1009 26 10000 2 0 08:27 02.08.2022
2366 Clouds 28 1009 32 10000 4 200 07:50 02.08.2022
2367 Clear 24 1010 46 10000 1 0 04:56 02.08.2022
2368 Clear 15 1010 77 10000 1 0 01:58 02.08.2022
2369 Clear 13 1010 82 10000 1 0 23:21 01.08.2022
2370 Clear 16 1009 67 10000 1 0 21:19 01.08.2022
2371 Clear 16 1009 72 10000 2 0 19:44 01.08.2022
2372 Clear 16 1009 72 10000 0 0 18:53 01.08.2022
2373 Clear 17 1009 67 10000 1 0 16:55 01.08.2022
2374 Clear 17 1009 67 10000 1 0 16:55 01.08.2022
2375 Clear 17 1009 67 10000 1 0 16:55 01.08.2022
2376 Clear 19 1008 59 10000 1 0 16:29 01.08.2022
2377 Clear 19 1008 68 10000 1 0 15:34 01.08.2022
2378 Clouds 25 1008 38 10000 2 0 14:44 01.08.2022
2379 Clouds 28 1008 28 10000 3 310 12:57 01.08.2022
2380 Clouds 28 1009 26 10000 2 0 10:47 01.08.2022
2381 Clouds 28 1009 23 10000 3 310 08:45 01.08.2022
2382 Clear 25 1010 33 10000 2 0 06:50 01.08.2022
2383 Clear 21 1011 52 10000 1 0 04:30 01.08.2022
2384 Clear 9 1011 87 10000 0 0 00:58 01.08.2022
2385 Clear 11 1010 87 10000 1 0 22:42 31.07.2022
2386 Clear 11 1010 87 10000 1 0 22:18 31.07.2022
2387 Clear 14 1010 77 10000 1 0 20:21 31.07.2022
2388 Clear 14 1009 82 10000 1 0 18:38 31.07.2022
2389 Clear 16 1008 77 10000 1 0 16:22 31.07.2022
2390 Clouds 26 1007 31 10000 4 280 13:59 31.07.2022
2391 Clouds 27 1006 29 10000 3 270 12:55 31.07.2022
2392 Clouds 27 1007 29 10000 6 240 10:53 31.07.2022
2393 Clouds 26 1007 31 10000 6 230 08:29 31.07.2022
2394 Clouds 20 1008 52 10000 1 0 04:46 31.07.2022
2395 Clouds 9 1008 87 10000 0 0 00:56 31.07.2022
2396 Clear 10 1008 87 10000 1 0 22:40 30.07.2022
2397 Clear 11 1008 82 10000 0 0 21:50 30.07.2022
2398 Clear 11 1008 82 10000 0 0 21:24 30.07.2022
2399 Clear 12 1008 82 10000 1 0 20:28 30.07.2022
2400 Clear 13 1008 82 10000 1 0 19:42 30.07.2022
2401 Clear 13 1007 82 10000 1 0 17:52 30.07.2022
2402 Clear 16 1007 72 10000 1 0 16:37 30.07.2022
2403 Clouds 18 1006 59 10000 2 0 15:29 30.07.2022
2404 Clouds 24 1006 38 10000 3 230 13:22 30.07.2022
2405 Clouds 24 1006 38 10000 3 250 12:22 30.07.2022
2406 Clouds 24 1006 35 10000 2 0 10:45 30.07.2022
2407 Clouds 24 1006 29 10000 4 260 09:59 30.07.2022
2408 Clouds 22 1006 43 10000 2 0 08:49 30.07.2022
2409 Clouds 22 1007 40 10000 3 290 06:55 30.07.2022
2410 Clear 14 1007 77 10000 0 0 02:33 30.07.2022
2411 Clouds 9 1006 93 10000 1 0 23:30 29.07.2022
2412 Clouds 12 1006 82 10000 0 0 21:36 29.07.2022
2413 Clouds 13 1007 82 10000 1 0 20:50 29.07.2022
2414 Clouds 13 1007 88 10000 1 0 19:34 29.07.2022
2415 Clouds 14 1009 82 10000 2 0 16:59 29.07.2022
2416 Thunderstorm 15 1010 77 8000 8 250 14:38 29.07.2022
2417 Clouds 24 1005 38 10000 4 150 12:41 29.07.2022
2418 Clouds 23 1008 35 10000 2 0 08:52 29.07.2022
2419 Clouds 23 1008 35 10000 2 0 08:22 29.07.2022
2420 Clouds 14 1010 72 10000 2 0 04:39 29.07.2022
2421 Clear 5 1011 93 10000 1 0 23:46 28.07.2022
2422 Clear 6 1010 93 10000 0 0 21:38 28.07.2022
2423 Clear 6 1011 93 10000 1 0 20:52 28.07.2022
2424 Clear 6 1011 93 10000 1 0 20:18 28.07.2022
2425 Clear 7 1011 93 10000 1 0 19:40 28.07.2022
2426 Clear 8 1012 87 10000 1 0 17:46 28.07.2022
2427 Clear 8 1012 87 10000 1 0 17:23 28.07.2022
2428 Clear 10 1011 87 10000 2 0 16:40 28.07.2022
2429 Clouds 16 1011 59 10000 2 0 13:57 28.07.2022
2430 Clouds 16 1011 67 10000 3 50 12:40 28.07.2022
2431 Clouds 13 1012 82 10000 2 0 08:49 28.07.2022
2432 Clouds 12 1012 82 10000 2 0 05:41 28.07.2022
2433 Clouds 12 1012 82 10000 2 0 05:20 28.07.2022
2434 Clouds 8 1011 87 10000 0 0 23:20 27.07.2022
2435 Clouds 8 1011 87 10000 1 0 21:30 27.07.2022
2436 Clouds 9 1011 81 10000 1 0 19:53 27.07.2022
2437 Clouds 9 1011 81 10000 1 0 19:20 27.07.2022
2438 Clear 12 1011 71 10000 1 0 16:31 27.07.2022
2439 Clear 16 1011 51 10000 3 20 15:51 27.07.2022
2440 Clouds 18 1011 42 10000 4 350 14:41 27.07.2022
2441 Clouds 18 1011 42 10000 4 340 13:34 27.07.2022
2442 Clouds 19 1011 39 10000 4 310 09:29 27.07.2022
2443 Clouds 17 1012 51 10000 3 330 07:47 27.07.2022
2444 Clouds 14 1012 58 10000 5 330 04:53 27.07.2022
2445 Clouds 10 1011 81 10000 1 0 23:21 26.07.2022
2446 Clouds 11 1011 82 10000 3 340 21:52 26.07.2022
2447 Clouds 12 1011 76 10000 3 360 20:49 26.07.2022
2448 Clouds 11 1011 82 10000 2 0 19:22 26.07.2022
2449 Clouds 13 1011 76 10000 3 360 18:40 26.07.2022
2450 Clouds 13 1010 82 10000 4 320 17:54 26.07.2022
2451 Clouds 14 1010 77 10000 2 0 15:43 26.07.2022
2452 Clouds 14 1009 72 10000 4 10 14:43 26.07.2022
2453 Rain 15 1009 67 10000 6 30 12:32 26.07.2022
2454 Clouds 14 1008 82 10000 2 0 10:20 26.07.2022
2455 Clouds 17 1008 55 10000 10 270 08:27 26.07.2022
2456 Clouds 14 1007 77 10000 1 0 01:52 26.07.2022
2457 Clouds 13 1006 82 10000 2 0 00:20 26.07.2022
2458 Clouds 11 1005 87 10000 3 140 22:40 25.07.2022
2459 Clouds 13 1006 76 10000 1 0 21:43 25.07.2022
2460 Clouds 11 1005 82 10000 1 0 20:43 25.07.2022
2461 Clouds 11 1005 82 10000 1 0 20:24 25.07.2022
2462 Clouds 11 1005 87 10000 2 0 19:24 25.07.2022
2463 Clouds 13 1005 82 10000 2 0 17:42 25.07.2022
2464 Clouds 13 1005 82 10000 2 0 17:20 25.07.2022
2465 Clouds 20 1004 45 10000 2 0 13:27 25.07.2022
2466 Clouds 21 1004 46 10000 1 0 10:54 25.07.2022
2467 Clouds 18 1006 55 10000 1 0 07:53 25.07.2022
2468 Clouds 11 1006 87 10000 0 0 01:36 25.07.2022
2469 Clouds 10 1006 87 10000 1 0 23:45 24.07.2022
2470 Clouds 9 1005 87 10000 0 0 22:47 24.07.2022
2471 Clouds 9 1005 87 10000 1 0 21:42 24.07.2022
2472 Clear 10 1005 87 10000 1 0 20:59 24.07.2022
2473 Clear 10 1005 87 10000 1 0 20:41 24.07.2022
2474 Clear 10 1005 87 10000 2 0 19:23 24.07.2022
2475 Clear 11 1006 87 10000 2 0 18:26 24.07.2022
2476 Clouds 13 1006 82 10000 1 0 15:55 24.07.2022
2477 Clouds 16 1005 67 10000 2 0 14:57 24.07.2022
2478 Clouds 20 1005 56 10000 4 340 13:49 24.07.2022
2479 Clouds 21 1004 52 10000 5 340 12:28 24.07.2022
2480 Clouds 22 1003 49 10000 6 320 11:30 24.07.2022
2481 Clouds 21 1003 49 10000 3 330 09:55 24.07.2022
2482 Clouds 21 1003 49 10000 5 320 08:22 24.07.2022
2483 Clouds 21 1003 46 10000 4 280 07:41 24.07.2022
2484 Clouds 17 1004 67 10000 1 0 03:18 24.07.2022
2485 Clouds 12 1003 87 10000 1 0 23:25 23.07.2022
2486 Clouds 12 1003 87 10000 1 0 20:47 23.07.2022
2487 Clouds 12 1002 87 10000 2 0 19:29 23.07.2022
2488 Clouds 15 1002 82 10000 1 0 18:40 23.07.2022
2489 Clouds 15 1002 82 10000 0 0 17:27 23.07.2022
2490 Clouds 17 1002 67 10000 0 0 16:29 23.07.2022
2491 Clouds 18 1001 63 10000 2 0 15:22 23.07.2022
2492 Clouds 21 1001 56 10000 1 0 14:55 23.07.2022
2493 Clouds 21 1001 56 10000 1 0 14:23 23.07.2022
2494 Clouds 23 1001 46 10000 2 0 11:56 23.07.2022
2495 Clouds 23 1001 43 10000 3 170 10:41 23.07.2022
2496 Clouds 22 1002 43 10000 4 130 09:38 23.07.2022
2497 Rain 21 1002 49 10000 3 170 07:37 23.07.2022
2498 Clouds 15 1003 63 10000 3 20 03:37 23.07.2022
2499 Clouds 10 1004 87 10000 1 0 00:37 23.07.2022
2500 Clouds 12 1005 71 10000 1 0 21:36 22.07.2022
2501 Clouds 10 1005 81 10000 2 0 20:31 22.07.2022
2502 Clouds 10 1003 92 10000 1.57 179 18:42 22.07.2022
2503 Clouds 12 1006 76 10000 4 200 17:40 22.07.2022
2504 Clouds 12 1005 76 10000 4 180 16:26 22.07.2022
2505 Clouds 13 1005 76 10000 4 220 13:24 22.07.2022
2506 Clouds 15 1004 77 10000 5 80 10:23 22.07.2022
2507 Rain 16 1005 67 10000 4 270 09:24 22.07.2022
2508 Clouds 15 1006 67 10000 6 210 07:58 22.07.2022
2509 Rain 14 1006 82 10000 3 180 04:23 22.07.2022
2510 Rain 14 1007 88 10000 6 200 23:44 21.07.2022
2511 Clouds 15 1007 88 10000 1 0 21:55 21.07.2022
2512 Thunderstorm 15 1007 88 10000 2 0 20:28 21.07.2022
2513 Rain 16 1008 88 10000 1 0 18:43 21.07.2022
2514 Rain 16 1009 88 10000 1 0 17:22 21.07.2022
2515 Rain 17 1009 82 10000 2 0 16:43 21.07.2022
2516 Rain 18 1009 77 10000 2 0 14:49 21.07.2022
2517 Clouds 17 1009 77 10000 3 180 13:58 21.07.2022
2518 Clouds 17 1009 77 10000 3 180 13:58 21.07.2022
2519 Rain 22 1008 60 10000 3 350 12:18 21.07.2022
2520 Rain 26 1009 36 10000 3 360 10:37 21.07.2022
2521 Clouds 26 1010 34 10000 8 150 08:53 21.07.2022
2522 Rain 26 1010 34 10000 8 150 08:18 21.07.2022
2523 Clouds 27 1010 32 10000 8 150 07:22 21.07.2022
2524 Clouds 19 1012 59 10000 0 0 03:25 21.07.2022
2525 Clouds 14 1013 77 10000 1 0 22:51 20.07.2022
2526 Clouds 14 1013 77 10000 1 0 22:20 20.07.2022
2527 Clouds 13 1013 82 10000 1 0 20:46 20.07.2022
2528 Rain 12 1013 87 10000 2 0 19:47 20.07.2022
2529 Clouds 15 1013 72 10000 2 0 18:56 20.07.2022
2530 Clouds 15 1013 72 10000 2 0 18:31 20.07.2022
2531 Clouds 16 1013 67 10000 3 20 17:33 20.07.2022
2532 Clouds 17 1013 63 10000 5 350 15:38 20.07.2022
2533 Clouds 19 1012 55 10000 7 320 14:54 20.07.2022
2534 Clouds 20 1011 52 10000 7 340 13:44 20.07.2022
2535 Clouds 22 1011 43 10000 6 350 11:31 20.07.2022
2536 Clouds 21 1011 49 10000 5 310 07:36 20.07.2022
2537 Clouds 15 1009 67 10000 1 0 01:58 20.07.2022
2538 Clouds 14 1008 67 10000 3 180 00:43 20.07.2022
2539 Clouds 16 1006 55 10000 4 200 22:39 19.07.2022
2540 Clouds 16 1006 55 10000 4 200 22:21 19.07.2022
2541 Clouds 20 1004 40 10000 8 140 20:50 19.07.2022
2542 Clouds 21 1004 37 10000 8 150 19:38 19.07.2022
2543 Clouds 22 1004 33 10000 11 140 18:43 19.07.2022
2544 Clouds 23 1003 28 10000 11 140 17:56 19.07.2022
2545 Clouds 24 1003 27 10000 12 150 15:50 19.07.2022
2546 Clouds 18 1002 62 10000 4.34 147 14:20 19.07.2022
2547 Thunderstorm 28 1002 23 10000 9 130 11:35 19.07.2022
2548 Clouds 29 1003 20 10000 9 130 09:58 19.07.2022
2549 Clouds 30 1004 17 10000 8 170 08:48 19.07.2022
2550 Clouds 30 1004 17 10000 8 170 08:21 19.07.2022
2551 Clouds 29 1004 20 10000 11 140 07:18 19.07.2022
2552 Clouds 25 1005 23 10000 12 130 05:23 19.07.2022
2553 Clouds 25 1005 23 10000 11 140 04:40 19.07.2022
2554 Clouds 21 1005 32 10000 5 140 00:31 19.07.2022
2555 Clouds 21 1006 35 10000 3 200 23:21 18.07.2022
2556 Clouds 22 1006 33 10000 6 150 22:55 18.07.2022
2557 Clouds 23 1006 28 10000 7 140 21:50 18.07.2022
2558 Clouds 22 1005 30 10000 5 140 20:50 18.07.2022
2559 Clouds 21 1006 35 10000 5 140 19:24 18.07.2022
2560 Clouds 24 1007 29 10000 10 150 16:52 18.07.2022
2561 Clouds 24 1007 27 10000 6 170 15:42 18.07.2022
2562 Clouds 27 1006 24 10000 8 210 13:45 18.07.2022
2563 Clouds 28 1006 20 10000 7 170 12:37 18.07.2022
2564 Clouds 30 1006 17 10000 5 170 10:34 18.07.2022
2565 Clouds 29 1008 20 10000 6 190 08:50 18.07.2022
2566 Clouds 27 1009 21 10000 6 190 06:54 18.07.2022
2567 Clear 8 1011 81 10000 0 0 00:36 18.07.2022
2568 Clear 9 1011 87 10000 0 0 22:34 17.07.2022
2569 Clear 9 1011 81 10000 1 0 21:47 17.07.2022
2570 Clear 11 1011 76 10000 1 0 20:55 17.07.2022
2571 Clear 11 1011 76 10000 1 0 20:36 17.07.2022
2572 Clear 11 1011 76 10000 0 0 19:28 17.07.2022
2573 Clear 13 1011 71 10000 2 0 18:26 17.07.2022
2574 Clear 17 1011 45 10000 1 0 17:38 17.07.2022
2575 Clear 16 1011 51 10000 3 170 16:50 17.07.2022
2576 Clear 16 1011 51 10000 3 170 16:25 17.07.2022
2577 Clouds 24 1010 25 10000 4 240 14:32 17.07.2022
2578 Clouds 25 1010 25 10000 3 300 13:28 17.07.2022
2579 Clouds 26 1011 24 10000 2 0 11:32 17.07.2022
2580 Clouds 24 1012 27 10000 3 280 08:50 17.07.2022
2581 Clear 15 1015 63 10000 0 0 03:43 17.07.2022
2582 Clear 12 1015 71 10000 0 0 02:21 17.07.2022
2583 Clear 5 1015 87 10000 1 0 23:19 16.07.2022
2584 Clear 6 1014 93 10000 3 150 21:25 16.07.2022
2585 Clear 7 1014 87 10000 2 0 19:25 16.07.2022
2586 Clear 9 1014 81 10000 2 0 17:56 16.07.2022
2587 Clear 12 1015 66 10000 1 0 16:31 16.07.2022
2588 Clouds 19 1013 45 10000 6 340 13:47 16.07.2022
2589 Clouds 20 1012 45 10000 6 340 10:50 16.07.2022
2590 Clouds 19 1012 48 10000 6 330 09:32 16.07.2022
2591 Clouds 17 1012 51 10000 7 330 08:43 16.07.2022
2592 Clouds 16 1013 59 10000 7 340 07:59 16.07.2022
2593 Clouds 15 1012 67 10000 4 360 03:58 16.07.2022
2594 Clouds 14 1011 77 10000 6 350 02:40 16.07.2022
2595 Clouds 13 1010 88 10000 4 340 23:29 15.07.2022
2596 Clouds 13 1009 88 10000 3 340 22:39 15.07.2022
2597 Clouds 13 1009 88 10000 2 0 21:28 15.07.2022
2598 Clouds 13 1009 88 10000 3 320 20:24 15.07.2022
2599 Rain 13 1009 88 10000 0 0 18:37 15.07.2022
2600 Rain 13 1009 88 10000 3 310 17:36 15.07.2022
2601 Rain 16 1009 77 10000 2 0 14:53 15.07.2022
2602 Clouds 17 1009 67 10000 3 170 12:57 15.07.2022
2603 Clouds 17 1009 63 10000 3 180 11:20 15.07.2022
2604 Clouds 18 1010 63 10000 4 170 09:21 15.07.2022
2605 Clouds 16 1012 72 10000 4 190 05:56 15.07.2022
2606 Rain 15 1012 82 10000 0 0 00:53 15.07.2022
2607 Rain 15 1012 82 10000 0 0 00:21 15.07.2022
2608 Rain 15 1013 82 10000 1 0 22:45 14.07.2022
2609 Clouds 16 1012 77 10000 5 30 21:46 14.07.2022
2610 Clouds 16 1012 77 10000 5 30 21:28 14.07.2022
2611 Clouds 16 1012 82 10000 4 90 20:43 14.07.2022
2612 Clouds 16 1012 82 10000 4 90 20:20 14.07.2022
2613 Clouds 17 1012 63 10000 1 0 18:52 14.07.2022
2614 Clouds 19 1011 55 10000 3 330 16:22 14.07.2022
2615 Clouds 21 1010 46 10000 3 0 15:29 14.07.2022
2616 Clouds 26 1009 27 10000 6 240 13:53 14.07.2022
2617 Clouds 26 1009 27 10000 8 250 12:53 14.07.2022
2618 Clouds 26 1009 27 10000 11 230 11:43 14.07.2022
2619 Clouds 26 1009 27 10000 11 230 11:22 14.07.2022
2620 Clouds 26 1009 25 10000 9 230 09:49 14.07.2022
2621 Clouds 26 1011 27 10000 8 170 06:54 14.07.2022
2622 Clouds 16 1013 63 10000 1 0 01:24 14.07.2022
2623 Clouds 15 1012 72 10000 3 100 00:53 14.07.2022
2624 Clouds 16 1013 55 10000 1 0 22:33 13.07.2022
2625 Clouds 16 1012 51 10000 1 0 21:56 13.07.2022
2626 Clouds 16 1012 48 10000 1 0 20:53 13.07.2022
2627 Clouds 18 1012 42 10000 3 140 19:30 13.07.2022
2628 Clouds 18 1012 39 10000 6 140 17:51 13.07.2022
2629 Clouds 18 1012 39 10000 5 140 16:39 13.07.2022
2630 Clouds 18 1011 45 10000 5 140 15:24 13.07.2022
2631 Clouds 25 1011 20 10000 3 200 12:55 13.07.2022
2632 Clouds 25 1012 23 10000 3 240 10:45 13.07.2022
2633 Clouds 25 1012 23 10000 3 240 10:24 13.07.2022
2634 Clouds 24 1013 29 10000 3 230 09:24 13.07.2022
2635 Clouds 22 1014 37 10000 3 300 06:20 13.07.2022
2636 Clear 14 1014 77 10000 0 0 02:21 13.07.2022
2637 Clear 6 1013 93 10000 3 170 23:45 12.07.2022
2638 Clear 8 1013 87 10000 1 0 21:57 12.07.2022
2639 Clear 8 1013 87 10000 1 0 21:29 12.07.2022
2640 Clear 8 1013 87 10000 2 0 20:41 12.07.2022
2641 Clear 10 1013 81 10000 1 0 19:28 12.07.2022
2642 Clouds 13 1012 76 10000 1 0 17:50 12.07.2022
2643 Clouds 13 1012 76 10000 1 0 16:20 12.07.2022
2644 Rain 15 1010 63 10000 6 340 14:31 12.07.2022
2645 Clouds 17 1009 59 10000 7 340 12:48 12.07.2022
2646 Clouds 15 1009 67 10000 7 340 11:26 12.07.2022
2647 Clouds 17 1008 59 10000 10 340 09:42 12.07.2022
2648 Clouds 15 1009 67 10000 9 340 08:24 12.07.2022
2649 Rain 16 1008 63 10000 9 330 06:59 12.07.2022
2650 Clouds 13 1009 76 10000 5 340 05:42 12.07.2022
2651 Clouds 12 1009 76 10000 4 350 02:52 12.07.2022
2652 Clouds 11 1008 82 10000 4 340 23:30 11.07.2022
2653 Clouds 11 1008 82 10000 3 330 22:31 11.07.2022
2654 Clouds 12 1009 76 10000 3 320 20:41 11.07.2022
2655 Clouds 12 1009 76 10000 5 310 19:50 11.07.2022
2656 Clouds 12 1008 76 10000 5 320 18:32 11.07.2022
2657 Rain 13 1008 71 10000 6 320 17:53 11.07.2022
2658 Clouds 13 1008 76 10000 6 350 16:21 11.07.2022
2659 Clouds 14 1007 72 10000 5 330 14:49 11.07.2022
2660 Clouds 18 1005 63 10000 8 320 11:59 11.07.2022
2661 Clouds 20 1005 56 10000 7 320 10:37 11.07.2022
2662 Clouds 20 1005 56 10000 7 300 09:49 11.07.2022
2663 Clouds 21 1005 52 10000 3 280 08:34 11.07.2022
2664 Clouds 18 1005 68 10000 5 300 06:44 11.07.2022
2665 Rain 16 1004 72 10000 6 140 00:22 11.07.2022
2666 Clouds 17 1004 63 10000 8 140 23:28 10.07.2022
2667 Clouds 17 1004 63 10000 7 130 22:21 10.07.2022
2668 Rain 17 1004 59 10000 10 130 20:54 10.07.2022
2669 Rain 16 1005 67 10000 6 100 19:50 10.07.2022
2670 Rain 15 1006 77 10000 7 50 18:53 10.07.2022
2671 Clouds 14 1009 88 10000 2 0 17:41 10.07.2022
2672 Thunderstorm 16 1009 77 10000 14 220 16:58 10.07.2022
2673 Clouds 16 1009 77 10000 14 220 16:20 10.07.2022
2674 Rain 23 1005 33 10000 4 70 14:33 10.07.2022
2675 Clouds 25 1006 29 10000 2 0 12:33 10.07.2022
2676 Clouds 25 1007 27 10000 1 0 11:34 10.07.2022
2677 Clouds 23 1008 28 10000 3 270 09:28 10.07.2022
2678 Clouds 23 1009 28 10000 2 0 08:38 10.07.2022
2679 Clouds 20 1010 40 10000 2 0 05:36 10.07.2022
2680 Clouds 9 1010 87 10000 0 0 23:32 09.07.2022
2681 Clouds 10 1010 87 10000 1 0 22:25 09.07.2022
2682 Clouds 12 1010 82 10000 2 0 21:31 09.07.2022
2683 Rain 14 1011 67 10000 6 340 18:59 09.07.2022
2684 Clouds 13 1010 76 10000 1 0 17:59 09.07.2022
2685 Clouds 15 1010 63 10000 1 0 16:59 09.07.2022
2686 Clouds 18 1009 45 10000 2 0 15:44 09.07.2022
2687 Clouds 18 1009 45 10000 2 0 15:25 09.07.2022
2688 Clouds 21 1009 35 10000 4 330 13:51 09.07.2022
2689 Clouds 21 1009 35 10000 4 330 13:27 09.07.2022
2690 Clouds 22 1009 33 10000 5 330 11:33 09.07.2022
2691 Clouds 21 1009 35 10000 4 340 10:24 09.07.2022
2692 Clouds 21 1010 40 10000 5 350 08:25 09.07.2022
2693 Clouds 20 1011 40 10000 4 330 06:58 09.07.2022
2694 Clouds 18 1011 55 10000 3 300 04:34 09.07.2022
2695 Clouds 8 1011 87 10000 1 0 23:18 08.07.2022
2696 Clouds 9 1011 87 10000 1 0 21:59 08.07.2022
2697 Clear 9 1011 87 10000 1 0 20:59 08.07.2022
2698 Clear 9 1011 87 10000 1 0 20:25 08.07.2022
2699 Clear 11 1011 82 10000 3 180 18:32 08.07.2022
2700 Clear 12 1011 76 10000 2 0 17:25 08.07.2022
2701 Clouds 20 1010 40 10000 2 0 14:55 08.07.2022
2702 Clouds 20 1010 40 10000 2 0 14:29 08.07.2022
2703 Clouds 21 1010 37 10000 4 330 12:28 08.07.2022
2704 Clouds 21 1010 40 10000 3 320 10:45 08.07.2022
2705 Clouds 21 1011 37 10000 3 300 08:55 08.07.2022
2706 Clouds 18 1013 52 10000 3 290 06:55 08.07.2022
2707 Clouds 14 1013 72 10000 4 280 03:22 08.07.2022
2708 Clouds 11 1011 82 10000 2 0 23:45 07.07.2022
2709 Clouds 12 1011 82 10000 4 340 22:45 07.07.2022
2710 Clouds 12 1011 76 10000 5 320 20:59 07.07.2022
2711 Clouds 13 1010 76 10000 5 350 18:42 07.07.2022
2712 Clouds 13 1009 71 10000 5 360 17:41 07.07.2022
2713 Clouds 13 1007 76 10000 6 350 15:34 07.07.2022
2714 Clouds 16 1006 63 10000 4 330 13:30 07.07.2022
2715 Clouds 18 1005 55 10000 6 340 12:40 07.07.2022
2716 Clouds 18 1005 55 10000 6 340 12:20 07.07.2022
2717 Clouds 17 1005 63 10000 7 350 11:31 07.07.2022
2718 Rain 18 1004 59 10000 6 340 10:44 07.07.2022
2719 Clouds 18 1004 59 10000 6 340 10:25 07.07.2022
2720 Clouds 21 1003 46 10000 6 270 07:40 07.07.2022
2721 Clouds 16 1004 72 10000 4 280 04:42 07.07.2022
2722 Rain 13 1001 92 10000 0.64 159 23:37 06.07.2022
2723 Rain 13 1001 94 10000 1.41 94 23:19 06.07.2022
2724 Rain 13 1005 94 10000 1 0 22:57 06.07.2022
2725 Clouds 13 1005 94 10000 1 0 22:38 06.07.2022
2726 Rain 14 1004 82 10000 6 40 21:46 06.07.2022
2727 Rain 15 1005 77 10000 3 140 19:39 06.07.2022
2728 Rain 18 1004 42 10000 3 200 18:29 06.07.2022
2729 Clouds 21 1004 30 10000 5 40 16:27 06.07.2022
2730 Clouds 23 1004 25 10000 2 0 14:58 06.07.2022
2731 Clouds 24 1005 22 10000 2 0 12:42 06.07.2022
2732 Clouds 25 1005 20 10000 2 0 11:49 06.07.2022
2733 Clouds 23 1006 25 10000 2 0 10:18 06.07.2022
2734 Clouds 21 1008 37 10000 2 0 07:47 06.07.2022
2735 Clouds 21 1008 37 10000 2 0 07:23 06.07.2022
2736 Clouds 18 1009 45 10000 2 0 05:28 06.07.2022
2737 Clear 5 1009 87 10000 2 0 22:48 05.07.2022
2738 Clear 6 1009 93 10000 2 0 21:53 05.07.2022
2739 Clear 7 1009 87 10000 1 0 20:39 05.07.2022
2740 Clear 8 1009 87 10000 2 0 19:43 05.07.2022
2741 Clear 8 1009 87 10000 2 0 19:22 05.07.2022
2742 Clear 11 1009 82 10000 1 0 17:47 05.07.2022
2743 Clouds 14 1009 67 10000 3 350 16:55 05.07.2022
2744 Clouds 15 1008 63 10000 4 340 15:31 05.07.2022
2745 Clouds 17 1008 59 10000 4 350 14:28 05.07.2022
2746 Rain 17 1007 59 10000 4 50 12:43 05.07.2022
2747 Clouds 16 1007 51 10000 6 350 11:33 05.07.2022
2748 Clouds 19 1006 45 10000 5 310 10:40 05.07.2022
2749 Clouds 20 1006 40 10000 3 310 09:22 05.07.2022
2750 Clouds 20 1006 42 10000 4 260 07:45 05.07.2022
2751 Clouds 17 1007 59 10000 2 0 04:51 05.07.2022
2752 Clouds 17 1007 59 10000 2 0 04:23 05.07.2022
2753 Clouds 9 1006 81 10000 2 0 23:56 04.07.2022
2754 Clouds 9 1006 81 10000 2 0 23:26 04.07.2022
2755 Clouds 9 1005 81 10000 1 0 22:25 04.07.2022
2756 Clouds 12 1004 66 10000 1 0 21:30 04.07.2022
2757 Clouds 12 1005 66 10000 3 160 20:52 04.07.2022
2758 Clouds 12 1005 66 10000 3 160 20:33 04.07.2022
2759 Clouds 13 1006 62 10000 3 170 19:52 04.07.2022
2760 Clouds 13 1006 62 10000 3 170 19:34 04.07.2022
2761 Clouds 17 1006 48 10000 3 160 17:58 04.07.2022
2762 Clouds 18 1006 52 10000 2 0 15:50 04.07.2022
2763 Clouds 18 1006 52 10000 2 0 15:31 04.07.2022
2764 Clouds 20 1005 49 10000 5 340 13:29 04.07.2022
2765 Clouds 21 1004 46 10000 5 310 12:20 04.07.2022
2766 Clouds 21 1004 46 10000 5 340 10:34 04.07.2022
2767 Clouds 20 1004 56 10000 4 40 09:40 04.07.2022
2768 Clouds 19 1004 63 10000 4 10 07:21 04.07.2022
2769 Clouds 15 1004 88 10000 4 290 03:35 04.07.2022
2770 Clouds 14 1004 94 10000 0 0 00:35 04.07.2022
2771 Clouds 11 1003 93 10000 0 0 22:58 03.07.2022
2772 Clouds 11 1003 93 10000 0 0 22:58 03.07.2022
2773 Rain 13 1004 94 10000 1 0 20:51 03.07.2022
2774 Rain 13 1004 94 10000 1 0 20:25 03.07.2022
2775 Clouds 14 1005 94 10000 1 0 19:27 03.07.2022
2776 Clouds 14 1005 94 10000 2 0 18:35 03.07.2022
2777 Clouds 15 1005 88 10000 2 0 17:43 03.07.2022
2778 Clouds 17 1004 77 10000 4 30 15:49 03.07.2022
2779 Clouds 18 1004 77 10000 4 10 14:58 03.07.2022
2780 Clouds 18 1004 77 10000 4 10 13:59 03.07.2022
2781 Clouds 18 1004 77 10000 3 10 13:33 03.07.2022
2782 Rain 17 1004 82 10000 4 40 12:32 03.07.2022
2783 Rain 18 1006 72 10000 6 300 11:18 03.07.2022
2784 Rain 20 1005 64 10000 7 330 10:38 03.07.2022
2785 Rain 21 1005 60 10000 4 330 09:31 03.07.2022
2786 Clouds 20 1006 64 10000 3 340 07:34 03.07.2022
2787 Clouds 21 1005 52 10000 6 140 01:42 03.07.2022
2788 Clouds 19 1004 59 10000 4 190 23:50 02.07.2022
2789 Clouds 21 1003 52 10000 3 190 22:33 02.07.2022
2790 Clouds 23 1003 43 10000 9 150 20:37 02.07.2022
2791 Clouds 23 1003 43 10000 10 150 19:51 02.07.2022
2792 Clouds 23 1003 43 10000 10 150 19:19 02.07.2022
2793 Clouds 24 1003 41 10000 10 140 17:41 02.07.2022
2794 Clouds 25 1003 38 10000 9 140 16:38 02.07.2022
2795 Clouds 28 1002 32 10000 10 140 13:51 02.07.2022
2796 Clouds 30 1002 30 10000 6 160 12:19 02.07.2022
2797 Clouds 30 1003 28 10000 7 180 10:54 02.07.2022
2798 Clouds 30 1003 28 10000 7 180 10:33 02.07.2022
2799 Clouds 29 1005 28 10000 7 180 08:54 02.07.2022
2800 Clouds 29 1005 28 10000 7 180 08:19 02.07.2022
2801 Clouds 28 1006 32 10000 6 140 06:51 02.07.2022
2802 Clouds 15 1007 82 10000 1 0 00:55 02.07.2022
2803 Clouds 16 1007 77 10000 1 0 23:31 01.07.2022
2804 Clouds 18 1007 68 10000 1 0 22:40 01.07.2022
2805 Clouds 17 1007 72 10000 1 0 21:40 01.07.2022
2806 Clouds 17 1008 77 10000 1 0 20:59 01.07.2022
2807 Clouds 17 1008 77 10000 1 0 20:37 01.07.2022
2808 Clouds 17 1008 77 10000 1 0 19:41 01.07.2022
2809 Clouds 18 1008 72 10000 1 0 17:52 01.07.2022
2810 Clouds 21 1008 64 10000 2 0 15:26 01.07.2022
2811 Rain 24 1008 41 10000 3 280 13:54 01.07.2022
2812 Clouds 28 1008 32 10000 2 0 11:50 01.07.2022
2813 Clouds 28 1008 32 10000 3 200 10:20 01.07.2022
2814 Clouds 24 1010 43 10000 2 0 08:50 01.07.2022
2815 Clouds 23 1012 49 10000 4 200 03:18 01.07.2022
2816 Clouds 15 1011 88 10000 0 0 00:25 01.07.2022
2817 Clouds 14 1011 94 10000 1 0 22:56 30.06.2022
2818 Clouds 14 1011 94 10000 1 0 22:33 30.06.2022
2819 Clouds 14 1010 88 10000 1 0 21:59 30.06.2022
2820 Clouds 14 1010 88 10000 1 0 21:35 30.06.2022
2821 Clouds 15 1011 82 10000 0 0 20:22 30.06.2022
2822 Clouds 16 1010 82 10000 1 0 19:53 30.06.2022
2823 Clouds 16 1010 82 10000 1 0 19:19 30.06.2022
2824 Clouds 17 1011 77 10000 1 0 18:42 30.06.2022
2825 Clouds 18 1011 77 10000 1 0 17:38 30.06.2022
2826 Clouds 20 1011 56 10000 3 260 16:48 30.06.2022
2827 Rain 21 1011 49 10000 4 210 15:27 30.06.2022
2828 Clouds 25 1008 36 10000 11 190 13:30 30.06.2022
2829 Clouds 29 1007 24 10000 5 150 12:35 30.06.2022
2830 Clouds 30 1007 25 10000 5 150 11:28 30.06.2022
2831 Clouds 25 1009 44 10000 5 140 09:54 30.06.2022
2832 Clouds 25 1009 44 10000 5 140 09:34 30.06.2022
2833 Clouds 28 1010 32 10000 6 160 07:51 30.06.2022
2834 Clouds 22 1010 49 10000 1 0 05:57 30.06.2022
2835 Clouds 18 1010 63 10000 3 300 01:29 30.06.2022
2836 Clouds 14 1010 77 10000 1 0 23:34 29.06.2022
2837 Clouds 14 1011 82 10000 1 0 22:39 29.06.2022
2838 Clouds 14 1011 82 10000 2 0 21:37 29.06.2022
2839 Clouds 12 1011 87 10000 0 0 20:34 29.06.2022
2840 Clouds 13 1011 88 10000 0 0 19:37 29.06.2022
2841 Clouds 16 1010 72 10000 0 0 17:45 29.06.2022
2842 Clouds 18 1010 63 10000 4 50 16:41 29.06.2022
2843 Clouds 19 1010 55 10000 3 40 15:19 29.06.2022
2844 Thunderstorm 22 1009 43 10000 9 30 12:40 29.06.2022
2845 Thunderstorm 21 1008 49 10000 6 130 11:19 29.06.2022
2846 Clouds 29 1002 24 10000 4.79 230 09:33 29.06.2022
2847 Clouds 31 1009 19 10000 6 190 07:44 29.06.2022
2848 Clouds 27 1010 29 10000 6 160 04:57 29.06.2022
2849 Clear 18 1010 59 10000 0 0 01:41 29.06.2022
2850 Clear 13 1010 76 10000 1 0 00:36 29.06.2022
2851 Clouds 14 1010 72 10000 1 0 22:55 28.06.2022
2852 Clouds 14 1010 72 10000 1 0 22:34 28.06.2022
2853 Clouds 15 1009 67 10000 2 0 21:55 28.06.2022
2854 Clouds 15 1009 67 10000 2 0 21:33 28.06.2022
2855 Clouds 16 1009 63 10000 2 0 20:44 28.06.2022
2856 Clouds 20 1010 45 10000 1 0 19:34 28.06.2022
2857 Clouds 23 1009 35 10000 1 0 18:53 28.06.2022
2858 Clouds 22 1009 37 10000 2 0 17:42 28.06.2022
2859 Clouds 23 1008 35 10000 5 140 16:21 28.06.2022
2860 Clouds 23 1008 40 10000 5 140 15:42 28.06.2022
2861 Clouds 25 1008 33 10000 4 160 14:21 28.06.2022
2862 Clouds 28 1007 24 10000 4 180 13:54 28.06.2022
2863 Clouds 29 1007 26 10000 4 170 12:57 28.06.2022
2864 Clouds 29 1008 26 10000 4 200 11:21 28.06.2022
2865 Clouds 29 1008 26 10000 5 230 09:36 28.06.2022
2866 Clouds 29 1009 26 10000 2 0 08:44 28.06.2022
2867 Clouds 27 1009 32 10000 2 0 07:42 28.06.2022
2868 Clouds 27 1009 32 10000 2 0 07:19 28.06.2022
2869 Clear 15 1011 72 10000 2 0 01:32 28.06.2022
2870 Clouds 11 1011 87 10000 0 0 23:42 27.06.2022
2871 Clear 10 1010 87 10000 2 0 22:54 27.06.2022
2872 Clear 14 1010 77 10000 1 0 21:38 27.06.2022
2873 Clear 14 1010 77 10000 1 0 20:53 27.06.2022
2874 Clear 15 1010 72 10000 1 0 19:36 27.06.2022
2875 Clear 17 1010 59 10000 0 0 18:26 27.06.2022
2876 Clouds 20 1010 45 10000 2 0 16:27 27.06.2022
2877 Clouds 23 1010 35 10000 2 0 15:23 27.06.2022
2878 Clouds 26 1009 31 10000 7 340 13:37 27.06.2022
2879 Clouds 26 1009 29 10000 5 330 12:56 27.06.2022
2880 Clouds 26 1009 25 10000 3 320 10:34 27.06.2022
2881 Clouds 26 1010 24 10000 3 290 09:21 27.06.2022
2882 Clouds 24 1011 31 10000 2 0 08:30 27.06.2022
2883 Clouds 23 1012 38 10000 2 0 06:39 27.06.2022
2884 Clear 17 1013 63 10000 1 0 03:55 27.06.2022
2885 Clear 11 1013 93 10000 1 0 00:56 27.06.2022
2886 Clear 9 1013 87 10000 1 0 22:18 26.06.2022
2887 Clear 11 1013 93 10000 0 0 20:48 26.06.2022
2888 Clear 11 1013 87 10000 1 0 19:42 26.06.2022
2889 Clear 12 1013 94 10000 1 0 18:31 26.06.2022
2890 Clouds 14 1013 88 10000 1 0 16:47 26.06.2022
2891 Clouds 16 1012 77 10000 0 0 15:26 26.06.2022
2892 Clouds 17 1012 77 10000 1 0 13:41 26.06.2022
2893 Clouds 17 1012 77 10000 1 0 13:20 26.06.2022
2894 Clouds 16 1012 82 10000 3 300 11:26 26.06.2022
2895 Clouds 18 1011 59 10000 1 0 10:26 26.06.2022
2896 Clouds 17 1012 72 10000 2 0 09:34 26.06.2022
2897 Clouds 18 1011 55 10000 3 10 07:44 26.06.2022
2898 Clouds 14 1011 82 10000 1 0 01:55 26.06.2022
2899 Clouds 14 1011 82 10000 3 50 00:21 26.06.2022
2900 Rain 14 1011 82 10000 2 0 23:49 25.06.2022
2901 Clouds 14 1011 82 10000 2 0 23:20 25.06.2022
2902 Rain 14 1010 88 10000 1 0 22:27 25.06.2022
2903 Rain 14 1010 88 10000 2 0 21:40 25.06.2022
2904 Rain 14 1010 88 10000 2 0 21:18 25.06.2022
2905 Clouds 15 1010 82 10000 1 0 20:27 25.06.2022
2906 Rain 15 1010 82 10000 0 0 19:21 25.06.2022
2907 Clouds 16 1011 72 10000 7 300 17:56 25.06.2022
2908 Rain 16 1011 72 10000 7 300 17:22 25.06.2022
2909 Clouds 19 1009 52 10000 4 330 15:36 25.06.2022
2910 Clouds 21 1007 46 10000 7 330 13:34 25.06.2022
2911 Clouds 25 1006 31 10000 8 340 12:38 25.06.2022
2912 Clouds 26 1005 27 10000 6 310 10:34 25.06.2022
2913 Clouds 26 1006 29 10000 5 310 08:59 25.06.2022
2914 Clouds 26 1006 29 10000 5 310 08:36 25.06.2022
2915 Clouds 25 1006 31 10000 3 10 07:54 25.06.2022
2916 Clouds 20 1006 49 10000 3 20 03:33 25.06.2022
2917 Clouds 14 1006 77 10000 2 0 00:34 25.06.2022
2918 Clouds 14 1008 82 10000 5 320 22:53 24.06.2022
2919 Clouds 16 1007 63 10000 3 290 21:34 24.06.2022
2920 Clouds 17 1005 55 10000 2 0 20:45 24.06.2022
2921 Clouds 17 1005 55 10000 2 0 20:18 24.06.2022
2922 Clear 18 1004 48 10000 5 40 19:21 24.06.2022
2923 Clear 15 1003 63 10000 2 0 18:48 24.06.2022
2924 Clear 15 1003 63 10000 2 0 18:30 24.06.2022
2925 Clear 16 1003 55 10000 3 190 17:19 24.06.2022
2926 Clear 22 1003 33 10000 3 350 15:29 24.06.2022
2927 Clear 24 1003 29 10000 6 20 14:26 24.06.2022
2928 Clear 26 1002 27 10000 6 350 13:55 24.06.2022
2929 Clouds 28 1002 21 10000 6 350 11:44 24.06.2022
2930 Clouds 28 1002 17 10000 10 340 10:55 24.06.2022
2931 Clouds 28 1003 23 10000 8 350 09:49 24.06.2022
2932 Clouds 28 1003 23 10000 8 350 09:27 24.06.2022
2933 Clouds 29 1003 20 10000 8 350 08:51 24.06.2022
2934 Clouds 27 1004 26 10000 1 0 06:48 24.06.2022
2935 Clouds 27 1004 26 10000 1 0 06:30 24.06.2022
2936 Clouds 24 1005 33 10000 1 0 05:52 24.06.2022
2937 Clear 14 1007 72 10000 1 0 01:21 24.06.2022
2938 Clouds 12 1008 82 10000 0 0 22:44 23.06.2022
2939 Clouds 13 1009 76 10000 1 0 21:52 23.06.2022
2940 Clouds 12 1009 76 10000 1 0 20:54 23.06.2022
2941 Clouds 12 1009 76 10000 1 0 20:31 23.06.2022
2942 Clear 13 1010 71 10000 1 0 18:44 23.06.2022
2943 Clear 13 1010 71 10000 2 0 17:44 23.06.2022
2944 Clear 14 1010 67 10000 2 0 16:34 23.06.2022
2945 Clear 21 1009 40 10000 2 0 15:27 23.06.2022
2946 Clouds 23 1009 33 10000 3 10 14:51 23.06.2022
2947 Clouds 23 1009 33 10000 6 360 12:39 23.06.2022
2948 Clouds 23 1009 31 10000 5 310 11:19 23.06.2022
2949 Clouds 22 1010 33 10000 2 0 09:20 23.06.2022
2950 Clouds 18 1013 52 10000 2 0 05:51 23.06.2022
2951 Clear 12 1013 76 10000 1 0 01:22 23.06.2022
2952 Clear 8 1013 93 10000 0 0 00:25 23.06.2022
2953 Clear 7 1012 87 10000 3 190 23:22 22.06.2022
2954 Clear 9 1011 87 10000 0 0 21:44 22.06.2022
2955 Clear 10 1011 81 10000 1 0 20:52 22.06.2022
2956 Clear 10 1011 81 10000 1 0 20:20 22.06.2022
2957 Clear 8 1011 87 10000 1 0 19:44 22.06.2022
2958 Clear 8 1011 87 10000 1 0 19:44 22.06.2022
2959 Clear 11 1010 76 10000 4 290 17:50 22.06.2022
2960 Clouds 13 1010 62 10000 4 340 16:50 22.06.2022
2961 Clouds 14 1009 67 10000 2 0 15:46 22.06.2022
2962 Clouds 14 1009 67 10000 2 0 15:22 22.06.2022
2963 Clouds 16 1010 51 10000 4 350 13:50 22.06.2022
2964 Clouds 16 1010 51 10000 4 350 13:25 22.06.2022
2965 Clouds 19 1008 39 10000 11 350 12:37 22.06.2022
2966 Thunderstorm 20 1007 28 10000 11 300 11:46 22.06.2022
2967 Clouds 22 1007 35 10000 6 320 10:53 22.06.2022
2968 Clouds 22 1007 37 10000 4 320 09:44 22.06.2022
2969 Clouds 21 1008 40 10000 6 350 07:51 22.06.2022
2970 Clouds 18 1007 39 10000 2 0 02:56 22.06.2022
2971 Clouds 17 1008 48 10000 1 0 01:21 22.06.2022
2972 Clouds 16 1007 48 10000 3 40 23:19 21.06.2022
2973 Clouds 15 1009 55 10000 3 350 21:25 21.06.2022
2974 Clouds 17 1006 48 10000 5 50 19:43 21.06.2022
2975 Clouds 16 1007 51 10000 6 320 17:57 21.06.2022
2976 Clouds 18 1006 52 10000 2 0 16:52 21.06.2022
2977 Clouds 25 1004 25 10000 4 320 12:36 21.06.2022
2978 Clouds 26 1004 24 10000 2 0 10:55 21.06.2022
2979 Clouds 25 1005 25 10000 7 360 09:40 21.06.2022
2980 Clouds 24 1006 31 10000 3 10 07:56 21.06.2022
2981 Clouds 21 1006 35 10000 2 0 05:33 21.06.2022
2982 Clouds 13 1007 76 10000 0 0 00:37 21.06.2022
2983 Clouds 11 1007 82 10000 1 0 22:23 20.06.2022
2984 Clouds 13 1007 62 10000 1 0 21:49 20.06.2022
2985 Clouds 14 1007 72 10000 1 0 20:30 20.06.2022
2986 Clouds 14 1007 67 10000 2 0 19:37 20.06.2022
2987 Clouds 16 1006 55 10000 2 0 18:44 20.06.2022
2988 Clear 16 1006 55 10000 1 0 17:50 20.06.2022
2989 Clouds 15 1007 58 10000 2 0 16:55 20.06.2022
2990 Clouds 19 1007 48 10000 2 0 15:52 20.06.2022
2991 Clouds 24 1006 31 10000 2 0 12:38 20.06.2022
2992 Clouds 23 1008 38 10000 4 230 10:32 20.06.2022
2993 Clouds 21 1008 40 10000 3 310 08:57 20.06.2022
2994 Clouds 21 1008 40 10000 3 310 08:57 20.06.2022
2995 Clouds 21 1008 40 10000 3 310 08:21 20.06.2022
2996 Clouds 17 1010 55 10000 2 0 05:35 20.06.2022
2997 Clouds 10 1010 87 10000 2 0 01:44 20.06.2022
2998 Clouds 8 1010 93 10000 0 0 00:26 20.06.2022
2999 Clouds 8 1009 93 10000 4 300 22:50 19.06.2022
3000 Clouds 9 1008 87 10000 2.57 343 21:57 19.06.2022
3001 Clouds 9 1008 87 10000 2.57 343 21:39 19.06.2022
3002 Clouds 9 1008 87 10000 2 0 20:38 19.06.2022
3003 Clouds 11 1008 82 10000 3 320 19:47 19.06.2022
3004 Clouds 11 1008 82 10000 5 330 18:45 19.06.2022
3005 Clouds 12 1007 76 10000 6 330 17:54 19.06.2022
3006 Clouds 12 1007 76 10000 6 330 17:22 19.06.2022
3007 Clouds 13 1006 71 10000 5 340 16:35 19.06.2022
3008 Clouds 13 1006 76 10000 7 340 15:41 19.06.2022
3009 Clouds 13 1006 82 10000 6 340 14:57 19.06.2022
3010 Clouds 13 1006 82 10000 6 340 14:19 19.06.2022
3011 Clouds 13 1006 82 10000 7 320 13:23 19.06.2022
3012 Clouds 14 1005 82 10000 1 0 11:21 19.06.2022
3013 Rain 13 1006 88 6000 6 310 09:58 19.06.2022
3014 Rain 15 1005 77 10000 7 350 08:47 19.06.2022
3015 Rain 15 1005 77 10000 7 350 08:19 19.06.2022
3016 Clouds 17 1004 72 10000 7 340 05:42 19.06.2022
3017 Rain 17 1004 77 10000 6 330 02:26 19.06.2022
3018 Clouds 18 1004 72 10000 8 290 00:25 19.06.2022
3019 Clouds 19 1002 63 10000 5 60 23:36 18.06.2022
3020 Clouds 19 1004 68 10000 1 0 22:44 18.06.2022
3021 Clouds 18 1004 72 10000 2 0 21:38 18.06.2022
3022 Clouds 19 1004 68 10000 2 0 20:42 18.06.2022
3023 Clouds 20 1004 64 10000 1 0 19:40 18.06.2022
3024 Clouds 18 1005 77 10000 3 100 18:53 18.06.2022
3025 Clouds 18 1005 77 10000 3 350 17:35 18.06.2022
3026 Clouds 18 1006 72 10000 1 0 16:59 18.06.2022
3027 Rain 18 1006 77 10000 4 70 15:37 18.06.2022
3028 Thunderstorm 15 1006 88 8000 4 30 14:46 18.06.2022
3029 Clouds 29 1002 28 10000 5 160 13:30 18.06.2022
3030 Clouds 30 1004 26 10000 7 170 11:56 18.06.2022
3031 Clouds 30 1005 30 10000 8 150 10:56 18.06.2022
3032 Clouds 30 1005 30 10000 8 150 10:56 18.06.2022
3033 Clouds 29 1006 32 10000 7 170 09:28 18.06.2022
3034 Clouds 29 1006 30 10000 7 160 08:32 18.06.2022
3035 Clouds 28 1006 34 10000 9 140 07:23 18.06.2022
3036 Clouds 23 1008 49 10000 8 110 03:58 18.06.2022
3037 Clouds 19 1008 68 10000 3 30 01:26 18.06.2022
3038 Clouds 18 1008 72 10000 2 0 00:49 18.06.2022
3039 Clouds 18 1008 77 10000 3 100 23:59 17.06.2022
3040 Clouds 18 1008 77 10000 3 100 23:29 17.06.2022
3041 Clouds 20 1007 60 10000 1 0 21:33 17.06.2022
3042 Rain 21 1007 56 10000 1 0 20:26 17.06.2022
3043 Clouds 22 1006 53 10000 4 90 18:52 17.06.2022
3044 Clouds 21 1007 56 10000 7 130 17:46 17.06.2022
3045 Clouds 21 1007 60 10000 4 150 16:43 17.06.2022
3046 Clouds 21 1007 60 10000 4 150 16:19 17.06.2022
3047 Clouds 22 1006 46 10000 1 0 15:37 17.06.2022
3048 Clouds 24 1005 38 10000 3 280 14:21 17.06.2022
3049 Clouds 27 1004 29 10000 2 0 13:51 17.06.2022
3050 Clouds 27 1004 29 10000 2 0 13:31 17.06.2022
3051 Clouds 27 1005 28 10000 4 330 11:59 17.06.2022
3052 Clouds 27 1005 28 10000 4 330 11:39 17.06.2022
3053 Clouds 27 1005 28 10000 4 330 11:21 17.06.2022
3054 Clouds 25 1006 36 10000 6 330 08:33 17.06.2022
3055 Clouds 25 1006 31 10000 5 350 07:53 17.06.2022
3056 Clouds 24 1006 35 10000 4 320 06:34 17.06.2022
3057 Clear 20 1007 56 10000 2 0 03:24 17.06.2022
3058 Clear 13 1006 88 10000 1 0 00:46 17.06.2022
3059 Clear 11 1006 87 10000 1 0 23:30 16.06.2022
3060 Clear 12 1005 87 10000 1 0 22:38 16.06.2022
3061 Clouds 14 1006 82 10000 0 0 21:19 16.06.2022
3062 Clouds 16 1006 72 10000 1 0 20:50 16.06.2022
3063 Clouds 16 1005 77 10000 2 0 19:59 16.06.2022
3064 Clouds 17 1005 77 10000 2 0 18:48 16.06.2022
3065 Clouds 17 1004 72 10000 1 0 17:44 16.06.2022
3066 Clouds 17 1004 72 10000 1 0 17:22 16.06.2022
3067 Clouds 21 1004 52 10000 2 0 16:19 16.06.2022
3068 Clouds 23 1003 46 10000 2 0 15:21 16.06.2022
3069 Clouds 25 1003 36 10000 2 0 14:22 16.06.2022
3070 Clouds 27 1003 29 10000 2 0 12:53 16.06.2022
3071 Clouds 27 1003 29 10000 2 0 12:34 16.06.2022
3072 Clouds 26 1004 36 10000 2 0 11:48 16.06.2022
3073 Clouds 26 1004 36 10000 2 0 10:41 16.06.2022
3074 Clouds 26 1005 38 10000 2 0 09:43 16.06.2022
3075 Clouds 26 1005 38 10000 2 0 08:56 16.06.2022
3076 Clouds 23 1006 43 10000 1 0 07:41 16.06.2022
3077 Clouds 20 1007 60 10000 1 0 05:51 16.06.2022
3078 Clouds 18 1007 72 10000 1 0 04:24 16.06.2022
3079 Clouds 16 1007 82 10000 2 0 01:52 16.06.2022
3080 Clouds 16 1007 82 10000 2 0 01:22 16.06.2022
3081 Clouds 16 1007 77 10000 2 0 00:29 16.06.2022
3082 Rain 17 1006 72 10000 1 0 22:54 15.06.2022
3083 Clouds 17 1007 72 10000 3 90 21:48 15.06.2022
3084 Rain 17 1007 72 10000 3 90 21:19 15.06.2022
3085 Clouds 18 1008 63 10000 3 260 20:37 15.06.2022
3086 Rain 18 1008 63 10000 3 260 20:18 15.06.2022
3087 Rain 20 1007 49 10000 4 250 18:41 15.06.2022
3088 Clouds 19 1007 55 10000 2 0 17:53 15.06.2022
3089 Rain 19 1008 59 10000 1 0 16:34 15.06.2022
3090 Clouds 19 1007 55 10000 1 0 15:22 15.06.2022
3091 Clouds 26 1007 31 10000 1 0 13:29 15.06.2022
3092 Clouds 26 1007 29 10000 3 290 12:47 15.06.2022
3093 Clouds 26 1007 29 10000 3 260 11:28 15.06.2022
3094 Clouds 26 1008 29 10000 4 270 10:22 15.06.2022
3095 Clouds 25 1008 31 10000 4 300 09:34 15.06.2022
3096 Rain 24 1009 33 10000 1 0 07:58 15.06.2022
3097 Clouds 23 1010 40 10000 2 0 05:58 15.06.2022
3098 Clouds 17 1010 72 10000 1 0 02:56 15.06.2022
3099 Clouds 16 1010 77 10000 1 0 01:37 15.06.2022
3100 Clouds 15 1010 82 10000 1 0 00:37 15.06.2022
3101 Clouds 15 1010 77 10000 1 0 23:38 14.06.2022
3102 Clouds 15 1010 82 10000 2 0 22:50 14.06.2022
3103 Rain 16 1010 77 10000 0 0 21:47 14.06.2022
3104 Rain 16 1010 77 10000 0 0 21:26 14.06.2022
3105 Thunderstorm 17 1011 72 10000 2 0 20:41 14.06.2022
3106 Clouds 17 1010 67 10000 2 0 19:58 14.06.2022
3107 Clouds 20 1010 49 10000 1 0 18:45 14.06.2022
3108 Clouds 18 1010 63 10000 2 0 17:20 14.06.2022
3109 Clouds 22 1009 37 10000 3 60 16:43 14.06.2022
3110 Clouds 23 1009 33 10000 3 70 15:49 14.06.2022
3111 Clouds 24 1008 31 10000 1 0 14:56 14.06.2022
3112 Clouds 24 1008 31 10000 1 0 14:18 14.06.2022
3113 Clouds 25 1008 25 10000 4 10 13:29 14.06.2022
3114 Clouds 27 1008 21 10000 1 0 12:19 14.06.2022
3115 Clouds 27 1008 22 10000 1 0 10:59 14.06.2022
3116 Clouds 27 1008 22 10000 1 0 10:29 14.06.2022
3117 Clouds 28 1009 18 10000 1 0 09:26 14.06.2022
3118 Clouds 26 1010 21 10000 3 40 08:40 14.06.2022
3119 Clouds 25 1010 25 10000 5 150 06:53 14.06.2022
3120 Clouds 21 1011 35 10000 3 70 04:23 14.06.2022
3121 Clouds 14 1011 58 10000 1 0 01:38 14.06.2022
3122 Clouds 10 1011 76 10000 1 0 00:27 14.06.2022
3123 Clouds 10 1011 76 10000 1 0 22:59 13.06.2022
3124 Clouds 10 1011 76 10000 1 0 22:23 13.06.2022
3125 Clouds 11 1011 71 10000 0 0 21:41 13.06.2022
3126 Clear 13 1011 62 10000 2 0 19:59 13.06.2022
3127 Clear 13 1011 62 10000 2 0 19:18 13.06.2022
3128 Clear 13 1012 58 10000 2 0 17:56 13.06.2022
3129 Clear 13 1012 58 10000 2 0 17:27 13.06.2022
3130 Clear 15 1012 55 10000 2 0 16:31 13.06.2022
3131 Clouds 22 1011 28 10000 3 320 14:52 13.06.2022
3132 Clouds 22 1011 28 10000 3 320 14:32 13.06.2022
3133 Clouds 24 1011 22 10000 5 340 13:36 13.06.2022
3134 Clouds 25 1011 20 10000 6 330 12:23 13.06.2022
3135 Clear 25 1011 18 10000 6 330 10:58 13.06.2022
3136 Clear 25 1011 18 10000 6 330 10:26 13.06.2022
3137 Clear 24 1012 20 10000 6 330 08:59 13.06.2022
3138 Clear 22 1013 16 10000 5 330 06:53 13.06.2022
3139 Clear 21 1013 24 10000 3 300 05:35 13.06.2022
3140 Clear 13 1014 58 10000 1 0 02:27 13.06.2022
3141 Clear 10 1013 71 10000 0 0 01:36 13.06.2022
3142 Clear 10 1013 71 10000 0 0 01:36 13.06.2022
3143 Clear 5 1013 87 10000 0 0 23:49 12.06.2022
3144 Clear 6 1012 81 10000 1 0 22:44 12.06.2022
3145 Clear 5 1012 87 10000 1 0 21:58 12.06.2022
3146 Clear 6 1012 87 10000 2 0 20:54 12.06.2022
3147 Clear 6 1012 87 10000 2 0 20:18 12.06.2022
3148 Clear 8 1012 76 10000 2 0 19:30 12.06.2022
3149 Clear 9 1011 76 10000 2 0 17:41 12.06.2022
3150 Clear 15 1011 47 10000 3 340 15:57 12.06.2022
3151 Clouds 19 1010 32 10000 6 340 14:51 12.06.2022
3152 Clouds 19 1010 32 10000 6 340 14:20 12.06.2022
3153 Clouds 20 1010 28 10000 7 350 13:49 12.06.2022
3154 Clouds 20 1010 32 10000 6 360 12:32 12.06.2022
3155 Clouds 21 1009 30 10000 10 330 11:36 12.06.2022
3156 Clouds 20 1009 32 10000 11 340 10:21 12.06.2022
3157 Clouds 19 1010 42 10000 9 340 08:54 12.06.2022
3158 Clouds 19 1010 42 10000 9 340 08:35 12.06.2022
3159 Clouds 18 1010 48 10000 7 340 07:31 12.06.2022
3160 Clouds 14 1010 62 10000 7 340 04:35 12.06.2022
3161 Rain 11 1010 76 10000 6 330 02:33 12.06.2022
3162 Rain 11 1010 76 10000 5 330 01:36 12.06.2022
3163 Rain 10 1010 81 10000 2 0 00:58 12.06.2022
3164 Clouds 10 1010 81 10000 2 0 00:20 12.06.2022
3165 Rain 10 1010 81 10000 3 330 23:29 11.06.2022
3166 Rain 10 1009 81 10000 4 330 22:38 11.06.2022
3167 Rain 11 1009 76 10000 4 340 21:37 11.06.2022
3168 Rain 11 1009 76 10000 5 330 20:33 11.06.2022
3169 Rain 11 1009 76 10000 5 340 19:39 11.06.2022
3170 Rain 10 1009 76 10000 3 340 18:56 11.06.2022
3171 Clouds 10 1009 76 10000 3 340 18:33 11.06.2022
3172 Rain 11 1009 71 10000 4 340 17:50 11.06.2022
3173 Clouds 11 1009 71 10000 4 340 17:26 11.06.2022
3174 Rain 12 1009 66 10000 4 350 16:50 11.06.2022
3175 Rain 12 1009 66 10000 4 350 16:26 11.06.2022
3176 Clouds 12 1008 71 10000 5 350 15:27 11.06.2022
3177 Rain 12 1008 76 10000 5 330 13:53 11.06.2022
3178 Rain 12 1008 71 10000 7 350 12:25 11.06.2022
3179 Rain 11 1007 82 10000 6 340 10:40 11.06.2022
3180 Rain 10 1008 87 10000 8 340 09:42 11.06.2022
3181 Rain 11 1007 76 6000 9 350 08:46 11.06.2022
3182 Rain 13 1005 67 10000 13 350 06:47 11.06.2022
3183 Rain 13 1004 71 10000 13 340 05:58 11.06.2022
3184 Clouds 11 1005 71 10000 8 350 03:45 11.06.2022
3185 Clouds 9 1005 81 10000 3 290 01:52 11.06.2022
3186 Clouds 9 1005 81 10000 3 290 01:26 11.06.2022
3187 Clouds 8 1005 87 10000 3 360 23:28 10.06.2022
3188 Clouds 8 1005 81 10000 7 350 22:27 10.06.2022
3189 Rain 8 1006 81 10000 6 340 21:47 10.06.2022
3190 Rain 8 1006 81 10000 3 350 20:39 10.06.2022
3191 Rain 8 1006 81 10000 3 350 20:20 10.06.2022
3192 Rain 8 1007 76 10000 3 330 19:19 10.06.2022
3193 Rain 8 1008 76 10000 8 350 18:46 10.06.2022
3194 Rain 9 1009 71 10000 7 350 17:54 10.06.2022
3195 Clouds 9 1009 71 10000 7 350 17:23 10.06.2022
3196 Rain 9 1009 66 10000 6 360 16:28 10.06.2022
3197 Rain 9 1010 71 10000 4 10 15:40 10.06.2022
3198 Rain 9 1010 71 10000 5 350 14:28 10.06.2022
3199 Rain 9 1010 76 10000 6 350 13:19 10.06.2022
3200 Rain 9 1011 81 10000 5 360 11:59 10.06.2022
3201 Rain 9 1012 81 10000 3 360 10:51 10.06.2022
3202 Rain 8 1012 81 10000 2 0 09:57 10.06.2022
3203 Rain 8 1012 81 10000 1 0 08:48 10.06.2022
3204 Rain 8 1012 76 10000 2 0 07:41 10.06.2022
3205 Rain 8 1012 71 10000 2 0 06:46 10.06.2022
3206 Rain 8 1012 71 10000 2 0 06:27 10.06.2022
3207 Rain 8 1012 66 10000 5 340 04:52 10.06.2022
3208 Rain 6 1012 75 10000 5 10 01:59 10.06.2022
3209 Clouds 6 1012 75 10000 5 10 01:36 10.06.2022
3210 Clouds 6 1012 75 10000 5 10 01:36 10.06.2022
3211 Clouds 7 1012 61 10000 0 0 23:57 09.06.2022
3212 Clouds 8 1012 53 10000 3 20 22:24 09.06.2022
3213 Clouds 8 1013 53 10000 1.64 5 21:38 09.06.2022
3214 Clouds 8 1013 53 10000 1.53 354 21:18 09.06.2022
3215 Clouds 8 1012 49 10000 3 40 20:27 09.06.2022
3216 Clouds 8 1012 49 10000 7 20 19:41 09.06.2022
3217 Clouds 9 1012 43 10000 3 10 18:35 09.06.2022
3218 Clouds 10 1011 43 10000 5 10 17:25 09.06.2022
3219 Clouds 11 1011 40 10000 4 20 16:21 09.06.2022
3220 Clouds 14 1011 33 10000 6 10 14:42 09.06.2022
3221 Clouds 14 1011 33 10000 6 10 14:23 09.06.2022
3222 Clouds 15 1010 29 10000 4 360 13:29 09.06.2022
3223 Clouds 16 1010 27 10000 5 350 12:46 09.06.2022
3224 Clouds 17 1010 27 10000 4 340 11:19 09.06.2022
3225 Clouds 16 1010 31 10000 4 290 09:50 09.06.2022
3226 Clouds 16 1010 31 10000 4 290 09:31 09.06.2022
3227 Clouds 15 1010 33 10000 4 340 08:21 09.06.2022
3228 Clouds 14 1010 33 10000 5 350 07:23 09.06.2022
3229 Clouds 10 1011 46 10000 4 320 03:28 09.06.2022
3230 Clouds 8 1011 76 10000 2 0 23:55 08.06.2022
3231 Clouds 8 1011 76 10000 2 0 22:59 08.06.2022
3232 Clouds 8 1011 76 10000 2 0 22:27 08.06.2022
3233 Clouds 8 1011 76 10000 2 0 21:57 08.06.2022
3234 Rain 8 1011 76 10000 2 0 21:24 08.06.2022
3235 Clouds 8 1011 76 10000 1 0 20:22 08.06.2022
3236 Clouds 8 1012 76 10000 1 0 19:39 08.06.2022
3237 Clouds 8 1012 76 10000 1 0 19:39 08.06.2022
3238 Clouds 8 1011 76 10000 2 0 18:48 08.06.2022
3239 Rain 9 1012 71 10000 2 310 17:30 08.06.2022
3240 Clouds 11 1012 62 10000 4 320 15:52 08.06.2022
3241 Clouds 12 1011 54 10000 4 310 14:18 08.06.2022
3242 Clouds 13 1011 50 10000 4 350 12:29 08.06.2022
3243 Rain 14 1011 47 10000 4 320 11:34 08.06.2022
3244 Clouds 13 1012 50 10000 5 320 10:30 08.06.2022
3245 Clouds 14 1012 47 10000 4 270 09:28 08.06.2022
3246 Clouds 13 1012 54 10000 3 350 08:49 08.06.2022
3247 Clouds 12 1014 58 10000 5 290 06:36 08.06.2022
3248 Clouds 9 1015 71 10000 2 0 04:22 08.06.2022
3249 Clouds 6 1015 87 10000 1 0 00:49 08.06.2022
3250 Clouds 6 1015 87 10000 2 0 23:30 07.06.2022
3251 Clouds 7 1015 87 10000 1 0 22:48 07.06.2022
3252 Clouds 7 1015 87 10000 1 0 22:30 07.06.2022
3253 Clouds 7 1015 87 10000 1 0 21:35 07.06.2022
3254 Clouds 7 1015 87 10000 2 0 20:59 07.06.2022
3255 Clouds 7 1015 87 10000 2 0 20:33 07.06.2022
3256 Clouds 7 1015 87 10000 4 290 19:48 07.06.2022
3257 Rain 8 1015 87 10000 4 300 18:24 07.06.2022
3258 Clouds 9 1015 81 10000 3 360 17:27 07.06.2022
3259 Clouds 9 1015 81 10000 2 0 16:43 07.06.2022
3260 Clouds 9 1015 87 10000 3 350 15:56 07.06.2022
3261 Clouds 9 1015 87 10000 3 350 15:26 07.06.2022
3262 Clouds 11 1015 76 8000 5 340 14:52 07.06.2022
3263 Clouds 11 1015 76 8000 5 340 14:32 07.06.2022
3264 Clouds 13 1013 67 10000 4 340 13:32 07.06.2022
3265 Clouds 13 1013 71 10000 7 300 12:52 07.06.2022
3266 Clouds 17 1012 42 10000 4 60 11:48 07.06.2022
3267 Clouds 17 1012 42 10000 4 120 10:27 07.06.2022
3268 Clouds 17 1012 42 10000 5 110 08:51 07.06.2022
3269 Clouds 15 1012 51 10000 3 70 07:34 07.06.2022
3270 Clouds 15 1012 47 10000 6 130 06:22 07.06.2022
3271 Clouds 15 1011 44 10000 5 120 04:20 07.06.2022
3272 Clouds 13 1009 50 10000 6 90 01:27 07.06.2022
3273 Clouds 12 1008 54 10000 9 120 23:46 06.06.2022
3274 Clouds 12 1008 58 10000 9 110 22:54 06.06.2022
3275 Clouds 12 1008 58 10000 9 110 22:28 06.06.2022
3276 Clouds 12 1009 66 10000 6 60 20:42 06.06.2022
3277 Clouds 11 1009 76 10000 9 40 19:24 06.06.2022
3278 Rain 12 1009 66 10000 8 90 18:48 06.06.2022
3279 Rain 11 1010 76 10000 9 140 17:59 06.06.2022
3280 Rain 13 1009 67 8000 8 160 16:57 06.06.2022
3281 Clouds 18 1007 29 10000 9 140 15:57 06.06.2022
3282 Clouds 19 1007 27 10000 9 140 14:59 06.06.2022
3283 Clouds 19 1007 27 10000 9 140 14:26 06.06.2022
3284 Clouds 20 1008 28 10000 9 140 13:20 06.06.2022
3285 Clouds 20 1008 28 10000 8 150 12:35 06.06.2022
3286 Clouds 22 1008 24 10000 8 160 11:49 06.06.2022
3287 Clouds 21 1010 28 10000 7 150 09:53 06.06.2022
3288 Clouds 21 1010 28 10000 7 150 09:23 06.06.2022
3289 Clouds 19 1011 32 10000 7 140 08:31 06.06.2022
3290 Clouds 20 1012 30 10000 8 130 07:24 06.06.2022
3291 Clouds 15 1014 47 10000 8 140 04:42 06.06.2022
3292 Clouds 13 1015 58 10000 5 100 02:19 06.06.2022
3293 Clouds 12 1015 62 10000 4 80 00:57 06.06.2022
3294 Clouds 12 1015 62 10000 4 80 00:35 06.06.2022
3295 Clouds 12 1015 62 10000 2 0 23:25 05.06.2022
3296 Clouds 12 1015 62 10000 6 70 22:33 05.06.2022
3297 Clear 12 1015 66 10000 6 100 20:34 05.06.2022
3298 Clear 12 1014 66 10000 7 100 19:26 05.06.2022
3299 Clouds 13 1014 62 10000 10 140 18:26 05.06.2022
3300 Clouds 14 1014 44 10000 3 130 17:46 05.06.2022
3301 Clouds 14 1014 44 10000 3 130 17:22 05.06.2022
3302 Clouds 14 1014 38 10000 2 0 16:48 05.06.2022
3303 Clouds 15 1013 31 10000 1 0 15:47 05.06.2022
3304 Clouds 18 1013 25 10000 3 300 14:21 05.06.2022
3305 Clouds 18 1013 25 10000 3 300 14:21 05.06.2022
3306 Clouds 21 1012 19 10000 4 310 12:34 05.06.2022
3307 Clouds 21 1012 16 10000 5 330 11:30 05.06.2022
3308 Clouds 21 1013 18 10000 5 350 10:25 05.06.2022
3309 Clouds 20 1013 22 10000 6 340 09:58 05.06.2022
3310 Clouds 20 1013 21 10000 6 20 08:25 05.06.2022
3311 Clouds 18 1014 25 10000 8 310 06:48 05.06.2022
3312 Clouds 16 1014 31 10000 7 340 05:20 05.06.2022
3313 Clouds 10 1014 62 10000 1 0 02:58 05.06.2022
3314 Clouds 8 1014 66 10000 0 0 01:30 05.06.2022
3315 Clear 0 1015 86 10000 1 0 23:49 04.06.2022
3316 Clear 1 1014 80 10000 2 0 21:39 04.06.2022
3317 Clear 2 1014 80 10000 1 0 19:49 04.06.2022
3318 Clear 7 1014 70 10000 1 0 17:50 04.06.2022
3319 Clear 9 1014 61 10000 2 0 16:22 04.06.2022
3320 Clouds 11 1014 54 10000 4 360 15:54 04.06.2022
3321 Clouds 12 1013 47 10000 8 330 14:36 04.06.2022
3322 Clouds 13 1013 44 10000 10 340 11:48 04.06.2022
3323 Clouds 13 1013 44 10000 10 340 10:57 04.06.2022
3324 Clouds 13 1013 44 10000 10 340 10:20 04.06.2022
3325 Clouds 12 1013 50 10000 10 350 09:41 04.06.2022
3326 Clouds 12 1014 50 10000 9 330 08:40 04.06.2022
3327 Clouds 10 1014 57 10000 8 340 07:27 04.06.2022
3328 Clouds 8 1013 66 10000 8 340 04:33 04.06.2022
3329 Clouds 8 1013 66 10000 8 340 04:33 04.06.2022
3330 Clouds 8 1013 66 10000 8 340 04:33 04.06.2022
3331 Clouds 8 1013 66 10000 8 340 04:33 04.06.2022
3332 Clouds 5 1012 75 10000 7 340 00:48 04.06.2022
3333 Clouds 6 1011 75 10000 6 340 23:31 03.06.2022
3334 Clouds 6 1011 75 10000 5 320 22:28 03.06.2022
3335 Clouds 7 1010 81 10000 9 320 20:42 03.06.2022
3336 Clouds 7 1010 81 10000 9 320 20:42 03.06.2022
3337 Clouds 7 1010 81 10000 9 320 20:18 03.06.2022
3338 Clouds 10 1010 76 10000 3 320 17:32 03.06.2022
3339 Clouds 11 1010 66 10000 5 340 16:37 03.06.2022
3340 Clouds 14 1008 51 10000 7 330 14:53 03.06.2022
3341 Clouds 17 1006 42 10000 9 340 12:52 03.06.2022
3342 Clouds 17 1006 51 10000 10 340 10:36 03.06.2022
3343 Clouds 20 1003 42 10000 9 320 09:30 03.06.2022
3344 Clouds 22 1002 37 10000 6 310 07:54 03.06.2022
3345 Clouds 22 1002 37 10000 6 310 07:20 03.06.2022
3346 Clouds 21 1003 37 10000 4 350 06:30 03.06.2022
3347 Clouds 19 1003 45 10000 2 0 04:40 03.06.2022
3348 Clouds 11 1004 71 10000 2 0 00:22 03.06.2022
3349 Clouds 7 1004 81 10000 1 0 22:35 02.06.2022
3350 Clouds 8 1003 81 10000 1 0 21:29 02.06.2022
3351 Clouds 10 1003 71 10000 2 0 20:22 02.06.2022
3352 Clouds 9 1002 76 10000 2 0 19:41 02.06.2022
3353 Clouds 9 1002 76 10000 2 0 19:19 02.06.2022
3354 Clouds 15 1001 58 10000 2 0 16:46 02.06.2022
3355 Clouds 15 1001 58 10000 2 0 16:20 02.06.2022
3356 Clouds 22 1000 33 10000 1 0 13:47 02.06.2022
3357 Clouds 22 1000 33 10000 1 0 13:26 02.06.2022
3358 Clouds 23 1000 31 10000 8 290 11:18 02.06.2022
3359 Clouds 24 999 25 10000 7 270 10:19 02.06.2022
3360 Rain 25 999 23 10000 11 250 09:27 02.06.2022
3361 Clouds 25 1000 23 10000 7 270 08:25 02.06.2022
3362 Clouds 26 999 22 10000 8 280 06:50 02.06.2022
3363 Rain 22 999 20 10000 5 150 03:54 02.06.2022
3364 Clouds 18 999 34 10000 1 0 02:22 02.06.2022
3365 Clouds 12 1000 47 10000 1 0 23:36 01.06.2022
3366 Clouds 11 1001 50 10000 2 0 22:21 01.06.2022
3367 Clouds 9 1001 61 10000 1 0 21:26 01.06.2022
3368 Clear 11 1002 54 10000 0 0 20:39 01.06.2022
3369 Clear 11 1002 54 10000 1 0 19:52 01.06.2022
3370 Clear 11 1002 50 10000 1 0 18:52 01.06.2022
3371 Clear 13 1003 44 10000 2 0 17:40 01.06.2022
3372 Clear 13 1003 44 10000 3 170 16:33 01.06.2022
3373 Clear 23 1003 20 10000 2 0 14:51 01.06.2022
3374 Clouds 26 1003 13 10000 3 320 13:44 01.06.2022
3375 Clouds 26 1003 14 10000 2 0 11:41 01.06.2022
3376 Clouds 24 1005 15 10000 2 0 09:36 01.06.2022
3377 Clouds 24 1005 15 10000 4 260 08:29 01.06.2022
3378 Clouds 24 1006 16 10000 5 220 07:21 01.06.2022
3379 Clouds 22 1007 24 10000 1 0 04:59 01.06.2022
3380 Clear 3 1009 81 10000 1 0 23:57 31.05.2022
3381 Clear 6 1009 70 10000 0 0 22:51 31.05.2022
3382 Clear 6 1009 70 10000 0 0 22:29 31.05.2022
3383 Clear 6 1008 70 10000 1 0 21:45 31.05.2022
3384 Clear 6 1008 75 10000 1 0 20:45 31.05.2022
3385 Clear 9 1008 57 10000 0 0 19:53 31.05.2022
3386 Clear 9 1008 61 10000 2 0 18:45 31.05.2022
3387 Clear 9 1008 57 10000 3 140 17:49 31.05.2022
3388 Clear 12 1008 50 10000 0 0 16:48 31.05.2022
3389 Clear 16 1008 33 10000 1 0 15:40 31.05.2022
3390 Clouds 21 1008 24 10000 5 280 13:38 31.05.2022
3391 Clouds 21 1008 24 10000 6 290 12:19 31.05.2022
3392 Clouds 19 1009 27 10000 6 280 10:52 31.05.2022
3393 Clouds 18 1010 29 10000 6 280 08:41 31.05.2022
3394 Clouds 16 1012 33 10000 6 280 06:57 31.05.2022
3395 Clouds 14 1012 28 10000 5 310 04:46 31.05.2022
3396 Clear 5 1011 60 10000 1 0 23:53 30.05.2022
3397 Clear 5 1011 60 10000 1 0 23:25 30.05.2022
3398 Clouds 6 1010 61 10000 1 0 22:44 30.05.2022
3399 Clouds 9 1010 46 10000 3 340 21:47 30.05.2022
3400 Clouds 9 1010 46 10000 3 340 21:29 30.05.2022
3401 Clouds 12 1008 28 10000 3 10 19:51 30.05.2022
3402 Rain 13 1007 30 10000 5 360 18:26 30.05.2022
3403 Clouds 13 1007 33 10000 4 350 17:23 30.05.2022
3404 Clouds 13 1006 35 10000 4 340 16:36 30.05.2022
3405 Clouds 16 1004 25 10000 6 360 13:44 30.05.2022
3406 Clouds 17 1004 23 10000 6 350 12:19 30.05.2022
3407 Clouds 18 1004 19 10000 8 310 10:26 30.05.2022
3408 Clouds 19 1005 19 10000 4 330 09:19 30.05.2022
3409 Clear 17 1008 17 10000 5 330 06:28 30.05.2022
3410 Clear 15 1009 21 10000 4 270 05:38 30.05.2022
3411 Clear 3 1011 56 10000 1 0 01:30 30.05.2022
3412 Clear -3 1011 80 10000 3 160 22:49 29.05.2022
3413 Clear -3 1011 80 10000 3 160 22:29 29.05.2022
3414 Clear 2 1011 51 10000 0 0 20:51 29.05.2022
3415 Clear 4 1011 52 10000 2 0 19:30 29.05.2022
3416 Clear 2 1011 64 10000 1 0 18:35 29.05.2022
3417 Clear 7 1010 45 10000 4 330 16:51 29.05.2022
3418 Clear 9 1010 37 10000 5 310 15:47 29.05.2022
3419 Clouds 11 1009 28 10000 7 330 14:56 29.05.2022
3420 Clouds 12 1009 24 10000 9 320 13:46 29.05.2022
3421 Clouds 12 1008 26 10000 8 320 11:31 29.05.2022
3422 Clouds 11 1009 30 10000 9 330 10:37 29.05.2022
3423 Clouds 10 1010 34 10000 8 320 08:39 29.05.2022
3424 Clouds 7 1011 45 10000 6 340 05:22 29.05.2022
3425 Clouds 5 1012 56 10000 7 320 04:41 29.05.2022
3426 Clouds 3 1012 70 10000 6 310 02:24 29.05.2022
3427 Clouds 1 1012 75 10000 5 310 23:48 28.05.2022
3428 Clouds 1 1012 75 10000 5 310 23:26 28.05.2022
3429 Clouds 0 1012 80 10000 4 310 22:25 28.05.2022
3430 Clouds 0 1012 80 10000 3 310 21:31 28.05.2022
3431 Clouds 1 1011 75 10000 5 290 19:21 28.05.2022
3432 Clouds 2 1011 69 10000 5 300 18:45 28.05.2022
3433 Clouds 2 1010 69 10000 3 320 17:35 28.05.2022
3434 Clouds 3 1010 75 10000 3 290 16:35 28.05.2022
3435 Clouds 5 1008 60 10000 3 330 15:38 28.05.2022
3436 Clouds 6 1007 61 10000 5 340 13:57 28.05.2022
3437 Clouds 6 1006 65 10000 4 350 12:43 28.05.2022
3438 Rain 6 1006 65 10000 4 350 11:54 28.05.2022
3439 Rain 5 1005 75 10000 7 360 10:43 28.05.2022
3440 Clouds 4 1005 81 8000 6 10 09:56 28.05.2022
3441 Clouds 4 1005 81 6000 5 20 08:43 28.05.2022
3442 Clouds 4 1004 87 6000 5 330 07:23 28.05.2022
3443 Clouds 6 1002 81 10000 6 30 05:24 28.05.2022
3444 Rain 4 1003 87 8000 6 30 02:33 28.05.2022
3445 Clouds 5 1003 81 6000 7 50 00:18 28.05.2022
3446 Rain 9 1003 46 10000 6 360 22:49 27.05.2022
3447 Rain 10 1003 34 10000 4 350 21:35 27.05.2022
3448 Rain 9 1003 37 10000 1 0 20:46 27.05.2022
3449 Clouds 9 1003 37 10000 1 0 20:21 27.05.2022
3450 Clouds 8 1004 36 10000 0 0 19:41 27.05.2022
3451 Clouds 8 1004 36 10000 0 0 19:21 27.05.2022
3452 Clouds 8 1004 36 10000 1 0 17:26 27.05.2022
3453 Clouds 12 1005 28 10000 5 340 15:57 27.05.2022
3454 Clouds 12 1005 28 10000 5 340 14:58 27.05.2022
3455 Clear 15 1004 25 10000 9 350 13:41 27.05.2022
3456 Clear 17 1004 23 10000 8 350 12:28 27.05.2022
3457 Clear 17 1005 27 10000 8 340 11:31 27.05.2022
3458 Clear 17 1005 25 10000 9 340 10:47 27.05.2022
3459 Clear 16 1005 23 10000 10 340 09:59 27.05.2022
3460 Clear 16 1005 23 10000 10 340 09:31 27.05.2022
3461 Clouds 16 1006 27 10000 9 340 07:40 27.05.2022
3462 Clouds 16 1005 31 10000 10 350 05:25 27.05.2022
3463 Clouds 13 1003 47 10000 8 340 01:44 27.05.2022
3464 Clouds 14 1002 41 10000 2 0 23:31 26.05.2022
3465 Clouds 13 1002 41 10000 1 0 22:28 26.05.2022
3466 Clouds 14 1002 33 10000 1 0 21:33 26.05.2022
3467 Clouds 14 1003 28 10000 1 0 19:49 26.05.2022
3468 Clouds 14 1003 28 10000 1 0 19:18 26.05.2022
3469 Clouds 14 1003 28 10000 1 0 19:18 26.05.2022
3470 Clouds 17 1004 22 10000 1 0 17:36 26.05.2022
3471 Clouds 15 1005 23 10000 2 0 16:35 26.05.2022
3472 Clouds 19 1005 18 10000 4 230 15:34 26.05.2022
3473 Clouds 23 1005 12 10000 3 220 14:21 26.05.2022
3474 Clouds 24 1006 11 10000 3 290 12:20 26.05.2022
3475 Clouds 26 1006 10 10000 3 260 11:21 26.05.2022
3476 Clouds 25 1008 10 10000 4 270 09:39 26.05.2022
3477 Clouds 25 1009 11 10000 3 240 08:51 26.05.2022
3478 Clouds 24 1011 13 10000 4 240 06:51 26.05.2022
3479 Clear 11 1015 32 10000 1 0 02:54 26.05.2022
3480 Clear 4 1015 52 10000 1 0 00:20 26.05.2022
3481 Clear 2 1016 55 10000 1 0 23:19 25.05.2022
3482 Clear 3 1016 56 10000 1 0 21:46 25.05.2022
3483 Clear 5 1017 45 10000 0 0 20:53 25.05.2022
3484 Clear 6 1017 42 10000 1 0 19:59 25.05.2022
3485 Clear 5 1018 42 10000 1 0 18:48 25.05.2022
3486 Clear 8 1018 31 10000 1 0 17:26 25.05.2022
3487 Clouds 12 1018 26 10000 0 0 16:35 25.05.2022
3488 Clouds 18 1018 16 10000 3 20 15:49 25.05.2022
3489 Clouds 19 1018 14 10000 3 340 14:51 25.05.2022
3490 Clouds 19 1018 14 10000 3 340 14:32 25.05.2022
3491 Clouds 21 1018 12 10000 3 330 13:27 25.05.2022
3492 Clouds 19 1015 21 10000 4.2 306 11:51 25.05.2022
3493 Clouds 21 1020 13 10000 3 250 10:42 25.05.2022
3494 Clouds 20 1021 14 10000 3 290 09:53 25.05.2022
3495 Clouds 19 1019 20 10000 5.4 262 08:22 25.05.2022
3496 Clouds 18 1020 21 10000 5.58 265 06:37 25.05.2022
3497 Clear 12 1027 32 10000 0 0 02:55 25.05.2022
3498 Clouds 4 1027 56 10000 2 0 23:52 24.05.2022
3499 Clouds 4 1027 56 10000 2 0 23:23 24.05.2022
3500 Clear 3 1027 60 10000 1 0 22:18 24.05.2022
3501 Clear 5 1027 45 10000 1 0 21:38 24.05.2022
3502 Clear 5 1027 45 10000 1 0 21:19 24.05.2022
3503 Clear 10 1026 29 10000 2 0 19:32 24.05.2022
3504 Clear 10 1026 40 10000 2 0 18:40 24.05.2022
3505 Clouds 8 1025 42 10000 1 0 16:40 24.05.2022
3506 Clouds 15 1025 29 10000 2 0 15:54 24.05.2022
3507 Clouds 16 1024 27 10000 3 340 14:45 24.05.2022
3508 Clouds 17 1024 23 10000 5 340 13:48 24.05.2022
3509 Clouds 18 1023 22 10000 5 340 12:42 24.05.2022
3510 Clouds 19 1023 20 10000 6 310 10:18 24.05.2022
3511 Clouds 18 1024 22 10000 6 320 09:41 24.05.2022
3512 Clouds 18 1024 22 10000 6 330 08:43 24.05.2022
3513 Clouds 16 1024 29 10000 7 330 06:45 24.05.2022
3514 Clear 11 1024 37 10000 6 360 03:48 24.05.2022
3515 Clear 9 1024 49 10000 5 330 01:49 24.05.2022
3516 Clear 9 1024 49 10000 5 330 01:18 24.05.2022
3517 Clouds 8 1021 53 10000 5 340 22:50 23.05.2022
3518 Clouds 10 1020 50 10000 4 350 21:54 23.05.2022
3519 Clouds 11 1018 43 10000 6 360 20:59 23.05.2022
3520 Clouds 11 1018 43 10000 6 360 20:26 23.05.2022
3521 Clouds 11 1017 43 10000 7 340 19:31 23.05.2022
3522 Clouds 12 1016 40 10000 7 360 18:43 23.05.2022
3523 Clouds 12 1016 40 10000 7 360 18:22 23.05.2022
3524 Clouds 13 1015 47 10000 7 350 17:18 23.05.2022
3525 Clouds 18 1012 32 10000 7 360 14:52 23.05.2022
3526 Clouds 23 1009 23 10000 7 340 12:50 23.05.2022
3527 Clouds 24 1008 19 10000 10 340 11:26 23.05.2022
3528 Clouds 26 1007 11 10000 9 330 09:50 23.05.2022
3529 Clouds 26 1007 11 10000 9 330 09:23 23.05.2022
3530 Clouds 26 1008 12 10000 8 270 07:48 23.05.2022
3531 Clouds 25 1009 14 10000 4 260 06:45 23.05.2022
3532 Clouds 23 1010 17 10000 6 230 05:21 23.05.2022
3533 Clear 12 1011 40 10000 1 0 02:19 23.05.2022
3534 Clear 9 1011 49 10000 0 0 01:36 23.05.2022
3535 Clear 2 1011 69 10000 0 0 23:51 22.05.2022
3536 Clear 5 1012 56 10000 0 0 22:35 22.05.2022
3537 Clear 5 1012 56 10000 2 0 21:55 22.05.2022
3538 Clear 4 1012 60 10000 1 0 20:53 22.05.2022
3539 Clear 4 1012 60 10000 1 0 20:27 22.05.2022
3540 Clear 6 1012 52 10000 2 0 19:56 22.05.2022
3541 Clear 6 1012 52 10000 2 0 18:55 22.05.2022
3542 Clear 6 1012 52 10000 3 160 18:25 22.05.2022
3543 Clear 10 1012 43 10000 1 0 17:33 22.05.2022
3544 Clear 11 1012 40 10000 2 0 16:31 22.05.2022
3545 Clear 20 1011 22 10000 4 340 14:48 22.05.2022
3546 Clear 21 1011 19 10000 6 340 13:48 22.05.2022
3547 Clear 22 1011 17 10000 7 330 12:52 22.05.2022
3548 Clear 22 1011 18 10000 6 330 11:44 22.05.2022
3549 Clear 22 1012 18 10000 8 330 09:45 22.05.2022
3550 Clear 22 1012 16 10000 9 340 08:37 22.05.2022
3551 Clear 21 1013 19 10000 7 340 07:22 22.05.2022
3552 Clear 20 1014 22 10000 7 330 06:23 22.05.2022
3553 Clouds 12 1014 58 10000 5 340 02:23 22.05.2022
3554 Clouds 12 1013 58 10000 4 330 00:43 22.05.2022
3555 Clouds 13 1012 54 10000 6 10 23:55 21.05.2022
3556 Clouds 13 1012 54 10000 6 10 23:20 21.05.2022
3557 Clouds 15 1012 44 10000 3 350 21:45 21.05.2022
3558 Clouds 15 1012 44 10000 3 350 21:25 21.05.2022
3559 Clouds 15 1012 44 10000 5 350 20:25 21.05.2022
3560 Clouds 16 1012 41 10000 2 0 19:35 21.05.2022
3561 Clouds 20 1010 24 10000 1 0 17:51 21.05.2022
3562 Clouds 21 1010 21 10000 3 80 16:53 21.05.2022
3563 Clouds 23 1008 17 10000 3 130 14:38 21.05.2022
3564 Clouds 25 1008 14 10000 8 120 13:53 21.05.2022
3565 Clouds 27 1008 12 10000 2 0 12:57 21.05.2022
3566 Clouds 27 1008 12 10000 2 0 12:37 21.05.2022
3567 Clouds 27 1009 11 10000 2 0 10:44 21.05.2022
3568 Clouds 27 1009 12 10000 4 320 09:48 21.05.2022
3569 Clouds 27 1010 10 10000 3 20 08:58 21.05.2022
3570 Clouds 27 1010 10 10000 3 20 08:33 21.05.2022
3571 Clear 23 1008 21 10000 1.27 213 04:33 21.05.2022
3572 Clouds 6 1013 61 10000 1 0 00:38 21.05.2022
3573 Clouds 7 1013 57 10000 0 0 22:59 20.05.2022
3574 Clear 6 1013 56 10000 1 0 22:24 20.05.2022
3575 Clear 7 1013 57 10000 0 0 21:47 20.05.2022
3576 Clear 7 1013 57 10000 0 0 20:57 20.05.2022
3577 Clear 7 1013 53 10000 1 0 20:25 20.05.2022
3578 Clear 10 1013 46 10000 1 0 19:27 20.05.2022
3579 Clear 15 1013 33 10000 1 0 18:47 20.05.2022
3580 Clear 11 1013 40 10000 3 190 17:37 20.05.2022
3581 Clouds 13 1012 35 10000 1 0 16:20 20.05.2022
3582 Clouds 14 1012 33 10000 2 0 15:53 20.05.2022
3583 Clouds 23 1011 20 10000 2 0 14:31 20.05.2022
3584 Clouds 23 1011 20 10000 2 0 13:56 20.05.2022
3585 Clouds 26 1011 13 10000 4 310 11:45 20.05.2022
3586 Clouds 26 1011 14 10000 5 350 10:23 20.05.2022
3587 Clouds 25 1013 13 10000 5 330 08:45 20.05.2022
3588 Clouds 25 1013 15 10000 6 350 07:18 20.05.2022
3589 Clouds 25 1014 13 10000 3 300 06:34 20.05.2022
3590 Clouds 24 1015 16 10000 2 0 05:22 20.05.2022
3591 Clear 4 1016 56 10000 1 0 00:54 20.05.2022
3592 Clear 4 1015 56 10000 1 0 22:57 19.05.2022
3593 Clear 4 1015 56 10000 1 0 22:25 19.05.2022
3594 Clear 5 1015 52 10000 1 0 21:48 19.05.2022
3595 Clear 5 1015 52 10000 1 0 21:23 19.05.2022
3596 Clear 7 1015 49 10000 1 0 20:39 19.05.2022
3597 Clear 9 1016 40 10000 1 0 19:52 19.05.2022
3598 Clear 9 1016 40 10000 2 0 18:31 19.05.2022
3599 Clear 11 1016 35 10000 2 0 17:31 19.05.2022
3600 Clear 16 1015 25 10000 1 0 15:21 19.05.2022
3601 Clouds 22 1014 15 10000 1 0 14:26 19.05.2022
3602 Clouds 24 1014 13 10000 2 0 13:47 19.05.2022
3603 Clouds 25 1015 11 10000 3 320 11:41 19.05.2022
3604 Clouds 25 1016 12 10000 3 230 09:34 19.05.2022
3605 Clouds 23 1017 16 10000 4 250 08:18 19.05.2022
3606 Clouds 22 1018 18 10000 2 0 06:18 19.05.2022
3607 Clear 12 1019 37 10000 1 0 02:54 19.05.2022
3608 Clear 4 1018 60 10000 1 0 00:44 19.05.2022
3609 Clear 2 1017 69 10000 1 0 22:53 18.05.2022
3610 Clear 2 1017 69 10000 1 0 22:35 18.05.2022
3611 Clear 6 1017 56 10000 1 0 21:31 18.05.2022
3612 Clear 5 1017 60 10000 1 0 20:50 18.05.2022
3613 Clear 5 1017 60 10000 1 0 20:18 18.05.2022
3614 Clear 8 1016 49 10000 1 0 18:34 18.05.2022
3615 Clear 8 1016 49 10000 1 0 18:34 18.05.2022
3616 Clear 9 1016 49 10000 1 0 17:41 18.05.2022
3617 Clear 9 1016 49 10000 1 0 17:23 18.05.2022
3618 Clear 12 1016 40 10000 1 0 16:35 18.05.2022
3619 Clear 15 1015 31 10000 3 310 15:42 18.05.2022
3620 Clouds 19 1014 24 10000 5 330 14:48 18.05.2022
3621 Clouds 21 1013 19 10000 6 340 13:44 18.05.2022
3622 Clouds 22 1013 15 10000 5 340 12:51 18.05.2022
3623 Clouds 23 1013 16 10000 5 340 11:37 18.05.2022
3624 Clouds 23 1013 16 10000 5 340 11:19 18.05.2022
3625 Clouds 23 1014 16 10000 5 360 09:56 18.05.2022
3626 Clouds 21 1015 23 8000 5 310 07:54 18.05.2022
3627 Clouds 20 1016 24 8000 4 340 06:48 18.05.2022
3628 Clouds 11 1016 40 8000 3 10 01:53 18.05.2022
3629 Clouds 10 1016 43 8000 2 0 00:23 18.05.2022
3630 Clouds 8 1015 49 10000 2 0 22:18 17.05.2022
3631 Clouds 8 1015 49 10000 1 0 21:20 17.05.2022
3632 Clouds 10 1015 43 10000 2 0 20:22 17.05.2022
3633 Clouds 13 1014 35 10000 4 60 19:28 17.05.2022
3634 Clouds 13 1014 38 10000 3 310 17:52 17.05.2022
3635 Rain 13 1014 38 10000 3 310 17:18 17.05.2022
3636 Clouds 14 1014 33 10000 1 0 16:31 17.05.2022
3637 Clouds 17 1013 25 10000 3 30 15:32 17.05.2022
3638 Clouds 18 1012 24 10000 5 30 14:31 17.05.2022
3639 Clouds 19 1012 22 8000 6 10 13:37 17.05.2022
3640 Clouds 21 1012 18 10000 4 350 11:58 17.05.2022
3641 Clouds 20 1013 19 8000 3 30 09:38 17.05.2022
3642 Clouds 19 1013 19 8000 3 320 08:36 17.05.2022
3643 Clouds 18 1014 19 8000 3 320 06:52 17.05.2022
3644 Clear 15 1014 26 10000 2 0 04:24 17.05.2022
3645 Clear 2 1013 60 10000 1 0 00:46 17.05.2022
3646 Clear 3 1012 56 10000 0 0 22:44 16.05.2022
3647 Clear 3 1012 56 10000 2 0 21:52 16.05.2022
3648 Clear 7 1011 45 10000 1 0 20:49 16.05.2022
3649 Clouds 7 1011 45 10000 3 290 19:49 16.05.2022
3650 Clouds 11 1011 32 10000 2 0 18:21 16.05.2022
3651 Clouds 16 1010 23 10000 7 360 16:24 16.05.2022
3652 Clouds 19 1008 15 10000 6 350 14:38 16.05.2022
3653 Clouds 21 1007 12 10000 8 320 13:23 16.05.2022
3654 Clouds 22 1007 11 10000 7 350 11:31 16.05.2022
3655 Clouds 21 1008 11 10000 8 340 09:47 16.05.2022
3656 Clouds 21 1010 11 10000 6 350 06:58 16.05.2022
3657 Clear 15 1011 18 10000 1 0 04:41 16.05.2022
3658 Clear 1 1013 47 10000 1 0 23:44 15.05.2022
3659 Clear 0 1013 55 10000 1 0 22:32 15.05.2022
3660 Clear 3 1013 44 10000 1 0 21:47 15.05.2022
3661 Clear 3 1013 44 10000 1 0 20:59 15.05.2022
3662 Clear 2 1014 44 10000 0 0 19:53 15.05.2022
3663 Clear 5 1014 36 10000 2 0 17:52 15.05.2022
3664 Clear 6 1014 31 10000 2 0 16:31 15.05.2022
3665 Clear 16 1013 13 10000 5 340 13:59 15.05.2022
3666 Clear 18 1013 11 10000 8 340 12:57 15.05.2022
3667 Clear 20 1013 10 10000 8 340 11:40 15.05.2022
3668 Clear 20 1013 10 10000 8 340 10:29 15.05.2022
3669 Clear 19 1015 11 10000 6 310 08:46 15.05.2022
3670 Clear 16 1016 13 10000 6 300 06:58 15.05.2022
3671 Clear 15 1018 15 10000 3 240 05:52 15.05.2022
3672 Clear 1 1021 47 10000 1 0 00:57 15.05.2022
3673 Clear -2 1020 59 10000 1 0 23:47 14.05.2022
3674 Clear -2 1020 59 10000 1 0 23:29 14.05.2022
3675 Clear -3 1021 63 10000 2 0 21:29 14.05.2022
3676 Clear -1 1021 55 10000 1 0 20:53 14.05.2022
3677 Clear 1 1021 44 10000 2 0 19:40 14.05.2022
3678 Clear 1 1021 44 10000 2 0 19:20 14.05.2022
3679 Clear 3 1021 38 10000 1 0 18:46 14.05.2022
3680 Clear 0 1021 47 10000 3 170 16:56 14.05.2022
3681 Clear 9 1020 25 10000 2 0 15:33 14.05.2022
3682 Clouds 13 1020 18 10000 5 330 14:34 14.05.2022
3683 Clouds 15 1019 15 10000 6 330 12:34 14.05.2022
3684 Clouds 15 1019 14 10000 6 350 11:35 14.05.2022
3685 Clouds 15 1020 13 10000 6 340 10:21 14.05.2022
3686 Clouds 15 1020 14 10000 6 310 09:53 14.05.2022
3687 Clouds 14 1021 19 10000 5 330 08:49 14.05.2022
3688 Clouds 13 1022 21 10000 5 350 06:47 14.05.2022
3689 Clear 4 1023 48 10000 0 0 02:46 14.05.2022
3690 Clear -4 1022 74 10000 2 0 23:44 13.05.2022
3691 Clear -4 1022 74 10000 2 0 23:18 13.05.2022
3692 Clear -5 1022 80 10000 2 0 22:43 13.05.2022
3693 Clear -5 1022 80 10000 2 0 22:18 13.05.2022
3694 Clear -3 1022 74 10000 2 0 20:46 13.05.2022
3695 Clear -3 1022 74 10000 2 0 20:27 13.05.2022
3696 Clear -1 1022 64 10000 2 0 19:28 13.05.2022
3697 Clear 0 1021 55 10000 1 0 17:51 13.05.2022
3698 Clear 0 1021 55 10000 1 0 17:28 13.05.2022
3699 Clear 4 1021 41 10000 1 0 16:20 13.05.2022
3700 Clear 7 1020 31 10000 4 340 15:29 13.05.2022
3701 Clouds 11 1018 22 10000 8 330 13:48 13.05.2022
3702 Clouds 11 1018 20 10000 10 330 12:32 13.05.2022
3703 Clouds 13 1018 18 10000 8 340 11:22 13.05.2022
3704 Clouds 12 1019 22 10000 9 340 09:34 13.05.2022
3705 Clouds 11 1019 22 10000 9 330 08:44 13.05.2022
3706 Clouds 10 1020 25 10000 8 350 07:48 13.05.2022
3707 Clouds 11 1021 24 10000 8 350 06:33 13.05.2022
3708 Clouds 11 1021 24 10000 8 350 06:33 13.05.2022
3709 Clouds 11 1021 24 10000 8 350 06:33 13.05.2022
3710 Clouds 8 1021 29 10000 6 340 03:29 13.05.2022
3711 Clear -5 1021 74 10000 2 0 00:24 13.05.2022
3712 Clear -5 1021 68 10000 1 0 22:45 12.05.2022
3713 Clear -5 1021 68 10000 1 0 21:56 12.05.2022
3714 Clear -1 1021 55 10000 2 0 20:29 12.05.2022
3715 Clear 4 1022 35 10000 2 0 18:51 12.05.2022
3716 Clear 3 1021 35 10000 3 340 17:23 12.05.2022
3717 Clear 7 1021 24 10000 6 350 15:55 12.05.2022
3718 Clouds 8 1020 25 10000 10 340 14:40 12.05.2022
3719 Clouds 9 1020 23 10000 9 350 13:38 12.05.2022
3720 Clouds 10 1020 22 10000 12 340 10:45 12.05.2022
3721 Clouds 8 1021 27 10000 12 340 09:28 12.05.2022
3722 Clouds 8 1021 27 10000 12 340 09:28 12.05.2022
3723 Clouds 7 1021 24 10000 9 330 08:51 12.05.2022
3724 Clouds 7 1022 24 10000 10 330 07:40 12.05.2022
3725 Clouds 3 1023 32 10000 10 350 05:46 12.05.2022
3726 Clouds 0 1024 47 10000 8 340 02:49 12.05.2022
3727 Clouds -6 1023 63 10000 0 0 00:35 12.05.2022
3728 Clear -10 1023 79 10000 0 0 22:35 11.05.2022
3729 Clear -8 1023 73 10000 1 0 21:46 11.05.2022
3730 Clear -8 1023 73 10000 1 0 21:21 11.05.2022
3731 Clear -3 1023 59 10000 1 0 18:33 11.05.2022
3732 Clear 0 1023 43 10000 3 350 16:53 11.05.2022
3733 Clouds 2 1022 30 10000 8 340 14:58 11.05.2022
3734 Clouds 2 1022 30 10000 8 340 14:38 11.05.2022
3735 Clouds 2 1022 30 10000 8 340 14:18 11.05.2022
3736 Clouds 4 1021 30 10000 8 340 11:52 11.05.2022
3737 Clouds 3 1021 35 10000 9 330 10:44 11.05.2022
3738 Clouds 4 1021 28 10000 7 350 08:40 11.05.2022
3739 Clouds 3 1022 30 10000 6 350 05:27 11.05.2022
3740 Clear -9 1022 79 10000 2 0 00:43 11.05.2022
3741 Clear -8 1022 73 10000 1 0 22:31 10.05.2022
3742 Clear -6 1021 63 10000 1 0 21:56 10.05.2022
3743 Clear -7 1021 68 10000 0 0 20:56 10.05.2022
3744 Clear -7 1021 73 10000 1 0 19:37 10.05.2022
3745 Clear -4 1021 63 10000 1 0 17:58 10.05.2022
3746 Clouds -4 1021 63 10000 1 0 17:21 10.05.2022
3747 Clouds -1 1020 55 10000 2 0 15:28 10.05.2022
3748 Clouds 2 1019 30 10000 9 330 12:39 10.05.2022
3749 Clouds 2 1018 38 10000 11 330 11:50 10.05.2022
3750 Clouds 2 1018 38 10000 11 330 11:20 10.05.2022
3751 Clouds 3 1018 30 10000 8 300 10:26 10.05.2022
3752 Clouds 3 1018 32 10000 7 320 09:25 10.05.2022
3753 Clouds 2 1019 30 10000 7 330 06:54 10.05.2022
3754 Clouds -1 1020 47 10000 6 350 03:30 10.05.2022
3755 Clouds -4 1020 80 10000 1 0 00:57 10.05.2022
3756 Clear -6 1019 86 10000 2 0 22:56 09.05.2022
3757 Clear -5 1019 86 10000 2 0 21:50 09.05.2022
3758 Clear -4 1019 86 10000 3 310 20:52 09.05.2022
3759 Clear -2 1018 74 10000 4 340 19:23 09.05.2022
3760 Clouds -2 1017 80 10000 3 330 17:51 09.05.2022
3761 Clouds 0 1017 74 10000 4 330 16:38 09.05.2022
3762 Clouds 1 1015 69 10000 4 350 15:52 09.05.2022
3763 Clouds 1 1015 69 10000 4 350 15:24 09.05.2022
3764 Clouds 2 1015 55 10000 5 330 14:29 09.05.2022
3765 Clouds 3 1014 48 10000 5 340 13:49 09.05.2022
3766 Clouds 4 1014 41 10000 6 330 12:26 09.05.2022
3767 Clouds 5 1013 38 10000 8 350 11:32 09.05.2022
3768 Clouds 5 1014 42 10000 8 340 10:42 09.05.2022
3769 Clouds 3 1014 56 10000 8 350 08:45 09.05.2022
3770 Clouds 3 1014 56 10000 8 350 07:54 09.05.2022
3771 Clouds 1 1012 75 10000 9 340 03:21 09.05.2022
3772 Clouds 3 1006 87 10000 4 50 23:37 08.05.2022
3773 Clouds 3 1006 87 10000 4 50 22:56 08.05.2022
3774 Clouds 7 1004 70 10000 9 320 21:55 08.05.2022
3775 Rain 13 1003 67 8000 3 360 20:35 08.05.2022
3776 Clouds 18 1003 29 10000 8 220 19:45 08.05.2022
3777 Clouds 19 1003 27 10000 13 250 18:54 08.05.2022
3778 Clouds 19 1003 27 10000 13 250 18:18 08.05.2022
3779 Clouds 19 1004 15 10000 9 180 16:44 08.05.2022
3780 Clouds 21 1004 13 10000 10 180 15:39 08.05.2022
3781 Clouds 22 1005 13 10000 10 190 14:45 08.05.2022
3782 Clouds 23 1007 13 10000 9 190 12:27 08.05.2022
3783 Clouds 24 1009 12 10000 10 200 10:32 08.05.2022
3784 Clouds 24 1009 12 10000 10 200 09:57 08.05.2022
3785 Clouds 22 1011 14 10000 10 190 08:57 08.05.2022
3786 Clear 20 1014 21 10000 9 180 07:25 08.05.2022
3787 Clear 5 1019 65 10000 1 0 03:40 08.05.2022
3788 Clear 1 1020 86 10000 1 0 02:47 08.05.2022
3789 Clear -3 1019 93 10000 1 0 00:28 08.05.2022
3790 Clear -4 1019 93 10000 0 0 23:50 07.05.2022
3791 Clear -3 1020 93 10000 0 0 22:46 07.05.2022
3792 Clear -2 1020 93 10000 0 0 21:59 07.05.2022
3793 Clear -2 1020 93 10000 0 0 21:34 07.05.2022
3794 Clear -3 1020 93 10000 1 0 20:28 07.05.2022
3795 Clear -1 1020 93 10000 1 0 19:44 07.05.2022
3796 Clear 0 1021 86 10000 1 0 17:35 07.05.2022
3797 Clear 1 1021 86 10000 2 0 15:46 07.05.2022
3798 Clouds 6 1020 65 10000 1 0 13:39 07.05.2022
3799 Clouds 4 1020 75 10000 6 130 10:46 07.05.2022
3800 Clouds 3 1020 87 10000 7 140 09:19 07.05.2022
3801 Clouds 2 1022 93 10000 7 150 07:50 07.05.2022
3802 Snow 0 1022 93 2000 6 150 06:43 07.05.2022
3803 Snow 1 1022 86 4000 9 150 04:41 07.05.2022
3804 Clouds 3 1023 70 5000 9 190 01:19 07.05.2022
3805 Rain 7 1021 21 10000 11 150 23:37 06.05.2022
3806 Clouds 7 1021 19 10000 12 150 22:27 06.05.2022
3807 Clouds 7 1021 19 10000 14 150 21:43 06.05.2022
3808 Clouds 6 1021 19 10000 12 140 20:33 06.05.2022
3809 Clouds 7 1021 18 10000 11 140 19:29 06.05.2022
3810 Clouds 7 1021 18 10000 11 140 19:29 06.05.2022
3811 Clouds 8 1022 15 10000 11 140 18:57 06.05.2022
3812 Clouds 8 1022 15 10000 11 140 17:38 06.05.2022
3813 Clouds 8 1022 17 10000 9 140 16:23 06.05.2022
3814 Clouds 9 1022 15 10000 6 140 15:39 06.05.2022
3815 Clouds 10 1022 14 10000 6 150 14:33 06.05.2022
3816 Clouds 13 1021 14 10000 4 180 12:53 06.05.2022
3817 Clouds 13 1021 14 10000 4 180 12:31 06.05.2022
3818 Clouds 12 1021 15 10000 3 210 11:38 06.05.2022
3819 Clouds 12 1022 15 10000 4 210 10:26 06.05.2022
3820 Clouds 13 1023 13 10000 4 210 09:39 06.05.2022
3821 Clouds 12 1023 15 10000 2 0 07:59 06.05.2022
3822 Clouds 9 1025 23 10000 3 290 06:39 06.05.2022
3823 Clear 5 1026 30 10000 1 0 04:37 06.05.2022
3824 Clouds -1 1026 51 10000 1 0 02:43 06.05.2022
3825 Clear -9 1025 67 10000 1 0 23:34 05.05.2022
3826 Clear -8 1025 67 10000 1 0 21:52 05.05.2022
3827 Clear -5 1025 54 10000 1 0 20:53 05.05.2022
3828 Clear -5 1024 58 10000 2 0 19:49 05.05.2022
3829 Clear 1 1023 40 10000 2 0 16:54 05.05.2022
3830 Clear 3 1023 32 10000 4 350 15:52 05.05.2022
3831 Clear 4 1022 30 10000 7 340 14:43 05.05.2022
3832 Clouds 6 1021 26 10000 7 340 13:20 05.05.2022
3833 Clouds 6 1021 26 10000 8 340 12:24 05.05.2022
3834 Clouds 7 1020 26 10000 8 350 10:30 05.05.2022
3835 Clouds 7 1020 24 10000 7 350 09:34 05.05.2022
3836 Clouds 6 1020 26 10000 9 350 07:19 05.05.2022
3837 Clouds 1 1018 64 10000 7 350 02:33 05.05.2022
3838 Clouds 1 1016 69 10000 6 360 01:47 05.05.2022
3839 Clouds 1 1016 69 10000 6 360 01:20 05.05.2022
3840 Clouds 2 1013 69 10000 10 340 23:28 04.05.2022
3841 Clouds 2 1012 75 10000 7 350 22:25 04.05.2022
3842 Clouds 4 1011 70 10000 9 340 21:48 04.05.2022
3843 Clouds 4 1011 70 10000 9 340 21:26 04.05.2022
3844 Clouds 5 1010 75 10000 9 330 20:22 04.05.2022
3845 Clouds 7 1009 65 10000 4 320 19:51 04.05.2022
3846 Clouds 9 1008 53 10000 5 350 18:45 04.05.2022
3847 Clouds 9 1008 53 10000 5 350 18:20 04.05.2022
3848 Clouds 9 1007 49 10000 6 70 17:28 04.05.2022
3849 Clouds 13 1005 30 10000 4 330 15:38 04.05.2022
3850 Clouds 13 1004 33 10000 2 0 14:49 04.05.2022
3851 Clouds 13 1004 33 10000 2 0 14:20 04.05.2022
3852 Clouds 16 1003 27 10000 5 310 12:58 04.05.2022
3853 Clouds 17 1003 23 10000 5 310 12:28 04.05.2022
3854 Clouds 17 1004 25 10000 5 350 10:30 04.05.2022
3855 Clouds 17 1004 31 10000 8 340 09:28 04.05.2022
3856 Clouds 17 1004 27 10000 6 340 08:33 04.05.2022
3857 Rain 13 1005 41 10000 6 330 05:44 04.05.2022
3858 Rain 11 1003 37 10000 4 320 02:43 04.05.2022
3859 Clear 5 1000 33 10000 2 0 23:31 03.05.2022
3860 Clear 8 999 27 10000 1 0 22:20 03.05.2022
3861 Clear 4 999 33 10000 0 0 21:33 03.05.2022
3862 Clear 6 999 28 10000 1 0 20:52 03.05.2022
3863 Clear 7 999 26 10000 0 0 19:39 03.05.2022
3864 Clear 11 999 19 10000 2 0 18:48 03.05.2022
3865 Clear 9 999 21 10000 3 170 17:38 03.05.2022
3866 Clear 14 999 14 10000 2 0 16:28 03.05.2022
3867 Clouds 19 998 11 10000 4 230 14:43 03.05.2022
3868 Clear 25 998 8 10000 5 260 12:47 03.05.2022
3869 Clear 25 998 8 10000 5 260 12:25 03.05.2022
3870 Clear 25 998 8 10000 5 260 12:25 03.05.2022
3871 Clouds 25 999 8 10000 8 270 10:52 03.05.2022
3872 Clouds 24 1000 8 10000 7 270 08:38 03.05.2022
3873 Clouds 22 1001 9 10000 3 240 06:46 03.05.2022
3874 Clouds 11 1003 22 10000 1 0 03:34 03.05.2022
3875 Clouds 2 1003 35 10000 1 0 23:44 02.05.2022
3876 Clear 11 1001 23 10000 1.64 150 22:34 02.05.2022
3877 Clear 11 1001 22 10000 1.74 135 21:49 02.05.2022
3878 Clear 3 1005 30 10000 0 0 20:50 02.05.2022
3879 Clear 8 1006 19 10000 1 0 18:35 02.05.2022
3880 Clear 8 1006 19 10000 1 0 17:44 02.05.2022
3881 Clear 11 1006 16 10000 2 0 16:50 02.05.2022
3882 Clear 11 1006 17 10000 4 160 15:56 02.05.2022
3883 Clear 11 1006 17 10000 4 160 15:19 02.05.2022
3884 Clear 23 1007 8 10000 4 290 13:48 02.05.2022
3885 Clear 24 1007 7 10000 3 260 12:18 02.05.2022
3886 Clouds 24 1009 8 10000 6 260 10:20 02.05.2022
3887 Clear 24 1011 8 10000 8 290 08:46 02.05.2022
3888 Clear 23 1011 10 10000 6 230 07:39 02.05.2022
3889 Clear 3 1015 48 10000 0 0 01:58 02.05.2022
3890 Clear -1 1015 64 10000 0 0 00:23 02.05.2022
3891 Clouds 8 1013 38 10000 1.22 126 23:46 01.05.2022
3892 Clear 0 1016 51 10000 1 0 21:56 01.05.2022
3893 Clear 1 1016 47 10000 1 0 20:50 01.05.2022
3894 Clear 2 1016 44 10000 1 0 19:46 01.05.2022
3895 Clear 3 1016 41 10000 2 0 18:54 01.05.2022
3896 Clear 3 1016 41 10000 2 0 18:18 01.05.2022
3897 Clouds 6 1016 31 10000 3 170 16:55 01.05.2022
3898 Clouds 6 1016 31 10000 3 170 16:23 01.05.2022
3899 Clouds 14 1016 21 10000 0 0 15:22 01.05.2022
3900 Clouds 20 1015 12 10000 3 320 13:23 01.05.2022
3901 Clouds 20 1015 11 10000 3 280 10:46 01.05.2022
3902 Clouds 20 1017 14 10000 2 0 08:51 01.05.2022
3903 Clouds 19 1018 18 10000 3 220 07:42 01.05.2022
3904 Clear 5 1020 42 10000 0 0 02:51 01.05.2022
3905 Clear -1 1020 59 10000 1 0 22:58 30.04.2022
3906 Clear 0 1020 55 10000 2 0 21:35 30.04.2022
3907 Clear 1 1021 51 10000 2 0 20:35 30.04.2022
3908 Clear 1 1021 47 10000 3 170 19:33 30.04.2022
3909 Clear 4 1021 38 10000 1 0 17:40 30.04.2022
3910 Clouds 8 1022 29 10000 1 0 16:34 30.04.2022
3911 Clouds 12 1021 24 10000 2 0 15:19 30.04.2022
3912 Clouds 14 1021 21 10000 4 350 14:31 30.04.2022
3913 Clear 16 1021 17 10000 8 310 12:36 30.04.2022
3914 Clear 16 1021 16 10000 7 320 11:32 30.04.2022
3915 Clouds 16 1022 17 10000 9 310 10:31 30.04.2022
3916 Clouds 15 1024 18 10000 7 310 08:34 30.04.2022
3917 Clear 11 1027 25 10000 7 310 05:19 30.04.2022
3918 Clouds -3 1028 43 10000 0 0 00:35 30.04.2022
3919 Clouds -3 1028 43 10000 0 0 23:36 29.04.2022
3920 Clouds -3 1029 39 10000 0 0 22:30 29.04.2022
3921 Clouds -3 1029 39 10000 0 0 21:27 29.04.2022
3922 Clear -7 1029 45 10000 0 0 20:38 29.04.2022
3923 Clear -5 1029 39 10000 2 0 19:36 29.04.2022
3924 Clear -5 1029 39 10000 3 170 17:48 29.04.2022
3925 Clear -3 1029 33 10000 1 0 16:43 29.04.2022
3926 Clear 5 1028 17 10000 6 350 14:38 29.04.2022
3927 Clear 5 1028 17 10000 6 350 14:19 29.04.2022
3928 Clear 7 1027 14 10000 7 330 12:41 29.04.2022
3929 Clear 7 1027 13 10000 10 330 10:57 29.04.2022
3930 Clouds 6 1028 15 10000 8 350 08:18 29.04.2022
3931 Clouds 5 1028 20 10000 6 320 07:27 29.04.2022
3932 Clouds 4 1028 24 10000 7 350 06:34 29.04.2022
3933 Clouds 1 1029 32 10000 8 340 03:23 29.04.2022
3934 Clear -11 1027 62 10000 1 0 00:18 29.04.2022
3935 Clear -11 1027 62 10000 1 0 23:26 28.04.2022
3936 Clear -7 1026 49 10000 3 320 22:37 28.04.2022
3937 Clear -6 1026 45 10000 3 340 21:45 28.04.2022
3938 Clear -5 1026 39 10000 3 330 20:49 28.04.2022
3939 Clear -5 1026 39 10000 3 330 19:57 28.04.2022
3940 Clear -6 1025 38 10000 1 0 19:39 28.04.2022
3941 Clear -6 1025 38 10000 1 0 19:19 28.04.2022
3942 Clear -4 1024 36 10000 1 0 17:56 28.04.2022
3943 Clear -4 1023 36 10000 2 0 16:58 28.04.2022
3944 Clear 1 1023 21 10000 5 350 16:21 28.04.2022
3945 Clear 1 1023 21 10000 5 350 15:56 28.04.2022
3946 Clear 2 1022 21 10000 6 350 15:21 28.04.2022
3947 Clouds 5 1020 20 10000 9 330 13:43 28.04.2022
3948 Clouds 7 1019 19 10000 10 330 12:34 28.04.2022
3949 Clouds 8 1019 19 10000 10 340 11:51 28.04.2022
3950 Clouds 8 1018 18 10000 10 340 10:29 28.04.2022
3951 Clouds 8 1018 25 10000 9 350 09:50 28.04.2022
3952 Clouds 8 1019 29 10000 8 360 07:45 28.04.2022
3953 Clouds 8 1019 25 10000 7 340 06:54 28.04.2022
3954 Clouds 7 1019 24 10000 8 330 05:54 28.04.2022
3955 Clear 6 1018 22 10000 4 360 04:44 28.04.2022
3956 Clear 3 1018 28 10000 2 0 03:28 28.04.2022
3957 Clear -9 1016 62 10000 0 0 23:43 27.04.2022
3958 Clear -9 1016 57 10000 0 0 22:30 27.04.2022
3959 Clear -8 1016 53 10000 1 0 21:50 27.04.2022
3960 Clear -6 1016 49 10000 0 0 20:51 27.04.2022
3961 Clear -6 1016 49 10000 0 0 20:32 27.04.2022
3962 Clear -2 1016 34 10000 1 0 19:36 27.04.2022
3963 Clear -5 1016 42 10000 1 0 18:45 27.04.2022
3964 Clear -5 1016 42 10000 1 0 18:21 27.04.2022
3965 Clear -2 1015 34 10000 3 170 16:21 27.04.2022
3966 Clouds 9 1013 14 10000 4 290 13:51 27.04.2022
3967 Clouds 10 1013 13 10000 4 260 11:39 27.04.2022
3968 Clouds 10 1013 13 10000 4 260 11:18 27.04.2022
3969 Clouds 9 1015 11 10000 2 0 08:53 27.04.2022
3970 Clear 8 1016 13 10000 2 0 06:45 27.04.2022
3971 Clear 8 1016 13 10000 2 0 06:45 27.04.2022
3972 Clear 1 1017 27 10000 1 0 03:30 27.04.2022
3973 Clear -8 1017 57 10000 1 0 01:27 27.04.2022
3974 Clear -12 1017 61 10000 0 0 00:35 27.04.2022
3975 Clear -12 1017 67 10000 1 0 23:25 26.04.2022
3976 Clear -11 1017 57 10000 1 0 22:52 26.04.2022
3977 Clear -11 1017 57 10000 1 0 22:34 26.04.2022
3978 Clear -10 1017 57 10000 1 0 21:26 26.04.2022
3979 Clear -10 1018 52 10000 0 0 20:40 26.04.2022
3980 Clear -10 1018 48 10000 2 0 19:48 26.04.2022
3981 Clear -10 1018 48 10000 2 0 19:26 26.04.2022
3982 Clear -9 1019 45 10000 1 0 18:42 26.04.2022
3983 Clear -5 1019 33 10000 0 0 17:50 26.04.2022
3984 Clear -4 1019 33 10000 2 0 16:26 26.04.2022
3985 Clear 1 1018 21 10000 3 220 13:58 26.04.2022
3986 Clouds 3 1018 20 10000 3 220 13:29 26.04.2022
3987 Clouds 3 1018 20 10000 4 190 11:32 26.04.2022
3988 Clouds 3 1018 17 10000 2 0 10:31 26.04.2022
3989 Clouds 2 1020 21 10000 3 320 08:47 26.04.2022
3990 Clear -1 1022 29 10000 3 320 05:46 26.04.2022
3991 Clear -2 1023 40 10000 2 0 04:23 26.04.2022
3992 Clear -15 1022 78 10000 1 0 00:53 26.04.2022
3993 Clear -10 1022 67 10000 1 0 23:52 25.04.2022
3994 Clear -11 1021 73 10000 2 0 22:18 25.04.2022
3995 Clear -9 1021 67 10000 1 0 21:33 25.04.2022
3996 Clear -10 1020 73 10000 2 0 20:26 25.04.2022
3997 Clear -8 1019 67 10000 0 0 18:52 25.04.2022
3998 Clear -9 1019 79 10000 1 0 17:41 25.04.2022
3999 Clouds -7 1019 73 10000 4 290 16:50 25.04.2022
4000 Clouds -5 1018 68 10000 5 310 15:23 25.04.2022
4001 Clouds -4 1017 63 10000 7 310 14:34 25.04.2022
4002 Clouds -3 1015 59 10000 9 320 13:21 25.04.2022
4003 Clouds -1 1012 47 10000 9 320 10:58 25.04.2022
4004 Clouds 0 1011 40 6000 13 330 09:42 25.04.2022
4005 Clouds -1 1010 47 10000 11 330 08:23 25.04.2022
4006 Clouds -2 1009 59 10000 7 330 06:18 25.04.2022
4007 Clouds -2 1003 64 10000 7 310 01:49 25.04.2022
4008 Snow -1 1001 69 10000 7 340 23:57 24.04.2022
4009 Clouds 1 999 75 10000 7 310 23:28 24.04.2022
4010 Rain 2 998 75 10000 5 330 22:39 24.04.2022
4011 Clouds 3 997 60 10000 5 330 21:56 24.04.2022
4012 Clouds 3 997 60 10000 5 330 21:22 24.04.2022
4013 Clouds 3 997 60 10000 5 330 21:22 24.04.2022
4014 Clouds 4 996 56 10000 6 340 20:46 24.04.2022
4015 Clouds 4 996 56 10000 6 340 20:21 24.04.2022
4016 Clouds 7 993 24 10000 3 300 18:54 24.04.2022
4017 Clouds 9 992 18 10000 1 0 17:54 24.04.2022
4018 Clouds 9 992 18 10000 1 0 17:54 24.04.2022
4019 Rain 9 992 18 10000 1 0 17:21 24.04.2022
4020 Clouds 11 993 13 10000 2 0 16:55 24.04.2022
4021 Rain 11 993 13 10000 2 0 16:29 24.04.2022
4022 Rain 12 994 10 10000 5 40 15:43 24.04.2022
4023 Clouds 12 995 10 10000 4 70 14:36 24.04.2022
4024 Clouds 13 996 8 10000 0 0 13:27 24.04.2022
4025 Clouds 15 997 9 10000 1 0 12:56 24.04.2022
4026 Clouds 14 999 9 10000 4 280 11:50 24.04.2022
4027 Clouds 14 1000 14 10000 7 250 10:47 24.04.2022
4028 Clouds 13 1001 16 10000 8 240 09:47 24.04.2022
4029 Clouds 13 1003 16 10000 4 260 07:55 24.04.2022
4030 Clouds 8 1006 23 10000 2 0 05:45 24.04.2022
4031 Clear 3 1007 44 10000 4 10 02:30 24.04.2022
4032 Clouds -3 1006 68 10000 0 0 00:45 24.04.2022
4033 Clear -1 1006 59 10000 3 350 23:52 23.04.2022
4034 Clear -1 1006 59 10000 3 350 23:25 23.04.2022
4035 Clear -3 1006 68 10000 0 0 21:59 23.04.2022
4036 Clear -3 1006 68 10000 0 0 21:38 23.04.2022
4037 Clear -4 1005 68 10000 0 0 20:59 23.04.2022
4038 Clear -4 1005 63 10000 1 0 19:56 23.04.2022
4039 Clear -4 1005 63 10000 1 0 19:20 23.04.2022
4040 Clear -1 1004 55 10000 1 0 18:53 23.04.2022
4041 Clear -1 1004 55 10000 1 0 18:31 23.04.2022
4042 Clear -3 1004 63 10000 2 0 17:44 23.04.2022
4043 Clear 1 1004 47 10000 2 0 16:44 23.04.2022
4044 Clear 2 1004 44 10000 3 180 15:36 23.04.2022
4045 Clouds 10 1003 22 10000 7 290 12:59 23.04.2022
4046 Clouds 9 1003 20 10000 3 280 11:24 23.04.2022
4047 Clouds 8 1003 27 10000 3 350 09:38 23.04.2022
4048 Clouds 9 1003 29 10000 6 330 07:52 23.04.2022
4049 Clouds 5 1001 56 10000 1 0 03:56 23.04.2022
4050 Clouds 0 999 74 10000 0 0 01:59 23.04.2022
4051 Clouds -2 998 80 10000 1 0 23:34 22.04.2022
4052 Clouds -2 998 80 10000 1 0 22:32 22.04.2022
4053 Clouds 0 998 74 10000 2 0 21:46 22.04.2022
4054 Clouds 0 998 74 10000 2 0 21:20 22.04.2022
4055 Clouds 3 998 60 10000 3 270 20:28 22.04.2022
4056 Clouds 3 997 70 10000 2 0 19:23 22.04.2022
4057 Clouds 5 997 60 10000 3 330 18:53 22.04.2022
4058 Clouds 5 997 60 10000 3 330 18:20 22.04.2022
4059 Clouds 11 995 22 10000 11 290 16:53 22.04.2022
4060 Clouds 11 994 30 10000 6 290 15:56 22.04.2022
4061 Clouds 11 994 30 10000 6 290 15:22 22.04.2022
4062 Clouds 12 993 30 10000 8 300 14:21 22.04.2022
4063 Dust 15 991 17 8000 11 270 13:27 22.04.2022
4064 Clouds 16 991 13 10000 8 250 12:30 22.04.2022
4065 Clouds 16 993 13 10000 10 250 11:23 22.04.2022
4066 Clouds 16 994 13 10000 10 260 10:53 22.04.2022
4067 Clouds 16 994 13 10000 10 260 10:32 22.04.2022
4068 Clouds 16 994 13 10000 10 260 09:54 22.04.2022
4069 Clouds 15 996 17 10000 11 250 08:56 22.04.2022
4070 Clouds 14 998 18 10000 6 240 08:25 22.04.2022
4071 Clouds 8 1003 27 10000 6 220 05:31 22.04.2022
4072 Clear -8 1007 79 10000 1 0 00:53 22.04.2022
4073 Clear -3 1007 68 10000 1 0 23:29 21.04.2022
4074 Clear -7 1007 79 10000 2 0 22:29 21.04.2022
4075 Clear -7 1007 79 10000 2 0 22:29 21.04.2022
4076 Clear -4 1007 74 10000 0 0 21:22 21.04.2022
4077 Clouds -4 1007 74 10000 3 170 20:27 21.04.2022
4078 Clouds 1 1007 60 10000 1 0 18:49 21.04.2022
4079 Clouds 1 1007 60 10000 1 0 18:19 21.04.2022
4080 Clouds 4 1007 52 10000 5 330 16:53 21.04.2022
4081 Clouds 5 1007 42 10000 4 270 15:23 21.04.2022
4082 Clouds 6 1006 33 10000 7 280 14:51 21.04.2022
4083 Clouds 7 1006 26 10000 1 0 13:52 21.04.2022
4084 Clouds 7 1006 26 10000 1 0 13:19 21.04.2022
4085 Clouds 8 1006 23 10000 7 230 11:25 21.04.2022
4086 Clouds 8 1008 18 10000 6 240 08:59 21.04.2022
4087 Clouds 8 1008 18 10000 6 240 08:29 21.04.2022
4088 Clouds 7 1010 21 10000 3 220 06:25 21.04.2022
4089 Clouds 1 1011 32 10000 2 0 03:37 21.04.2022
4090 Clouds 1 1011 32 10000 2 0 02:56 21.04.2022
4091 Clouds -1 1011 40 10000 1 0 02:38 21.04.2022
4092 Clouds -4 1009 50 10000 1 0 23:53 20.04.2022
4093 Clouds -4 1009 50 10000 1 0 23:23 20.04.2022
4094 Clouds -4 1008 50 10000 1 0 22:52 20.04.2022
4095 Clouds -4 1008 50 10000 1 0 22:32 20.04.2022
4096 Clouds -4 1008 50 10000 1 0 22:32 20.04.2022
4097 Clouds -2 1008 43 10000 3 320 21:35 20.04.2022
4098 Clouds -1 1008 43 10000 3 340 20:42 20.04.2022
4099 Clouds 0 1007 37 10000 4 10 19:53 20.04.2022
4100 Clouds 0 1007 37 10000 4 10 19:25 20.04.2022
4101 Clouds 0 1007 37 10000 5 350 18:33 20.04.2022
4102 Clouds 0 1007 34 10000 5 360 16:58 20.04.2022
4103 Clouds 0 1006 34 10000 6 350 16:38 20.04.2022
4104 Clouds 2 1004 30 10000 7 350 14:48 20.04.2022
4105 Clouds 4 1003 30 10000 8 360 11:56 20.04.2022
4106 Clouds 5 1002 30 10000 8 340 11:29 20.04.2022
4107 Clouds 6 1001 28 10000 10 350 10:27 20.04.2022
4108 Clouds 6 1001 31 10000 9 340 09:27 20.04.2022
4109 Clouds 5 1000 36 10000 9 340 08:24 20.04.2022
4110 Clouds 5 1000 36 10000 9 340 08:24 20.04.2022
4111 Clouds 4 1000 45 10000 10 350 07:43 20.04.2022
4112 Clouds 3 998 56 10000 9 350 04:37 20.04.2022
4113 Clouds 2 997 69 10000 4 360 00:55 20.04.2022
4114 Clouds 3 996 70 10000 7 350 00:20 20.04.2022
4115 Clouds 5 995 52 10000 5 350 22:40 19.04.2022
4116 Clouds 5 995 52 10000 5 350 22:19 19.04.2022
4117 Clouds 6 995 45 10000 3 360 21:38 19.04.2022
4118 Clouds 8 994 36 10000 4 330 20:56 19.04.2022
4119 Rain 8 994 36 10000 4 330 20:34 19.04.2022
4120 Clouds 10 994 27 10000 5 330 19:24 19.04.2022
4121 Clouds 12 993 15 10000 5 200 17:59 19.04.2022
4122 Clouds 10 994 16 10000 1 0 16:44 19.04.2022
4123 Clouds 10 994 16 10000 1 0 16:24 19.04.2022
4124 Clouds 11 995 15 10000 3 190 14:51 19.04.2022
4125 Clouds 11 995 15 10000 3 190 14:31 19.04.2022
4126 Clouds 19 997 8 10000 6 260 12:52 19.04.2022
4127 Clouds 19 997 8 10000 6 260 12:26 19.04.2022
4128 Clouds 19 998 8 10000 7 250 11:22 19.04.2022
4129 Clouds 19 1001 10 10000 7 250 09:26 19.04.2022
4130 Clouds 16 1005 14 10000 4 240 06:34 19.04.2022
4131 Clouds 12 1007 22 10000 1 0 04:19 19.04.2022
4132 Clear 0 1007 55 10000 1 0 00:56 19.04.2022
4133 Clear -1 1008 55 10000 1 0 23:38 18.04.2022
4134 Clear -2 1008 64 10000 1 0 21:48 18.04.2022
4135 Clear -2 1008 64 10000 1 0 21:24 18.04.2022
4136 Clear 1 1009 44 10000 1 0 20:38 18.04.2022
4137 Clear 1 1009 44 10000 1 0 19:59 18.04.2022
4138 Clear 1 1009 44 10000 1 0 19:28 18.04.2022
4139 Clear 4 1010 35 10000 1 0 18:33 18.04.2022
4140 Clear 6 1010 31 10000 1 0 17:39 18.04.2022
4141 Clear 6 1010 31 10000 1 0 17:19 18.04.2022
4142 Clear 7 1011 26 10000 4 180 16:35 18.04.2022
4143 Clear 7 1011 26 10000 4 180 16:35 18.04.2022
4144 Clear 8 1011 25 10000 1 0 15:27 18.04.2022
4145 Clear 18 1011 12 10000 5 240 13:44 18.04.2022
4146 Clear 19 1012 12 10000 6 240 12:40 18.04.2022
4147 Clear 19 1013 11 10000 7 240 11:43 18.04.2022
4148 Clear 19 1014 12 10000 7 230 10:43 18.04.2022
4149 Clear 18 1015 15 10000 5 220 09:31 18.04.2022
4150 Clear 17 1016 16 10000 7 230 08:29 18.04.2022
4151 Clear 14 1019 18 10000 4 220 05:58 18.04.2022
4152 Clear -5 1021 80 10000 1 0 01:37 18.04.2022
4153 Clear -6 1021 79 10000 1 0 22:44 17.04.2022
4154 Clear -4 1022 68 10000 1 0 21:51 17.04.2022
4155 Clear -4 1022 68 10000 1 0 21:32 17.04.2022
4156 Clear -4 1022 68 10000 2 0 20:50 17.04.2022
4157 Clear -3 1022 68 10000 1 0 19:53 17.04.2022
4158 Clear -2 1022 64 10000 2 0 18:32 17.04.2022
4159 Clear 0 1022 59 10000 1 0 16:33 17.04.2022
4160 Clouds 4 1022 35 10000 1 0 15:32 17.04.2022
4161 Clouds 9 1021 23 10000 3 10 14:28 17.04.2022
4162 Clear 11 1021 19 10000 5 340 13:20 17.04.2022
4163 Clear 12 1021 17 10000 6 340 12:29 17.04.2022
4164 Clear 12 1021 17 10000 8 330 10:48 17.04.2022
4165 Clear 12 1021 17 10000 8 330 10:29 17.04.2022
4166 Clear 12 1021 19 10000 7 330 09:50 17.04.2022
4167 Clear 12 1021 19 10000 7 330 08:54 17.04.2022
4168 Clear 11 1022 19 10000 5 330 08:26 17.04.2022
4169 Clear 9 1023 20 10000 6 340 05:20 17.04.2022
4170 Clear -6 1023 79 10000 1 0 01:40 17.04.2022
4171 Clear -6 1022 68 10000 2 0 23:59 16.04.2022
4172 Clear -7 1021 79 10000 2 0 22:50 16.04.2022
4173 Clear -4 1021 63 10000 1 0 21:42 16.04.2022
4174 Clear -5 1021 68 10000 3 180 20:45 16.04.2022
4175 Clear -4 1021 68 10000 1 0 19:20 16.04.2022
4176 Clear -4 1020 63 10000 2 0 18:32 16.04.2022
4177 Clear 1 1020 37 10000 0 0 16:42 16.04.2022
4178 Clear 4 1019 30 10000 3 330 15:46 16.04.2022
4179 Clear 6 1018 24 10000 5 340 14:57 16.04.2022
4180 Clear 6 1018 24 10000 5 340 13:58 16.04.2022
4181 Clouds 8 1017 19 10000 7 350 13:40 16.04.2022
4182 Clouds 10 1017 22 10000 8 350 12:33 16.04.2022
4183 Clouds 11 1017 17 10000 7 320 11:24 16.04.2022
4184 Clouds 11 1017 17 10000 5 300 09:59 16.04.2022
4185 Clouds 11 1018 20 10000 6 290 09:18 16.04.2022
4186 Clouds 10 1019 20 10000 6 280 08:31 16.04.2022
4187 Clouds 9 1020 21 10000 6 290 06:59 16.04.2022
4188 Clear 0 1023 51 10000 2 0 03:48 16.04.2022
4189 Clear -6 1024 73 10000 0 0 00:35 16.04.2022
4190 Clear -5 1024 68 10000 2 0 23:34 15.04.2022
4191 Clear -6 1025 73 10000 1 0 22:38 15.04.2022
4192 Clear -4 1025 63 10000 2 0 21:59 15.04.2022
4193 Clear -4 1025 63 10000 2 0 21:18 15.04.2022
4194 Clear -4 1025 63 10000 2 0 21:18 15.04.2022
4195 Clear -4 1025 63 10000 2 0 21:18 15.04.2022
4196 Clear -5 1025 74 10000 2 0 20:27 15.04.2022
4197 Clear -5 1026 74 10000 3 170 19:40 15.04.2022
4198 Clear -3 1026 63 10000 2 0 18:54 15.04.2022
4199 Clear -3 1026 63 10000 2 0 18:25 15.04.2022
4200 Clear 0 1027 37 10000 1 0 17:48 15.04.2022
4201 Clear 0 1027 37 10000 1 0 17:21 15.04.2022
4202 Clear 3 1027 30 10000 6 270 16:23 15.04.2022
4203 Clear 3 1026 32 10000 5 280 15:24 15.04.2022
4204 Clear 7 1026 21 10000 6 320 13:42 15.04.2022
4205 Clear 9 1026 18 10000 5 320 12:43 15.04.2022
4206 Clear 9 1026 18 10000 5 320 11:58 15.04.2022
4207 Clear 9 1026 18 10000 6 300 11:35 15.04.2022
4208 Clear 9 1027 21 10000 6 320 10:45 15.04.2022
4209 Clear 9 1028 18 10000 7 290 09:47 15.04.2022
4210 Clear 9 1028 18 10000 7 290 09:21 15.04.2022
4211 Clear 8 1029 18 10000 5 270 07:53 15.04.2022
4212 Clouds 6 1032 24 10000 2 0 06:37 15.04.2022
4213 Clear -2 1033 59 10000 0 0 03:47 15.04.2022
4214 Clear -8 1033 86 10000 0 0 23:32 14.04.2022
4215 Clear -8 1033 86 10000 0 0 22:49 14.04.2022
4216 Clear -8 1033 86 10000 0 0 22:31 14.04.2022
4217 Clear -8 1033 86 10000 0 0 21:59 14.04.2022
4218 Clear -6 1033 79 10000 0 0 21:30 14.04.2022
4219 Clear -7 1033 79 10000 1 0 19:23 14.04.2022
4220 Clear -6 1033 79 10000 2 0 18:30 14.04.2022
4221 Clear -5 1033 74 10000 1 0 17:44 14.04.2022
4222 Clear -5 1033 74 10000 1 0 17:44 14.04.2022
4223 Clear -3 1033 63 10000 2 0 16:46 14.04.2022
4224 Clear -2 1032 64 10000 4 160 15:28 14.04.2022
4225 Clouds 4 1031 26 10000 3 180 13:47 14.04.2022
4226 Clouds 4 1031 26 10000 3 180 12:58 14.04.2022
4227 Clouds 5 1031 24 10000 4 170 12:31 14.04.2022
4228 Clouds 5 1031 26 10000 4 170 11:30 14.04.2022
4229 Clouds 5 1031 26 10000 4 170 10:54 14.04.2022
4230 Clouds 5 1031 26 10000 5 170 10:27 14.04.2022
4231 Clouds 4 1031 35 10000 4 150 09:25 14.04.2022
4232 Clouds 2 1032 60 10000 0 0 07:33 14.04.2022
4233 Clouds -4 1031 93 6000 1 0 04:35 14.04.2022
4234 Clouds -9 1027 86 8000 1 0 23:45 13.04.2022
4235 Clouds -6 1027 93 6000 1 0 22:24 13.04.2022
4236 Clouds -6 1026 86 3000 0 0 21:42 13.04.2022
4237 Clouds -5 1026 93 3000 1 0 20:25 13.04.2022
4238 Clouds -5 1026 93 3000 1 0 19:39 13.04.2022
4239 Clouds -4 1025 86 3000 1 0 18:36 13.04.2022
4240 Snow -8 1025 93 10000 0 0 17:24 13.04.2022
4241 Snow -8 1024 93 10000 2 0 16:41 13.04.2022
4242 Clouds -4 1023 86 10000 3 70 15:43 13.04.2022
4243 Clouds -3 1022 86 10000 5 60 14:53 13.04.2022
4244 Clouds -3 1022 86 10000 5 60 14:30 13.04.2022
4245 Snow -3 1021 93 8000 4 80 13:36 13.04.2022
4246 Clouds -3 1020 93 3000 3 40 12:38 13.04.2022
4247 Clouds -3 1020 93 3000 5 350 11:24 13.04.2022
4248 Clouds 1 1018 51 6000 4 270 09:45 13.04.2022
4249 Clouds 1 1017 51 8000 4 260 08:43 13.04.2022
4250 Clouds 2 1017 38 10000 7 250 07:23 13.04.2022
4251 Snow 1 1017 47 10000 3 320 06:46 13.04.2022
4252 Snow 1 1017 47 10000 3 320 06:18 13.04.2022
4253 Clouds -11 1016 79 10000 1 0 00:25 13.04.2022
4254 Clear -10 1016 85 10000 1 0 23:46 12.04.2022
4255 Clear -9 1016 79 10000 0 0 22:20 12.04.2022
4256 Clear -9 1016 73 10000 1 0 21:42 12.04.2022
4257 Clear -9 1016 79 10000 2 0 20:44 12.04.2022
4258 Clear -9 1016 79 10000 2 0 19:54 12.04.2022
4259 Clear -9 1016 79 10000 2 0 19:35 12.04.2022
4260 Clouds -6 1016 73 10000 1 0 18:50 12.04.2022
4261 Clouds -5 1016 68 10000 1 0 17:36 12.04.2022
4262 Clouds -2 1017 54 10000 2 0 16:33 12.04.2022
4263 Clouds -1 1017 47 10000 1 0 15:33 12.04.2022
4264 Clouds 1 1016 32 10000 4 240 14:33 12.04.2022
4265 Clouds 3 1016 22 10000 2 0 13:39 12.04.2022
4266 Clouds 3 1016 22 10000 2 0 12:59 12.04.2022
4267 Clouds 4 1016 20 10000 1 0 11:47 12.04.2022
4268 Clouds 4 1016 20 10000 1 0 11:24 12.04.2022
4269 Clouds 3 1018 28 10000 3 160 09:25 12.04.2022
4270 Clouds 3 1018 30 10000 4 150 08:18 12.04.2022
4271 Clouds 2 1020 30 10000 3 180 06:33 12.04.2022
4272 Clouds 1 1021 29 10000 2 0 05:36 12.04.2022
4273 Clouds -11 1022 79 10000 1 0 01:47 12.04.2022
4274 Clear -10 1022 79 10000 1 0 23:19 11.04.2022
4275 Clear -8 1022 79 10000 1 0 21:50 11.04.2022
4276 Clear -8 1022 79 10000 1 0 21:18 11.04.2022
4277 Clear -10 1022 79 10000 2 0 20:30 11.04.2022
4278 Clear -8 1022 73 10000 2 0 19:57 11.04.2022
4279 Clear -8 1022 73 10000 2 0 19:22 11.04.2022
4280 Clear -8 1022 73 10000 2 0 18:49 11.04.2022
4281 Clear -8 1022 73 10000 2 0 17:57 11.04.2022
4282 Clear -8 1022 79 10000 1 0 16:57 11.04.2022
4283 Clear -6 1023 73 10000 1 0 16:20 11.04.2022
4284 Clouds -2 1022 54 10000 1 0 14:35 11.04.2022
4285 Clouds 0 1021 40 10000 6 290 12:53 11.04.2022
4286 Clouds 0 1021 40 10000 6 290 12:35 11.04.2022
4287 Clouds 1 1021 37 10000 7 270 11:37 11.04.2022
4288 Clouds 1 1021 25 10000 7 290 10:31 11.04.2022
4289 Clouds 2 1021 21 10000 2 0 09:22 11.04.2022
4290 Clouds 0 1022 40 10000 5 330 06:51 11.04.2022
4291 Clear -5 1022 74 10000 5 320 02:30 11.04.2022
4292 Clouds -4 1018 74 10000 6 340 22:38 10.04.2022
4293 Clouds -3 1018 74 10000 5 340 21:55 10.04.2022
4294 Clouds -3 1018 74 10000 5 340 21:32 10.04.2022
4295 Clouds -3 1016 80 10000 6 340 20:31 10.04.2022
4296 Clouds -2 1015 74 10000 7 340 19:45 10.04.2022
4297 Snow -2 1015 74 10000 7 340 19:22 10.04.2022
4298 Snow -2 1014 80 10000 8 350 18:42 10.04.2022
4299 Snow -2 1014 80 10000 8 350 17:54 10.04.2022
4300 Snow -2 1013 80 10000 8 340 17:34 10.04.2022
4301 Snow -2 1012 86 10000 7 340 16:22 10.04.2022
4302 Snow 0 1011 69 10000 6 360 15:19 10.04.2022
4303 Snow -1 1009 86 10000 5 20 13:58 10.04.2022
4304 Snow -1 1008 93 8000 5 40 12:34 10.04.2022
4305 Clouds -1 1008 93 3000 5 30 11:46 10.04.2022
4306 Clouds -1 1008 93 3000 5 30 11:28 10.04.2022
4307 Clouds -2 1008 93 3000 5 360 10:43 10.04.2022
4308 Clouds -1 1008 93 5000 5 20 09:50 10.04.2022
4309 Clouds -1 1008 93 5000 5 20 09:21 10.04.2022
4310 Clouds -1 1008 86 5000 5 30 08:21 10.04.2022
4311 Clouds 0 1008 64 8000 3 40 07:18 10.04.2022
4312 Clouds 0 1008 51 10000 1 0 05:19 10.04.2022
4313 Snow -3 1008 74 10000 2 0 02:20 10.04.2022
4314 Clear -5 1006 80 10000 2 0 23:54 09.04.2022
4315 Clear -5 1006 80 10000 2 0 23:29 09.04.2022
4316 Clear -4 1006 74 10000 1 0 22:39 09.04.2022
4317 Clear -5 1005 86 10000 2 0 21:31 09.04.2022
4318 Clear -4 1006 74 10000 2 0 20:35 09.04.2022
4319 Clear -4 1006 74 10000 2 0 19:59 09.04.2022
4320 Clear -4 1006 74 10000 3 330 19:41 09.04.2022
4321 Clear -2 1006 74 10000 2 0 18:26 09.04.2022
4322 Clear -1 1006 69 10000 4 350 17:52 09.04.2022
4323 Clear -1 1006 69 10000 4 350 17:18 09.04.2022
4324 Clouds 0 1005 69 10000 6 340 16:42 09.04.2022
4325 Clouds 1 1004 64 10000 6 350 15:52 09.04.2022
4326 Clouds 1 1004 64 10000 6 350 15:26 09.04.2022
4327 Clouds 3 1003 52 10000 6 360 14:26 09.04.2022
4328 Clouds 5 1001 48 10000 7 360 13:34 09.04.2022
4329 Clouds 5 1001 48 10000 7 360 12:57 09.04.2022
4330 Dust 10 997 40 5000 13 340 11:51 09.04.2022
4331 Dust 17 994 15 3000 12 280 10:52 09.04.2022
4332 Dust 17 994 15 3000 12 280 10:18 09.04.2022
4333 Dust 16 994 14 4000 13 270 09:24 09.04.2022
4334 Dust 17 994 22 3000 13 270 08:35 09.04.2022
4335 Clouds 13 996 21 10000 6 240 05:21 09.04.2022
4336 Clouds 10 997 23 10000 8 140 00:35 09.04.2022
4337 Clouds 10 998 23 10000 8 150 23:24 08.04.2022
4338 Clouds 10 999 23 10000 9 140 21:54 08.04.2022
4339 Clouds 7 1002 29 10000 2 0 20:45 08.04.2022
4340 Clouds 7 1002 29 10000 2 0 19:57 08.04.2022
4341 Clouds 5 1003 33 10000 1 0 18:59 08.04.2022
4342 Clouds 5 1004 33 10000 1 0 18:24 08.04.2022
4343 Clouds 6 1005 31 10000 1 0 17:29 08.04.2022
4344 Clouds 6 1005 31 10000 1 0 16:58 08.04.2022
4345 Clouds 6 1006 31 10000 1 0 16:31 08.04.2022
4346 Clouds 6 1006 31 10000 4 170 15:37 08.04.2022
4347 Clouds 11 1007 22 10000 3 30 14:52 08.04.2022
4348 Clouds 11 1007 22 10000 3 30 14:21 08.04.2022
4349 Clouds 11 1007 20 10000 5 280 13:36 08.04.2022
4350 Clouds 11 1007 20 10000 5 280 13:18 08.04.2022
4351 Clouds 14 1007 21 10000 5 310 11:41 08.04.2022
4352 Clouds 14 1007 23 10000 4 300 10:20 08.04.2022
4353 Clouds 14 1008 21 10000 4 300 09:20 08.04.2022
4354 Clouds 13 1009 26 10000 4 310 07:58 08.04.2022
4355 Clouds 12 1010 30 10000 5 340 06:46 08.04.2022
4356 Clear 8 1009 42 10000 1 0 03:35 08.04.2022
4357 Clear 6 1007 42 10000 6 340 00:31 08.04.2022
4358 Clear 5 1006 33 10000 2 0 23:52 07.04.2022
4359 Clear 2 1005 35 10000 2 0 22:55 07.04.2022
4360 Clear 2 1005 35 10000 2 0 22:36 07.04.2022
4361 Clear 2 1005 35 10000 2 0 22:18 07.04.2022
4362 Clear 5 1004 26 10000 0 0 21:30 07.04.2022
4363 Clear 5 1004 26 10000 0 0 20:55 07.04.2022
4364 Clouds 4 1004 26 10000 2 0 20:21 07.04.2022
4365 Clouds 12 1004 16 10000 1 0 17:43 07.04.2022
4366 Clouds 12 1004 16 10000 1 0 17:23 07.04.2022
4367 Clouds 12 1004 15 10000 5 200 16:35 07.04.2022
4368 Clouds 12 1004 15 10000 5 200 15:56 07.04.2022
4369 Clouds 14 1004 13 10000 4 230 13:59 07.04.2022
4370 Clouds 19 1004 10 10000 5 270 13:26 07.04.2022
4371 Clouds 21 1005 10 10000 7 290 12:28 07.04.2022
4372 Clouds 21 1005 9 10000 7 270 10:56 07.04.2022
4373 Clouds 20 1008 12 10000 5 230 09:34 07.04.2022
4374 Clouds 19 1009 14 10000 7 210 08:27 07.04.2022
4375 Clear 15 1011 18 10000 5 240 06:18 07.04.2022
4376 Clear 1 1014 47 10000 0 0 02:38 07.04.2022
4377 Clouds -4 1015 68 10000 1 0 00:47 07.04.2022
4378 Clouds -3 1015 63 10000 1 0 23:39 06.04.2022
4379 Clear -3 1015 59 10000 1 0 22:45 06.04.2022
4380 Clear -3 1015 59 10000 1 0 22:24 06.04.2022
4381 Clear -3 1016 54 10000 1 0 21:18 06.04.2022
4382 Clear -3 1016 54 10000 2 0 20:27 06.04.2022
4383 Clear 0 1017 51 10000 1 0 19:52 06.04.2022
4384 Clear -2 1017 50 10000 2 0 18:49 06.04.2022
4385 Clear 0 1017 40 10000 1 0 17:51 06.04.2022
4386 Clear 0 1017 40 10000 1 0 17:21 06.04.2022
4387 Clear 2 1017 41 10000 2 0 16:34 06.04.2022
4388 Clear 2 1018 35 10000 1 0 15:46 06.04.2022
4389 Clear 8 1018 27 10000 2 0 13:57 06.04.2022
4390 Clear 14 1017 18 10000 6 330 12:37 06.04.2022
4391 Clear 14 1017 19 10000 6 320 11:48 06.04.2022
4392 Clouds 14 1018 18 10000 8 330 10:42 06.04.2022
4393 Clouds 14 1018 18 10000 8 330 10:18 06.04.2022
4394 Clouds 14 1018 21 10000 6 310 09:25 06.04.2022
4395 Clouds 14 1019 21 10000 7 290 08:26 06.04.2022
4396 Clouds 10 1021 29 10000 2 0 06:45 06.04.2022
4397 Clear -8 1022 73 10000 0 0 01:44 06.04.2022
4398 Clear -9 1022 67 10000 0 0 23:50 05.04.2022
4399 Clear -7 1022 68 10000 1 0 21:59 05.04.2022
4400 Clear -7 1022 68 10000 1 0 21:18 05.04.2022
4401 Clear -4 1022 54 10000 1 0 20:24 05.04.2022
4402 Clear -7 1022 63 10000 3 160 18:53 05.04.2022
4403 Clear -7 1022 63 10000 2 0 17:30 05.04.2022
4404 Clouds -6 1021 63 10000 0 0 16:44 05.04.2022
4405 Clouds -1 1021 51 10000 1 0 15:52 05.04.2022
4406 Clouds -1 1021 51 10000 1 0 15:31 05.04.2022
4407 Clouds 4 1021 35 10000 2 0 13:59 05.04.2022
4408 Clouds 6 1021 33 10000 2 0 12:41 05.04.2022
4409 Clouds 5 1021 36 10000 3 220 11:43 05.04.2022
4410 Rain 5 1021 36 10000 3 220 11:25 05.04.2022
4411 Clouds 5 1022 33 10000 4 250 09:41 05.04.2022
4412 Rain 5 1022 28 10000 3 240 08:51 05.04.2022
4413 Clouds 1 1024 27 10000 1 0 05:28 05.04.2022
4414 Clouds -7 1024 63 10000 1 0 23:51 04.04.2022
4415 Clouds -6 1024 63 10000 1 0 22:41 04.04.2022
4416 Clouds -5 1024 58 10000 2 0 21:52 04.04.2022
4417 Clouds -5 1024 58 10000 2 0 21:21 04.04.2022
4418 Clouds -4 1024 58 10000 4 320 20:48 04.04.2022
4419 Clear -5 1024 58 10000 4 330 19:39 04.04.2022
4420 Clear -5 1024 58 10000 4 330 18:59 04.04.2022
4421 Clouds -3 1023 50 10000 4 330 17:39 04.04.2022
4422 Clouds -2 1022 46 10000 4 340 16:36 04.04.2022
4423 Clouds -1 1021 43 10000 5 360 15:34 04.04.2022
4424 Clouds 0 1020 55 10000 4 20 14:49 04.04.2022
4425 Clouds 0 1020 55 10000 4 20 14:31 04.04.2022
4426 Clouds 2 1019 48 10000 6 10 13:18 04.04.2022
4427 Clouds 6 1016 33 10000 6 20 11:29 04.04.2022
4428 Dust 8 1015 29 10000 8 350 10:49 04.04.2022
4429 Clouds 11 1013 20 10000 9 310 07:46 04.04.2022
4430 Clouds 4 1015 26 10000 1 0 03:19 04.04.2022
4431 Clear -6 1014 49 10000 0 0 00:25 04.04.2022
4432 Clear -7 1014 53 10000 2 0 22:31 03.04.2022
4433 Clear -5 1013 46 10000 0 0 21:37 03.04.2022
4434 Clear -7 1013 49 10000 2 0 20:40 03.04.2022
4435 Clear -6 1014 42 10000 0 0 19:45 03.04.2022
4436 Clouds 3 1015 35 10000 0.28 18 18:31 03.04.2022
4437 Clear -3 1013 31 10000 2 0 17:44 03.04.2022
4438 Clear 1 1013 27 10000 2 0 16:50 03.04.2022
4439 Clear 1 1013 27 10000 2 0 16:31 03.04.2022
4440 Clear 4 1012 17 10000 1 0 14:32 03.04.2022
4441 Clouds 11 1011 12 10000 5 300 13:45 03.04.2022
4442 Clouds 13 1011 10 10000 5 280 12:21 03.04.2022
4443 Clouds 14 1011 8 10000 7 290 10:54 03.04.2022
4444 Clouds 14 1011 8 10000 5 260 09:23 03.04.2022
4445 Clouds 13 1012 8 10000 4 230 07:24 03.04.2022
4446 Clouds 4 1013 22 10000 1 0 04:18 03.04.2022
4447 Clouds 1 1015 27 10000 1.06 181 00:41 03.04.2022
4448 Clouds 1 1015 28 10000 1.26 163 22:54 02.04.2022
4449 Clouds 1 1015 28 10000 1.18 169 21:57 02.04.2022
4450 Clouds 1 1015 28 10000 1.18 169 21:36 02.04.2022
4451 Clouds 1 1015 29 10000 1.15 164 20:52 02.04.2022
4452 Clear 1 1017 30 10000 0.81 162 19:28 02.04.2022
4453 Clear -6 1015 35 10000 1 0 18:21 02.04.2022
4454 Clear -2 1015 26 10000 1 0 17:52 02.04.2022
4455 Clear -4 1015 33 10000 2 0 16:23 02.04.2022
4456 Clear -4 1015 26 10000 2 0 15:21 02.04.2022
4457 Clear 2 1015 15 10000 2 0 14:47 02.04.2022
4458 Clear 9 1015 11 10000 4 280 13:35 02.04.2022
4459 Clear 11 1015 10 10000 5 280 12:37 02.04.2022
4460 Clear 11 1016 11 10000 6 280 10:58 02.04.2022
4461 Clouds 11 1018 11 10000 4 280 08:49 02.04.2022
4462 Clouds 8 1020 14 10000 2 0 06:50 02.04.2022
4463 Clouds -2 1022 43 10000 1 0 03:45 02.04.2022
4464 Clouds -1 1026 42 10000 1.68 142 23:56 01.04.2022
4465 Clouds -1 1026 42 10000 1.81 142 23:19 01.04.2022
4466 Clear -9 1024 53 10000 1 0 21:34 01.04.2022
4467 Clouds -8 1025 53 10000 0 0 20:51 01.04.2022
4468 Clouds -8 1025 53 10000 0 0 20:25 01.04.2022
4469 Clouds -7 1026 45 10000 0 0 19:32 01.04.2022
4470 Clouds -7 1026 45 10000 1 0 18:45 01.04.2022
4471 Clouds -2 1027 37 10000 1 0 17:46 01.04.2022
4472 Clouds -4 1028 36 10000 2 0 16:52 01.04.2022
4473 Clouds -2 1028 34 10000 4 160 15:39 01.04.2022
4474 Clouds -1 1028 31 10000 2 0 14:21 01.04.2022
4475 Clouds 5 1029 19 10000 2 0 13:34 01.04.2022
4476 Clouds 6 1029 19 10000 5 280 12:32 01.04.2022
4477 Clouds 6 1029 19 10000 5 280 12:32 01.04.2022
4478 Clouds 7 1029 19 10000 5 280 11:40 01.04.2022
4479 Clouds 8 1030 18 10000 5 290 10:19 01.04.2022
4480 Clouds 7 1031 23 10000 7 270 08:47 01.04.2022
4481 Clear 5 1033 24 10000 3 230 06:54 01.04.2022
4482 Clear -1 1034 34 10000 1 0 04:50 01.04.2022
4483 Clear -1 1034 34 10000 1 0 04:31 01.04.2022
4484 Clear -14 1032 72 10000 1 0 01:56 01.04.2022
4485 Clear -13 1031 66 10000 2 0 22:58 31.03.2022
4486 Clear -12 1031 61 10000 2 0 21:51 31.03.2022
4487 Clear -12 1031 61 10000 2 0 21:32 31.03.2022
4488 Clouds -10 1031 57 10000 0 0 20:29 31.03.2022
4489 Clouds -8 1031 49 10000 0 0 19:49 31.03.2022
4490 Clouds -7 1031 53 10000 0 0 18:44 31.03.2022
4491 Clouds -4 1031 30 10000 1 0 17:49 31.03.2022
4492 Clouds -6 1030 35 10000 1 0 16:38 31.03.2022
4493 Clouds -5 1030 33 10000 2 0 15:43 31.03.2022
4494 Clouds -5 1030 33 10000 2 0 15:19 31.03.2022
4495 Clouds -4 1029 26 10000 2 0 14:35 31.03.2022
4496 Clouds 5 1029 11 10000 2 0 11:57 31.03.2022
4497 Clouds 6 1029 10 10000 3 210 11:20 31.03.2022
4498 Clouds 5 1030 8 10000 3 160 09:44 31.03.2022
4499 Clouds 4 1032 9 10000 4 170 07:55 31.03.2022
4500 Clouds -5 1034 33 10000 1 0 04:46 31.03.2022
4501 Clear -17 1033 71 10000 1 0 23:43 30.03.2022
4502 Clear -9 1042 54 10000 1.53 120 22:32 30.03.2022
4503 Clear -16 1032 66 10000 1 0 21:38 30.03.2022
4504 Clear -16 1032 72 10000 2 0 20:53 30.03.2022
4505 Clear -16 1032 72 10000 2 0 19:59 30.03.2022
4506 Clear -14 1031 66 10000 1 0 18:59 30.03.2022
4507 Clear -14 1031 66 10000 1 0 18:18 30.03.2022
4508 Clear -14 1031 66 10000 2 0 17:44 30.03.2022
4509 Clear -12 1031 56 10000 1 0 16:54 30.03.2022
4510 Clear -12 1031 56 10000 1 0 16:31 30.03.2022
4511 Clear -10 1031 48 10000 1 0 14:56 30.03.2022
4512 Clear -2 1029 26 10000 6 330 13:35 30.03.2022
4513 Clear 0 1028 19 10000 8 340 12:42 30.03.2022
4514 Clouds 0 1027 21 10000 9 330 10:55 30.03.2022
4515 Clouds 1 1027 19 10000 9 330 09:58 30.03.2022
4516 Clouds 1 1027 19 10000 9 320 08:57 30.03.2022
4517 Clouds 0 1027 29 10000 7 340 07:31 30.03.2022
4518 Clouds -2 1026 37 10000 6 340 05:40 30.03.2022
4519 Clouds -4 1025 68 10000 3 350 03:31 30.03.2022
4520 Clouds -4 1021 50 10000 3 20 23:42 29.03.2022
4521 Clouds -5 1020 58 10000 2 0 22:19 29.03.2022
4522 Clouds -5 1020 58 10000 2 0 21:41 29.03.2022
4523 Clouds -5 1020 54 10000 2 0 20:44 29.03.2022
4524 Clouds -5 1019 50 10000 1 0 19:45 29.03.2022
4525 Clouds -4 1019 50 10000 0 0 18:54 29.03.2022
4526 Clouds -4 1019 50 10000 0 0 18:18 29.03.2022
4527 Clouds -4 1019 46 10000 2 0 17:20 29.03.2022
4528 Clouds -3 1019 39 10000 1 0 16:55 29.03.2022
4529 Clouds -2 1018 37 10000 1 0 15:47 29.03.2022
4530 Clouds 0 1017 32 10000 1 0 14:44 29.03.2022
4531 Clouds 2 1017 25 10000 5 290 13:41 29.03.2022
4532 Clouds 3 1016 25 10000 6 300 12:46 29.03.2022
4533 Clouds 3 1016 22 10000 3 290 11:27 29.03.2022
4534 Clouds 3 1017 22 10000 4 270 10:23 29.03.2022
4535 Clouds 3 1017 20 10000 6 270 09:20 29.03.2022
4536 Clouds 0 1019 21 10000 2 0 06:54 29.03.2022
4537 Clouds -7 1019 42 10000 1 0 03:19 29.03.2022
4538 Clear -15 1016 66 10000 2 0 23:46 28.03.2022
4539 Clear -15 1016 66 10000 2 0 22:58 28.03.2022
4540 Clear -15 1015 66 10000 2 0 22:35 28.03.2022
4541 Clear -15 1015 66 10000 2 0 21:48 28.03.2022
4542 Clear -13 1015 61 10000 2 0 20:41 28.03.2022
4543 Clear -13 1015 61 10000 2 0 19:59 28.03.2022
4544 Clear -10 1014 52 10000 2 0 19:40 28.03.2022
4545 Clear -10 1013 52 10000 3 320 18:51 28.03.2022
4546 Clear -6 1013 38 10000 2 0 17:41 28.03.2022
4547 Clear -6 1013 38 10000 2 0 16:58 28.03.2022
4548 Clear -4 1010 39 10000 5 340 15:35 28.03.2022
4549 Clear -2 1009 34 10000 6 330 14:24 28.03.2022
4550 Clear 1 1007 27 10000 6 340 13:19 28.03.2022
4551 Clear 3 1005 28 10000 8 340 11:53 28.03.2022
4552 Clouds 2 1005 30 10000 7 340 10:35 28.03.2022
4553 Clouds 2 1005 27 10000 8 330 09:21 28.03.2022
4554 Clouds 2 1004 27 10000 7 340 08:40 28.03.2022
4555 Clouds 2 1004 27 10000 7 340 08:20 28.03.2022
4556 Rain 2 1004 27 10000 8 330 06:55 28.03.2022
4557 Clouds -6 1003 42 10000 2 0 02:44 28.03.2022
4558 Clouds -9 1003 45 10000 1 0 22:38 27.03.2022
4559 Clouds -10 1004 48 10000 0 0 21:48 27.03.2022
4560 Clouds -10 1004 48 10000 0 0 21:28 27.03.2022
4561 Clear -10 1004 44 10000 0 0 20:41 27.03.2022
4562 Clear -10 1004 41 10000 1 0 19:37 27.03.2022
4563 Clear -11 1005 40 10000 1 0 18:45 27.03.2022
4564 Clear -11 1005 40 10000 1 0 18:23 27.03.2022
4565 Clear -5 1005 28 10000 2 0 17:36 27.03.2022
4566 Clear -5 1005 28 10000 4 160 15:51 27.03.2022
4567 Clear 4 1005 11 10000 3 240 13:59 27.03.2022
4568 Clear 4 1005 11 10000 3 240 13:21 27.03.2022
4569 Clouds 6 1006 11 10000 5 280 11:35 27.03.2022
4570 Clouds 7 1007 11 10000 6 230 09:37 27.03.2022
4571 Clouds 4 1009 12 10000 5 240 07:39 27.03.2022
4572 Clear -6 1011 30 10000 1 0 04:24 27.03.2022
4573 Clear -8 1020 35 10000 0.96 136 00:26 27.03.2022
4574 Clear -8 1021 33 10000 0.82 147 22:52 26.03.2022
4575 Clear -8 1021 31 10000 0.78 160 21:57 26.03.2022
4576 Clear -14 1013 43 10000 0 0 21:30 26.03.2022
4577 Clear -11 1014 31 10000 1 0 19:38 26.03.2022
4578 Clear -13 1014 33 10000 1 0 18:44 26.03.2022
4579 Clear -12 1014 31 10000 1 0 17:41 26.03.2022
4580 Clear -9 1015 27 10000 2 0 16:40 26.03.2022
4581 Clear -11 1016 28 10000 3 190 15:42 26.03.2022
4582 Clear -9 1016 24 10000 4 210 13:56 26.03.2022
4583 Clear -6 1016 19 10000 3 240 13:36 26.03.2022
4584 Clear -2 1016 16 10000 5 260 12:18 26.03.2022
4585 Clear 0 1017 9 10000 7 280 10:48 26.03.2022
4586 Clouds 0 1018 14 10000 9 300 08:50 26.03.2022
4587 Clouds 0 1018 18 10000 8 320 06:56 26.03.2022
4588 Clouds -3 1019 31 10000 3 310 05:31 26.03.2022
4589 Clouds -8 1019 45 10000 1 0 02:24 26.03.2022
4590 Clouds -14 1015 51 10000 1 0 22:30 25.03.2022
4591 Clouds -16 1015 55 10000 1 0 20:58 25.03.2022
4592 Clouds -15 1014 56 10000 1 0 20:26 25.03.2022
4593 Clouds -14 1014 51 10000 0 0 19:19 25.03.2022
4594 Clouds -14 1013 47 10000 0 0 18:35 25.03.2022
4595 Clear -15 1013 43 10000 0 0 17:30 25.03.2022
4596 Clouds -14 1013 43 10000 2 0 16:27 25.03.2022
4597 Clouds -13 1013 36 10000 2 0 15:34 25.03.2022
4598 Clouds -6 1012 21 10000 2 0 13:29 25.03.2022
4599 Clouds -2 1010 16 10000 7 310 11:21 25.03.2022
4600 Clouds 0 1010 12 10000 7 280 09:37 25.03.2022
4601 Clouds -1 1010 17 10000 9 310 08:50 25.03.2022
4602 Clouds -2 1011 22 10000 9 310 07:42 25.03.2022
4603 Clouds -2 1011 22 10000 9 310 06:59 25.03.2022
4604 Clouds -10 1012 73 10000 0 0 02:37 25.03.2022
4605 Clouds -14 1010 78 10000 1 0 22:59 24.03.2022
4606 Clouds -15 1010 85 10000 1 0 22:19 24.03.2022
4607 Clouds -14 1010 85 10000 1 0 20:52 24.03.2022
4608 Clouds -15 1011 85 10000 2 0 19:49 24.03.2022
4609 Clouds -13 1011 78 10000 0 0 18:44 24.03.2022
4610 Clouds -13 1010 85 10000 1 0 17:35 24.03.2022
4611 Clouds -9 1010 73 10000 2 0 16:28 24.03.2022
4612 Clouds -10 1009 79 10000 1 0 14:51 24.03.2022
4613 Clouds -10 1009 79 10000 1 0 14:22 24.03.2022
4614 Clouds -7 1009 68 10000 2 0 13:34 24.03.2022
4615 Clouds -5 1008 58 10000 5 310 12:24 24.03.2022
4616 Clouds -3 1006 54 8000 8 320 10:48 24.03.2022
4617 Clouds -4 1005 68 8000 9 320 09:27 24.03.2022
4618 Clouds -2 1004 50 10000 11 320 08:32 24.03.2022
4619 Clouds -2 999 40 10000 7 280 04:52 24.03.2022
4620 Snow -3 994 68 10000 1 0 23:59 23.03.2022
4621 Clouds -1 994 59 10000 5 260 22:18 23.03.2022
4622 Snow -3 993 39 10000 1 0 21:21 23.03.2022
4623 Snow -3 993 36 10000 2 0 19:56 23.03.2022
4624 Clouds -2 993 37 10000 1 0 19:25 23.03.2022
4625 Snow -1 995 31 10000 5 130 17:48 23.03.2022
4626 Clouds -1 995 31 10000 5 130 17:18 23.03.2022
4627 Clouds -1 996 34 10000 9 140 15:25 23.03.2022
4628 Clouds -1 996 31 10000 7 140 14:47 23.03.2022
4629 Clouds 1 997 19 10000 5 180 13:30 23.03.2022
4630 Clouds 3 1000 15 10000 3 220 10:50 23.03.2022
4631 Clouds 2 1003 17 10000 6 230 08:21 23.03.2022
4632 Clouds -1 1006 24 10000 4 240 05:50 23.03.2022
4633 Clear -10 1008 52 10000 1 0 02:28 23.03.2022
4634 Clear -18 1008 71 10000 1 0 00:26 23.03.2022
4635 Clear -17 1008 66 10000 1 0 21:40 22.03.2022
4636 Clear -16 1008 60 10000 1 0 20:59 22.03.2022
4637 Clear -16 1008 60 10000 1 0 20:18 22.03.2022
4638 Clear -12 1008 52 10000 2 0 19:26 22.03.2022
4639 Clear -12 1008 56 10000 2 0 18:46 22.03.2022
4640 Clear -11 1008 52 10000 1 0 17:43 22.03.2022
4641 Clear -12 1008 52 10000 3 170 16:39 22.03.2022
4642 Clear -12 1008 44 10000 1 0 15:41 22.03.2022
4643 Clear -12 1008 44 10000 1 0 15:19 22.03.2022
4644 Clear -6 1008 33 10000 1 0 14:42 22.03.2022
4645 Clear -4 1008 28 10000 5 290 13:42 22.03.2022
4646 Clouds 2 1007 12 10000 6 280 11:53 22.03.2022
4647 Clouds 2 1007 12 10000 7 270 10:54 22.03.2022
4648 Clouds 3 1007 13 10000 6 270 09:28 22.03.2022
4649 Clouds 2 1008 14 10000 5 330 07:30 22.03.2022
4650 Clear -6 1011 38 10000 1 0 03:57 22.03.2022
4651 Clear -17 1012 66 10000 0 0 00:50 22.03.2022
4652 Clear -14 1013 61 10000 0 0 22:48 21.03.2022
4653 Clear -13 1013 61 10000 1 0 21:30 21.03.2022
4654 Clear -11 1014 52 10000 2 0 20:44 21.03.2022
4655 Clear -11 1014 52 10000 2 0 20:23 21.03.2022
4656 Clear -10 1014 44 10000 3 150 19:45 21.03.2022
4657 Clear -6 1015 33 10000 2 0 18:48 21.03.2022
4658 Clear -7 1016 38 10000 2 0 17:36 21.03.2022
4659 Clear -7 1016 38 10000 2 0 16:59 21.03.2022
4660 Clear -5 1015 33 10000 6 160 16:27 21.03.2022
4661 Clear -6 1016 38 10000 7 150 15:43 21.03.2022
4662 Clear -10 1016 34 10000 4 170 14:36 21.03.2022
4663 Clear -9 1016 29 10000 3 200 13:20 21.03.2022
4664 Clear -3 1016 18 10000 3 220 11:58 21.03.2022
4665 Clear 0 1017 18 10000 3 210 11:25 21.03.2022
4666 Clear -1 1018 21 10000 4 230 09:49 21.03.2022
4667 Clear -1 1020 21 10000 4 230 07:39 21.03.2022
4668 Clouds -2 1021 24 10000 3 240 06:18 21.03.2022
4669 Clear -18 1022 78 8000 0 0 01:42 21.03.2022
4670 Clear -20 1021 77 10000 1 0 22:57 20.03.2022
4671 Clear -20 1021 77 10000 1 0 22:25 20.03.2022
4672 Clear -19 1020 71 10000 1 0 21:38 20.03.2022
4673 Clear -18 1020 71 10000 1 0 20:55 20.03.2022
4674 Clear -18 1020 71 10000 1 0 20:29 20.03.2022
4675 Clear -18 1020 71 10000 2 0 19:49 20.03.2022
4676 Clear -18 1020 71 10000 2 0 19:19 20.03.2022
4677 Clear -17 1019 71 10000 3 160 17:44 20.03.2022
4678 Clear -17 1019 71 10000 3 160 17:24 20.03.2022
4679 Clear -16 1018 72 10000 2 0 16:35 20.03.2022
4680 Clear -11 1017 57 10000 0 0 14:42 20.03.2022
4681 Clouds -7 1017 45 10000 2 0 13:38 20.03.2022
4682 Clouds -6 1016 42 10000 2 0 12:19 20.03.2022
4683 Clouds -4 1015 46 10000 4 180 09:59 20.03.2022
4684 Clouds -3 1015 36 10000 4 240 08:21 20.03.2022
4685 Clouds -5 1017 33 10000 2 0 06:37 20.03.2022
4686 Clear -10 1018 62 10000 2 0 03:18 20.03.2022
4687 Clear -20 1018 77 10000 2 0 00:53 20.03.2022
4688 Clear -20 1018 77 10000 2 0 00:28 20.03.2022
4689 Clear -20 1016 84 10000 3 180 22:25 19.03.2022
4690 Clear -17 1016 78 10000 2 0 21:26 19.03.2022
4691 Clear -17 1016 78 10000 2 0 21:26 19.03.2022
4692 Clear -16 1016 72 10000 1 0 19:29 19.03.2022
4693 Clear -15 1015 78 10000 2 0 18:38 19.03.2022
4694 Clear -15 1015 78 10000 2 0 17:49 19.03.2022
4695 Clear -15 1015 78 10000 2 0 16:57 19.03.2022
4696 Clear -10 1014 67 10000 5 360 15:29 19.03.2022
4697 Clear -9 1012 62 10000 6 330 13:49 19.03.2022
4698 Clear -9 1012 62 10000 6 330 12:56 19.03.2022
4699 Clear -7 1010 49 10000 8 330 12:36 19.03.2022
4700 Clear -5 1010 30 10000 8 330 11:45 19.03.2022
4701 Clouds -2 1008 31 10000 9 340 09:23 19.03.2022
4702 Clouds -7 1009 79 5000 3 50 05:44 19.03.2022
4703 Clouds -10 1010 62 8000 1 0 02:33 19.03.2022
4704 Clouds -13 1011 66 10000 1 0 23:52 18.03.2022
4705 Clouds -13 1011 61 10000 1 0 22:58 18.03.2022
4706 Clouds -13 1011 61 10000 1 0 22:21 18.03.2022
4707 Clouds -13 1013 56 10000 1 0 20:26 18.03.2022
4708 Clouds -12 1013 48 10000 2 0 19:25 18.03.2022
4709 Clouds -12 1013 48 10000 2 0 18:58 18.03.2022
4710 Clear -15 1014 56 10000 1 0 16:56 18.03.2022
4711 Clear -15 1015 56 10000 2 0 16:24 18.03.2022
4712 Clear -9 1015 38 10000 1 0 14:29 18.03.2022
4713 Clear -8 1015 32 10000 3 270 13:40 18.03.2022
4714 Clouds -4 1015 26 10000 3 290 11:37 18.03.2022
4715 Clouds -4 1016 24 10000 4 320 10:27 18.03.2022
4716 Clouds -3 1016 26 10000 4 330 08:46 18.03.2022
4717 Clear -4 1017 26 10000 4 340 06:59 18.03.2022
4718 Clear -5 1017 33 10000 6 300 04:55 18.03.2022
4719 Clear -14 1016 72 10000 1 0 01:38 18.03.2022
4720 Clear -17 1015 78 10000 1 0 23:59 17.03.2022
4721 Clear -18 1015 78 10000 0 0 22:50 17.03.2022
4722 Clear -18 1015 78 10000 0 0 22:19 17.03.2022
4723 Clear -13 1014 66 10000 0 0 21:30 17.03.2022
4724 Snow -10 1014 62 10000 1 0 20:54 17.03.2022
4725 Snow -10 1014 62 10000 1 0 20:20 17.03.2022
4726 Snow -12 1014 67 10000 0 0 19:38 17.03.2022
4727 Snow -10 1014 62 10000 2 0 18:53 17.03.2022
4728 Snow -7 1013 58 10000 2 0 17:40 17.03.2022
4729 Clouds -7 1013 58 10000 3 10 16:20 17.03.2022
4730 Clouds -6 1013 58 10000 3 10 15:43 17.03.2022
4731 Clouds -6 1013 58 10000 3 10 14:59 17.03.2022
4732 Clouds -5 1013 68 10000 4 330 13:47 17.03.2022
4733 Clouds -5 1012 63 10000 3 350 12:47 17.03.2022
4734 Clouds -4 1011 54 10000 1 0 11:36 17.03.2022
4735 Clouds -4 1012 58 10000 1 0 10:44 17.03.2022
4736 Clouds -4 1011 50 10000 1 0 09:37 17.03.2022
4737 Clouds -3 1012 46 10000 1 0 08:19 17.03.2022
4738 Clouds -6 1013 58 10000 6 140 05:51 17.03.2022
4739 Clouds -7 1014 63 6000 6 140 04:40 17.03.2022
4740 Clouds -12 1015 72 6000 2 0 00:27 17.03.2022
4741 Clouds -13 1016 61 10000 2 0 22:56 16.03.2022
4742 Clouds -13 1016 61 10000 2 0 22:36 16.03.2022
4743 Clouds -16 1017 66 10000 2 0 21:56 16.03.2022
4744 Clouds -13 1017 61 10000 1 0 20:40 16.03.2022
4745 Clouds -10 1018 48 10000 2 0 19:23 16.03.2022
4746 Clear -11 1019 52 10000 1 0 18:42 16.03.2022
4747 Clear -11 1019 52 10000 4 150 17:49 16.03.2022
4748 Clear -11 1019 52 10000 4 150 17:31 16.03.2022
4749 Clear -11 1020 48 10000 5 150 16:21 16.03.2022
4750 Clear -11 1020 52 10000 5 170 14:50 16.03.2022
4751 Clear -10 1020 37 10000 4 200 13:36 16.03.2022
4752 Clear -10 1020 37 10000 4 200 12:55 16.03.2022
4753 Clear -6 1020 23 10000 2 0 11:23 16.03.2022
4754 Clear -6 1021 19 10000 3 230 10:32 16.03.2022
4755 Clear -6 1021 19 10000 3 230 09:56 16.03.2022
4756 Clear -8 1023 23 10000 4 230 07:43 16.03.2022
4757 Clear -18 1026 65 10000 1 0 02:45 16.03.2022
4758 Clear -25 1024 70 10000 1 0 22:55 15.03.2022
4759 Clear -25 1024 77 10000 1 0 22:35 15.03.2022
4760 Clear -19 1023 71 10000 1 0 20:59 15.03.2022
4761 Clear -20 1023 71 10000 2 0 19:39 15.03.2022
4762 Clear -17 1021 66 10000 4 330 17:46 15.03.2022
4763 Clear -16 1020 60 10000 4 340 16:38 15.03.2022
4764 Clear -15 1020 61 10000 5 350 15:38 15.03.2022
4765 Clear -14 1019 61 10000 6 350 14:54 15.03.2022
4766 Clear -14 1019 61 10000 6 350 13:56 15.03.2022
4767 Clouds -13 1018 56 10000 4 350 13:22 15.03.2022
4768 Clear -10 1015 52 10000 8 340 11:33 15.03.2022
4769 Clouds -8 1014 45 10000 8 340 10:27 15.03.2022
4770 Clouds -7 1013 45 10000 9 350 09:24 15.03.2022
4771 Clouds -6 1013 45 10000 8 340 08:24 15.03.2022
4772 Clouds -8 1013 53 10000 5 350 07:36 15.03.2022
4773 Clouds -10 1012 57 10000 4 320 05:56 15.03.2022
4774 Clouds -14 1010 78 10000 1 0 00:31 15.03.2022
4775 Clear -14 1009 78 10000 4 330 23:29 14.03.2022
4776 Clear -13 1009 78 10000 4 340 22:50 14.03.2022
4777 Clouds -13 1009 78 10000 4 340 21:53 14.03.2022
4778 Clouds -13 1009 78 10000 4 340 20:55 14.03.2022
4779 Clouds -12 1009 72 10000 3 360 20:24 14.03.2022
4780 Clouds -11 1009 73 10000 3 10 19:24 14.03.2022
4781 Clouds -10 1008 73 10000 6 330 17:57 14.03.2022
4782 Clouds -9 1008 73 10000 4 330 17:39 14.03.2022
4783 Clouds -9 1006 79 10000 4 300 16:29 14.03.2022
4784 Clouds -7 1004 73 10000 4 350 14:47 14.03.2022
4785 Clouds -6 1003 73 10000 7 340 13:29 14.03.2022
4786 Clouds -2 1002 59 10000 4 310 11:26 14.03.2022
4787 Clouds 2 1001 38 10000 5 340 09:57 14.03.2022
4788 Clouds 4 1000 33 10000 4 320 09:34 14.03.2022
4789 Clouds 5 1000 28 10000 7 300 08:57 14.03.2022
4790 Clouds 5 1000 28 10000 7 300 08:26 14.03.2022
4791 Clear 5 1001 28 10000 3 230 06:19 14.03.2022
4792 Clouds 1 1003 44 10000 6 140 02:59 14.03.2022
4793 Clouds -9 1006 86 8000 0 0 01:39 14.03.2022
4794 Clouds -12 1007 85 10000 0 0 23:41 13.03.2022
4795 Clear -12 1009 85 10000 2 0 21:46 13.03.2022
4796 Clear -12 1009 85 10000 2 0 21:21 13.03.2022
4797 Clear -13 1010 85 10000 1 0 20:46 13.03.2022
4798 Clear -13 1010 85 10000 1 0 20:21 13.03.2022
4799 Clear -11 1011 85 10000 1 0 19:41 13.03.2022
4800 Clear -11 1011 85 10000 1 0 19:21 13.03.2022
4801 Clouds -11 1011 92 10000 1 0 18:41 13.03.2022
4802 Clouds -11 1011 92 10000 1 0 18:22 13.03.2022
4803 Clouds -9 1011 86 10000 0 0 17:36 13.03.2022
4804 Clouds -9 1011 86 10000 1 0 16:44 13.03.2022
4805 Clouds -9 1011 86 10000 1 0 16:21 13.03.2022
4806 Clouds -4 1012 80 10000 0 0 15:36 13.03.2022
4807 Clouds -4 1011 86 10000 1 0 14:36 13.03.2022
4808 Clouds -3 1010 80 10000 2 0 13:27 13.03.2022
4809 Clouds -1 1010 69 10000 4 300 12:21 13.03.2022
4810 Clouds 0 1010 59 10000 3 230 11:36 13.03.2022
4811 Snow 0 1009 64 8000 3 250 10:49 13.03.2022
4812 Snow 0 1009 64 8000 3 250 10:25 13.03.2022
4813 Snow 0 1008 55 10000 1 0 09:41 13.03.2022
4814 Snow 0 1008 59 10000 2 0 08:49 13.03.2022
4815 Snow 0 1008 59 10000 2 0 08:21 13.03.2022
4816 Clouds -1 1008 59 10000 1 0 05:59 13.03.2022
4817 Snow -5 1008 80 4000 1 0 03:33 13.03.2022
4818 Snow -6 1008 79 10000 2 0 00:48 13.03.2022
4819 Snow -6 1008 79 10000 1 0 22:48 12.03.2022
4820 Snow -5 1009 74 10000 3 30 20:59 12.03.2022
4821 Clouds -5 1010 63 10000 1 0 19:58 12.03.2022
4822 Clouds -5 1010 63 10000 1 0 19:39 12.03.2022
4823 Clouds -5 1010 46 10000 2 0 18:31 12.03.2022
4824 Clouds -5 1010 46 10000 1 0 17:46 12.03.2022
4825 Clouds -4 1010 46 10000 2 0 16:25 12.03.2022
4826 Clouds -6 1010 49 10000 1 0 15:24 12.03.2022
4827 Clouds -6 1011 49 10000 3 180 14:52 12.03.2022
4828 Clouds -6 1011 45 10000 2 0 13:53 12.03.2022
4829 Clouds -6 1011 45 10000 2 0 13:53 12.03.2022
4830 Clouds -5 1010 42 10000 2 0 12:25 12.03.2022
4831 Clouds -3 1010 36 10000 1 0 11:51 12.03.2022
4832 Clouds -3 1010 36 10000 1 0 11:20 12.03.2022
4833 Clouds -2 1010 34 10000 1 0 09:58 12.03.2022
4834 Clouds -2 1012 34 10000 2 0 09:39 12.03.2022
4835 Clear -4 1012 36 10000 6 290 07:51 12.03.2022
4836 Clear -7 1013 53 10000 5 290 05:20 12.03.2022
4837 Clouds -14 1013 78 10000 3 300 00:24 12.03.2022
4838 Clouds -13 1013 72 10000 2 0 23:28 11.03.2022
4839 Clouds -11 1011 79 10000 5 320 21:48 11.03.2022
4840 Clouds -11 1011 79 10000 5 320 20:58 11.03.2022
4841 Clear -10 1010 79 10000 5 320 20:37 11.03.2022
4842 Clear -9 1009 73 10000 1 0 19:54 11.03.2022
4843 Clear -9 1009 73 10000 1 0 19:27 11.03.2022
4844 Clouds -5 1007 68 10000 2 0 17:37 11.03.2022
4845 Clouds -5 1007 68 10000 2 0 17:18 11.03.2022
4846 Clouds 0 1005 51 10000 7 330 15:57 11.03.2022
4847 Clouds 2 1004 55 10000 1 0 14:22 11.03.2022
4848 Clouds 1 1002 32 10000 1 0 12:53 11.03.2022
4849 Clouds 1 1002 32 10000 1 0 12:21 11.03.2022
4850 Clouds 7 1001 19 10000 2 0 11:55 11.03.2022
4851 Clouds 8 1002 19 10000 5 230 10:18 11.03.2022
4852 Clouds 6 1003 21 10000 8 160 08:57 11.03.2022
4853 Clouds 6 1003 21 10000 8 160 08:24 11.03.2022
4854 Clouds 4 1005 22 10000 8 170 07:46 11.03.2022
4855 Clouds 3 1009 23 10000 6 170 05:49 11.03.2022
4856 Dust 2 1010 25 10000 13 140 03:49 11.03.2022
4857 Clouds -8 1013 57 10000 1 0 23:46 10.03.2022
4858 Clear -10 1014 73 10000 2 0 22:31 10.03.2022
4859 Clear -10 1015 67 10000 1 0 21:47 10.03.2022
4860 Clear -10 1015 67 10000 1 0 21:19 10.03.2022
4861 Clear -10 1017 73 10000 0 0 19:45 10.03.2022
4862 Clear -13 1017 85 10000 1 0 18:53 10.03.2022
4863 Clear -9 1018 73 10000 1 0 17:36 10.03.2022
4864 Clear -10 1018 73 10000 1 0 15:55 10.03.2022
4865 Clear -9 1018 67 10000 1 0 14:48 10.03.2022
4866 Clear -3 1018 46 10000 2 0 13:21 10.03.2022
4867 Clear 0 1017 32 10000 2 0 11:58 10.03.2022
4868 Clear 4 1017 22 10000 6 280 10:53 10.03.2022
4869 Clouds 5 1016 19 10000 6 310 09:18 10.03.2022
4870 Clouds 4 1017 24 10000 4 320 07:33 10.03.2022
4871 Clear -1 1017 40 8000 1 0 04:19 10.03.2022
4872 Clear -14 1016 78 10000 2 0 01:46 10.03.2022
4873 Clear -12 1015 72 10000 1 0 23:18 09.03.2022
4874 Clear -11 1014 73 10000 0 0 21:49 09.03.2022
4875 Clear -11 1014 73 10000 0 0 21:27 09.03.2022
4876 Clear -11 1013 73 10000 1 0 19:43 09.03.2022
4877 Clear -9 1012 67 10000 0 0 18:33 09.03.2022
4878 Clear -10 1012 67 10000 1 0 17:27 09.03.2022
4879 Clear -10 1012 67 10000 1 0 17:26 09.03.2022
4880 Clear -5 1012 54 10000 1 0 16:31 09.03.2022
4881 Clear -7 1012 58 10000 3 160 14:59 09.03.2022
4882 Clear -3 1011 39 10000 1 0 13:53 09.03.2022
4883 Clear 3 1010 20 10000 2 0 12:45 09.03.2022
4884 Clear 5 1010 16 10000 5 340 11:53 09.03.2022
4885 Clear 5 1010 16 10000 5 340 11:35 09.03.2022
4886 Clear 7 1010 14 10000 6 340 09:50 09.03.2022
4887 Clear 8 1009 17 10000 6 330 08:49 09.03.2022
4888 Clear 8 1009 13 10000 8 310 07:27 09.03.2022
4889 Clear -3 1009 63 10000 1 0 02:42 09.03.2022
4890 Clear -9 1007 79 10000 1 0 00:28 09.03.2022
4891 Clear -9 1006 73 10000 1 0 22:47 08.03.2022
4892 Clear -9 1006 73 10000 1 0 21:55 08.03.2022
4893 Clear -8 1006 73 10000 0 0 21:22 08.03.2022
4894 Clear -8 1006 73 10000 1 0 20:24 08.03.2022
4895 Clear -5 1006 58 10000 2 0 19:30 08.03.2022
4896 Clear 0 1006 40 10000 0 0 18:41 08.03.2022
4897 Clouds 3 1007 32 10000 1 0 16:59 08.03.2022
4898 Clouds 6 1007 26 10000 4 180 15:19 08.03.2022
4899 Clouds 7 1007 26 10000 8 160 14:18 08.03.2022
4900 Clouds 8 1008 25 10000 7 180 12:41 08.03.2022
4901 Clouds 9 1008 21 10000 6 170 11:44 08.03.2022
4902 Clouds 10 1009 20 10000 6 180 10:37 08.03.2022
4903 Clouds 9 1009 23 10000 5 160 08:58 08.03.2022
4904 Clear 10 1011 23 10000 7 170 06:34 08.03.2022
4905 Clear 0 1013 40 10000 1 0 04:25 08.03.2022
4906 Clear -12 1013 79 10000 1 0 22:57 07.03.2022
4907 Clear -10 1023 80 10000 1.78 78 21:46 07.03.2022
4908 Clear -10 1022 81 10000 1.43 74 21:27 07.03.2022
4909 Clear -9 1012 73 10000 1 0 20:38 07.03.2022
4910 Clear -10 1011 79 10000 0 0 19:50 07.03.2022
4911 Clear -10 1011 79 10000 0 0 19:24 07.03.2022
4912 Clear -8 1011 73 10000 1 0 18:38 07.03.2022
4913 Clear -7 1010 68 10000 1 0 17:33 07.03.2022
4914 Clear -7 1010 68 10000 1 0 16:55 07.03.2022
4915 Clear -3 1010 59 10000 2 0 14:57 07.03.2022
4916 Clear 2 1007 30 10000 2 0 12:35 07.03.2022
4917 Clouds -6 1016 80 10000 0.17 28 11:36 07.03.2022
4918 Clear 7 1006 21 10000 3 210 10:34 07.03.2022
4919 Clear 6 1006 21 10000 3 230 08:35 07.03.2022
4920 Clouds -7 1009 53 8000 1 0 02:56 07.03.2022
4921 Clouds -14 1010 78 8000 1 0 00:21 07.03.2022
4922 Clear -16 1009 78 10000 1 0 23:26 06.03.2022
4923 Clear -16 1010 85 10000 1 0 22:29 06.03.2022
4924 Clear -15 1010 72 10000 1 0 21:44 06.03.2022
4925 Clear -13 1011 72 10000 1 0 20:29 06.03.2022
4926 Clear -12 1012 72 10000 1 0 19:43 06.03.2022
4927 Clear -12 1012 72 10000 1 0 18:50 06.03.2022
4928 Clear -10 1013 67 10000 1 0 17:49 06.03.2022
4929 Clear -10 1013 67 10000 1 0 17:20 06.03.2022
4930 Clear -10 1014 67 10000 1 0 16:40 06.03.2022
4931 Clear -7 1014 58 10000 2 0 15:31 06.03.2022
4932 Clear -7 1014 63 10000 4 160 14:42 06.03.2022
4933 Clear -7 1014 63 10000 4 160 13:49 06.03.2022
4934 Clear -3 1014 43 10000 3 230 12:40 06.03.2022
4935 Clear -12 1025 93 10000 0.89 143 11:46 06.03.2022
4936 Clear 1 1013 27 10000 5 290 10:43 06.03.2022
4937 Clear 1 1013 27 10000 5 280 09:21 06.03.2022
4938 Clear 2 1013 25 10000 6 270 08:28 06.03.2022
4939 Clear 1 1013 27 10000 5 260 07:26 06.03.2022
4940 Clouds -14 1011 72 8000 0 0 02:45 06.03.2022
4941 Snow -17 1009 78 10000 1 0 00:36 06.03.2022
4942 Clear -17 1009 78 10000 1 0 00:18 06.03.2022
4943 Clear -16 1008 72 10000 1 0 23:19 05.03.2022
4944 Clouds -15 1008 72 7000 1 170 22:34 05.03.2022
4945 Clear -14 1007 72 10000 1 0 21:29 05.03.2022
4946 Clear -15 1007 72 10000 1 0 20:38 05.03.2022
4947 Clear -13 1007 66 10000 1 0 19:22 05.03.2022
4948 Clear -13 1007 66 10000 1 0 18:39 05.03.2022
4949 Clear -11 1007 67 10000 2 0 17:34 05.03.2022
4950 Clear -10 1007 62 10000 1 0 16:19 05.03.2022
4951 Clear -5 1007 39 10000 0 0 15:20 05.03.2022
4952 Clouds -4 1007 39 10000 1 0 14:36 05.03.2022
4953 Clouds -5 1007 50 10000 4 170 13:42 05.03.2022
4954 Clouds -1 1007 40 10000 2 0 12:40 05.03.2022
4955 Clouds 1 1007 27 10000 3 170 11:20 05.03.2022
4956 Clouds 2 1008 25 10000 5 180 10:52 05.03.2022
4957 Clouds 1 1008 25 10000 6 170 09:33 05.03.2022
4958 Clouds 0 1010 25 10000 6 180 08:28 05.03.2022
4959 Clouds -1 1011 29 10000 7 190 07:21 05.03.2022
4960 Clouds -6 1013 35 8000 1 0 05:25 05.03.2022
4961 Clear -25 1015 77 10000 1 0 00:33 05.03.2022
4962 Clear -24 1016 70 10000 1 0 22:45 04.03.2022
4963 Clear -24 1016 70 10000 1 0 22:25 04.03.2022
4964 Clear -22 1016 71 10000 0 0 21:43 04.03.2022
4965 Clear -23 1016 70 10000 1 0 20:39 04.03.2022
4966 Clear -23 1016 70 10000 1 0 19:37 04.03.2022
4967 Clear -23 1016 70 10000 1 0 18:54 04.03.2022
4968 Clear -22 1016 64 10000 1 0 18:33 04.03.2022
4969 Clear -21 1016 71 10000 2 0 17:29 04.03.2022
4970 Clear -17 1016 60 10000 1 0 15:54 04.03.2022
4971 Clear -17 1016 60 10000 1 0 15:24 04.03.2022
4972 Clear -17 1016 66 10000 2 0 13:35 04.03.2022
4973 Clear -11 1015 44 10000 4 270 12:38 04.03.2022
4974 Clear -8 1015 35 10000 6 270 11:37 04.03.2022
4975 Clear -7 1014 35 10000 6 260 10:24 04.03.2022
4976 Clear -7 1014 35 10000 5 280 09:27 04.03.2022
4977 Clear -8 1013 38 10000 7 280 07:48 04.03.2022
4978 Clouds -10 1014 48 10000 6 280 05:49 04.03.2022
4979 Clouds -18 1013 60 10000 2 0 01:23 04.03.2022
4980 Clouds -16 1012 66 10000 1 0 23:31 03.03.2022
4981 Clouds -15 1012 66 10000 1 0 22:18 03.03.2022
4982 Clouds -14 1013 66 10000 1 0 21:36 03.03.2022
4983 Clouds -13 1013 78 10000 3 270 20:44 03.03.2022
4984 Clouds -14 1013 85 10000 1 0 19:22 03.03.2022
4985 Snow -14 1012 66 10000 4 320 18:25 03.03.2022
4986 Snow -18 1012 71 10000 0 0 17:31 03.03.2022
4987 Snow -15 1011 66 10000 4 290 16:41 03.03.2022
4988 Clouds -14 1010 66 10000 4 320 15:44 03.03.2022
4989 Clouds -12 1008 67 10000 2 0 14:44 03.03.2022
4990 Clouds -12 1008 67 10000 2 0 14:25 03.03.2022
4991 Clouds -9 1005 67 10000 7 340 12:33 03.03.2022
4992 Clouds -8 1004 67 10000 6 330 11:23 03.03.2022
4993 Clouds -6 1003 53 10000 8 330 10:21 03.03.2022
4994 Clouds -2 1001 46 10000 10 310 08:42 03.03.2022
4995 Clouds -1 1000 34 10000 8 330 06:57 03.03.2022
4996 Clouds -3 1000 39 10000 4 260 05:37 03.03.2022
4997 Clouds -16 1000 78 8000 2 0 23:57 02.03.2022
4998 Clear -15 1000 72 10000 1 0 23:00 02.03.2022
4999 Clear -15 1001 78 10000 1 0 22:40 02.03.2022
5000 Clear -17 1001 78 10000 1 0 21:22 02.03.2022
5001 Clear -17 1002 78 10000 1 0 20:26 02.03.2022
5002 Clear -17 1003 71 10000 1 0 19:41 02.03.2022
5003 Clear -17 1003 71 10000 1 0 19:23 02.03.2022
5004 Clear -17 1003 71 10000 3 160 18:35 02.03.2022
5005 Clear -15 1003 72 10000 1 0 17:42 02.03.2022
5006 Clear -13 1004 72 10000 1 0 16:53 02.03.2022
5007 Clear -13 1004 72 10000 1 0 16:18 02.03.2022
5008 Clear -11 1004 67 10000 3 150 14:32 02.03.2022
5009 Clear -9 1005 62 10000 2 0 12:58 02.03.2022
5010 Clear -7 1004 63 10000 3 150 12:35 02.03.2022
5011 Clear 0 1004 32 10000 2 0 11:28 02.03.2022
5012 Clouds 1 1005 23 10000 4 200 10:50 02.03.2022
5013 Clouds 1 1006 27 10000 5 220 09:37 02.03.2022
5014 Clouds 1 1007 29 10000 5 210 08:36 02.03.2022
5015 Clouds -1 1008 37 10000 3 260 07:23 02.03.2022
5016 Clouds -6 1010 45 8000 1 0 05:42 02.03.2022
5017 Clear -22 1011 77 10000 1 0 00:40 02.03.2022
5018 Clear -22 1011 77 10000 1 0 23:35 01.03.2022
5019 Clear -21 1011 71 10000 1 0 22:40 01.03.2022
5020 Clear -21 1011 77 10000 2 0 21:53 01.03.2022
5021 Clear -20 1011 71 10000 1 0 20:41 01.03.2022
5022 Clear -20 1011 71 10000 1 0 20:20 01.03.2022
5023 Clear -20 1011 71 10000 1 0 18:58 01.03.2022
5024 Clear -15 1011 72 10000 1 0 18:25 01.03.2022
5025 Clear -17 1011 66 10000 1 0 17:54 01.03.2022
5026 Clear -17 1011 71 10000 2 0 16:37 01.03.2022
5027 Clear -16 1011 72 10000 3 170 15:48 01.03.2022
5028 Clear -14 1011 72 10000 3 170 14:54 01.03.2022
5029 Clear -14 1011 72 10000 3 170 14:31 01.03.2022
5030 Clear -11 1010 57 10000 1 0 13:26 01.03.2022
5031 Clear -5 1010 39 10000 3 310 12:38 01.03.2022
5032 Clouds -14 1023 85 10000 1.08 307 11:38 01.03.2022
5033 Clear 0 1009 27 10000 5 260 09:53 01.03.2022
5034 Clear -1 1009 29 10000 7 270 08:31 01.03.2022
5035 Clouds -1 1009 29 10000 6 260 07:32 01.03.2022
5036 Clouds -13 1012 66 8000 1 0 03:27 01.03.2022
5037 Clear -23 1012 70 10000 1 0 00:49 01.03.2022
5038 Clear -24 1012 77 10000 2 0 23:47 28.02.2022
5039 Clear -23 1013 77 10000 2 0 22:50 28.02.2022
5040 Clear -21 1014 77 10000 1 0 21:48 28.02.2022
5041 Clear -21 1015 77 10000 1 0 20:56 28.02.2022
5042 Clear -20 1015 84 10000 1 0 19:51 28.02.2022
5043 Clear -20 1015 84 10000 1 0 19:22 28.02.2022
5044 Clear -17 1016 71 10000 1 0 18:35 28.02.2022
5045 Clear -14 1017 72 10000 1 0 17:23 28.02.2022
5046 Clear -14 1017 72 10000 4 180 16:32 28.02.2022
5047 Clear -14 1019 72 10000 4 170 15:21 28.02.2022
5048 Clear -16 1019 72 10000 3 180 14:29 28.02.2022
5049 Clear -13 1020 66 10000 4 170 13:24 28.02.2022
5050 Clear -11 1020 62 10000 3 190 12:31 28.02.2022
5051 Clear -7 1020 49 10000 4 250 11:37 28.02.2022
5052 Clear -6 1020 42 10000 3 260 10:24 28.02.2022
5053 Clear -6 1021 42 10000 4 280 09:59 28.02.2022
5054 Clear -6 1021 42 10000 4 280 09:27 28.02.2022
5055 Clear -7 1021 42 10000 4 280 08:26 28.02.2022
5056 Clear -9 1022 57 10000 3 230 06:53 28.02.2022
5057 Clouds -12 1023 67 10000 4 220 04:31 28.02.2022
5058 Clouds -17 1022 85 10000 1 0 02:41 28.02.2022
5059 Clear -23 1021 77 10000 3 160 23:19 27.02.2022
5060 Clear -24 1020 77 10000 3 170 22:33 27.02.2022
5061 Clear -24 1021 77 10000 2 0 21:47 27.02.2022
5062 Clear -24 1021 77 10000 2 0 20:54 27.02.2022
5063 Clear -19 1021 78 10000 1 0 20:27 27.02.2022
5064 Clear -19 1021 78 10000 1 0 19:56 27.02.2022
5065 Clear -17 1021 78 10000 2 0 19:26 27.02.2022
5066 Clear -12 1020 67 10000 4 360 18:39 27.02.2022
5067 Clouds -11 1020 67 10000 4 350 17:53 27.02.2022
5068 Clouds -10 1020 67 10000 5 340 16:36 27.02.2022
5069 Clouds -9 1019 62 10000 6 350 15:42 27.02.2022
5070 Clouds -7 1016 68 10000 4 360 12:53 27.02.2022
5071 Clouds -7 1016 68 10000 4 360 12:29 27.02.2022
5072 Snow -5 1014 63 10000 7 340 10:50 27.02.2022
5073 Snow -5 1014 63 10000 7 340 09:58 27.02.2022
5074 Clouds -4 1013 58 10000 6 350 09:27 27.02.2022
5075 Clouds -4 1013 58 10000 6 350 08:59 27.02.2022
5076 Snow -5 1013 54 8000 1 0 06:43 27.02.2022
5077 Snow -8 1013 62 8000 1 0 05:35 27.02.2022
5078 Clouds -18 1012 78 8000 0 0 00:37 27.02.2022
5079 Clear -19 1011 78 10000 1 0 22:51 26.02.2022
5080 Clear -19 1011 78 10000 1 0 21:38 26.02.2022
5081 Clear -20 1012 77 10000 1 0 20:48 26.02.2022
5082 Clear -20 1011 77 10000 2 0 19:59 26.02.2022
5083 Clear -20 1011 77 10000 2 0 19:59 26.02.2022
5084 Clear -20 1011 77 10000 2 0 19:34 26.02.2022
5085 Clear -20 1011 77 10000 2 0 18:46 26.02.2022
5086 Clear -18 1011 78 10000 2 0 17:40 26.02.2022
5087 Clear -18 1011 78 10000 1 0 16:48 26.02.2022
5088 Clear -17 1011 71 10000 2 0 15:48 26.02.2022
5089 Clear -17 1011 71 10000 2 0 15:20 26.02.2022
5090 Clear -14 1011 72 10000 2 0 14:52 26.02.2022
5091 Clear -14 1011 72 10000 2 0 14:25 26.02.2022
5092 Clear -13 1011 72 10000 1 0 13:18 26.02.2022
5093 Clear -10 1011 67 10000 3 170 12:20 26.02.2022
5094 Clear -4 1011 54 10000 2 0 11:28 26.02.2022
5095 Clear -3 1012 50 10000 3 160 10:39 26.02.2022
5096 Clear -4 1013 50 10000 3 220 08:48 26.02.2022
5097 Clouds -7 1015 53 8000 2 0 06:51 26.02.2022
5098 Clouds -21 1016 77 8000 0 0 00:50 26.02.2022
5099 Clouds -23 1017 77 8000 0 0 22:47 25.02.2022
5100 Clouds -22 1017 77 8000 1 0 21:40 25.02.2022
5101 Clouds -22 1017 77 8000 1 0 21:21 25.02.2022
5102 Clouds -21 1018 84 10000 1 0 20:32 25.02.2022
5103 Clear -22 1018 77 10000 0 0 18:59 25.02.2022
5104 Clear -20 1019 84 10000 2 0 17:27 25.02.2022
5105 Clear -20 1020 77 10000 3 170 16:24 25.02.2022
5106 Clear -20 1020 77 10000 2 0 15:43 25.02.2022
5107 Clear -20 1020 77 10000 2 0 15:21 25.02.2022
5108 Clear -19 1020 78 10000 1 0 14:42 25.02.2022
5109 Clear -13 1020 85 10000 1 0 13:36 25.02.2022
5110 Clear -13 1020 85 10000 1 0 12:56 25.02.2022
5111 Clouds -7 1020 68 10000 5 290 11:28 25.02.2022
5112 Clouds -6 1020 58 10000 5 330 10:40 25.02.2022
5113 Clouds -6 1020 58 10000 5 330 10:22 25.02.2022
5114 Clouds -7 1020 63 10000 4 320 09:18 25.02.2022
5115 Clouds -5 1020 42 10000 6 320 07:41 25.02.2022
5116 Clear -6 1021 58 10000 2 0 05:49 25.02.2022
5117 Clear -8 1021 62 10000 1 0 04:41 25.02.2022
5118 Clouds -18 1020 78 8000 1 0 00:22 25.02.2022
5119 Clouds -16 1018 78 10000 2 0 21:58 24.02.2022
5120 Clouds -16 1018 78 10000 2 0 21:58 24.02.2022
5121 Clouds -16 1018 78 10000 2 0 21:39 24.02.2022
5122 Clouds -16 1018 78 10000 2 0 21:19 24.02.2022
5123 Clouds -18 1018 71 10000 3 170 19:42 24.02.2022
5124 Clouds -18 1017 78 10000 2 0 18:44 24.02.2022
5125 Clouds -18 1017 78 10000 2 0 18:19 24.02.2022
5126 Clouds -17 1018 78 10000 3 170 17:34 24.02.2022
5127 Clouds -16 1017 78 10000 3 190 16:50 24.02.2022
5128 Clouds -16 1017 78 10000 3 190 16:24 24.02.2022
5129 Clouds -18 1017 78 10000 2 0 14:56 24.02.2022
5130 Clouds -13 1016 61 10000 1 0 14:36 24.02.2022
5131 Clouds -14 1016 66 10000 2 0 13:40 24.02.2022
5132 Clouds -11 1015 62 10000 1 0 12:54 24.02.2022
5133 Clear -5 1015 54 10000 3 200 10:41 24.02.2022
5134 Clear -4 1015 46 10000 3 220 09:24 24.02.2022
5135 Clear -5 1015 50 10000 4 200 08:41 24.02.2022
5136 Clouds -10 1017 52 8000 1 0 05:58 24.02.2022
5137 Clear -22 1017 77 6000 1 0 01:58 24.02.2022
5138 Clear -26 1017 76 8000 1 0 23:40 23.02.2022
5139 Clear -24 1018 77 10000 1 0 21:43 23.02.2022
5140 Clear -25 1018 77 10000 1 0 20:31 23.02.2022
5141 Clear -25 1019 77 10000 0 0 19:48 23.02.2022
5142 Clear -24 1019 77 10000 1 0 18:42 23.02.2022
5143 Clear -22 1019 77 10000 1 0 17:44 23.02.2022
5144 Clear -22 1020 71 10000 2 0 15:26 23.02.2022
5145 Clear -17 1021 71 10000 2 0 13:28 23.02.2022
5146 Clear -15 1020 72 10000 3 160 12:24 23.02.2022
5147 Clear -5 1020 42 10000 2 0 10:44 23.02.2022
5148 Clear -6 1021 49 10000 2 0 09:00 23.02.2022
5149 Clear -6 1021 42 10000 3 240 08:23 23.02.2022
5150 Clear -7 1022 49 10000 1 0 07:18 23.02.2022
5151 Clear -28 1024 69 8000 1 0 01:21 23.02.2022
5152 Clear -27 1023 69 8000 1 0 23:39 22.02.2022
5153 Clear -26 1023 64 8000 1 0 22:51 22.02.2022
5154 Clear -27 1024 69 10000 1 0 21:56 22.02.2022
5155 Clear -27 1024 69 10000 1 0 21:37 22.02.2022
5156 Clear -27 1024 69 10000 1 0 21:18 22.02.2022
5157 Clear -27 1024 69 10000 1 0 20:31 22.02.2022
5158 Clear -27 1024 76 10000 1 0 19:51 22.02.2022
5159 Clear -27 1024 76 10000 1 0 19:31 22.02.2022
5160 Clear -26 1024 76 10000 1 0 18:23 22.02.2022
5161 Clear -26 1024 76 10000 1 0 17:26 22.02.2022
5162 Clear -25 1025 77 10000 1 0 16:41 22.02.2022
5163 Clear -22 1025 84 10000 2 0 15:59 22.02.2022
5164 Clear -22 1025 77 10000 2 0 14:48 22.02.2022
5165 Clear -18 1025 78 10000 3 170 12:48 22.02.2022
5166 Clear -10 1025 62 10000 3 210 10:53 22.02.2022
5167 Clear -9 1026 62 10000 2 0 08:53 22.02.2022
5168 Clouds -11 1027 62 8000 2 0 07:27 22.02.2022
5169 Clouds -12 1027 61 8000 1 0 06:52 22.02.2022
5170 Clear -25 1029 70 6000 0 0 02:47 22.02.2022
5171 Clear -29 1029 69 10000 1 0 23:18 21.02.2022
5172 Clear -28 1030 69 10000 2 0 21:56 21.02.2022
5173 Clear -27 1030 76 10000 1 0 20:38 21.02.2022
5174 Clear -27 1030 69 10000 1 0 18:47 21.02.2022
5175 Clear -26 1030 70 10000 2 0 17:41 21.02.2022
5176 Clear -26 1030 70 10000 2 0 17:41 21.02.2022
5177 Clear -25 1030 70 10000 3 160 15:26 21.02.2022
5178 Clear -25 1030 70 10000 2 0 14:22 21.02.2022
5179 Clear -20 1030 71 10000 2 0 13:30 21.02.2022
5180 Clear -15 1030 66 10000 2 0 12:24 21.02.2022
5181 Clear -13 1029 61 10000 2 0 11:20 21.02.2022
5182 Clear -12 1029 61 10000 5 320 10:23 21.02.2022
5183 Clear -14 1029 72 10000 5 310 05:35 21.02.2022
5184 Clouds -26 1026 70 10000 1 0 00:20 21.02.2022
5185 Clouds -26 1025 70 10000 1 0 22:28 20.02.2022
5186 Clouds -26 1024 76 10000 0 0 21:43 20.02.2022
5187 Clouds -26 1024 76 10000 0 0 21:19 20.02.2022
5188 Clouds -19 1024 84 10000 1 0 20:41 20.02.2022
5189 Clouds -20 1024 77 10000 0 0 19:42 20.02.2022
5190 Clouds -19 1024 78 10000 1 0 18:54 20.02.2022
5191 Clouds -19 1024 78 10000 1 0 18:34 20.02.2022
5192 Clouds -19 1024 78 10000 2 0 17:52 20.02.2022
5193 Clouds -18 1023 78 10000 2 0 15:54 20.02.2022
5194 Clouds -15 1023 78 10000 3 320 14:52 20.02.2022
5195 Clouds -16 1023 78 10000 1 0 13:33 20.02.2022
5196 Clouds -16 1022 78 10000 3 310 12:34 20.02.2022
5197 Snow -13 1022 78 6000 5 330 10:47 20.02.2022
5198 Clouds -13 1022 78 6000 5 330 10:20 20.02.2022
5199 Clouds -12 1022 72 5000 4 310 08:51 20.02.2022
5200 Clear -28 1022 69 10000 0 0 00:55 20.02.2022
5201 Clear -28 1022 69 10000 0 0 00:30 20.02.2022
5202 Clear -29 1022 69 10000 0 0 23:18 19.02.2022
5203 Clear -29 1022 69 10000 0 0 22:23 19.02.2022
5204 Clear -29 1022 69 10000 1 0 21:34 19.02.2022
5205 Clear -28 1022 69 10000 2 0 19:54 19.02.2022
5206 Clear -28 1022 69 10000 2 0 19:33 19.02.2022
5207 Clear -29 1023 69 10000 2 0 18:35 19.02.2022
5208 Clear -30 1023 69 10000 1 0 17:37 19.02.2022
5209 Clear -29 1023 69 10000 2 0 16:28 19.02.2022
5210 Clear -28 1022 69 10000 1 0 15:18 19.02.2022
5211 Clear -25 1022 70 10000 3 160 14:49 19.02.2022
5212 Clear -23 1022 64 10000 2 0 13:45 19.02.2022
5213 Clear -15 1021 47 10000 3 260 11:38 19.02.2022
5214 Clear -13 1021 40 10000 5 260 09:57 19.02.2022
5215 Clouds -16 1024 51 8000 3 220 06:58 19.02.2022
5216 Smoke -21 1025 71 5000 0 0 03:54 19.02.2022
5217 Clouds -33 1025 68 8000 1 0 23:33 18.02.2022
5218 Clear -32 1026 68 10000 1 0 21:50 18.02.2022
5219 Clear -29 1027 76 10000 1 0 20:51 18.02.2022
5220 Clear -29 1027 69 10000 1 0 19:53 18.02.2022
5221 Clear -30 1027 69 10000 1 0 18:50 18.02.2022
5222 Clear -30 1027 69 10000 1 0 18:22 18.02.2022
5223 Clear -29 1027 69 10000 2 0 17:50 18.02.2022
5224 Clear -28 1028 69 10000 3 170 14:50 18.02.2022
5225 Clear -28 1028 69 10000 3 170 13:55 18.02.2022
5226 Clear -27 1028 69 10000 1 0 12:53 18.02.2022
5227 Clear -18 1028 55 10000 1 0 12:32 18.02.2022
5228 Clear -16 1027 51 10000 3 340 11:27 18.02.2022
5229 Clouds -14 1027 47 10000 4 320 10:23 18.02.2022
5230 Clouds -17 1028 60 10000 5 240 06:56 18.02.2022
5231 Clear -18 1028 60 10000 2 0 05:39 18.02.2022
5232 Clear -32 1026 68 10000 1 0 23:24 17.02.2022
5233 Clear -31 1025 69 10000 1 0 21:45 17.02.2022
5234 Clear -31 1025 69 10000 1 0 21:19 17.02.2022
5235 Clear -30 1025 69 10000 2 0 20:36 17.02.2022
5236 Clear -30 1025 69 10000 2 0 19:48 17.02.2022
5237 Clear -30 1024 69 10000 2 0 18:41 17.02.2022
5238 Clear -24 1023 70 10000 0 0 17:50 17.02.2022
5239 Clear -23 1023 70 10000 3 280 16:25 17.02.2022
5240 Clouds -21 1022 71 10000 1 0 15:30 17.02.2022
5241 Clouds -18 1021 60 10000 4 350 14:25 17.02.2022
5242 Clouds -17 1020 66 10000 6 340 12:35 17.02.2022
5243 Clouds -17 1018 66 10000 8 340 11:21 17.02.2022
5244 Clouds -15 1016 56 10000 9 340 08:45 17.02.2022
5245 Clouds -26 1011 76 10000 1 0 00:31 17.02.2022
5246 Clouds -25 1010 77 10000 1 0 22:59 16.02.2022
5247 Clouds -22 1010 84 10000 1 0 21:25 16.02.2022
5248 Clouds -18 1010 85 10000 1 0 19:43 16.02.2022
5249 Clouds -17 1010 78 10000 1 0 18:36 16.02.2022
5250 -273 0 0 0 0 0 17:41 16.02.2022
5251 -273 0 0 0 0 0 17:37 16.02.2022
5252 Clouds -14 1011 66 10000 1 0 15:30 16.02.2022
5253 Clouds -17 1010 66 10000 1 0 14:57 16.02.2022
5254 Clouds -12 1010 56 10000 1 0 12:34 16.02.2022
5255 Clouds -11 1010 52 10000 5 130 11:53 16.02.2022
5256 Clouds -11 1010 52 10000 5 130 11:23 16.02.2022
5257 Clouds -11 1011 52 10000 6 140 10:29 16.02.2022
5258 Clouds -15 1013 47 8000 1 0 06:57 16.02.2022
5259 Clouds -21 1015 65 8000 0 0 04:42 16.02.2022
5260 Clouds -32 1016 68 8000 1 0 23:35 15.02.2022
5261 Clouds -32 1016 62 8000 1 0 22:18 15.02.2022
5262 Clouds -30 1017 69 8000 0 0 21:45 15.02.2022
5263 Clouds -30 1017 69 8000 0 0 21:26 15.02.2022
5264 Clear -32 1017 68 10000 0 0 20:53 15.02.2022
5265 Clear -32 1017 62 10000 1 0 19:48 15.02.2022
5266 Clear -33 1017 68 10000 1 0 18:45 15.02.2022
5267 Clear -33 1017 68 10000 1 0 18:19 15.02.2022
5268 Clear -31 1017 69 10000 1 0 17:47 15.02.2022
5269 Clear -30 1017 69 10000 2 0 16:30 15.02.2022
5270 Clear -29 1017 63 10000 2 0 14:47 15.02.2022
5271 Clear -25 1017 64 10000 2 0 13:26 15.02.2022
5272 Clear -23 1017 64 10000 2 0 11:54 15.02.2022
5273 Clear -18 1017 60 10000 3 230 10:57 15.02.2022
5274 Clear -17 1017 55 10000 3 230 09:25 15.02.2022
5275 Clouds -20 1018 65 8000 1 0 06:48 15.02.2022
5276 Clouds -35 1019 61 6000 1 0 00:26 15.02.2022
5277 Clear -35 1019 68 10000 1 0 22:20 14.02.2022
5278 Clear -33 1019 62 10000 1 0 21:24 14.02.2022
5279 Clear -33 1019 68 10000 2 0 20:24 14.02.2022
5280 Clear -33 1019 68 10000 1 0 19:30 14.02.2022
5281 Clear -29 1019 69 10000 1 0 18:27 14.02.2022
5282 Clear -31 1019 69 10000 2 0 17:43 14.02.2022
5283 Clear -31 1019 69 10000 2 0 17:43 14.02.2022
5284 Clear -31 1019 69 10000 2 0 17:43 14.02.2022
5285 Clear -31 1019 69 10000 2 0 17:23 14.02.2022
5286 Clouds -27 1019 69 10000 2 0 15:58 14.02.2022
5287 Clouds -22 1018 71 10000 1 0 13:40 14.02.2022
5288 Clouds -22 1018 71 10000 1 0 13:22 14.02.2022
5289 Clouds -25 1018 70 10000 2 0 12:32 14.02.2022
5290 Clouds -20 1018 65 10000 2 0 11:47 14.02.2022
5291 Clouds -17 1018 60 10000 2 0 10:25 14.02.2022
5292 Clouds -17 1017 55 10000 3 170 08:34 14.02.2022
5293 Clouds -16 1018 51 10000 4 150 07:26 14.02.2022
5294 Clouds -28 1018 69 6000 1 0 23:37 13.02.2022
5295 Clouds -28 1018 69 8000 0 0 22:41 13.02.2022
5296 Clouds -28 1018 69 8000 0 0 22:23 13.02.2022
5297 Clouds -29 1019 76 8000 1 0 21:27 13.02.2022
5298 Clouds -27 1019 69 8000 0 0 20:30 13.02.2022
5299 Clouds -29 1019 69 8000 1 0 19:24 13.02.2022
5300 Clear -31 1019 69 10000 0 0 18:42 13.02.2022
5301 Clear -33 1019 68 10000 1 0 17:52 13.02.2022
5302 Clear -30 1019 69 10000 2 0 15:54 13.02.2022
5303 Clear -30 1019 69 10000 2 0 15:54 13.02.2022
5304 Clear -28 1020 69 10000 1 0 14:57 13.02.2022
5305 Clear -28 1020 69 10000 1 0 13:59 13.02.2022
5306 Clear -26 1019 70 10000 3 170 12:49 13.02.2022
5307 Clear -22 1019 71 10000 3 180 11:24 13.02.2022
5308 Clear -19 1019 60 10000 2 0 10:28 13.02.2022
5309 Clear -19 1019 65 10000 3 190 09:36 13.02.2022
5310 Clouds -21 1020 65 6000 2 0 06:22 13.02.2022
5311 Clouds -35 1020 61 8000 0 0 00:35 13.02.2022
5312 Clouds -34 1020 68 8000 1 0 23:39 12.02.2022
5313 Clouds -34 1020 62 8000 1 0 22:33 12.02.2022
5314 Clear -33 1020 68 10000 0 0 21:19 12.02.2022
5315 Clear -33 1021 62 10000 1 0 20:32 12.02.2022
5316 Clear -30 1021 69 10000 1 0 19:21 12.02.2022
5317 Clear -31 1021 62 10000 2 0 18:50 12.02.2022
5318 Clear -31 1021 62 10000 2 0 18:32 12.02.2022
5319 Clear -31 1021 76 10000 2 0 16:55 12.02.2022
5320 Clear -30 1022 76 10000 2 0 16:25 12.02.2022
5321 Clear -29 1022 69 10000 2 0 15:49 12.02.2022
5322 Clear -30 1022 69 10000 2 0 14:30 12.02.2022
5323 Clear -22 1022 59 10000 1 0 12:55 12.02.2022
5324 Clear -18 1021 55 10000 4 260 10:36 12.02.2022
5325 Clear -16 1021 47 10000 5 300 09:39 12.02.2022
5326 Clear -17 1022 55 10000 2 0 08:48 12.02.2022
5327 Clear -19 1022 55 10000 1 0 07:50 12.02.2022
5328 Clouds -23 1024 70 6000 1 0 05:33 12.02.2022
5329 Clouds -27 1025 69 6000 0 0 03:32 12.02.2022
5330 Clear -35 1025 68 6000 1 0 02:18 12.02.2022
5331 Clear -34 1025 68 10000 2 0 22:28 11.02.2022
5332 Clear -33 1025 68 10000 2 0 21:47 11.02.2022
5333 Clear -33 1025 68 10000 2 0 20:39 11.02.2022
5334 Clear -32 1025 68 10000 1 0 19:35 11.02.2022
5335 Clear -31 1025 62 10000 2 0 18:59 11.02.2022
5336 Clear -28 1026 69 10000 1 0 17:41 11.02.2022
5337 Clear -28 1026 69 10000 1 0 17:22 11.02.2022
5338 Clear -29 1026 69 10000 2 0 15:55 11.02.2022
5339 Clear -28 1025 69 10000 2 0 14:38 11.02.2022
5340 Clear -28 1025 69 10000 2 0 14:20 11.02.2022
5341 Clear -26 1025 64 10000 1 0 13:50 11.02.2022
5342 Clear -26 1025 64 10000 1 0 13:31 11.02.2022
5343 Clear -20 1024 54 10000 4 300 11:27 11.02.2022
5344 Clear -17 1023 51 10000 7 310 09:45 11.02.2022
5345 Clear -17 1023 51 10000 7 310 08:40 11.02.2022
5346 Clear -17 1023 51 10000 7 310 08:22 11.02.2022
5347 Clear -18 1025 60 10000 4 270 06:33 11.02.2022
5348 Clear -31 1026 69 10000 3 160 02:25 11.02.2022
5349 Clear -30 1024 76 10000 1 0 00:46 11.02.2022
5350 Clear -30 1024 69 10000 2 0 22:45 10.02.2022
5351 Clear -28 1024 69 10000 2 0 21:45 10.02.2022
5352 Clear -30 1024 76 10000 1 0 20:54 10.02.2022
5353 Clear -30 1024 76 10000 1 0 20:29 10.02.2022
5354 Clear -28 1024 76 10000 1 0 19:24 10.02.2022
5355 Clouds -28 1023 69 10000 0 0 18:43 10.02.2022
5356 Clouds -22 1023 77 10000 1 0 17:26 10.02.2022
5357 Clouds -20 1022 77 10000 3 310 16:47 10.02.2022
5358 Clouds -20 1022 71 10000 2 0 15:45 10.02.2022
5359 Clouds -20 1022 71 10000 2 0 15:25 10.02.2022
5360 Clouds -19 1021 71 10000 2 0 14:44 10.02.2022
5361 Clouds -19 1021 71 10000 2 0 14:22 10.02.2022
5362 Clouds -19 1020 78 10000 2 0 13:20 10.02.2022
5363 Clouds -16 1019 66 10000 4 310 11:58 10.02.2022
5364 Clouds -16 1019 66 10000 4 310 11:32 10.02.2022
5365 Clouds -15 1018 72 10000 2 0 10:32 10.02.2022
5366 Clouds -15 1018 66 10000 3 220 09:46 10.02.2022
5367 Clouds -15 1017 66 10000 4 210 08:42 10.02.2022
5368 Clouds -16 1017 72 10000 2 0 06:42 10.02.2022
5369 Clouds -22 1017 77 8000 1 0 03:39 10.02.2022
5370 Clear -27 1015 69 10000 2 0 01:18 10.02.2022
5371 Clouds -27 1015 69 10000 3 170 00:41 10.02.2022
5372 Clouds -27 1015 69 10000 3 170 00:23 10.02.2022
5373 Clouds -26 1014 76 10000 3 160 22:57 09.02.2022
5374 Clouds -26 1014 76 10000 3 160 22:33 09.02.2022
5375 Clear -25 1014 70 10000 2 0 21:48 09.02.2022
5376 Clear -25 1014 70 10000 2 0 21:28 09.02.2022
5377 Clear -26 1014 76 10000 2 0 20:45 09.02.2022
5378 Clear -26 1014 76 10000 2 0 20:23 09.02.2022
5379 Clear -25 1014 77 10000 2 0 19:42 09.02.2022
5380 Clear -26 1014 76 10000 2 0 18:50 09.02.2022
5381 Clear -24 1013 77 10000 2 0 17:24 09.02.2022
5382 Clear -23 1013 84 10000 1 0 16:20 09.02.2022
5383 Clear -23 1013 84 10000 1 0 15:24 09.02.2022
5384 Clear -15 1012 72 10000 2 0 12:54 09.02.2022
5385 Clear -12 1011 61 10000 2 0 11:36 09.02.2022
5386 Clear -10 1010 57 10000 2 0 10:35 09.02.2022
5387 Clear -9 1010 57 10000 2 0 09:53 09.02.2022
5388 Clear -9 1010 57 10000 2 0 09:22 09.02.2022
5389 Clouds -9 1010 53 8000 2 0 08:46 09.02.2022
5390 Smoke -13 1011 56 5000 2 0 06:56 09.02.2022
5391 Smoke -18 1012 65 5000 1 0 04:36 09.02.2022
5392 Smoke -21 1012 77 5000 1 0 03:49 09.02.2022
5393 Clear -27 1011 69 10000 1 0 23:45 08.02.2022
5394 Clear -27 1011 69 10000 1 0 23:19 08.02.2022
5395 Clear -27 1011 69 10000 1 0 23:19 08.02.2022
5396 Clear -28 1012 76 10000 1 0 22:38 08.02.2022
5397 Clear -28 1012 76 10000 1 0 22:38 08.02.2022
5398 Clear -28 1012 76 10000 1 0 22:20 08.02.2022
5399 Clear -25 1012 77 10000 0 0 21:22 08.02.2022
5400 Clear -25 1012 77 10000 0 0 20:58 08.02.2022
5401 Clear -26 1012 76 10000 2 0 20:38 08.02.2022
5402 Clear -25 1012 77 10000 1 0 19:28 08.02.2022
5403 Clear -25 1013 77 10000 1 0 18:24 08.02.2022
5404 Clear -25 1013 70 10000 1 0 17:30 08.02.2022
5405 Clear -22 1013 71 10000 1 0 15:47 08.02.2022
5406 Clear -22 1013 71 10000 1 0 15:27 08.02.2022
5407 Clear -18 1013 65 10000 2 0 13:50 08.02.2022
5408 Clear -17 1013 66 10000 2 0 12:24 08.02.2022
5409 Clear -9 1012 53 10000 2 0 10:52 08.02.2022
5410 Clear -8 1012 53 10000 2 0 09:50 08.02.2022
5411 Clear -8 1012 49 10000 3 190 08:53 08.02.2022
5412 Clear -8 1012 49 10000 3 190 08:53 08.02.2022
5413 Clear -9 1013 53 6000 1 0 06:49 08.02.2022
5414 Smoke -15 1014 66 5000 1 0 04:40 08.02.2022
5415 Smoke -15 1014 66 5000 1 0 04:22 08.02.2022
5416 Smoke -20 1015 77 5000 1 0 03:36 08.02.2022
5417 Smoke -20 1015 77 5000 1 0 03:18 08.02.2022
5418 Smoke -20 1015 77 5000 1 0 02:59 08.02.2022
5419 Clear -26 1015 76 6000 1 0 02:36 08.02.2022
5420 Clear -26 1015 76 6000 1 0 02:18 08.02.2022
5421 Clear -27 1014 76 6000 1 0 01:44 08.02.2022
5422 Clouds -27 1014 76 6000 1 0 01:25 08.02.2022
5423 Clouds -27 1014 69 8000 1 0 00:55 08.02.2022
5424 Clouds -27 1014 69 8000 1 0 00:21 08.02.2022
5425 Clouds -27 1015 69 8000 1 0 23:44 07.02.2022
5426 Clouds -27 1015 69 8000 1 0 23:44 07.02.2022
5427 Clouds -27 1015 69 8000 1 0 23:18 07.02.2022
5428 Clouds -27 1015 69 8000 1 0 22:59 07.02.2022
5429 Clouds -27 1015 76 8000 1 0 22:19 07.02.2022
5430 Clouds -25 1016 77 8000 1 0 21:51 07.02.2022
5431 Clouds -25 1016 77 8000 1 0 21:27 07.02.2022
5432 Clouds -25 1017 77 8000 1 0 20:45 07.02.2022
5433 Clouds -25 1017 77 8000 1 0 20:27 07.02.2022
5434 Clouds -23 1017 70 8000 1 0 19:47 07.02.2022
5435 Clear -24 1018 77 10000 1 0 18:37 07.02.2022
5436 Clear -24 1018 77 10000 1 0 17:23 07.02.2022
5437 Clear -23 1019 70 10000 2 0 16:52 07.02.2022
5438 Clear -24 1019 77 10000 1 0 15:48 07.02.2022
5439 Clear -22 1020 77 10000 3 160 13:58 07.02.2022
5440 Clear -22 1020 77 10000 3 160 13:27 07.02.2022
5441 Clear -20 1020 71 10000 2 0 12:35 07.02.2022
5442 Clear -13 1020 61 10000 1 0 11:40 07.02.2022
5443 Clear -13 1020 61 10000 1 0 11:22 07.02.2022
5444 Clear -12 1020 61 10000 4 260 10:41 07.02.2022
5445 Clear -12 1020 61 10000 4 260 10:22 07.02.2022
5446 Clear -9 1021 48 10000 3 280 09:51 07.02.2022
5447 Clear -9 1021 48 10000 3 280 09:18 07.02.2022
5448 Clouds -11 1022 52 8000 1 0 07:44 07.02.2022
5449 Clouds -13 1023 52 8000 1 0 06:34 07.02.2022
5450 Clouds -19 1024 65 6000 1 0 04:31 07.02.2022
5451 Clouds -28 1023 76 6000 0 0 01:37 07.02.2022
5452 Clouds -29 1023 76 8000 0 0 00:20 07.02.2022
5453 Clouds -28 1023 76 8000 1 0 23:20 06.02.2022
5454 Clouds -27 1023 76 8000 1 0 22:41 06.02.2022
5455 Clouds -28 1024 76 8000 0 0 21:38 06.02.2022
5456 Clouds -28 1024 76 8000 0 0 21:20 06.02.2022
5457 Clouds -27 1024 76 8000 1 0 20:48 06.02.2022
5458 Clouds -27 1024 76 8000 1 0 20:23 06.02.2022
5459 Clear -27 1024 69 10000 1 0 19:18 06.02.2022
5460 Clear -28 1024 76 10000 1 0 18:28 06.02.2022
5461 Clear -27 1024 69 10000 0 0 17:31 06.02.2022
5462 Clear -24 1024 70 10000 1 0 16:51 06.02.2022
5463 Clear -22 1024 64 10000 1 0 15:51 06.02.2022
5464 Clear -22 1024 64 10000 1 0 15:28 06.02.2022
5465 Clouds -20 1041 89 10000 0.86 76 15:00 06.02.2022
5466 Clear -24 1024 70 10000 2 0 13:59 06.02.2022
5467 Clear -21 1024 65 10000 1 0 13:20 06.02.2022
5468 Clear -21 1024 71 10000 0 0 12:27 06.02.2022
5469 Clear -12 1024 48 10000 2 0 10:33 06.02.2022
5470 Clear -12 1024 48 10000 2 0 09:43 06.02.2022
5471 Clouds -12 1024 48 10000 3 260 08:41 06.02.2022
5472 Clouds -15 1025 61 6000 1 0 06:34 06.02.2022
5473 Smoke -17 1026 66 5000 1 0 05:28 06.02.2022
5474 Clouds -28 1027 69 8000 1 0 02:25 06.02.2022
5475 Clouds -30 1027 69 8000 1 0 00:33 06.02.2022
5476 Clear -30 1028 69 10000 1 0 23:39 05.02.2022
5477 Clear -30 1028 69 10000 1 0 21:47 05.02.2022
5478 Clear -30 1029 69 10000 1 0 20:41 05.02.2022
5479 Clear -30 1029 69 10000 1 0 20:20 05.02.2022
5480 Clear -29 1029 69 10000 1 0 19:42 05.02.2022
5481 Clear -30 1029 76 10000 1 0 18:30 05.02.2022
5482 Clear -28 1029 69 10000 0 0 17:35 05.02.2022
5483 Clear -26 1029 70 10000 0 0 15:51 05.02.2022
5484 Clear -26 1029 70 10000 0 0 15:29 05.02.2022
5485 Clear -25 1029 70 10000 3 160 13:25 05.02.2022
5486 Clear -25 1029 70 10000 3 160 13:25 05.02.2022
5487 Clear -23 1029 77 10000 2 0 12:42 05.02.2022
5488 Clear -19 1029 65 10000 3 170 11:45 05.02.2022
5489 Clear -14 1030 56 10000 2 0 10:43 05.02.2022
5490 Clear -14 1030 61 10000 3 170 09:50 05.02.2022
5491 Clear -13 1030 56 10000 3 200 08:39 05.02.2022
5492 Clear -15 1031 61 10000 2 0 06:59 05.02.2022
5493 Clear -15 1031 61 10000 2 0 06:27 05.02.2022
5494 Clouds -30 1031 69 8000 0 0 02:31 05.02.2022
5495 Clear -32 1031 75 10000 1 0 01:18 05.02.2022
5496 Clear -28 1030 69 10000 0 0 00:36 05.02.2022
5497 Clear -31 1030 69 10000 0 0 23:33 04.02.2022
5498 Clear -32 1030 68 10000 1 0 22:39 04.02.2022
5499 Clear -29 1030 69 10000 0 0 21:36 04.02.2022
5500 Clear -29 1030 69 10000 0 0 21:18 04.02.2022
5501 Clear -29 1030 69 10000 1 0 20:29 04.02.2022
5502 Clear -28 1030 69 10000 2 0 18:35 04.02.2022
5503 Clear -24 1030 70 10000 0 0 16:20 04.02.2022
5504 Clear -25 1030 77 10000 0 0 15:18 04.02.2022
5505 Clear -24 1030 77 10000 1 0 14:40 04.02.2022
5506 Clear -20 1029 71 10000 2 0 12:43 04.02.2022
5507 Clear -17 1029 66 10000 2 0 11:44 04.02.2022
5508 Clear -14 1029 61 10000 4 160 10:53 04.02.2022
5509 Clear -12 1029 56 10000 2 0 09:35 04.02.2022
5510 Clear -13 1029 61 10000 2 0 07:44 04.02.2022
5511 Clear -24 1030 70 10000 0 0 03:28 04.02.2022
5512 Clear -30 1029 69 10000 0 0 02:33 04.02.2022
5513 Clear -30 1028 69 10000 1 0 23:34 03.02.2022
5514 Clear -28 1028 69 10000 1 0 22:48 03.02.2022
5515 Clear -28 1028 69 10000 0 0 21:51 03.02.2022
5516 Clear -28 1028 69 10000 0 0 21:18 03.02.2022
5517 Clear -28 1028 69 10000 1 0 20:21 03.02.2022
5518 Clear -29 1028 69 10000 1 0 19:34 03.02.2022
5519 Clear -27 1028 69 10000 1 0 18:48 03.02.2022
5520 Clear -27 1028 69 10000 0 0 17:51 03.02.2022
5521 Clear -26 1028 76 10000 0 0 16:46 03.02.2022
5522 Clear -25 1028 77 10000 1 0 14:54 03.02.2022
5523 Clear -23 1028 70 10000 1 0 13:19 03.02.2022
5524 Clear -17 1027 71 10000 1 0 11:43 03.02.2022
5525 Clear -14 1026 66 10000 4 240 08:40 03.02.2022
5526 Clear -14 1026 61 10000 1 0 07:40 03.02.2022
5527 Clouds -32 1026 75 10000 1 0 00:34 03.02.2022
5528 Clear -31 1026 69 10000 0 0 23:45 02.02.2022
5529 Clear -32 1026 68 10000 1 0 22:36 02.02.2022
5530 Clear -32 1026 68 10000 1 0 21:37 02.02.2022
5531 Clear -30 1026 69 10000 1 0 20:56 02.02.2022
5532 Clear -30 1026 69 10000 1 0 20:00 02.02.2022
5533 Clear -29 1026 76 10000 1 0 19:41 02.02.2022
5534 Clear -29 1026 69 10000 1 0 18:53 02.02.2022
5535 Clear -29 1026 69 10000 1 0 18:22 02.02.2022
5536 Clear -29 1026 76 10000 2 0 17:20 02.02.2022
5537 Clear -29 1026 76 10000 2 0 16:47 02.02.2022
5538 Clear -27 1025 76 10000 1 0 14:18 02.02.2022
5539 Clear -20 1025 71 10000 1 0 12:26 02.02.2022
5540 Clear -18 1024 65 10000 1 0 11:37 02.02.2022
5541 Clear -16 1024 60 10000 3 270 10:38 02.02.2022
5542 Clear -18 1025 65 10000 2 0 07:42 02.02.2022
5543 Clouds -32 1026 68 8000 0 0 00:34 02.02.2022
5544 Clear -33 1026 68 10000 1 0 21:55 01.02.2022
5545 Clear -31 1027 76 10000 0 0 20:47 01.02.2022
5546 Clear -29 1026 76 10000 1 0 17:59 01.02.2022
5547 Clear -30 1026 76 10000 1 0 16:42 01.02.2022
5548 Clear -27 1025 69 10000 0 0 14:49 01.02.2022
5549 Clear -23 1025 70 10000 2 0 12:48 01.02.2022
5550 Clear -22 1024 71 10000 3 170 11:34 01.02.2022
5551 Clouds -21 1025 71 6000 1 0 05:43 01.02.2022
5552 Clear -33 1024 68 10000 1 0 23:53 31.01.2022
5553 Clear -33 1024 68 10000 1 0 23:34 31.01.2022
5554 Clear -33 1024 68 10000 1 0 23:34 31.01.2022
5555 Clear -33 1024 68 10000 1 0 22:26 31.01.2022
5556 Clear -32 1024 75 10000 0 0 21:33 31.01.2022
5557 Clear -33 1025 68 10000 1 0 20:33 31.01.2022
5558 Clear -32 1024 68 10000 1 0 19:46 31.01.2022
5559 Clear -32 1025 68 10000 1 0 18:26 31.01.2022
5560 Clear -28 1024 76 10000 1 0 17:43 31.01.2022
5561 Clear -31 1025 69 10000 1 0 16:43 31.01.2022
5562 Clear -28 1025 76 10000 1 0 15:43 31.01.2022
5563 Clear -27 1025 69 10000 1 0 14:24 31.01.2022
5564 Clear -26 1024 70 10000 2 0 12:39 31.01.2022
5565 Clear -26 1024 70 10000 2 0 11:58 31.01.2022
5566 Clear -16 1024 60 10000 1 0 10:50 31.01.2022
5567 Clear -16 1024 60 10000 1 0 10:32 31.01.2022
5568 Clear -17 1024 66 10000 4 170 09:27 31.01.2022
5569 Clear -17 1024 66 10000 2 0 08:51 31.01.2022
5570 Clear -17 1024 66 10000 2 0 08:20 31.01.2022
5571 Clouds -19 1024 71 6000 1 0 06:18 31.01.2022
5572 Clouds -33 1024 68 6000 1 0 02:18 31.01.2022
5573 Clear -30 1023 76 10000 2 0 23:18 30.01.2022
5574 Clear -29 1023 69 10000 2 0 22:29 30.01.2022
5575 Clear -28 1023 76 10000 2 0 21:42 30.01.2022
5576 Clear -28 1023 76 10000 2 0 21:19 30.01.2022
5577 Clear -28 1023 76 10000 2 0 21:19 30.01.2022
5578 Clear -28 1023 69 10000 1 0 20:47 30.01.2022
5579 Clear -28 1023 69 10000 1 0 20:28 30.01.2022
5580 Clear -26 1023 70 10000 1 0 19:52 30.01.2022
5581 Clear -26 1023 70 10000 2 0 18:43 30.01.2022
5582 Clear -26 1023 70 10000 2 0 18:20 30.01.2022
5583 Clear -27 1023 69 10000 0 0 17:22 30.01.2022
5584 Clear -25 1022 77 10000 1 0 16:40 30.01.2022
5585 Clear -25 1022 77 10000 1 0 16:22 30.01.2022
5586 Clear -22 1022 77 10000 1 0 15:50 30.01.2022
5587 Clear -22 1022 77 10000 1 0 15:31 30.01.2022
5588 Clear -19 1022 71 10000 2 0 14:46 30.01.2022
5589 Clear -18 1022 71 10000 3 290 12:47 30.01.2022
5590 Clear -18 1021 65 10000 4 330 11:58 30.01.2022
5591 Clear -16 1021 66 10000 5 340 10:36 30.01.2022
5592 Clear -15 1020 61 10000 7 330 09:51 30.01.2022
5593 Clear -15 1020 61 10000 8 320 08:55 30.01.2022
5594 Clear -15 1020 61 10000 6 310 07:28 30.01.2022
5595 Clear -29 1020 69 10000 1 0 01:56 30.01.2022
5596 Clear -28 1020 69 10000 3 170 00:34 30.01.2022
5597 Clear -29 1019 69 10000 1 0 23:20 29.01.2022
5598 Clear -29 1019 76 10000 3 150 21:50 29.01.2022
5599 Clear -29 1019 76 10000 3 150 21:24 29.01.2022
5600 Clear -28 1019 69 10000 1 0 20:32 29.01.2022
5601 Clear -27 1020 76 10000 1 0 19:34 29.01.2022
5602 Clear -27 1019 69 10000 0 0 18:52 29.01.2022
5603 Clear -27 1019 69 10000 0 0 18:23 29.01.2022
5604 Clear -25 1019 70 10000 3 180 17:29 29.01.2022
5605 Clear -25 1019 77 10000 2 0 15:57 29.01.2022
5606 Clear -23 1019 70 10000 3 170 14:23 29.01.2022
5607 Clear -23 1019 77 10000 2 0 13:42 29.01.2022
5608 Clear -23 1019 77 10000 2 0 13:23 29.01.2022
5609 Clear -20 1018 71 10000 3 180 11:49 29.01.2022
5610 Clear -20 1018 71 10000 3 180 11:24 29.01.2022
5611 Clouds -16 1018 72 6000 2 0 08:43 29.01.2022
5612 Clouds -17 1018 66 6000 0 0 06:55 29.01.2022
5613 Clouds -30 1018 69 8000 1 0 00:35 29.01.2022
5614 Clouds -30 1018 69 8000 0 0 23:51 28.01.2022
5615 Clouds -30 1019 69 8000 1 0 22:50 28.01.2022
5616 Clouds -30 1019 69 8000 1 0 22:21 28.01.2022
5617 Clouds -30 1019 69 8000 1 0 21:35 28.01.2022
5618 Clouds -29 1020 69 8000 1 0 20:29 28.01.2022
5619 Clouds -29 1020 69 8000 1 0 19:29 28.01.2022
5620 Clouds -30 1020 76 8000 0 0 18:42 28.01.2022
5621 Clear -29 1021 69 10000 1 0 16:46 28.01.2022
5622 Clear -27 1020 76 10000 0 0 15:18 28.01.2022
5623 Clear -25 1021 70 10000 2 0 13:37 28.01.2022
5624 Clear -23 1021 70 10000 2 0 12:27 28.01.2022
5625 Clear -13 1020 56 6000 1 0 10:49 28.01.2022
5626 Clear -12 1021 48 6000 1 0 09:49 28.01.2022
5627 Clear -15 1022 51 6000 1 0 07:43 28.01.2022
5628 Clear -17 1022 55 6000 1 0 06:39 28.01.2022
5629 Clear -23 1022 70 10000 3 80 03:53 28.01.2022
5630 Clear -31 1023 69 8000 1 0 02:30 28.01.2022
5631 Clear -32 1023 68 8000 1 0 01:57 28.01.2022
5632 Clear -32 1023 68 8000 1 0 01:30 28.01.2022
5633 Clear -30 1024 76 10000 1 0 22:40 27.01.2022
5634 Clear -31 1024 69 10000 0 0 21:41 27.01.2022
5635 Clear -31 1024 69 10000 0 0 21:21 27.01.2022
5636 Clear -32 1025 68 10000 0 0 20:23 27.01.2022
5637 Clear -29 1025 69 10000 1 0 18:23 27.01.2022
5638 Clear -29 1025 69 10000 0 0 17:18 27.01.2022
5639 Clear -28 1025 76 10000 2 0 14:24 27.01.2022
5640 Clear -25 1024 70 10000 1 0 12:53 27.01.2022
5641 Clear -25 1024 70 10000 1 0 12:20 27.01.2022
5642 Clear -14 1024 56 8000 1 0 09:51 27.01.2022
5643 Clear -15 1024 56 8000 1 0 08:40 27.01.2022
5644 Clear -15 1024 56 8000 1 0 07:58 27.01.2022
5645 Clear -28 1026 76 6000 1 0 03:34 27.01.2022
5646 Clear -33 1024 68 8000 1 0 00:24 27.01.2022
5647 Clear -32 1025 62 8000 0 0 22:31 26.01.2022
5648 Clear -24 1043 92 10000 1.39 84 21:44 26.01.2022
5649 Clear -24 1043 93 10000 1.41 83 20:57 26.01.2022
5650 Clear -24 1043 93 10000 1.41 83 20:33 26.01.2022
5651 Clear -31 1025 69 10000 1 0 19:49 26.01.2022
5652 Clear -31 1026 62 10000 2 0 18:52 26.01.2022
5653 Clear -31 1026 62 10000 2 0 18:24 26.01.2022
5654 Clear -31 1025 69 10000 1 0 17:34 26.01.2022
5655 Clear -31 1025 69 10000 1 0 16:56 26.01.2022
5656 Clear -31 1026 69 10000 1 0 16:23 26.01.2022
5657 Clear -30 1025 76 10000 1 0 14:54 26.01.2022
5658 Clear -27 1025 69 10000 1 0 12:22 26.01.2022
5659 Clear -17 1024 60 10000 1 0 10:52 26.01.2022
5660 Clear -17 1024 60 10000 1 0 09:55 26.01.2022
5661 Clear -17 1024 66 10000 1 0 09:36 26.01.2022
5662 Clear -19 1025 78 10000 1 0 06:42 26.01.2022
5663 Clouds -32 1024 68 8000 0 0 00:24 26.01.2022
5664 Clouds -30 1024 69 8000 0 0 23:43 25.01.2022
5665 Clouds -32 1024 68 8000 0 0 22:49 25.01.2022
5666 Clouds -32 1024 68 8000 0 0 22:19 25.01.2022
5667 Clouds -32 1024 68 10000 1 0 21:27 25.01.2022
5668 Clouds -31 1024 69 10000 1 0 20:45 25.01.2022
5669 Clouds -29 1024 76 10000 1 0 19:57 25.01.2022
5670 Clouds -29 1024 76 10000 1 0 19:28 25.01.2022
5671 Clouds -29 1024 69 8000 1 0 17:56 25.01.2022
5672 Clouds -29 1024 69 8000 1 0 17:20 25.01.2022
5673 Clouds -25 1024 77 8000 1 0 16:34 25.01.2022
5674 Clouds -27 1023 69 10000 2 0 15:39 25.01.2022
5675 Clouds -27 1023 69 10000 2 0 15:19 25.01.2022
5676 Clear -27 1023 69 10000 3 170 14:51 25.01.2022
5677 Clear -25 1022 70 10000 3 160 12:21 25.01.2022
5678 Clear -16 1021 66 10000 2 0 09:35 25.01.2022
5679 Clear -17 1021 66 10000 2 0 07:52 25.01.2022
5680 Clear -17 1021 66 10000 2 0 07:21 25.01.2022
5681 Clouds -17 1022 78 8000 0 0 05:23 25.01.2022
5682 Clouds -25 1020 77 10000 1 0 00:35 25.01.2022
5683 Clouds -29 1020 69 10000 1 0 23:36 24.01.2022
5684 Clouds -29 1020 69 10000 1 0 23:18 24.01.2022
5685 Clear -29 1020 76 10000 2 0 22:42 24.01.2022
5686 Clear -29 1020 76 10000 2 0 22:19 24.01.2022
5687 Clear -28 1020 69 10000 2 0 21:40 24.01.2022
5688 Clear -28 1020 69 10000 2 0 21:19 24.01.2022
5689 Clear -28 1020 69 10000 2 0 20:26 24.01.2022
5690 Clear -28 1020 69 10000 2 0 20:26 24.01.2022
5691 Clear -26 1020 76 10000 1 0 19:38 24.01.2022
5692 Clear -28 1020 76 10000 1 0 18:50 24.01.2022
5693 Clear -26 1020 70 10000 2 0 17:25 24.01.2022
5694 Clear -26 1019 70 10000 0 0 16:59 24.01.2022
5695 Clear -26 1019 70 10000 0 0 16:30 24.01.2022
5696 Clear -25 1019 70 10000 0 0 14:56 24.01.2022
5697 Clear -19 1018 78 10000 1 0 13:39 24.01.2022
5698 Clouds -20 1018 77 10000 2 0 12:33 24.01.2022
5699 Clouds -18 1018 78 10000 4 290 11:21 24.01.2022
5700 Clouds -16 1017 66 10000 5 310 10:18 24.01.2022
5701 Clouds -15 1017 66 10000 5 310 09:44 24.01.2022
5702 Clouds -16 1017 72 10000 3 240 07:40 24.01.2022
5703 Clouds -24 1017 77 10000 0 0 01:38 24.01.2022
5704 Clouds -25 1016 77 10000 1 0 00:50 24.01.2022
5705 Clouds -25 1016 77 10000 1 0 00:29 24.01.2022
5706 Clouds -23 1017 77 10000 1 0 22:58 23.01.2022
5707 Clouds -20 1017 77 10000 1 0 21:52 23.01.2022
5708 Clouds -20 1017 77 10000 1 0 21:27 23.01.2022
5709 Clouds -20 1017 84 10000 0 0 20:55 23.01.2022
5710 Clouds -20 1017 84 10000 0 0 20:21 23.01.2022
5711 Clouds -19 1017 78 10000 1 0 18:53 23.01.2022
5712 Clouds -19 1018 78 10000 0 0 17:56 23.01.2022
5713 Clouds -20 1018 77 8000 1 0 16:55 23.01.2022
5714 Clouds -18 1018 78 8000 1 0 15:46 23.01.2022
5715 Clouds -17 1018 85 6000 1 0 14:48 23.01.2022
5716 Clouds -17 1018 85 6000 1 0 14:18 23.01.2022
5717 Clouds -15 1017 78 8000 0 0 12:44 23.01.2022
5718 Clouds -15 1017 78 8000 0 0 12:19 23.01.2022
5719 Clouds -15 1017 78 10000 2 0 11:25 23.01.2022
5720 Clouds -13 1017 66 10000 2 0 10:57 23.01.2022
5721 Clouds -13 1017 66 10000 2 0 10:25 23.01.2022
5722 Clouds -11 1017 62 10000 4 190 09:26 23.01.2022
5723 Clouds -11 1018 67 8000 5 160 06:18 23.01.2022
5724 Clouds -12 1018 72 6000 5 130 03:20 23.01.2022
5725 Clouds -12 1018 72 6000 6 150 01:36 23.01.2022
5726 Clouds -13 1018 78 8000 5 140 00:46 23.01.2022
5727 Clouds -13 1018 66 10000 6 140 23:58 22.01.2022
5728 Clouds -13 1018 66 10000 2 0 22:49 22.01.2022
5729 Clouds -13 1018 66 10000 2 0 22:19 22.01.2022
5730 Clouds -12 1019 67 10000 1 0 20:33 22.01.2022
5731 Clouds -14 1019 78 10000 1 0 19:41 22.01.2022
5732 Clouds -15 1020 78 10000 1 0 18:37 22.01.2022
5733 Clouds -14 1020 78 10000 1 0 17:45 22.01.2022
5734 Clouds -14 1020 78 10000 1 0 17:19 22.01.2022
5735 Clouds -14 1020 78 10000 2 0 16:54 22.01.2022
5736 Clouds -14 1020 78 10000 2 0 15:45 22.01.2022
5737 Clouds -14 1019 78 10000 1 0 14:42 22.01.2022
5738 Clouds -15 1020 85 10000 1 0 13:28 22.01.2022
5739 Clouds -11 1019 73 10000 2 0 12:37 22.01.2022
5740 Clouds -11 1019 73 10000 2 0 12:19 22.01.2022
5741 Clouds -9 1019 67 8000 2 0 10:54 22.01.2022
5742 Clouds -9 1019 67 8000 2 0 10:23 22.01.2022
5743 Clouds -8 1019 62 6000 1 0 08:56 22.01.2022
5744 Clouds -8 1019 62 6000 1 0 08:38 22.01.2022
5745 Clouds -11 1020 67 6000 0 0 06:46 22.01.2022
5746 Clouds -23 1021 84 8000 1 0 02:39 22.01.2022
5747 Clouds -23 1020 70 8000 1 0 23:50 21.01.2022
5748 Clouds -23 1020 70 8000 1 0 23:20 21.01.2022
5749 Clouds -24 1020 77 10000 1 0 21:18 21.01.2022
5750 Clear -24 1020 77 10000 0 0 19:35 21.01.2022
5751 Clear -24 1020 77 10000 1 0 17:51 21.01.2022
5752 Clear -23 1020 77 10000 1 0 15:56 21.01.2022
5753 Clear -22 1020 77 10000 1 0 14:58 21.01.2022
5754 Clear -18 1020 78 10000 1 0 12:43 21.01.2022
5755 Clouds -18 1020 78 8000 2 0 11:29 21.01.2022
5756 Clouds -11 1020 67 8000 1 0 10:33 21.01.2022
5757 Clouds -10 1020 62 8000 1 0 08:59 21.01.2022
5758 Clouds -12 1020 67 6000 2 0 07:58 21.01.2022
5759 Clouds -24 1021 84 6000 0 0 01:51 21.01.2022
5760 Clear -25 1020 77 10000 1 0 22:47 20.01.2022
5761 Clear -23 1020 77 10000 0 0 21:49 20.01.2022
5762 Clear -23 1020 77 10000 0 0 21:25 20.01.2022
5763 Clear -22 1020 77 10000 0 0 19:54 20.01.2022
5764 Clear -22 1020 77 10000 0 0 19:18 20.01.2022
5765 Clear -21 1020 84 10000 1 0 17:37 20.01.2022
5766 Clear -21 1019 77 10000 2 0 16:19 20.01.2022
5767 Clear -21 1019 77 10000 2 0 15:29 20.01.2022
5768 Clear -18 1018 78 10000 2 0 14:19 20.01.2022
5769 Clear -17 1018 78 10000 3 160 12:49 20.01.2022
5770 Clear -17 1018 78 10000 3 160 12:29 20.01.2022
5771 Clear -14 1018 72 10000 3 170 11:19 20.01.2022
5772 Clouds -7 1017 58 8000 1 0 09:50 20.01.2022
5773 Clouds -7 1017 53 8000 1 0 08:45 20.01.2022
5774 Clouds -10 1018 62 6000 1 0 06:57 20.01.2022
5775 Clear -20 1017 77 10000 0 0 00:40 20.01.2022
5776 Clear -20 1017 84 10000 0 0 22:38 19.01.2022
5777 Clear -18 1017 85 10000 1 0 21:34 19.01.2022
5778 Clear -17 1017 78 10000 2 0 20:56 19.01.2022
5779 Clear -17 1017 78 10000 2 0 20:30 19.01.2022
5780 Clouds -13 1017 72 10000 2 0 18:52 19.01.2022
5781 Clouds -13 1017 72 10000 1 0 17:51 19.01.2022
5782 Clouds -13 1017 72 10000 1 0 17:18 19.01.2022
5783 Clouds -13 1017 72 10000 1 0 17:18 19.01.2022
5784 Clouds -13 1017 72 10000 1 0 17:18 19.01.2022
5785 Clouds -13 1017 72 10000 1 0 17:18 19.01.2022
5786 Clouds -14 1017 78 10000 1 0 15:32 19.01.2022
5787 Clouds -11 1018 67 10000 1 0 13:25 19.01.2022
5788 Clouds -9 1017 62 10000 3 160 11:58 19.01.2022
5789 Clouds -9 1017 62 10000 3 160 11:38 19.01.2022
5790 Clear -6 1017 58 10000 4 150 09:35 19.01.2022
5791 Clear -6 1017 58 10000 4 160 08:33 19.01.2022
5792 Clouds -9 1019 62 8000 0 0 05:20 19.01.2022
5793 Clouds -20 1018 77 8000 1 0 00:21 19.01.2022
5794 Clouds -21 1019 84 8000 1 0 23:18 18.01.2022
5795 Clouds -21 1019 84 8000 1 0 23:18 18.01.2022
5796 Clouds -18 1019 85 8000 1 0 21:45 18.01.2022
5797 Clouds -20 1019 84 10000 1 0 20:34 18.01.2022
5798 Clouds -19 1019 84 10000 1 0 19:49 18.01.2022
5799 Clouds -19 1019 84 10000 1 0 19:31 18.01.2022
5800 Clouds -18 1020 78 10000 1 0 18:19 18.01.2022
5801 Clouds -18 1020 78 10000 1 0 17:32 18.01.2022
5802 Clouds -17 1020 78 10000 0 0 16:20 18.01.2022
5803 Clouds -16 1020 72 10000 1 0 15:25 18.01.2022
5804 Clouds -17 1020 71 10000 1 0 14:22 18.01.2022
5805 Clouds -14 1020 78 10000 2 0 11:37 18.01.2022
5806 Clouds -8 1020 57 10000 0 0 10:25 18.01.2022
5807 Clouds -7 1020 53 10000 1 0 08:29 18.01.2022
5808 Clouds -8 1020 53 8000 1 0 07:43 18.01.2022
5809 Clear -24 1019 77 8000 0 0 00:39 18.01.2022
5810 Clear -24 1018 77 10000 1 0 22:40 17.01.2022
5811 Clear -24 1018 70 10000 1 0 21:44 17.01.2022
5812 Clear -24 1018 70 10000 1 0 21:24 17.01.2022
5813 Clear -23 1017 77 10000 1 0 18:51 17.01.2022
5814 Clear -23 1017 77 10000 1 0 18:25 17.01.2022
5815 Clear -22 1016 77 10000 0 0 17:22 17.01.2022
5816 Clear -20 1016 71 10000 1 0 15:58 17.01.2022
5817 Clouds -16 1016 66 10000 1 0 14:58 17.01.2022
5818 Clouds -20 1016 71 10000 1 0 14:31 17.01.2022
5819 Clear -18 1015 71 10000 1 0 13:18 17.01.2022
5820 Clear -18 1015 71 10000 1 0 13:18 17.01.2022
5821 Clear -19 1015 71 10000 1 0 12:22 17.01.2022
5822 Clouds -12 1015 56 8000 1 0 10:53 17.01.2022
5823 Clouds -10 1015 48 8000 1 0 09:46 17.01.2022
5824 Clouds -11 1015 52 8000 1 0 08:44 17.01.2022
5825 Clear -12 1016 52 8000 1 0 07:20 17.01.2022
5826 Clouds -18 1032 73 10000 1.52 85 00:59 17.01.2022
5827 Clear -18 1033 74 10000 1.31 99 23:33 16.01.2022
5828 Clear -29 1022 69 10000 1 0 20:51 16.01.2022
5829 Clear -30 1023 69 10000 1 0 19:56 16.01.2022
5830 Clear -28 1023 76 10000 0 0 18:45 16.01.2022
5831 Clear -29 1023 69 10000 2 0 17:47 16.01.2022
5832 Clear -30 1024 69 10000 0 0 16:53 16.01.2022
5833 Clear -29 1024 69 10000 1 0 15:40 16.01.2022
5834 Clear -29 1024 69 10000 2 0 14:29 16.01.2022
5835 Clear -28 1024 69 10000 2 0 13:21 16.01.2022
5836 Clear -24 1023 70 10000 1 0 11:56 16.01.2022
5837 Clear -24 1023 70 10000 1 0 11:27 16.01.2022
5838 Clear -18 1023 60 10000 2 0 10:27 16.01.2022
5839 Clear -18 1023 60 10000 2 0 09:57 16.01.2022
5840 Clear -16 1023 60 10000 1 0 09:23 16.01.2022
5841 Clear -17 1022 66 10000 3 250 08:53 16.01.2022
5842 Smoke -23 1023 70 5000 1 0 05:51 16.01.2022
5843 Clear -32 1021 62 8000 1 0 00:18 16.01.2022
5844 Clear -31 1021 69 8000 2 0 22:38 15.01.2022
5845 Clear -32 1021 68 8000 1 0 21:21 15.01.2022
5846 Clear -30 1021 69 8000 1 0 20:43 15.01.2022
5847 Clear -31 1020 69 8000 1 0 19:58 15.01.2022
5848 Clouds -31 1020 69 8000 1 0 19:23 15.01.2022
5849 Clear -25 1019 77 10000 2 0 17:49 15.01.2022
5850 Clouds -29 1020 76 6000 0 0 16:38 15.01.2022
5851 Clouds -26 1020 76 6000 1 0 13:57 15.01.2022
5852 Clouds -24 1020 70 6000 2 0 12:23 15.01.2022
5853 Clouds -22 1020 71 6000 3 170 11:18 15.01.2022
5854 Clouds -17 1020 60 8000 1 0 08:36 15.01.2022
5855 Clear -30 1022 69 10000 1 0 00:49 15.01.2022
5856 Clear -32 1022 68 10000 0 0 21:56 14.01.2022
5857 Clear -30 1022 69 10000 2 0 20:42 14.01.2022
5858 Clear -29 1022 69 10000 2 0 20:23 14.01.2022
5859 Clear -29 1022 69 10000 2 0 19:40 14.01.2022
5860 Clear -29 1022 69 10000 3 150 18:27 14.01.2022
5861 Clear -24 1021 70 10000 1 0 16:50 14.01.2022
5862 Clear -24 1021 70 10000 2 0 15:48 14.01.2022
5863 Clear -24 1020 77 10000 2 0 14:42 14.01.2022
5864 Clear -20 1019 65 10000 3 340 13:37 14.01.2022
5865 Clear -19 1018 71 10000 4 340 12:29 14.01.2022
5866 Clear -17 1017 66 10000 5 340 10:57 14.01.2022
5867 Clear -13 1014 56 10000 7 340 09:44 14.01.2022
5868 Clear -13 1013 56 10000 9 340 08:44 14.01.2022
5869 Clear -13 1012 61 10000 9 340 06:45 14.01.2022
5870 Clouds -22 1008 71 8000 2 0 01:20 14.01.2022
5871 Clouds -22 1006 77 8000 0 0 22:52 13.01.2022
5872 Clouds -23 1005 70 8000 0 0 21:38 13.01.2022
5873 Clouds -23 1005 70 8000 0 0 21:19 13.01.2022
5874 Clouds -25 1004 77 8000 1 0 19:40 13.01.2022
5875 Clouds -25 1004 77 8000 1 0 19:22 13.01.2022
5876 Clouds -25 1005 70 8000 1 0 17:52 13.01.2022
5877 Clouds -26 1005 76 8000 0 0 16:21 13.01.2022
5878 Clouds -16 1018 77 10000 1.49 55 15:37 13.01.2022
5879 Clouds -24 1005 70 8000 2 0 14:40 13.01.2022
5880 Clouds -23 1005 70 8000 2 0 12:37 13.01.2022
5881 Clouds -16 1005 60 8000 2 0 10:25 13.01.2022
5882 Clouds -13 1006 52 8000 1 0 08:58 13.01.2022
5883 Clouds -13 1006 52 8000 1 0 08:26 13.01.2022
5884 Clear -14 1007 47 8000 1 0 07:23 13.01.2022
5885 Clear -17 1009 55 6000 1 0 05:59 13.01.2022
5886 Smoke -19 1010 71 4000 1 0 05:19 13.01.2022
5887 Clear -18 1026 76 10000 2.52 95 01:56 13.01.2022
5888 Clear -18 1026 77 10000 2.43 94 00:49 13.01.2022
5889 Clear -19 1027 78 10000 2.38 93 23:46 12.01.2022
5890 Clear -19 1028 79 10000 2.32 94 22:59 12.01.2022
5891 Clear -29 1015 69 10000 1 0 21:57 12.01.2022
5892 Clear -29 1015 69 10000 1 0 21:57 12.01.2022
5893 Clear -29 1015 69 10000 1 0 21:22 12.01.2022
5894 Clear -29 1015 69 10000 1 0 20:56 12.01.2022
5895 Clear -29 1016 69 10000 1 0 19:41 12.01.2022
5896 Clear -29 1017 69 10000 2 0 18:30 12.01.2022
5897 Clear -30 1018 76 10000 0 0 17:20 12.01.2022
5898 Clear -29 1019 76 10000 1 0 16:28 12.01.2022
5899 Clear -29 1019 76 10000 1 0 14:48 12.01.2022
5900 Clear -27 1020 76 10000 0 0 12:59 12.01.2022
5901 Clear -17 1021 60 10000 1 0 10:48 12.01.2022
5902 Clear -16 1021 66 10000 2 0 08:38 12.01.2022
5903 Clear -15 1022 66 10000 2 0 07:49 12.01.2022
5904 Clear -15 1022 66 10000 2 0 07:31 12.01.2022
5905 Clouds -25 1025 77 10000 1 0 23:40 11.01.2022
5906 Clouds -25 1025 77 10000 0 0 22:49 11.01.2022
5907 Clouds -25 1025 77 10000 0 0 22:22 11.01.2022
5908 Clear -26 1026 70 10000 3 170 20:51 11.01.2022
5909 Clear -28 1026 69 10000 1 0 19:48 11.01.2022
5910 Clear -26 1026 76 10000 4 170 18:31 11.01.2022
5911 Clear -27 1026 69 10000 1 0 17:24 11.01.2022
5912 Clear -28 1026 69 10000 3 160 16:37 11.01.2022
5913 Clear -26 1026 76 10000 2 0 15:36 11.01.2022
5914 Clear -20 1026 71 10000 2 0 14:42 11.01.2022
5915 Clouds -18 1025 71 10000 3 350 13:55 11.01.2022
5916 Clouds -18 1025 71 10000 3 350 13:34 11.01.2022
5917 Clouds -16 1024 72 10000 4 360 12:42 11.01.2022
5918 Clouds -14 1023 66 10000 3 360 11:43 11.01.2022
5919 Clouds -15 1022 72 10000 2 0 09:29 11.01.2022
5920 Clouds -15 1021 72 6000 0 0 06:37 11.01.2022
5921 Clouds -26 1020 76 8000 1 0 00:31 11.01.2022
5922 Clouds -27 1019 76 8000 1 0 23:41 10.01.2022
5923 Clouds -27 1019 76 8000 1 0 23:22 10.01.2022
5924 Clouds -26 1019 70 8000 0 0 22:19 10.01.2022
5925 Clouds -26 1019 76 8000 1 0 21:54 10.01.2022
5926 Clouds -26 1019 76 8000 1 0 21:20 10.01.2022
5927 Clouds -26 1019 76 8000 1 0 20:56 10.01.2022
5928 Clouds -24 1019 77 8000 1 0 20:28 10.01.2022
5929 Clouds -26 1019 76 6000 2 0 19:42 10.01.2022
5930 Clouds -26 1019 76 6000 2 0 19:20 10.01.2022
5931 Clouds -28 1019 69 6000 2 0 18:48 10.01.2022
5932 Clouds -28 1019 69 6000 1 0 17:41 10.01.2022
5933 Clouds -26 1018 70 6000 2 0 16:42 10.01.2022
5934 Clouds -24 1018 77 6000 1 0 15:45 10.01.2022
5935 Clouds -25 1018 70 8000 1 0 14:26 10.01.2022
5936 Clear -23 1018 70 8000 3 170 11:58 10.01.2022
5937 Clear -23 1018 70 8000 3 170 11:25 10.01.2022
5938 Clear -15 1018 56 6000 1 0 09:48 10.01.2022
5939 Smoke -17 1019 78 5000 0 0 06:47 10.01.2022
5940 Smoke -20 1020 84 4000 1 0 05:49 10.01.2022
5941 Clouds -31 1022 69 8000 1 0 01:30 10.01.2022
5942 Clouds -30 1023 69 8000 0 0 00:24 10.01.2022
5943 Clouds -25 1023 77 10000 1 0 23:29 09.01.2022
5944 Clouds -27 1023 69 10000 1 0 22:37 09.01.2022
5945 Clear -31 1024 69 10000 1 0 21:46 09.01.2022
5946 Clear -31 1024 69 10000 1 0 21:23 09.01.2022
5947 Clear -31 1024 69 10000 1 0 21:23 09.01.2022
5948 Clear -31 1024 76 10000 0 0 20:50 09.01.2022
5949 Clear -31 1024 76 10000 0 0 20:32 09.01.2022
5950 Clear -30 1024 69 10000 1 0 19:44 09.01.2022
5951 Clear -30 1024 69 10000 1 0 19:23 09.01.2022
5952 Clear -29 1023 69 10000 1 0 18:52 09.01.2022
5953 Clear -29 1023 69 10000 1 0 18:33 09.01.2022
5954 Clear -30 1024 76 10000 1 0 17:31 09.01.2022
5955 Clear -28 1024 76 10000 1 0 16:53 09.01.2022
5956 Clear -28 1024 76 10000 1 0 15:57 09.01.2022
5957 Clear -27 1024 76 10000 0 0 15:35 09.01.2022
5958 Clear -24 1024 77 10000 0 0 14:40 09.01.2022
5959 Clear -26 1024 70 10000 2 0 13:50 09.01.2022
5960 Clear -24 1024 77 10000 3 170 12:50 09.01.2022
5961 Clear -23 1023 77 10000 2 0 11:51 09.01.2022
5962 Clear -23 1023 77 10000 3 170 10:52 09.01.2022
5963 Clear -16 1023 66 10000 2 0 09:42 09.01.2022
5964 Clear -16 1023 72 10000 2 0 08:51 09.01.2022
5965 Clouds -18 1025 78 8000 2 0 05:21 09.01.2022
5966 Clouds -27 1025 69 8000 0 0 01:24 09.01.2022
5967 Clear -27 1025 76 10000 2 0 23:44 08.01.2022
5968 Clear -27 1025 76 10000 2 0 23:26 08.01.2022
5969 Clear -30 1025 76 10000 1 0 22:28 08.01.2022
5970 Clear -29 1025 76 10000 1 0 21:25 08.01.2022
5971 Clear -28 1025 76 10000 1 0 20:42 08.01.2022
5972 Clear -28 1025 76 10000 1 0 20:20 08.01.2022
5973 Clear -26 1026 76 10000 0 0 18:40 08.01.2022
5974 Clear -25 1026 77 10000 2 0 17:22 08.01.2022
5975 Clear -22 1026 77 10000 3 150 15:52 08.01.2022
5976 Clear -23 1026 77 10000 3 170 14:44 08.01.2022
5977 Clear -22 1026 77 10000 2 0 13:25 08.01.2022
5978 Clear -19 1025 71 10000 2 0 11:25 08.01.2022
5979 Clear -15 1024 66 10000 2 0 10:25 08.01.2022
5980 Clear -12 1024 61 10000 1 0 09:48 08.01.2022
5981 Clouds -11 1024 57 8000 1 0 07:50 08.01.2022
5982 Clouds -14 1036 91 10000 1.71 343 02:50 08.01.2022
5983 Clouds -15 1036 92 10000 1.45 356 00:41 08.01.2022
5984 Clouds -15 1035 90 10000 1.11 20 22:47 07.01.2022
5985 Clouds -26 1025 76 8000 1 0 20:58 07.01.2022
5986 Clouds -24 1025 77 8000 1 0 20:19 07.01.2022
5987 Clouds -25 1025 70 8000 1 0 19:23 07.01.2022
5988 Clear -24 1025 77 10000 1 0 18:44 07.01.2022
5989 Clear -24 1026 77 10000 0 0 17:28 07.01.2022
5990 Clear -24 1026 77 10000 1 0 16:39 07.01.2022
5991 Clear -22 1026 77 10000 2 0 13:56 07.01.2022
5992 Clear -22 1025 77 10000 1 0 13:38 07.01.2022
5993 Clear -18 1025 71 10000 2 0 12:49 07.01.2022
5994 Clear -10 1024 57 8000 0 0 09:42 07.01.2022
5995 Smoke -23 1025 77 5000 0 0 02:56 07.01.2022
5996 Clear -16 1036 82 10000 1.53 358 01:55 07.01.2022
5997 Clear -16 1036 82 10000 1.45 352 01:28 07.01.2022
5998 Clear -16 1036 82 10000 1.45 352 00:59 07.01.2022
5999 Clear -27 1023 76 6000 1 0 00:28 07.01.2022
6000 Clear -26 1022 70 8000 1 0 21:34 06.01.2022
6001 Clear -26 1022 70 8000 1 0 20:22 06.01.2022
6002 Clear -24 1022 77 8000 1 0 19:45 06.01.2022
6003 Clouds -25 1022 77 8000 1 0 18:34 06.01.2022
6004 Clouds -23 1022 70 8000 1 0 17:41 06.01.2022
6005 Clouds -24 1022 70 8000 0 0 16:52 06.01.2022
6006 Clouds -24 1022 77 8000 1 0 15:48 06.01.2022
6007 Clouds -24 1022 77 8000 1 0 15:26 06.01.2022
6008 Clouds -23 1022 70 8000 2 0 14:51 06.01.2022
6009 Clouds -23 1022 70 8000 2 0 14:18 06.01.2022
6010 Clouds -21 1021 77 8000 2 0 12:50 06.01.2022
6011 Clouds -18 1021 65 8000 2 0 11:43 06.01.2022
6012 Clouds -18 1021 65 8000 2 0 11:22 06.01.2022
6013 Clouds -9 1021 48 6000 2 0 08:52 06.01.2022
6014 Clear -16 1036 75 10000 2.33 98 01:24 06.01.2022
6015 Clear -15 1036 75 10000 2.37 99 23:38 05.01.2022
6016 Clear -15 1035 76 10000 2.45 100 22:59 05.01.2022
6017 Clear -15 1035 76 10000 2.45 100 22:33 05.01.2022
6018 Clear -15 1035 76 10000 2.44 101 21:49 05.01.2022
6019 Clear -15 1035 76 10000 2.57 101 21:21 05.01.2022
6020 Clear -15 1035 76 10000 2.48 102 20:19 05.01.2022
6021 Clear -15 1035 76 10000 2.47 101 18:50 05.01.2022
6022 Clear -24 1024 77 8000 1 0 17:44 05.01.2022
6023 Clear -15 1036 77 10000 2.34 100 16:51 05.01.2022
6024 Clear -24 1024 77 8000 1 0 15:43 05.01.2022
6025 Clouds -24 1024 70 8000 1 0 14:24 05.01.2022
6026 Clear -24 1024 77 8000 1 0 13:25 05.01.2022
6027 Clear -20 1023 71 8000 2 0 11:36 05.01.2022
6028 Clear -12 1022 52 8000 1 0 07:47 05.01.2022
6029 Clear -14 1022 56 6000 2 0 06:25 05.01.2022
6030 Clear -16 1034 80 10000 1.67 89 00:59 05.01.2022
6031 Clear -16 1034 80 10000 1.54 86 23:28 04.01.2022
6032 Clear -16 1034 80 10000 1.54 86 22:55 04.01.2022
6033 Clear -27 1022 69 10000 0 0 21:31 04.01.2022
6034 Clear -27 1022 69 10000 0 0 21:31 04.01.2022
6035 Clear -27 1022 69 10000 0 0 21:31 04.01.2022
6036 Clear -27 1022 69 10000 0 0 19:20 04.01.2022
6037 Clear -27 1021 76 10000 1 0 17:54 04.01.2022
6038 Clear -25 1022 77 10000 1 0 16:53 04.01.2022
6039 Clear -25 1022 77 10000 1 0 16:25 04.01.2022
6040 Clear -26 1021 70 10000 2 0 14:54 04.01.2022
6041 Clear -26 1021 70 10000 2 0 14:35 04.01.2022
6042 Clear -25 1021 70 10000 1 0 13:29 04.01.2022
6043 Clear -22 1020 64 10000 3 170 10:41 04.01.2022
6044 Clear -14 1020 51 8000 1 0 09:47 04.01.2022
6045 Clear -13 1019 52 8000 1 0 08:32 04.01.2022
6046 Clear -17 1033 79 10000 1.15 77 02:52 04.01.2022
6047 Clear -19 1033 82 10000 1.31 77 00:42 04.01.2022
6048 Clear -19 1033 83 10000 1.25 74 23:34 03.01.2022
6049 Clear -19 1033 84 10000 1.54 83 21:52 03.01.2022
6050 Clear -19 1033 84 10000 1.54 83 21:34 03.01.2022
6051 Clear -19 1033 84 10000 1.77 93 20:26 03.01.2022
6052 Clear -28 1019 76 10000 1 0 18:54 03.01.2022
6053 Clear -28 1019 76 10000 1 0 18:28 03.01.2022
6054 Clear -29 1019 69 10000 0 0 16:59 03.01.2022
6055 Clear -19 1034 85 10000 1.74 91 15:40 03.01.2022
6056 Clear -28 1020 69 10000 0 0 14:31 03.01.2022
6057 Clear -28 1020 69 10000 0 0 14:31 03.01.2022
6058 Clear -25 1019 70 10000 2 0 12:48 03.01.2022
6059 Clear -25 1019 70 10000 2 0 11:38 03.01.2022
6060 Clear -23 1018 64 10000 1 0 10:36 03.01.2022
6061 Clouds -17 1019 55 8000 1 0 08:48 03.01.2022
6062 Clouds -17 1019 51 8000 1 0 07:36 03.01.2022
6063 Clear -31 1020 69 8000 0 0 00:29 03.01.2022
6064 Clear -31 1019 69 8000 0 0 23:22 02.01.2022
6065 Clear -31 1019 69 8000 1 0 22:55 02.01.2022
6066 Clear -30 1020 69 8000 1 0 21:46 02.01.2022
6067 Clear -30 1020 63 8000 2 0 20:38 02.01.2022
6068 Clear -30 1020 63 8000 2 0 20:18 02.01.2022
6069 Clear -29 1020 69 10000 1 0 19:30 02.01.2022
6070 Clear -31 1020 62 10000 1 0 18:46 02.01.2022
6071 Clear -31 1020 62 10000 1 0 18:46 02.01.2022
6072 Clear -30 1019 69 10000 2 0 17:54 02.01.2022
6073 Clear -30 1019 69 10000 2 0 17:36 02.01.2022
6074 Clear -30 1019 69 10000 2 0 17:36 02.01.2022
6075 Clear -30 1019 69 10000 2 0 17:18 02.01.2022
6076 Clear -31 1020 76 10000 2 0 16:25 02.01.2022
6077 Clear -30 1019 69 10000 1 0 14:32 02.01.2022
6078 Clear -28 1018 63 10000 2 0 12:50 02.01.2022
6079 Clear -23 1018 59 10000 1 0 11:58 02.01.2022
6080 Clear -23 1018 59 10000 1 0 11:32 02.01.2022
6081 Clear -22 1018 59 10000 3 180 10:46 02.01.2022
6082 Clear -18 1017 46 10000 3 180 09:45 02.01.2022
6083 Clear -21 1017 54 8000 0 0 05:21 02.01.2022
6084 Clouds -21 1033 79 10000 1.5 89 01:41 02.01.2022
6085 Clouds -20 1032 76 10000 1.8 90 23:39 01.01.2022
6086 Clouds -20 1032 74 10000 2.02 95 22:57 01.01.2022
6087 Clouds -19 1032 74 10000 2.05 98 22:22 01.01.2022
6088 Clouds -27 1018 69 8000 1 0 21:43 01.01.2022
6089 Clouds -29 1019 76 8000 1 0 20:55 01.01.2022
6090 Clouds -29 1019 76 8000 1 0 19:58 01.01.2022
6091 Clouds -21 1034 77 10000 1.87 97 19:19 01.01.2022
6092 Clear -32 1020 68 10000 1 0 17:59 01.01.2022
6093 Clear -32 1021 68 10000 1 0 16:41 01.01.2022
6094 Clear -32 1021 68 10000 1 0 16:19 01.01.2022
6095 Clear -31 1021 69 10000 1 0 15:26 01.01.2022
6096 Clear -31 1022 69 10000 2 0 13:58 01.01.2022
6097 Clear -27 1022 58 10000 1 0 12:50 01.01.2022
6098 Clear -25 1022 64 10000 1 0 11:56 01.01.2022
6099 Clear -25 1022 64 10000 1 0 11:23 01.01.2022
6100 Clear -24 1022 64 10000 2 0 10:27 01.01.2022
6101 Clear -17 1022 46 10000 1 0 09:46 01.01.2022
6102 Clear -17 1022 51 10000 2 0 08:26 01.01.2022
6103 Clear -18 1022 60 10000 4 230 07:44 01.01.2022
6104 Clear -18 1023 71 10000 2 0 06:47 01.01.2022
6105 Clear -19 1024 78 10000 3 270 05:27 01.01.2022
6106 Clear -21 1024 77 10000 1 0 04:38 01.01.2022
6107 Clouds -23 1025 70 10000 1 0 01:59 01.01.2022
6108 Clear -27 1024 76 10000 4 170 23:39 31.12.2021
6109 Clear -27 1024 76 10000 2 0 21:53 31.12.2021
6110 Clear -27 1024 76 10000 1 0 20:38 31.12.2021
6111 Clear -24 1023 77 10000 1 0 19:30 31.12.2021
6112 Clouds -20 1039 99 4317 2.08 319 18:37 31.12.2021
6113 Clear -23 1022 84 10000 1 0 17:40 31.12.2021
6114 Clear -23 1022 84 10000 1 0 17:19 31.12.2021
6115 Clear -17 1021 78 10000 3 360 16:38 31.12.2021
6116 Clear -17 1021 78 10000 3 360 15:57 31.12.2021
6117 Clouds -16 1020 72 10000 4 350 15:29 31.12.2021
6118 Clouds -15 1020 72 10000 4 350 14:56 31.12.2021
6119 Clouds -15 1020 72 10000 4 350 14:30 31.12.2021
6120 Clouds -14 1019 66 10000 4 340 13:36 31.12.2021
6121 Clear -14 1017 78 10000 5 340 12:45 31.12.2021
6122 Clear -13 1016 72 10000 3 340 11:51 31.12.2021
6123 Clear -13 1016 72 10000 3 340 11:30 31.12.2021
6124 Clouds -12 1015 67 10000 4 350 10:38 31.12.2021
6125 Clouds -12 1015 67 10000 4 350 09:55 31.12.2021
6126 Clouds -11 1014 62 10000 5 340 09:33 31.12.2021
6127 Clouds -12 1014 67 10000 1 0 08:39 31.12.2021
6128 Clouds -12 1013 61 8000 1 0 07:31 31.12.2021
6129 Clear -26 1014 70 10000 1 0 23:32 30.12.2021
6130 Clouds -16 1026 81 10000 1.99 91 22:33 30.12.2021
6131 Clouds -15 1026 81 10000 2.21 91 21:59 30.12.2021
6132 Clouds -15 1026 81 10000 2.21 91 21:59 30.12.2021
6133 Clouds -15 1026 81 10000 2.21 91 21:37 30.12.2021
6134 Clouds -15 1026 81 10000 2.21 91 21:37 30.12.2021
6135 Clouds -15 1026 81 10000 2.37 94 20:47 30.12.2021
6136 Clouds -15 1027 80 10000 2.43 97 20:28 30.12.2021
6137 Clouds -15 1027 80 10000 2.43 97 19:48 30.12.2021
6138 Clouds -15 1028 81 10000 2.48 96 18:51 30.12.2021
6139 Clear -15 1028 82 10000 2.39 96 18:20 30.12.2021
6140 Clear -25 1018 77 10000 1 0 16:27 30.12.2021
6141 Clear -25 1018 77 10000 0 0 15:52 30.12.2021
6142 Clear -25 1018 77 10000 0 0 15:52 30.12.2021
6143 Clear -25 1019 77 10000 1 0 14:41 30.12.2021
6144 Clear -25 1019 77 10000 1 0 13:57 30.12.2021
6145 Clear -23 1020 77 10000 3 160 12:52 30.12.2021
6146 Clear -21 1020 77 10000 3 170 11:22 30.12.2021
6147 Clear -12 1021 61 10000 0 0 09:59 30.12.2021
6148 Clear -12 1021 61 10000 1 0 09:23 30.12.2021
6149 Clear -14 1023 66 10000 1 0 06:54 30.12.2021
6150 Clear -20 1025 77 8000 0 0 04:20 30.12.2021
6151 Clear -20 1025 77 8000 0 0 04:20 30.12.2021
6152 Clear -23 1025 77 8000 1 0 03:39 30.12.2021
6153 Clear -28 1025 76 8000 0 0 00:35 30.12.2021
6154 Clear -25 1024 70 8000 0 0 23:31 29.12.2021
6155 Clear -27 1024 76 10000 1 0 22:24 29.12.2021
6156 Clear -26 1025 70 10000 1 0 21:53 29.12.2021
6157 Clear -27 1025 69 10000 0 0 20:40 29.12.2021
6158 Clear -26 1024 76 10000 0 0 19:54 29.12.2021
6159 Clear -26 1024 76 10000 0 0 19:25 29.12.2021
6160 Clear -27 1024 69 10000 1 0 18:19 29.12.2021
6161 Clear -25 1024 77 10000 1 0 17:28 29.12.2021
6162 Clear -24 1024 77 10000 1 0 16:49 29.12.2021
6163 Clear -24 1024 77 10000 1 0 16:19 29.12.2021
6164 Clear -24 1024 77 10000 3 150 14:40 29.12.2021
6165 Clouds -20 1024 77 10000 3 170 12:49 29.12.2021
6166 Clouds -20 1024 77 10000 3 170 12:27 29.12.2021
6167 Clouds -18 1023 71 10000 2 0 10:36 29.12.2021
6168 Clear -13 1023 56 10000 3 190 08:24 29.12.2021
6169 Clear -13 1023 56 10000 2 0 06:48 29.12.2021
6170 Clear -13 1023 56 10000 2 0 06:27 29.12.2021
6171 Clear -15 1024 61 10000 0 0 05:43 29.12.2021
6172 Clouds -25 1024 77 8000 0 0 03:20 29.12.2021
6173 Clouds -25 1024 77 8000 0 0 03:20 29.12.2021
6174 Clear -28 1025 69 10000 0 0 00:25 29.12.2021
6175 Clear -27 1025 69 10000 1 0 23:49 28.12.2021
6176 Clear -29 1025 76 10000 1 0 22:45 28.12.2021
6177 Clear -29 1025 76 10000 1 0 22:24 28.12.2021
6178 Clear -27 1025 76 10000 1 0 21:53 28.12.2021
6179 Clear -29 1025 69 10000 1 0 20:48 28.12.2021
6180 Clear -28 1025 76 10000 1 0 19:44 28.12.2021
6181 Clear -27 1025 69 10000 1 0 18:44 28.12.2021
6182 Clear -27 1025 69 10000 1 0 18:23 28.12.2021
6183 Clear -27 1025 69 10000 1 0 16:35 28.12.2021
6184 Clear -26 1025 70 10000 2 0 15:51 28.12.2021
6185 Clear -26 1025 70 10000 2 0 15:25 28.12.2021
6186 Clear -25 1025 70 10000 2 0 14:52 28.12.2021
6187 Clear -25 1025 70 10000 2 0 14:21 28.12.2021
6188 Clear -22 1025 77 10000 0 0 13:51 28.12.2021
6189 Clear -22 1025 77 10000 0 0 13:31 28.12.2021
6190 Clear -22 1024 64 10000 3 170 12:49 28.12.2021
6191 Clear -16 1023 66 10000 4 330 11:51 28.12.2021
6192 Clear -11 1022 52 10000 5 320 09:30 28.12.2021
6193 Clear -15 1022 61 10000 1 0 07:31 28.12.2021
6194 Clouds -28 1022 76 8000 0 0 02:22 28.12.2021
6195 Clouds -29 1021 69 8000 1 0 23:26 27.12.2021
6196 Clear -29 1021 69 10000 1 0 21:54 27.12.2021
6197 Clear -29 1021 69 10000 1 0 21:26 27.12.2021
6198 Clear -30 1021 69 10000 1 0 20:24 27.12.2021
6199 Clear -30 1021 69 10000 1 0 20:24 27.12.2021
6200 Clear -30 1021 69 10000 0 0 19:45 27.12.2021
6201 Clear -28 1021 69 10000 1 0 18:54 27.12.2021
6202 Clear -28 1021 69 10000 0 0 17:50 27.12.2021
6203 Clear -28 1021 69 10000 0 0 17:18 27.12.2021
6204 Clear -30 1021 69 10000 1 0 15:53 27.12.2021
6205 Clear -29 1021 69 10000 1 0 14:34 27.12.2021
6206 Clear -29 1021 69 10000 1 0 13:58 27.12.2021
6207 Clear -26 1020 70 10000 1 0 12:47 27.12.2021
6208 Clear -18 1020 60 10000 1 0 10:37 27.12.2021
6209 Clear -18 1020 60 10000 1 0 10:18 27.12.2021
6210 Clouds -15 1020 51 8000 1 0 08:41 27.12.2021
6211 Clouds -13 1020 40 6000 0 0 07:33 27.12.2021
6212 Clouds -16 1035 62 10000 1.22 77 02:29 27.12.2021
6213 Clouds -16 1035 62 10000 1.32 79 00:29 27.12.2021
6214 Clouds -16 1035 62 10000 1.32 79 23:42 26.12.2021
6215 Clouds -16 1035 62 10000 1.3 83 22:49 26.12.2021
6216 Clear -16 1036 61 10000 1.21 87 21:30 26.12.2021
6217 Clear -16 1036 60 10000 1.22 83 19:52 26.12.2021
6218 Clouds -16 1037 59 10000 1.25 80 18:29 26.12.2021
6219 Clouds -16 1037 59 10000 1.25 80 17:51 26.12.2021
6220 Clouds -16 1039 58 10000 1.18 75 15:31 26.12.2021
6221 Clouds -16 1040 58 10000 1.05 75 13:43 26.12.2021
6222 Clouds -16 1040 59 10000 1.03 75 13:21 26.12.2021
6223 Clear -27 1029 69 8000 1 0 12:35 26.12.2021
6224 Clear -25 1029 64 8000 2 0 11:18 26.12.2021
6225 Clear -17 1030 55 6000 1 0 09:30 26.12.2021
6226 Clear -16 1030 55 6000 1 0 08:44 26.12.2021
6227 Clear -16 1030 55 6000 1 0 08:23 26.12.2021
6228 Clouds -20 1048 74 10000 0.57 109 01:45 26.12.2021
6229 Clear -21 1049 77 10000 0.37 80 00:28 26.12.2021
6230 Clear -21 1049 77 10000 0.37 80 23:35 25.12.2021
6231 Clear -21 1051 79 10000 0.16 183 22:29 25.12.2021
6232 Clear -32 1037 68 10000 0 0 21:29 25.12.2021
6233 Clear -32 1038 68 10000 0 0 19:46 25.12.2021
6234 Clear -32 1038 68 10000 0 0 19:18 25.12.2021
6235 Clear -33 1038 68 10000 1 0 18:26 25.12.2021
6236 Clear -31 1039 69 10000 0 0 16:49 25.12.2021
6237 Clear -29 1039 69 10000 0 0 15:30 25.12.2021
6238 Clear -29 1039 69 10000 1 0 14:22 25.12.2021
6239 Clear -28 1039 69 10000 1 0 12:19 25.12.2021
6240 Clear -26 1039 70 10000 0 0 10:36 25.12.2021
6241 Clear -23 1039 70 10000 2 0 09:48 25.12.2021
6242 Clear -23 1039 64 6000 1 0 07:21 25.12.2021
6243 Clear -26 1059 93 10000 1 338 01:36 25.12.2021
6244 Clear -26 1058 94 10000 0.8 352 00:19 25.12.2021
6245 Clear -26 1058 94 10000 0.86 3 21:51 24.12.2021
6246 Clear -26 1058 93 10000 0.87 358 19:27 24.12.2021
6247 Clear -36 1039 61 10000 0 0 18:41 24.12.2021
6248 Clear -32 1038 62 10000 2 0 16:43 24.12.2021
6249 Clear -32 1038 68 10000 1 0 15:50 24.12.2021
6250 Clear -32 1038 68 10000 1 0 15:20 24.12.2021
6251 Clear -33 1038 68 10000 0 0 14:33 24.12.2021
6252 Clear -34 1038 68 10000 1 0 13:50 24.12.2021
6253 Clear -34 1038 68 10000 1 0 13:32 24.12.2021
6254 Clear -33 1037 68 10000 0 0 12:39 24.12.2021
6255 Clear -32 1036 68 10000 1 0 11:42 24.12.2021
6256 Clear -32 1036 68 10000 1 0 11:24 24.12.2021
6257 Clear -31 1036 69 10000 1 0 10:33 24.12.2021
6258 Clear -21 1035 54 8000 2 0 08:48 24.12.2021
6259 Clear -21 1035 59 8000 1 0 07:58 24.12.2021
6260 Clear -23 1034 64 6000 1 0 06:59 24.12.2021
6261 Clear -36 1033 61 8000 1 0 00:22 24.12.2021
6262 Clear -36 1033 61 8000 0 0 23:49 23.12.2021
6263 Clear -25 1051 89 10000 0.85 1 22:51 23.12.2021
6264 Clear -25 1051 90 10000 0.79 12 22:24 23.12.2021
6265 Clear -25 1051 90 10000 0.79 12 21:41 23.12.2021
6266 Clear -35 1033 61 10000 1 0 20:30 23.12.2021
6267 Clear -35 1033 68 10000 0 0 19:30 23.12.2021
6268 Clear -33 1033 68 10000 1 0 18:27 23.12.2021
6269 Clear -32 1032 68 10000 1 0 17:46 23.12.2021
6270 Clear -30 1032 69 10000 2 180 16:27 23.12.2021
6271 Clear -28 1032 69 10000 3 140 15:48 23.12.2021
6272 Clear -28 1032 69 10000 3 140 15:30 23.12.2021
6273 Clear -31 1032 69 10000 3 170 14:42 23.12.2021
6274 Clear -30 1031 69 10000 3 170 13:43 23.12.2021
6275 Clear -28 1031 69 10000 1 0 11:52 23.12.2021
6276 Clear -18 1030 55 10000 1 0 09:55 23.12.2021
6277 Clear -18 1030 55 10000 1 0 09:34 23.12.2021
6278 Clear -17 1029 55 10000 2 0 08:38 23.12.2021
6279 Clear -21 1029 84 10000 1 0 05:43 23.12.2021
6280 Clear -29 1029 69 10000 1 0 03:22 23.12.2021
6281 Clear -29 1026 69 10000 2 0 22:53 22.12.2021
6282 Clear -29 1026 69 10000 2 0 22:22 22.12.2021
6283 Clear -28 1026 69 10000 1 0 21:37 22.12.2021
6284 Clear -28 1026 69 10000 1 0 21:19 22.12.2021
6285 Clear -30 1026 76 10000 3 170 20:40 22.12.2021
6286 Clear -29 1025 76 10000 2 0 19:57 22.12.2021
6287 Clear -30 1025 69 10000 1 0 18:56 22.12.2021
6288 Clear -28 1025 76 10000 1 0 17:38 22.12.2021
6289 Clear -26 1025 76 10000 2 0 16:25 22.12.2021
6290 Clear -20 1024 84 10000 1 0 15:21 22.12.2021
6291 Clouds -17 1023 78 10000 1 0 12:59 22.12.2021
6292 Clouds -16 1022 78 10000 1 0 11:50 22.12.2021
6293 Clouds -12 1021 61 10000 3 320 09:53 22.12.2021
6294 Clouds -11 1020 62 10000 4 340 08:34 22.12.2021
6295 Clouds -12 1020 72 6000 1 0 05:56 22.12.2021
6296 Clouds -12 1020 67 6000 1 0 05:37 22.12.2021
6297 Clouds -13 1020 72 6000 0 0 05:19 22.12.2021
6298 Clouds -14 1020 72 6000 1 0 04:42 22.12.2021
6299 Clouds -17 1020 85 6000 0 0 03:53 22.12.2021
6300 Clouds -19 1019 84 6000 1 0 03:31 22.12.2021
6301 Snow -18 1018 85 8000 1 0 23:49 21.12.2021
6302 Clouds -19 1018 84 8000 1 0 22:41 21.12.2021
6303 Clear -21 1018 77 10000 2 0 21:58 21.12.2021
6304 Clear -21 1018 77 10000 2 0 21:33 21.12.2021
6305 Clouds -21 1018 77 10000 2 0 20:42 21.12.2021
6306 Clouds -21 1018 77 10000 2 0 20:18 21.12.2021
6307 Clouds -21 1018 77 10000 1 0 19:34 21.12.2021
6308 Clouds -22 1017 84 10000 1 0 18:28 21.12.2021
6309 Clear -22 1017 84 10000 1 0 17:59 21.12.2021
6310 Clear -22 1017 84 10000 1 0 17:40 21.12.2021
6311 Clear -23 1017 77 10000 2 0 15:46 21.12.2021
6312 Clear -22 1016 77 10000 1 0 14:24 21.12.2021
6313 Clear -22 1015 77 10000 1 0 13:42 21.12.2021
6314 Clear -18 1015 78 10000 1 0 12:29 21.12.2021
6315 Clear -17 1013 78 10000 2 0 10:52 21.12.2021
6316 Clear -11 1013 62 8000 1 0 09:56 21.12.2021
6317 Clear -8 1012 53 8000 0 0 08:57 21.12.2021
6318 Clear -10 1012 57 8000 1 0 07:45 21.12.2021
6319 Clouds -11 1012 62 6000 1 0 07:23 21.12.2021
6320 Clouds -16 1012 72 6000 0 0 04:26 21.12.2021
6321 Clouds -23 1012 84 8000 0 0 02:30 21.12.2021
6322 Clear -24 1011 77 10000 1 0 23:55 20.12.2021
6323 Clear -24 1010 77 10000 1 0 22:44 20.12.2021
6324 Clear -24 1010 77 10000 1 0 22:25 20.12.2021
6325 Clear -22 1010 77 10000 1 0 21:27 20.12.2021
6326 Clear -21 1010 77 10000 0 0 20:54 20.12.2021
6327 Clear -21 1010 77 10000 0 0 20:23 20.12.2021
6328 Clear -21 1010 77 10000 2 0 19:38 20.12.2021
6329 Clear -21 1010 77 10000 2 0 19:19 20.12.2021
6330 Clear -23 1010 84 10000 0 0 18:33 20.12.2021
6331 Clear -22 1010 84 10000 1 0 17:50 20.12.2021
6332 Clear -21 1010 77 10000 2 0 16:47 20.12.2021
6333 Clear -21 1010 77 10000 2 0 16:18 20.12.2021
6334 Clear -21 1010 77 10000 0 0 15:40 20.12.2021
6335 Clear -17 1010 71 10000 1 0 13:49 20.12.2021
6336 Clear -15 1009 72 10000 2 0 12:30 20.12.2021
6337 Clear -11 1009 62 10000 1 0 10:46 20.12.2021
6338 Clear -10 1009 62 10000 3 180 09:40 20.12.2021
6339 Clear -5 1008 46 10000 1 0 08:50 20.12.2021
6340 Clear -5 1008 46 10000 1 0 08:32 20.12.2021
6341 Clear -4 1008 42 10000 1 0 07:35 20.12.2021
6342 Clear -5 1008 46 10000 2 0 06:39 20.12.2021
6343 Clear -18 1007 78 10000 2 0 00:20 20.12.2021
6344 Clear -17 1006 71 10000 1 0 22:58 19.12.2021
6345 Clear -17 1006 71 10000 1 0 22:40 19.12.2021
6346 Clear -16 1006 66 10000 1 0 21:32 19.12.2021
6347 Clear -12 1006 61 10000 2 0 20:42 19.12.2021
6348 Clear -12 1006 61 10000 2 0 20:23 19.12.2021
6349 Clear -13 1006 66 10000 3 190 19:41 19.12.2021
6350 Clear -11 1005 62 10000 2 0 18:42 19.12.2021
6351 Clear -11 1005 62 10000 2 0 17:53 19.12.2021
6352 Clear -10 1005 62 10000 3 330 17:30 19.12.2021
6353 Clear -10 1004 62 10000 2 0 16:41 19.12.2021
6354 Clear -11 1004 67 10000 2 0 15:56 19.12.2021
6355 Clear -11 1004 67 10000 2 0 15:24 19.12.2021
6356 Clear -9 1004 62 10000 3 60 14:45 19.12.2021
6357 Clear -9 1003 62 10000 2 0 13:32 19.12.2021
6358 Clear -10 1003 57 10000 3 130 12:59 19.12.2021
6359 Clear -10 1003 57 10000 3 130 12:29 19.12.2021
6360 Clear -15 1003 72 10000 4 160 11:37 19.12.2021
6361 Clouds -6 1003 49 10000 1 0 10:50 19.12.2021
6362 Clouds -6 1003 49 10000 1 0 10:22 19.12.2021
6363 Clouds -5 1003 46 10000 2 0 08:50 19.12.2021
6364 Clouds -6 1004 49 10000 1 0 06:45 19.12.2021
6365 Clear -22 1005 77 8000 1 0 01:51 19.12.2021
6366 Clear -23 1006 84 10000 1 0 00:54 19.12.2021
6367 Clear -22 1006 77 10000 2 0 22:59 18.12.2021
6368 Clear -22 1006 77 10000 2 0 22:24 18.12.2021
6369 Clear -21 1006 84 10000 0 0 21:43 18.12.2021
6370 Clear -21 1006 84 10000 0 0 21:22 18.12.2021
6371 Clear -22 1007 77 10000 1 0 20:26 18.12.2021
6372 Clear -23 1007 77 10000 1 0 19:35 18.12.2021
6373 Clear -23 1007 77 10000 0 0 18:24 18.12.2021
6374 Clear -22 1007 77 10000 1 0 17:49 18.12.2021
6375 Clear -24 1007 77 10000 1 0 16:36 18.12.2021
6376 Clear -24 1007 77 10000 1 0 16:18 18.12.2021
6377 Clouds -22 1008 77 10000 2 0 14:54 18.12.2021
6378 Clouds -21 1008 71 10000 0 0 13:44 18.12.2021
6379 Clouds -19 1008 65 8000 2 0 11:55 18.12.2021
6380 Clouds -18 1008 65 6000 2 0 09:54 18.12.2021
6381 Clouds -18 1008 65 6000 2 0 09:31 18.12.2021
6382 Clouds -16 1009 55 6000 1 0 08:36 18.12.2021
6383 Clouds -19 1011 60 6000 1 0 06:28 18.12.2021
6384 Clear -31 1015 69 8000 2 0 00:59 18.12.2021
6385 Clear -32 1016 68 10000 1 0 23:47 17.12.2021
6386 Clear -32 1016 68 10000 1 0 22:39 17.12.2021
6387 Clear -29 1017 69 10000 2 0 21:29 17.12.2021
6388 Clear -31 1017 69 10000 2 0 20:43 17.12.2021
6389 Clear -30 1018 69 10000 0 0 19:51 17.12.2021
6390 Clear -30 1018 69 10000 0 0 18:39 17.12.2021
6391 Clear -30 1018 63 10000 1 0 17:50 17.12.2021
6392 Clear -29 1019 69 10000 1 0 16:51 17.12.2021
6393 Clear -29 1019 69 10000 1 0 16:27 17.12.2021
6394 Clear -28 1018 69 10000 1 0 15:38 17.12.2021
6395 Clear -26 1019 70 10000 1 0 14:42 17.12.2021
6396 Clear -27 1018 63 10000 2 0 13:45 17.12.2021
6397 Clear -28 1017 63 10000 2 0 12:36 17.12.2021
6398 Clear -26 1017 64 10000 3 180 10:41 17.12.2021
6399 Clear -20 1017 54 10000 1 0 09:47 17.12.2021
6400 Clear -20 1017 54 10000 1 0 09:47 17.12.2021
6401 Clouds -19 1016 50 8000 2 0 08:31 17.12.2021
6402 Clouds -20 1016 65 6000 1 0 07:21 17.12.2021
6403 Smoke -25 1018 77 5000 1 0 04:40 17.12.2021
6404 Clouds -22 1037 76 10000 1.7 99 00:22 17.12.2021
6405 Clouds -23 1039 80 10000 1.76 96 22:24 16.12.2021
6406 Clouds -23 1039 80 10000 1.76 96 21:51 16.12.2021
6407 Clouds -23 1039 80 10000 1.76 96 21:33 16.12.2021
6408 Clouds -23 1040 83 10000 1.66 99 20:31 16.12.2021
6409 Clear -23 1042 86 10000 1.66 104 19:51 16.12.2021
6410 Clear -23 1043 90 10000 1.27 121 18:41 16.12.2021
6411 Clear -23 1043 92 10000 1.13 113 18:22 16.12.2021
6412 Clear -33 1027 68 10000 0 0 17:32 16.12.2021
6413 Clear -33 1027 62 10000 2 0 16:23 16.12.2021
6414 Clear -28 1028 69 10000 0 0 15:20 16.12.2021
6415 Clear -29 1029 69 10000 0 0 13:43 16.12.2021
6416 Clear -25 1029 70 10000 2 0 11:46 16.12.2021
6417 Clear -25 1029 70 10000 2 0 11:18 16.12.2021
6418 Clear -26 1029 76 10000 3 170 10:27 16.12.2021
6419 Clear -21 1029 59 10000 3 190 08:56 16.12.2021
6420 Clear -21 1029 59 10000 2 0 06:22 16.12.2021
6421 Clear -28 1029 76 10000 0 0 02:59 16.12.2021
6422 Clear -33 1027 62 10000 2 0 23:35 15.12.2021
6423 Clear -32 1026 62 10000 2 0 22:48 15.12.2021
6424 Clear -33 1026 68 10000 2 0 21:58 15.12.2021
6425 Clear -33 1026 68 10000 2 0 21:28 15.12.2021
6426 Clear -31 1026 69 10000 0 0 20:31 15.12.2021
6427 Clear -25 1025 70 10000 2 0 19:52 15.12.2021
6428 Clouds -25 1025 70 10000 2 0 18:39 15.12.2021
6429 Clouds -22 1024 59 10000 3 350 17:57 15.12.2021
6430 Clouds -22 1024 59 10000 3 350 17:39 15.12.2021
6431 Clouds -22 1024 59 10000 3 340 16:35 15.12.2021
6432 Clouds -20 1023 59 10000 4 30 15:47 15.12.2021
6433 Clouds -20 1023 59 10000 4 30 15:47 15.12.2021
6434 Clouds -20 1023 59 10000 4 30 15:29 15.12.2021
6435 Clouds -20 1022 59 10000 3 330 14:43 15.12.2021
6436 Clouds -18 1021 55 10000 5 360 13:27 15.12.2021
6437 Clouds -17 1018 55 10000 4 340 10:49 15.12.2021
6438 Clouds -16 1016 55 10000 6 350 09:28 15.12.2021
6439 Clouds -15 1015 61 10000 6 350 07:47 15.12.2021
6440 Mist -15 1012 78 3000 1 0 02:40 15.12.2021
6441 Snow -17 1009 78 6000 1 0 23:44 14.12.2021
6442 Snow -17 1009 71 8000 1 0 22:49 14.12.2021
6443 Snow -17 1009 71 8000 1 0 22:49 14.12.2021
6444 Snow -17 1009 71 8000 1 0 22:49 14.12.2021
6445 Snow -17 1009 71 8000 1 0 22:30 14.12.2021
6446 Snow -18 1009 78 8000 0 0 21:24 14.12.2021
6447 Clouds -22 1009 77 10000 0 0 19:44 14.12.2021
6448 Clouds -22 1009 77 10000 0 0 19:21 14.12.2021
6449 Clouds -23 1009 77 10000 0 0 18:34 14.12.2021
6450 Clouds -22 1009 77 10000 1 0 17:34 14.12.2021
6451 Clouds -23 1009 77 10000 0 0 16:43 14.12.2021
6452 Clouds -23 1010 77 10000 0 0 15:52 14.12.2021
6453 Clouds -21 1010 71 10000 1 0 13:33 14.12.2021
6454 Clouds -21 1010 77 10000 1 0 12:41 14.12.2021
6455 Clouds -21 1009 71 8000 1 0 11:24 14.12.2021
6456 Clouds -19 1009 71 8000 1 0 10:27 14.12.2021
6457 Clouds -14 1009 61 8000 1 0 09:53 14.12.2021
6458 Clouds -12 1009 56 8000 1 0 08:29 14.12.2021
6459 Clouds -13 1009 61 8000 2 0 07:59 14.12.2021
6460 Smoke -15 1010 61 5000 1 0 05:52 14.12.2021
6461 Clear -26 1010 76 10000 0 0 23:39 13.12.2021
6462 Clear -26 1010 76 10000 1 0 21:57 13.12.2021
6463 Clear -26 1010 76 10000 1 0 21:34 13.12.2021
6464 Clear -26 1010 76 10000 1 0 21:34 13.12.2021
6465 Clear -26 1010 70 10000 1 0 20:50 13.12.2021
6466 Clouds -25 1009 77 8000 1 0 19:59 13.12.2021
6467 Clouds -25 1009 77 8000 1 0 19:27 13.12.2021
6468 Clear -24 1009 70 10000 1 0 17:27 13.12.2021
6469 Clear -24 1009 70 10000 1 0 17:27 13.12.2021
6470 Clear -24 1009 70 10000 0 0 16:23 13.12.2021
6471 Clear -23 1008 70 10000 1 0 15:43 13.12.2021
6472 Clear -23 1008 70 10000 1 0 15:43 13.12.2021
6473 Clear -20 1008 71 10000 1 0 13:52 13.12.2021
6474 Clear -20 1008 71 10000 1 0 13:18 13.12.2021
6475 Clear -21 1007 71 10000 0 0 12:36 13.12.2021
6476 Clouds -18 1006 65 10000 2 0 11:40 13.12.2021
6477 Clouds -18 1006 65 10000 2 0 11:19 13.12.2021
6478 Clouds -17 1006 60 10000 0 0 10:21 13.12.2021
6479 Clear -10 1006 44 8000 1 0 08:31 13.12.2021
6480 Clouds -14 1007 56 6000 1 0 05:37 13.12.2021
6481 Clear -22 1008 71 6000 1 0 03:32 13.12.2021
6482 Clear -14 1020 73 10000 1.44 95 23:39 12.12.2021
6483 Clear -14 1021 73 10000 1.68 95 21:52 12.12.2021
6484 Clear -14 1021 73 10000 1.78 101 20:46 12.12.2021
6485 Clear -14 1022 72 10000 1.83 102 19:33 12.12.2021
6486 Clouds -14 1024 71 10000 1.79 104 17:46 12.12.2021
6487 Clear -14 1025 71 10000 1.96 105 16:28 12.12.2021
6488 Clear -22 1015 77 8000 1 0 15:51 12.12.2021
6489 Clear -22 1015 77 8000 1 0 15:26 12.12.2021
6490 Clear -23 1016 70 8000 1 0 14:37 12.12.2021
6491 Clouds -22 1017 71 8000 2 0 13:43 12.12.2021
6492 Clouds -21 1018 71 8000 1 0 12:37 12.12.2021
6493 Clouds -20 1018 71 8000 2 0 11:45 12.12.2021
6494 Clouds -20 1018 71 8000 2 0 11:25 12.12.2021
6495 Clouds -19 1019 71 8000 2 0 10:39 12.12.2021
6496 Clear -15 1019 61 8000 0 0 09:44 12.12.2021
6497 Clouds -13 1020 52 8000 1 0 08:38 12.12.2021
6498 Clouds -14 1023 56 8000 1 0 06:34 12.12.2021
6499 Clouds -18 1025 65 6000 1 0 05:27 12.12.2021
6500 Clouds -19 1026 71 6000 0 0 03:58 12.12.2021
6501 Clouds -17 1042 79 10000 1.26 77 00:42 12.12.2021
6502 Clear -26 1030 84 10000 0 0 22:42 11.12.2021
6503 Clear -26 1030 84 10000 0 0 22:19 11.12.2021
6504 Clear -28 1030 76 10000 1 0 21:22 11.12.2021
6505 Clear -28 1031 69 10000 0 0 19:40 11.12.2021
6506 Clear -28 1031 69 10000 0 0 19:20 11.12.2021
6507 Clear -25 1032 70 10000 0 0 18:38 11.12.2021
6508 Clear -24 1032 70 10000 1 0 17:41 11.12.2021
6509 Clear -25 1032 70 10000 3 130 15:57 11.12.2021
6510 Clear -24 1033 70 10000 1 0 15:35 11.12.2021
6511 Clear -24 1033 70 10000 3 160 13:46 11.12.2021
6512 Clear -23 1032 70 10000 3 150 11:58 11.12.2021
6513 Clear -18 1032 60 10000 0 0 10:24 11.12.2021
6514 Clear -16 1032 60 10000 1 0 09:37 11.12.2021
6515 Clear -22 1030 77 10000 3 170 03:25 11.12.2021
6516 Clouds -26 1028 100 10000 2 0 00:44 11.12.2021
6517 Clouds -24 1027 77 10000 2 0 23:39 10.12.2021
6518 Clouds -23 1026 77 10000 2 0 22:33 10.12.2021
6519 Clouds -23 1026 84 10000 3 160 21:37 10.12.2021
6520 Clouds -20 1025 77 10000 3 170 19:55 10.12.2021
6521 Clouds -20 1025 77 10000 3 170 19:18 10.12.2021
6522 Clouds -19 1025 78 10000 2 0 17:23 10.12.2021
6523 Clouds -19 1025 78 10000 2 0 16:34 10.12.2021
6524 Clouds -19 1025 84 10000 2 0 15:43 10.12.2021
6525 Clouds -19 1025 84 10000 2 0 15:23 10.12.2021
6526 Clouds -18 1025 78 10000 2 0 13:53 10.12.2021
6527 Clouds -18 1025 78 10000 2 0 13:31 10.12.2021
6528 Clouds -16 1025 85 10000 1 0 12:51 10.12.2021
6529 Clouds -17 1024 85 10000 1 0 11:36 10.12.2021
6530 Clouds -16 1024 85 10000 1 0 10:55 10.12.2021
6531 Clouds -10 1023 57 10000 4 330 09:33 10.12.2021
6532 Clouds -10 1023 67 10000 5 320 07:24 10.12.2021
6533 Clouds -10 1024 79 10000 4 330 04:32 10.12.2021
6534 Snow -10 1023 92 8000 2 0 02:29 10.12.2021
6535 Snow -12 1021 85 6000 1 0 23:39 09.12.2021
6536 Clouds -14 1021 85 6000 1 0 22:41 09.12.2021
6537 Clouds -14 1021 85 6000 1 0 22:21 09.12.2021
6538 Clouds -17 1021 85 6000 0 0 21:38 09.12.2021
6539 Clouds -18 1022 85 6000 1 0 20:34 09.12.2021
6540 Clouds -18 1022 85 6000 2 0 19:22 09.12.2021
6541 Clouds -18 1022 85 6000 1 0 18:59 09.12.2021
6542 Clouds -17 1022 85 6000 1 0 17:58 09.12.2021
6543 Clouds -17 1022 85 6000 1 0 17:29 09.12.2021
6544 Clouds -16 1022 85 8000 1 0 16:57 09.12.2021
6545 Clouds -16 1022 85 8000 1 0 16:25 09.12.2021
6546 Clouds -17 1023 85 10000 1 0 14:59 09.12.2021
6547 Clouds -17 1022 85 10000 1 0 13:52 09.12.2021
6548 Clear -18 1022 85 10000 2 0 12:47 09.12.2021
6549 Clear -17 1022 85 10000 2 0 11:29 09.12.2021
6550 Clear -13 1021 78 10000 2 0 10:20 09.12.2021
6551 Clear -7 1021 73 10000 2 0 06:59 09.12.2021
6552 Clouds -10 1021 73 10000 1 0 03:55 09.12.2021
6553 Clouds -15 1018 78 10000 3 150 00:25 09.12.2021
6554 Clear -14 1018 78 10000 2 0 23:36 08.12.2021
6555 Clear -16 1017 78 10000 3 160 22:57 08.12.2021
6556 Clear -17 1017 78 10000 1 0 21:50 08.12.2021
6557 Clear -17 1017 78 10000 1 0 21:32 08.12.2021
6558 Clear -18 1017 78 10000 2 0 20:48 08.12.2021
6559 Clear -18 1016 71 10000 1 0 19:55 08.12.2021
6560 Clear -18 1016 71 10000 2 0 18:58 08.12.2021
6561 Clear -18 1016 71 10000 2 0 18:22 08.12.2021
6562 Clear -17 1015 71 10000 3 160 16:49 08.12.2021
6563 Clear -15 1015 78 10000 1 0 15:41 08.12.2021
6564 Clear -15 1015 78 10000 1 0 15:22 08.12.2021
6565 Clouds -11 1014 67 10000 1 0 13:21 08.12.2021
6566 Clouds -12 1013 67 8000 1 0 10:44 08.12.2021
6567 Clouds -7 1013 53 8000 1 0 09:32 08.12.2021
6568 Clouds -7 1013 53 8000 0 0 08:31 08.12.2021
6569 Clouds -9 1014 53 8000 1 0 05:37 08.12.2021
6570 Clouds -11 1026 69 10000 2.45 105 00:27 08.12.2021
6571 Clouds -11 1026 70 10000 2.41 104 23:22 07.12.2021
6572 Clouds -11 1027 72 10000 2.33 100 21:25 07.12.2021
6573 Clouds -11 1028 72 10000 2.34 97 20:25 07.12.2021
6574 Clear -11 1028 74 10000 2.17 98 18:59 07.12.2021
6575 Clear -11 1029 74 10000 2.13 97 18:21 07.12.2021
6576 Clear -11 1029 73 10000 2.25 93 17:24 07.12.2021
6577 Clear -11 1029 73 10000 2.25 93 16:53 07.12.2021
6578 Clear -10 1029 74 10000 2.1 95 16:25 07.12.2021
6579 Clear -10 1029 73 10000 2 95 14:38 07.12.2021
6580 Clear -18 1020 78 10000 1 0 13:40 07.12.2021
6581 Clear -16 1020 78 10000 1 0 12:22 07.12.2021
6582 Clear -16 1019 78 10000 2 0 11:19 07.12.2021
6583 Clouds -7 1019 53 8000 1 0 09:36 07.12.2021
6584 Clouds -7 1020 53 6000 1 0 07:35 07.12.2021
6585 Clouds -10 1021 57 6000 1 0 05:51 07.12.2021
6586 Clouds -11 1021 57 6000 1 0 05:26 07.12.2021
6587 Clear -19 1021 84 10000 1 0 23:24 06.12.2021
6588 Clear -19 1021 78 10000 0 0 22:40 06.12.2021
6589 Clear -20 1022 77 10000 1 0 21:59 06.12.2021
6590 Clear -20 1022 77 10000 1 0 21:59 06.12.2021
6591 Clear -20 1022 77 10000 1 0 21:31 06.12.2021
6592 Clouds -10 1030 71 10000 2.34 94 20:32 06.12.2021
6593 Clouds -11 1031 74 10000 2.13 92 19:24 06.12.2021
6594 Clouds -11 1031 74 10000 2.13 92 18:40 06.12.2021
6595 Clouds -11 1031 76 10000 2.09 92 17:54 06.12.2021
6596 Clouds -11 1031 76 10000 2.09 92 17:33 06.12.2021
6597 Clear -19 1022 84 10000 2 0 15:51 06.12.2021
6598 Clear -18 1022 78 10000 0 0 14:38 06.12.2021
6599 Clear -17 1022 85 10000 2 0 13:28 06.12.2021
6600 Clear -16 1022 78 10000 1 0 12:37 06.12.2021
6601 Clear -14 1022 72 10000 3 160 10:23 06.12.2021
6602 Clear -6 1022 53 8000 1 0 07:40 06.12.2021
6603 Clear -11 1035 76 10000 2.37 103 02:26 06.12.2021
6604 Clear -22 1027 77 8000 0 0 22:25 05.12.2021
6605 Clear -22 1028 77 8000 1 0 21:25 05.12.2021
6606 Clear -20 1028 84 8000 1 0 20:43 05.12.2021
6607 Clear -20 1028 84 8000 1 0 20:18 05.12.2021
6608 Clear -21 1027 77 8000 1 0 19:23 05.12.2021
6609 Clear -21 1027 77 8000 1 0 18:28 05.12.2021
6610 Clear -18 1027 78 10000 1 0 17:49 05.12.2021
6611 Clear -18 1027 78 10000 1 0 17:18 05.12.2021
6612 Clear -18 1027 85 10000 1 0 16:28 05.12.2021
6613 Clear -18 1027 85 10000 0 0 15:59 05.12.2021
6614 Clear -18 1026 78 10000 3 170 14:48 05.12.2021
6615 Clear -18 1026 78 10000 3 170 14:29 05.12.2021
6616 Clear -17 1026 78 10000 2 0 13:33 05.12.2021
6617 Clear -16 1026 78 10000 1 0 12:43 05.12.2021
6618 Clear -16 1025 78 10000 2 0 12:25 05.12.2021
6619 Clear -15 1025 72 10000 2 0 11:43 05.12.2021
6620 Clear -8 1024 62 10000 1 0 10:24 05.12.2021
6621 Clear -6 1024 53 10000 0 0 09:35 05.12.2021
6622 Clouds -10 1021 57 8000 0 0 04:57 05.12.2021
6623 Clear -22 1018 77 8000 2 0 01:24 05.12.2021
6624 Clear -22 1017 77 10000 1 0 22:44 04.12.2021
6625 Clear -20 1016 77 10000 1 0 21:37 04.12.2021
6626 Clear -18 1016 71 10000 0 0 20:46 04.12.2021
6627 Clear -21 1015 77 10000 1 0 19:43 04.12.2021
6628 Clear -21 1015 77 10000 1 0 19:23 04.12.2021
6629 Clear -18 1014 78 10000 1 0 17:52 04.12.2021
6630 Clear -18 1014 78 10000 1 0 17:22 04.12.2021
6631 Clouds -16 1014 78 8000 1 0 16:46 04.12.2021
6632 Clouds -16 1014 78 8000 1 0 16:27 04.12.2021
6633 Clouds -17 1013 71 8000 2 0 12:57 04.12.2021
6634 Clouds -13 1013 66 6000 1 0 11:40 04.12.2021
6635 Clouds -15 1013 72 8000 3 170 10:59 04.12.2021
6636 Clear -9 1014 57 6000 3 170 09:44 04.12.2021
6637 Clear -6 1014 49 6000 1 0 08:35 04.12.2021
6638 Clouds -13 1018 66 6000 1 0 04:43 04.12.2021
6639 Clouds -16 1018 78 6000 0 0 03:36 04.12.2021
6640 Clear -10 1027 69 10000 1.58 100 23:47 03.12.2021
6641 Clear -20 1020 77 10000 2 0 22:53 03.12.2021
6642 Clear -20 1020 84 10000 1 0 21:57 03.12.2021
6643 Clear -20 1020 84 10000 1 0 21:23 03.12.2021
6644 Clear -10 1028 69 10000 1.56 87 20:42 03.12.2021
6645 Clear -19 1021 78 10000 2 160 19:28 03.12.2021
6646 Clear -19 1021 71 10000 1 0 18:24 03.12.2021
6647 Clear -18 1021 78 10000 1 0 17:31 03.12.2021
6648 Clear -17 1022 71 10000 1 0 13:40 03.12.2021
6649 Clear -16 1022 72 10000 1 0 12:44 03.12.2021
6650 Clear -16 1021 72 10000 2 150 11:23 03.12.2021
6651 Clear -5 1021 50 10000 1 0 09:22 03.12.2021
6652 Clear -5 1021 54 10000 2 0 08:20 03.12.2021
6653 Clear -6 1022 53 8000 1 0 06:44 03.12.2021
6654 Clear -21 1021 77 10000 2 0 00:50 03.12.2021
6655 Clear -21 1021 84 10000 1 0 00:21 03.12.2021
6656 Clear -19 1021 78 10000 1 0 23:38 02.12.2021
6657 Clear -20 1021 84 10000 2 0 21:41 02.12.2021
6658 Clear -20 1021 84 10000 2 0 21:41 02.12.2021
6659 Clear -20 1021 77 10000 2 0 20:46 02.12.2021
6660 Clear -20 1021 77 10000 2 0 20:26 02.12.2021
6661 Clear -19 1020 78 10000 0 0 19:23 02.12.2021
6662 Clear -19 1020 71 10000 0 0 17:30 02.12.2021
6663 Clear -18 1020 78 10000 2 0 15:41 02.12.2021
6664 Clear -17 1020 78 10000 1 0 14:57 02.12.2021
6665 Clear -14 1020 72 10000 2 0 13:45 02.12.2021
6666 Clear -16 1020 78 10000 4 170 12:52 02.12.2021
6667 Clear -16 1019 78 10000 1 0 11:53 02.12.2021
6668 Clear -3 1019 46 10000 0 0 09:28 02.12.2021
6669 Clear -3 1019 46 10000 5 310 08:20 02.12.2021
6670 Clear -6 1019 58 10000 0 0 03:33 02.12.2021
6671 Clear -17 1016 78 10000 2 0 00:51 02.12.2021
6672 Clear -17 1016 71 10000 1 0 22:41 01.12.2021
6673 Clear -17 1016 71 10000 1 0 22:23 01.12.2021
6674 Clear -15 1017 72 10000 2 0 20:35 01.12.2021
6675 Clear -20 1017 77 10000 1 0 19:51 01.12.2021
6676 Clear -20 1017 77 10000 1 0 19:21 01.12.2021
6677 Clear -19 1018 78 10000 1 0 17:42 01.12.2021
6678 Clear -20 1019 77 10000 1 0 16:38 01.12.2021
6679 Clear -22 1019 84 10000 2 0 14:49 01.12.2021
6680 Clear -18 1019 85 10000 1 0 13:44 01.12.2021
6681 Clear -18 1020 71 10000 1 0 11:42 01.12.2021
6682 Clear -14 1020 72 10000 0 0 10:42 01.12.2021
6683 Clear -9 1021 57 10000 1 0 08:55 01.12.2021
6684 Clouds -9 1021 57 8000 1 0 08:26 01.12.2021
6685 Clouds -10 1021 62 8000 1 0 07:33 01.12.2021
6686 Clouds -16 1023 78 6000 1 0 04:22 01.12.2021
6687 Clouds -18 1023 78 6000 1 0 03:39 01.12.2021
6688 Clear -14 1034 85 10000 0.99 84 00:51 01.12.2021
6689 Clear -23 1022 77 10000 1 0 23:37 30.11.2021
6690 Clear -24 1023 70 10000 2 0 22:48 30.11.2021
6691 Clear -24 1024 77 10000 0 0 20:59 30.11.2021
6692 Clear -24 1024 77 10000 0 0 20:34 30.11.2021
6693 Clear -23 1024 77 10000 0 0 19:53 30.11.2021
6694 Clear -23 1024 77 10000 0 0 19:27 30.11.2021
6695 Clear -23 1024 77 10000 1 0 18:24 30.11.2021
6696 Clear -23 1024 77 10000 2 0 16:25 30.11.2021
6697 Clear -23 1024 77 10000 1 0 14:35 30.11.2021
6698 Clear -21 1024 77 10000 2 0 13:52 30.11.2021
6699 Clear -21 1024 77 10000 2 0 13:24 30.11.2021
6700 Clear -21 1024 77 10000 2 0 13:24 30.11.2021
6701 Clear -21 1024 71 10000 1 0 12:44 30.11.2021
6702 Clear -21 1024 77 10000 0 0 11:27 30.11.2021
6703 Clear -20 1024 71 10000 1 0 10:47 30.11.2021
6704 Clear -15 1024 66 10000 0 0 10:29 30.11.2021
6705 Clear -11 1024 62 10000 2 0 08:51 30.11.2021
6706 Clear -10 1024 57 10000 2 0 08:20 30.11.2021
6707 Clear -10 1025 57 10000 2 0 07:39 30.11.2021
6708 Clouds -26 1027 70 8000 1 0 01:52 30.11.2021
6709 Clouds -16 1039 92 10000 0.61 94 01:32 30.11.2021
6710 Clear -26 1026 70 10000 2 160 23:57 29.11.2021
6711 Clouds -16 1040 96 10000 0.39 66 23:21 29.11.2021
6712 Clear -26 1027 76 10000 1 0 22:44 29.11.2021
6713 Clear -26 1027 76 10000 1 0 22:25 29.11.2021
6714 Clear -26 1027 70 10000 1 0 21:22 29.11.2021
6715 Clear -25 1027 77 10000 1 0 20:56 29.11.2021
6716 Clear -25 1027 77 10000 1 0 20:22 29.11.2021
6717 Clear -25 1027 77 10000 1 0 19:44 29.11.2021
6718 Clear -25 1027 77 10000 1 0 19:44 29.11.2021
6719 Clear -25 1027 77 10000 1 0 19:26 29.11.2021
6720 Clouds -17 1041 99 8679 0.27 164 18:47 29.11.2021
6721 Clouds -16 1042 99 7158 0.43 181 17:22 29.11.2021
6722 Clouds -16 1042 99 7158 0.43 181 16:56 29.11.2021
6723 Clouds -16 1042 100 5657 0.65 185 16:25 29.11.2021
6724 Clouds -16 1042 99 6022 0.27 153 15:24 29.11.2021
6725 Clouds -16 1042 99 6022 0.27 153 14:41 29.11.2021
6726 Clouds -15 1041 99 8266 0.54 19 13:25 29.11.2021
6727 Clouds -15 1040 98 8909 0.95 357 12:20 29.11.2021
6728 Clouds -15 1040 98 8909 0.95 357 11:31 29.11.2021
6729 Clouds -14 1038 97 10000 1.39 316 10:27 29.11.2021
6730 Clear -9 1025 67 10000 4 300 08:30 29.11.2021
6731 Clear -10 1025 73 10000 1 0 05:54 29.11.2021
6732 Clouds -20 1022 77 10000 1 0 01:31 29.11.2021
6733 Clouds -18 1022 78 10000 1 0 00:35 29.11.2021
6734 Snow -19 1022 78 10000 0 0 23:41 28.11.2021
6735 Snow -17 1022 85 10000 1 0 22:30 28.11.2021
6736 Snow -17 1023 85 10000 1 0 21:41 28.11.2021
6737 Snow -17 1023 85 10000 1 0 21:41 28.11.2021
6738 Clear -18 1023 85 10000 1 0 20:51 28.11.2021
6739 Clear -18 1023 85 10000 1 0 19:54 28.11.2021
6740 Clear -22 1024 77 10000 1 0 18:42 28.11.2021
6741 Clear -22 1024 77 10000 1 0 18:23 28.11.2021
6742 Clear -22 1025 77 10000 1 0 17:46 28.11.2021
6743 Clear -22 1025 77 10000 1 0 17:18 28.11.2021
6744 Clear -22 1025 77 10000 2 0 16:28 28.11.2021
6745 Clear -20 1026 71 10000 1 0 15:51 28.11.2021
6746 Clear -20 1026 71 10000 1 0 14:56 28.11.2021
6747 Clear -18 1026 85 10000 1 0 14:29 28.11.2021
6748 Clear -16 1027 78 10000 1 0 12:54 28.11.2021
6749 Clear -18 1027 78 10000 3 190 11:56 28.11.2021
6750 Clear -15 1027 72 10000 4 170 10:37 28.11.2021
6751 Clear -15 1027 72 10000 4 170 10:18 28.11.2021
6752 Clear -11 1027 62 10000 2 0 09:36 28.11.2021
6753 Clear -11 1029 67 10000 3 290 05:23 28.11.2021
6754 Clouds -11 1025 79 10000 4 310 22:58 27.11.2021
6755 Snow -10 1024 85 8000 3 330 20:28 27.11.2021
6756 Snow -9 1023 79 5000 4 330 18:44 27.11.2021
6757 Snow -9 1022 86 8000 4 300 16:19 27.11.2021
6758 Snow -8 1022 79 6000 2 0 15:32 27.11.2021
6759 Snow -7 1021 79 10000 4 360 13:41 27.11.2021
6760 Clouds -7 1020 79 10000 4 340 12:27 27.11.2021
6761 Clouds -5 1018 74 10000 5 340 10:30 27.11.2021
6762 Clouds -3 1017 68 10000 4 350 09:41 27.11.2021
6763 Clear -2 1016 59 10000 2 0 07:44 27.11.2021
6764 Clouds -9 1016 73 8000 1 0 04:55 27.11.2021
6765 Clear -18 1014 85 10000 0 0 00:31 27.11.2021
6766 Clouds -9 1023 83 10000 1.81 54 22:52 26.11.2021
6767 Clouds -9 1023 83 10000 1.74 65 22:24 26.11.2021
6768 Clear -17 1014 85 10000 1 0 21:34 26.11.2021
6769 Clear -16 1014 78 10000 1 0 20:45 26.11.2021
6770 Clear -17 1014 85 10000 2 0 19:56 26.11.2021
6771 Clear -17 1014 85 10000 2 0 19:28 26.11.2021
6772 Clear -16 1014 85 10000 1 0 17:55 26.11.2021
6773 Clear -16 1014 85 10000 1 0 17:21 26.11.2021
6774 Clear -16 1014 78 10000 1 0 15:56 26.11.2021
6775 Clear -12 1014 85 10000 1 0 13:35 26.11.2021
6776 Clear -14 1014 78 10000 1 0 12:30 26.11.2021
6777 Clear -12 1013 79 10000 1 0 10:37 26.11.2021
6778 Clear -4 1013 58 10000 1 0 08:58 26.11.2021
6779 Clear -2 1013 50 10000 1 0 08:21 26.11.2021
6780 Clouds -3 1014 54 8000 1 0 07:26 26.11.2021
6781 Clouds -4 1014 54 8000 1 0 06:26 26.11.2021
6782 Clouds -11 1017 79 8000 0 0 03:59 26.11.2021
6783 Clouds -9 1026 81 10000 2.59 106 01:55 26.11.2021
6784 Clear -10 1028 82 10000 2.44 104 23:18 25.11.2021
6785 Clear -10 1029 81 10000 2.36 109 21:26 25.11.2021
6786 Clear -9 1029 80 10000 2.37 112 20:27 25.11.2021
6787 Clear -18 1021 85 10000 0 0 18:48 25.11.2021
6788 Clear -19 1021 84 10000</